<?xml version="1.0"?>
<gpx
 version="1.1"
 creator="Satmap Active 20"
 xmlns:xsi="http://www.w3.org/2001/XMLSchema-instance"
 xmlns="http://www.topografix.com/GPX/1/1"
 xmlns:satmap="http://www.satmap.com/updates/xmlschemas/GpxExtensions/v2/GpxExtensions_v2.xsd"
 xsi:schemaLocation="http://www.topografix.com/GPX/1/1 http://www.topografix.com/GPX/1/1/gpx.xsd">
<metadata>
<time>2022-10-20T09:36:54Z</time>
<extensions>
<satmap:platform>43</satmap:platform>
<satmap:software version="3.12.831">SM15.exe</satmap:software>
<satmap:username>Jim Grant</satmap:username>
<satmap:network_ids>
<satmap:network_id type="wifi">00-23-A7-EC-D5-78</satmap:network_id>
<satmap:network_id type="bluetooth">80-BB-EB-D7-5B-7C</satmap:network_id>
</satmap:network_ids>
<satmap:snap_type>simple</satmap:snap_type>
</extensions>
</metadata>
<trk>
<name>2022-10-20_0937</name>
<desc>Track 1</desc>
<number>1</number>
<trkseg>
<trkpt lat="53.228208" lon="-4.005325"><ele>64</ele><time>2022-10-20T09:36:54Z</time><name>PT1</name></trkpt>
<trkpt lat="53.228203" lon="-4.005321"><ele>64</ele><time>2022-10-20T09:37:15Z</time><name>PT2</name></trkpt>
<trkpt lat="53.228174" lon="-4.005282"><ele>67</ele><time>2022-10-20T09:37:18Z</time><name>PT3</name></trkpt>
<trkpt lat="53.228175" lon="-4.005272"><ele>68</ele><time>2022-10-20T09:37:22Z</time><name>PT4</name></trkpt>
<trkpt lat="53.228171" lon="-4.005281"><ele>68</ele><time>2022-10-20T09:37:27Z</time><name>PT5</name></trkpt>
<trkpt lat="53.228165" lon="-4.005257"><ele>67</ele><time>2022-10-20T09:37:30Z</time><name>PT6</name></trkpt>
<trkpt lat="53.228160" lon="-4.005217"><ele>67</ele><time>2022-10-20T09:37:33Z</time><name>PT7</name></trkpt>
<trkpt lat="53.228174" lon="-4.005172"><ele>67</ele><time>2022-10-20T09:37:36Z</time><name>PT8</name></trkpt>
<trkpt lat="53.228178" lon="-4.005147"><ele>68</ele><time>2022-10-20T09:37:40Z</time><name>PT9</name></trkpt>
<trkpt lat="53.228185" lon="-4.005102"><ele>67</ele><time>2022-10-20T09:37:45Z</time><name>PT10</name></trkpt>
<trkpt lat="53.228200" lon="-4.005060"><ele>67</ele><time>2022-10-20T09:37:48Z</time><name>PT11</name></trkpt>
<trkpt lat="53.228219" lon="-4.005032"><ele>69</ele><time>2022-10-20T09:37:51Z</time><name>PT12</name></trkpt>
<trkpt lat="53.228230" lon="-4.004997"><ele>68</ele><time>2022-10-20T09:37:54Z</time><name>PT13</name></trkpt>
<trkpt lat="53.228241" lon="-4.004960"><ele>68</ele><time>2022-10-20T09:37:57Z</time><name>PT14</name></trkpt>
<trkpt lat="53.228253" lon="-4.004902"><ele>66</ele><time>2022-10-20T09:38:01Z</time><name>PT15</name></trkpt>
<trkpt lat="53.228267" lon="-4.004820"><ele>67</ele><time>2022-10-20T09:38:06Z</time><name>PT16</name></trkpt>
<trkpt lat="53.228276" lon="-4.004776"><ele>66</ele><time>2022-10-20T09:38:09Z</time><name>PT17</name></trkpt>
<trkpt lat="53.228278" lon="-4.004711"><ele>67</ele><time>2022-10-20T09:38:12Z</time><name>PT18</name></trkpt>
<trkpt lat="53.228285" lon="-4.004645"><ele>66</ele><time>2022-10-20T09:38:15Z</time><name>PT19</name></trkpt>
<trkpt lat="53.228283" lon="-4.004563"><ele>67</ele><time>2022-10-20T09:38:19Z</time><name>PT20</name></trkpt>
<trkpt lat="53.228278" lon="-4.004503"><ele>68</ele><time>2022-10-20T09:38:22Z</time><name>PT21</name></trkpt>
<trkpt lat="53.228275" lon="-4.004458"><ele>68</ele><time>2022-10-20T09:38:25Z</time><name>PT22</name></trkpt>
<trkpt lat="53.228277" lon="-4.004399"><ele>70</ele><time>2022-10-20T09:38:30Z</time><name>PT23</name></trkpt>
<trkpt lat="53.228275" lon="-4.004346"><ele>71</ele><time>2022-10-20T09:38:33Z</time><name>PT24</name></trkpt>
<trkpt lat="53.228269" lon="-4.004298"><ele>73</ele><time>2022-10-20T09:38:37Z</time><name>PT25</name></trkpt>
<trkpt lat="53.228268" lon="-4.004293"><ele>73</ele><time>2022-10-20T09:38:42Z</time><name>PT26</name></trkpt>
<trkpt lat="53.228265" lon="-4.004269"><ele>73</ele><time>2022-10-20T09:38:45Z</time><name>PT27</name></trkpt>
<trkpt lat="53.228262" lon="-4.004226"><ele>71</ele><time>2022-10-20T09:38:48Z</time><name>PT28</name></trkpt>
<trkpt lat="53.228254" lon="-4.004176"><ele>70</ele><time>2022-10-20T09:38:51Z</time><name>PT29</name></trkpt>
<trkpt lat="53.228247" lon="-4.004142"><ele>71</ele><time>2022-10-20T09:38:54Z</time><name>PT30</name></trkpt>
<trkpt lat="53.228212" lon="-4.004134"><ele>70</ele><time>2022-10-20T09:38:57Z</time><name>PT31</name></trkpt>
<trkpt lat="53.228194" lon="-4.004106"><ele>69</ele><time>2022-10-20T09:39:00Z</time><name>PT32</name></trkpt>
<trkpt lat="53.228151" lon="-4.004082"><ele>68</ele><time>2022-10-20T09:39:04Z</time><name>PT33</name></trkpt>
<trkpt lat="53.228110" lon="-4.004040"><ele>69</ele><time>2022-10-20T09:39:09Z</time><name>PT34</name></trkpt>
<trkpt lat="53.228091" lon="-4.003995"><ele>69</ele><time>2022-10-20T09:39:12Z</time><name>PT35</name></trkpt>
<trkpt lat="53.228039" lon="-4.003925"><ele>73</ele><time>2022-10-20T09:39:15Z</time><name>PT36</name></trkpt>
<trkpt lat="53.228014" lon="-4.003852"><ele>77</ele><time>2022-10-20T09:39:18Z</time><name>PT37</name></trkpt>
<trkpt lat="53.227977" lon="-4.003802"><ele>78</ele><time>2022-10-20T09:39:21Z</time><name>PT38</name></trkpt>
<trkpt lat="53.227969" lon="-4.003787"><ele>77</ele><time>2022-10-20T09:39:25Z</time><name>PT39</name></trkpt>
<trkpt lat="53.227954" lon="-4.003770"><ele>79</ele><time>2022-10-20T09:39:30Z</time><name>PT40</name></trkpt>
<trkpt lat="53.227927" lon="-4.003735"><ele>80</ele><time>2022-10-20T09:39:33Z</time><name>PT41</name></trkpt>
<trkpt lat="53.227908" lon="-4.003698"><ele>80</ele><time>2022-10-20T09:39:36Z</time><name>PT42</name></trkpt>
<trkpt lat="53.227916" lon="-4.003710"><ele>79</ele><time>2022-10-20T09:39:40Z</time><name>PT43</name></trkpt>
<trkpt lat="53.227918" lon="-4.003709"><ele>79</ele><time>2022-10-20T09:39:45Z</time><name>PT44</name></trkpt>
<trkpt lat="53.227910" lon="-4.003697"><ele>80</ele><time>2022-10-20T09:39:48Z</time><name>PT45</name></trkpt>
<trkpt lat="53.227893" lon="-4.003660"><ele>80</ele><time>2022-10-20T09:39:51Z</time><name>PT46</name></trkpt>
<trkpt lat="53.227891" lon="-4.003612"><ele>81</ele><time>2022-10-20T09:39:55Z</time><name>PT47</name></trkpt>
<trkpt lat="53.227877" lon="-4.003554"><ele>82</ele><time>2022-10-20T09:40:00Z</time><name>PT48</name></trkpt>
<trkpt lat="53.227863" lon="-4.003513"><ele>82</ele><time>2022-10-20T09:40:03Z</time><name>PT49</name></trkpt>
<trkpt lat="53.227846" lon="-4.003470"><ele>83</ele><time>2022-10-20T09:40:06Z</time><name>PT50</name></trkpt>
<trkpt lat="53.227858" lon="-4.003423"><ele>83</ele><time>2022-10-20T09:40:09Z</time><name>PT51</name></trkpt>
<trkpt lat="53.227849" lon="-4.003365"><ele>84</ele><time>2022-10-20T09:40:12Z</time><name>PT52</name></trkpt>
<trkpt lat="53.227839" lon="-4.003299"><ele>85</ele><time>2022-10-20T09:40:16Z</time><name>PT53</name></trkpt>
<trkpt lat="53.227836" lon="-4.003252"><ele>85</ele><time>2022-10-20T09:40:19Z</time><name>PT54</name></trkpt>
<trkpt lat="53.227840" lon="-4.003211"><ele>84</ele><time>2022-10-20T09:40:24Z</time><name>PT55</name></trkpt>
<trkpt lat="53.227848" lon="-4.003169"><ele>85</ele><time>2022-10-20T09:40:27Z</time><name>PT56</name></trkpt>
<trkpt lat="53.227865" lon="-4.003146"><ele>83</ele><time>2022-10-20T09:40:30Z</time><name>PT57</name></trkpt>
<trkpt lat="53.227882" lon="-4.003127"><ele>83</ele><time>2022-10-20T09:40:33Z</time><name>PT58</name></trkpt>
<trkpt lat="53.227894" lon="-4.003105"><ele>81</ele><time>2022-10-20T09:40:36Z</time><name>PT59</name></trkpt>
<trkpt lat="53.227900" lon="-4.003067"><ele>81</ele><time>2022-10-20T09:40:39Z</time><name>PT60</name></trkpt>
<trkpt lat="53.227924" lon="-4.003011"><ele>80</ele><time>2022-10-20T09:40:43Z</time><name>PT61</name></trkpt>
<trkpt lat="53.227940" lon="-4.002958"><ele>81</ele><time>2022-10-20T09:40:48Z</time><name>PT62</name></trkpt>
<trkpt lat="53.227955" lon="-4.002922"><ele>81</ele><time>2022-10-20T09:40:51Z</time><name>PT63</name></trkpt>
<trkpt lat="53.227947" lon="-4.002815"><ele>89</ele><time>2022-10-20T09:40:54Z</time><name>PT64</name></trkpt>
<trkpt lat="53.227944" lon="-4.002780"><ele>92</ele><time>2022-10-20T09:40:57Z</time><name>PT65</name></trkpt>
<trkpt lat="53.227968" lon="-4.002709"><ele>91</ele><time>2022-10-20T09:41:00Z</time><name>PT66</name></trkpt>
<trkpt lat="53.227984" lon="-4.002597"><ele>90</ele><time>2022-10-20T09:41:03Z</time><name>PT67</name></trkpt>
<trkpt lat="53.228012" lon="-4.002543"><ele>90</ele><time>2022-10-20T09:41:07Z</time><name>PT68</name></trkpt>
<trkpt lat="53.228009" lon="-4.002517"><ele>89</ele><time>2022-10-20T09:41:10Z</time><name>PT69</name></trkpt>
<trkpt lat="53.228028" lon="-4.002455"><ele>88</ele><time>2022-10-20T09:41:15Z</time><name>PT70</name></trkpt>
<trkpt lat="53.228042" lon="-4.002382"><ele>89</ele><time>2022-10-20T09:41:18Z</time><name>PT71</name></trkpt>
<trkpt lat="53.228043" lon="-4.002310"><ele>91</ele><time>2022-10-20T09:41:21Z</time><name>PT72</name></trkpt>
<trkpt lat="53.228062" lon="-4.002269"><ele>91</ele><time>2022-10-20T09:41:24Z</time><name>PT73</name></trkpt>
<trkpt lat="53.228071" lon="-4.002208"><ele>90</ele><time>2022-10-20T09:41:28Z</time><name>PT74</name></trkpt>
<trkpt lat="53.228073" lon="-4.002132"><ele>91</ele><time>2022-10-20T09:41:33Z</time><name>PT75</name></trkpt>
<trkpt lat="53.228079" lon="-4.002060"><ele>93</ele><time>2022-10-20T09:41:36Z</time><name>PT76</name></trkpt>
<trkpt lat="53.228069" lon="-4.001980"><ele>94</ele><time>2022-10-20T09:41:39Z</time><name>PT77</name></trkpt>
<trkpt lat="53.228067" lon="-4.001908"><ele>95</ele><time>2022-10-20T09:41:43Z</time><name>PT78</name></trkpt>
<trkpt lat="53.228053" lon="-4.001847"><ele>98</ele><time>2022-10-20T09:41:46Z</time><name>PT79</name></trkpt>
<trkpt lat="53.228049" lon="-4.001837"><ele>99</ele><time>2022-10-20T09:41:49Z</time><name>PT80</name></trkpt>
<trkpt lat="53.228050" lon="-4.001781"><ele>103</ele><time>2022-10-20T09:41:54Z</time><name>PT81</name></trkpt>
<trkpt lat="53.228050" lon="-4.001711"><ele>102</ele><time>2022-10-20T09:41:57Z</time><name>PT82</name></trkpt>
<trkpt lat="53.228051" lon="-4.001654"><ele>102</ele><time>2022-10-20T09:42:00Z</time><name>PT83</name></trkpt>
<trkpt lat="53.228052" lon="-4.001579"><ele>101</ele><time>2022-10-20T09:42:04Z</time><name>PT84</name></trkpt>
<trkpt lat="53.228046" lon="-4.001532"><ele>101</ele><time>2022-10-20T09:42:07Z</time><name>PT85</name></trkpt>
<trkpt lat="53.228035" lon="-4.001499"><ele>98</ele><time>2022-10-20T09:42:10Z</time><name>PT86</name></trkpt>
<trkpt lat="53.228013" lon="-4.001441"><ele>99</ele><time>2022-10-20T09:42:13Z</time><name>PT87</name></trkpt>
<trkpt lat="53.227978" lon="-4.001378"><ele>99</ele><time>2022-10-20T09:42:18Z</time><name>PT88</name></trkpt>
<trkpt lat="53.227958" lon="-4.001336"><ele>99</ele><time>2022-10-20T09:42:21Z</time><name>PT89</name></trkpt>
<trkpt lat="53.227953" lon="-4.001285"><ele>99</ele><time>2022-10-20T09:42:24Z</time><name>PT90</name></trkpt>
<trkpt lat="53.227926" lon="-4.001225"><ele>98</ele><time>2022-10-20T09:42:27Z</time><name>PT91</name></trkpt>
<trkpt lat="53.227910" lon="-4.001151"><ele>98</ele><time>2022-10-20T09:42:31Z</time><name>PT92</name></trkpt>
<trkpt lat="53.227906" lon="-4.001117"><ele>99</ele><time>2022-10-20T09:42:34Z</time><name>PT93</name></trkpt>
<trkpt lat="53.227895" lon="-4.001071"><ele>98</ele><time>2022-10-20T09:42:37Z</time><name>PT94</name></trkpt>
<trkpt lat="53.227890" lon="-4.001013"><ele>97</ele><time>2022-10-20T09:42:42Z</time><name>PT95</name></trkpt>
<trkpt lat="53.227892" lon="-4.000977"><ele>96</ele><time>2022-10-20T09:42:45Z</time><name>PT96</name></trkpt>
<trkpt lat="53.227896" lon="-4.000940"><ele>94</ele><time>2022-10-20T09:42:48Z</time><name>PT97</name></trkpt>
<trkpt lat="53.227902" lon="-4.000879"><ele>95</ele><time>2022-10-20T09:42:51Z</time><name>PT98</name></trkpt>
<trkpt lat="53.227894" lon="-4.000777"><ele>98</ele><time>2022-10-20T09:42:54Z</time><name>PT99</name></trkpt>
<trkpt lat="53.227878" lon="-4.000696"><ele>101</ele><time>2022-10-20T09:42:57Z</time><name>PT100</name></trkpt>
<trkpt lat="53.227875" lon="-4.000654"><ele>101</ele><time>2022-10-20T09:43:00Z</time><name>PT101</name></trkpt>
<trkpt lat="53.227862" lon="-4.000594"><ele>102</ele><time>2022-10-20T09:43:03Z</time><name>PT102</name></trkpt>
<trkpt lat="53.227858" lon="-4.000550"><ele>101</ele><time>2022-10-20T09:43:07Z</time><name>PT103</name></trkpt>
<trkpt lat="53.227853" lon="-4.000511"><ele>100</ele><time>2022-10-20T09:43:12Z</time><name>PT104</name></trkpt>
<trkpt lat="53.227817" lon="-4.000430"><ele>103</ele><time>2022-10-20T09:43:15Z</time><name>PT105</name></trkpt>
<trkpt lat="53.227783" lon="-4.000407"><ele>104</ele><time>2022-10-20T09:43:18Z</time><name>PT106</name></trkpt>
<trkpt lat="53.227770" lon="-4.000382"><ele>104</ele><time>2022-10-20T09:43:22Z</time><name>PT107</name></trkpt>
<trkpt lat="53.227761" lon="-4.000354"><ele>104</ele><time>2022-10-20T09:43:25Z</time><name>PT108</name></trkpt>
<trkpt lat="53.227736" lon="-4.000314"><ele>104</ele><time>2022-10-20T09:43:30Z</time><name>PT109</name></trkpt>
<trkpt lat="53.227705" lon="-4.000262"><ele>106</ele><time>2022-10-20T09:43:33Z</time><name>PT110</name></trkpt>
<trkpt lat="53.227676" lon="-4.000213"><ele>108</ele><time>2022-10-20T09:43:37Z</time><name>PT111</name></trkpt>
<trkpt lat="53.227664" lon="-4.000172"><ele>107</ele><time>2022-10-20T09:43:40Z</time><name>PT112</name></trkpt>
<trkpt lat="53.227641" lon="-4.000115"><ele>108</ele><time>2022-10-20T09:43:45Z</time><name>PT113</name></trkpt>
<trkpt lat="53.227611" lon="-4.000065"><ele>108</ele><time>2022-10-20T09:43:48Z</time><name>PT114</name></trkpt>
<trkpt lat="53.227585" lon="-4.000030"><ele>108</ele><time>2022-10-20T09:43:51Z</time><name>PT115</name></trkpt>
<trkpt lat="53.227563" lon="-3.999979"><ele>109</ele><time>2022-10-20T09:43:54Z</time><name>PT116</name></trkpt>
<trkpt lat="53.227546" lon="-3.999946"><ele>109</ele><time>2022-10-20T09:43:58Z</time><name>PT117</name></trkpt>
<trkpt lat="53.227526" lon="-3.999920"><ele>110</ele><time>2022-10-20T09:44:03Z</time><name>PT118</name></trkpt>
<trkpt lat="53.227505" lon="-3.999889"><ele>110</ele><time>2022-10-20T09:44:06Z</time><name>PT119</name></trkpt>
<trkpt lat="53.227486" lon="-3.999857"><ele>110</ele><time>2022-10-20T09:44:09Z</time><name>PT120</name></trkpt>
<trkpt lat="53.227452" lon="-3.999805"><ele>111</ele><time>2022-10-20T09:44:12Z</time><name>PT121</name></trkpt>
<trkpt lat="53.227435" lon="-3.999762"><ele>112</ele><time>2022-10-20T09:44:15Z</time><name>PT122</name></trkpt>
<trkpt lat="53.227406" lon="-3.999711"><ele>111</ele><time>2022-10-20T09:44:19Z</time><name>PT123</name></trkpt>
<trkpt lat="53.227372" lon="-3.999676"><ele>110</ele><time>2022-10-20T09:44:24Z</time><name>PT124</name></trkpt>
<trkpt lat="53.227350" lon="-3.999632"><ele>111</ele><time>2022-10-20T09:44:27Z</time><name>PT125</name></trkpt>
<trkpt lat="53.227336" lon="-3.999583"><ele>111</ele><time>2022-10-20T09:44:30Z</time><name>PT126</name></trkpt>
<trkpt lat="53.227318" lon="-3.999522"><ele>113</ele><time>2022-10-20T09:44:33Z</time><name>PT127</name></trkpt>
<trkpt lat="53.227292" lon="-3.999440"><ele>115</ele><time>2022-10-20T09:44:36Z</time><name>PT128</name></trkpt>
<trkpt lat="53.227291" lon="-3.999385"><ele>115</ele><time>2022-10-20T09:44:39Z</time><name>PT129</name></trkpt>
<trkpt lat="53.227296" lon="-3.999309"><ele>115</ele><time>2022-10-20T09:44:43Z</time><name>PT130</name></trkpt>
<trkpt lat="53.227291" lon="-3.999243"><ele>116</ele><time>2022-10-20T09:44:46Z</time><name>PT131</name></trkpt>
<trkpt lat="53.227286" lon="-3.999198"><ele>117</ele><time>2022-10-20T09:44:49Z</time><name>PT132</name></trkpt>
<trkpt lat="53.227289" lon="-3.999140"><ele>118</ele><time>2022-10-20T09:44:54Z</time><name>PT133</name></trkpt>
<trkpt lat="53.227285" lon="-3.999101"><ele>120</ele><time>2022-10-20T09:44:57Z</time><name>PT134</name></trkpt>
<trkpt lat="53.227285" lon="-3.999029"><ele>119</ele><time>2022-10-20T09:45:00Z</time><name>PT135</name></trkpt>
<trkpt lat="53.227280" lon="-3.998946"><ele>118</ele><time>2022-10-20T09:45:04Z</time><name>PT136</name></trkpt>
<trkpt lat="53.227278" lon="-3.998886"><ele>118</ele><time>2022-10-20T09:45:07Z</time><name>PT137</name></trkpt>
<trkpt lat="53.227283" lon="-3.998813"><ele>119</ele><time>2022-10-20T09:45:10Z</time><name>PT138</name></trkpt>
<trkpt lat="53.227291" lon="-3.998743"><ele>117</ele><time>2022-10-20T09:45:15Z</time><name>PT139</name></trkpt>
<trkpt lat="53.227301" lon="-3.998675"><ele>116</ele><time>2022-10-20T09:45:18Z</time><name>PT140</name></trkpt>
<trkpt lat="53.227303" lon="-3.998580"><ele>117</ele><time>2022-10-20T09:45:22Z</time><name>PT141</name></trkpt>
<trkpt lat="53.227306" lon="-3.998481"><ele>117</ele><time>2022-10-20T09:45:27Z</time><name>PT142</name></trkpt>
<trkpt lat="53.227312" lon="-3.998386"><ele>118</ele><time>2022-10-20T09:45:30Z</time><name>PT143</name></trkpt>
<trkpt lat="53.227329" lon="-3.998310"><ele>117</ele><time>2022-10-20T09:45:34Z</time><name>PT144</name></trkpt>
<trkpt lat="53.227341" lon="-3.998268"><ele>117</ele><time>2022-10-20T09:45:37Z</time><name>PT145</name></trkpt>
<trkpt lat="53.227353" lon="-3.998230"><ele>116</ele><time>2022-10-20T09:45:40Z</time><name>PT146</name></trkpt>
<trkpt lat="53.227342" lon="-3.998193"><ele>115</ele><time>2022-10-20T09:45:45Z</time><name>PT147</name></trkpt>
<trkpt lat="53.227349" lon="-3.998132"><ele>116</ele><time>2022-10-20T09:45:48Z</time><name>PT148</name></trkpt>
<trkpt lat="53.227353" lon="-3.998082"><ele>115</ele><time>2022-10-20T09:45:51Z</time><name>PT149</name></trkpt>
<trkpt lat="53.227356" lon="-3.998043"><ele>114</ele><time>2022-10-20T09:45:54Z</time><name>PT150</name></trkpt>
<trkpt lat="53.227333" lon="-3.997946"><ele>115</ele><time>2022-10-20T09:45:58Z</time><name>PT151</name></trkpt>
<trkpt lat="53.227315" lon="-3.997860"><ele>116</ele><time>2022-10-20T09:46:03Z</time><name>PT152</name></trkpt>
<trkpt lat="53.227324" lon="-3.997777"><ele>115</ele><time>2022-10-20T09:46:06Z</time><name>PT153</name></trkpt>
<trkpt lat="53.227325" lon="-3.997707"><ele>116</ele><time>2022-10-20T09:46:10Z</time><name>PT154</name></trkpt>
<trkpt lat="53.227303" lon="-3.997645"><ele>118</ele><time>2022-10-20T09:46:13Z</time><name>PT155</name></trkpt>
<trkpt lat="53.227298" lon="-3.997579"><ele>119</ele><time>2022-10-20T09:46:18Z</time><name>PT156</name></trkpt>
<trkpt lat="53.227297" lon="-3.997535"><ele>119</ele><time>2022-10-20T09:46:21Z</time><name>PT157</name></trkpt>
<trkpt lat="53.227297" lon="-3.997491"><ele>122</ele><time>2022-10-20T09:46:24Z</time><name>PT158</name></trkpt>
<trkpt lat="53.227299" lon="-3.997414"><ele>124</ele><time>2022-10-20T09:46:28Z</time><name>PT159</name></trkpt>
<trkpt lat="53.227304" lon="-3.997358"><ele>124</ele><time>2022-10-20T09:46:31Z</time><name>PT160</name></trkpt>
<trkpt lat="53.227309" lon="-3.997307"><ele>126</ele><time>2022-10-20T09:46:34Z</time><name>PT161</name></trkpt>
<trkpt lat="53.227309" lon="-3.997223"><ele>127</ele><time>2022-10-20T09:46:39Z</time><name>PT162</name></trkpt>
<trkpt lat="53.227317" lon="-3.997138"><ele>128</ele><time>2022-10-20T09:46:42Z</time><name>PT163</name></trkpt>
<trkpt lat="53.227319" lon="-3.997076"><ele>130</ele><time>2022-10-20T09:46:45Z</time><name>PT164</name></trkpt>
<trkpt lat="53.227326" lon="-3.997033"><ele>130</ele><time>2022-10-20T09:46:48Z</time><name>PT165</name></trkpt>
<trkpt lat="53.227328" lon="-3.996954"><ele>130</ele><time>2022-10-20T09:46:52Z</time><name>PT166</name></trkpt>
<trkpt lat="53.227318" lon="-3.996881"><ele>129</ele><time>2022-10-20T09:46:57Z</time><name>PT167</name></trkpt>
<trkpt lat="53.227312" lon="-3.996802"><ele>128</ele><time>2022-10-20T09:47:00Z</time><name>PT168</name></trkpt>
<trkpt lat="53.227260" lon="-3.996677"><ele>133</ele><time>2022-10-20T09:47:03Z</time><name>PT169</name></trkpt>
<trkpt lat="53.227231" lon="-3.996597"><ele>132</ele><time>2022-10-20T09:47:07Z</time><name>PT170</name></trkpt>
<trkpt lat="53.227211" lon="-3.996555"><ele>132</ele><time>2022-10-20T09:47:10Z</time><name>PT171</name></trkpt>
<trkpt lat="53.227182" lon="-3.996472"><ele>132</ele><time>2022-10-20T09:47:15Z</time><name>PT172</name></trkpt>
<trkpt lat="53.227163" lon="-3.996415"><ele>132</ele><time>2022-10-20T09:47:18Z</time><name>PT173</name></trkpt>
<trkpt lat="53.227139" lon="-3.996343"><ele>131</ele><time>2022-10-20T09:47:21Z</time><name>PT174</name></trkpt>
<trkpt lat="53.227130" lon="-3.996336"><ele>132</ele><time>2022-10-20T09:47:24Z</time><name>PT175</name></trkpt>
<trkpt lat="53.227127" lon="-3.996334"><ele>132</ele><time>2022-10-20T09:47:28Z</time><name>PT176</name></trkpt>
<trkpt lat="53.227126" lon="-3.996328"><ele>132</ele><time>2022-10-20T09:47:33Z</time><name>PT177</name></trkpt>
<trkpt lat="53.227108" lon="-3.996250"><ele>130</ele><time>2022-10-20T09:47:36Z</time><name>PT178</name></trkpt>
<trkpt lat="53.227097" lon="-3.996194"><ele>130</ele><time>2022-10-20T09:47:39Z</time><name>PT179</name></trkpt>
<trkpt lat="53.227076" lon="-3.996116"><ele>129</ele><time>2022-10-20T09:47:43Z</time><name>PT180</name></trkpt>
<trkpt lat="53.227051" lon="-3.996049"><ele>129</ele><time>2022-10-20T09:47:46Z</time><name>PT181</name></trkpt>
<trkpt lat="53.227039" lon="-3.996000"><ele>129</ele><time>2022-10-20T09:47:49Z</time><name>PT182</name></trkpt>
<trkpt lat="53.227021" lon="-3.995932"><ele>129</ele><time>2022-10-20T09:47:54Z</time><name>PT183</name></trkpt>
<trkpt lat="53.227003" lon="-3.995870"><ele>129</ele><time>2022-10-20T09:47:57Z</time><name>PT184</name></trkpt>
<trkpt lat="53.226985" lon="-3.995797"><ele>130</ele><time>2022-10-20T09:48:01Z</time><name>PT185</name></trkpt>
<trkpt lat="53.226965" lon="-3.995730"><ele>130</ele><time>2022-10-20T09:48:06Z</time><name>PT186</name></trkpt>
<trkpt lat="53.226951" lon="-3.995696"><ele>128</ele><time>2022-10-20T09:48:09Z</time><name>PT187</name></trkpt>
<trkpt lat="53.226933" lon="-3.995638"><ele>127</ele><time>2022-10-20T09:48:12Z</time><name>PT188</name></trkpt>
<trkpt lat="53.226921" lon="-3.995566"><ele>129</ele><time>2022-10-20T09:48:16Z</time><name>PT189</name></trkpt>
<trkpt lat="53.226926" lon="-3.995512"><ele>129</ele><time>2022-10-20T09:48:19Z</time><name>PT190</name></trkpt>
<trkpt lat="53.226930" lon="-3.995447"><ele>128</ele><time>2022-10-20T09:48:24Z</time><name>PT191</name></trkpt>
<trkpt lat="53.226923" lon="-3.995413"><ele>129</ele><time>2022-10-20T09:48:27Z</time><name>PT192</name></trkpt>
<trkpt lat="53.226902" lon="-3.995305"><ele>130</ele><time>2022-10-20T09:48:30Z</time><name>PT193</name></trkpt>
<trkpt lat="53.226887" lon="-3.995223"><ele>132</ele><time>2022-10-20T09:48:34Z</time><name>PT194</name></trkpt>
<trkpt lat="53.226877" lon="-3.995168"><ele>132</ele><time>2022-10-20T09:48:37Z</time><name>PT195</name></trkpt>
<trkpt lat="53.226861" lon="-3.995114"><ele>132</ele><time>2022-10-20T09:48:40Z</time><name>PT196</name></trkpt>
<trkpt lat="53.226843" lon="-3.995075"><ele>132</ele><time>2022-10-20T09:48:43Z</time><name>PT197</name></trkpt>
<trkpt lat="53.226815" lon="-3.995023"><ele>131</ele><time>2022-10-20T09:48:48Z</time><name>PT198</name></trkpt>
<trkpt lat="53.226807" lon="-3.994945"><ele>131</ele><time>2022-10-20T09:48:51Z</time><name>PT199</name></trkpt>
<trkpt lat="53.226784" lon="-3.994890"><ele>132</ele><time>2022-10-20T09:48:54Z</time><name>PT200</name></trkpt>
<trkpt lat="53.226759" lon="-3.994802"><ele>133</ele><time>2022-10-20T09:48:58Z</time><name>PT201</name></trkpt>
<trkpt lat="53.226750" lon="-3.994747"><ele>133</ele><time>2022-10-20T09:49:01Z</time><name>PT202</name></trkpt>
<trkpt lat="53.226738" lon="-3.994679"><ele>132</ele><time>2022-10-20T09:49:06Z</time><name>PT203</name></trkpt>
<trkpt lat="53.226735" lon="-3.994634"><ele>132</ele><time>2022-10-20T09:49:09Z</time><name>PT204</name></trkpt>
<trkpt lat="53.226738" lon="-3.994568"><ele>131</ele><time>2022-10-20T09:49:12Z</time><name>PT205</name></trkpt>
<trkpt lat="53.226723" lon="-3.994496"><ele>131</ele><time>2022-10-20T09:49:16Z</time><name>PT206</name></trkpt>
<trkpt lat="53.226705" lon="-3.994444"><ele>132</ele><time>2022-10-20T09:49:19Z</time><name>PT207</name></trkpt>
<trkpt lat="53.226683" lon="-3.994405"><ele>131</ele><time>2022-10-20T09:49:22Z</time><name>PT208</name></trkpt>
<trkpt lat="53.226673" lon="-3.994341"><ele>130</ele><time>2022-10-20T09:49:27Z</time><name>PT209</name></trkpt>
<trkpt lat="53.226648" lon="-3.994277"><ele>130</ele><time>2022-10-20T09:49:30Z</time><name>PT210</name></trkpt>
<trkpt lat="53.226629" lon="-3.994224"><ele>131</ele><time>2022-10-20T09:49:33Z</time><name>PT211</name></trkpt>
<trkpt lat="53.226614" lon="-3.994169"><ele>131</ele><time>2022-10-20T09:49:37Z</time><name>PT212</name></trkpt>
<trkpt lat="53.226589" lon="-3.994105"><ele>132</ele><time>2022-10-20T09:49:42Z</time><name>PT213</name></trkpt>
<trkpt lat="53.226561" lon="-3.994025"><ele>134</ele><time>2022-10-20T09:49:45Z</time><name>PT214</name></trkpt>
<trkpt lat="53.226540" lon="-3.993952"><ele>135</ele><time>2022-10-20T09:49:49Z</time><name>PT215</name></trkpt>
<trkpt lat="53.226521" lon="-3.993888"><ele>136</ele><time>2022-10-20T09:49:54Z</time><name>PT216</name></trkpt>
<trkpt lat="53.226512" lon="-3.993841"><ele>134</ele><time>2022-10-20T09:49:57Z</time><name>PT217</name></trkpt>
<trkpt lat="53.226496" lon="-3.993784"><ele>135</ele><time>2022-10-20T09:50:00Z</time><name>PT218</name></trkpt>
<trkpt lat="53.226472" lon="-3.993711"><ele>134</ele><time>2022-10-20T09:50:03Z</time><name>PT219</name></trkpt>
<trkpt lat="53.226459" lon="-3.993651"><ele>135</ele><time>2022-10-20T09:50:06Z</time><name>PT220</name></trkpt>
<trkpt lat="53.226438" lon="-3.993564"><ele>136</ele><time>2022-10-20T09:50:10Z</time><name>PT221</name></trkpt>
<trkpt lat="53.226421" lon="-3.993481"><ele>138</ele><time>2022-10-20T09:50:15Z</time><name>PT222</name></trkpt>
<trkpt lat="53.226412" lon="-3.993432"><ele>135</ele><time>2022-10-20T09:50:18Z</time><name>PT223</name></trkpt>
<trkpt lat="53.226398" lon="-3.993365"><ele>135</ele><time>2022-10-20T09:50:21Z</time><name>PT224</name></trkpt>
<trkpt lat="53.226385" lon="-3.993289"><ele>136</ele><time>2022-10-20T09:50:24Z</time><name>PT225</name></trkpt>
<trkpt lat="53.226367" lon="-3.993199"><ele>136</ele><time>2022-10-20T09:50:28Z</time><name>PT226</name></trkpt>
<trkpt lat="53.226351" lon="-3.993138"><ele>137</ele><time>2022-10-20T09:50:31Z</time><name>PT227</name></trkpt>
<trkpt lat="53.226335" lon="-3.993060"><ele>137</ele><time>2022-10-20T09:50:36Z</time><name>PT228</name></trkpt>
<trkpt lat="53.226336" lon="-3.993006"><ele>135</ele><time>2022-10-20T09:50:39Z</time><name>PT229</name></trkpt>
<trkpt lat="53.226316" lon="-3.992939"><ele>135</ele><time>2022-10-20T09:50:42Z</time><name>PT230</name></trkpt>
<trkpt lat="53.226309" lon="-3.992857"><ele>134</ele><time>2022-10-20T09:50:46Z</time><name>PT231</name></trkpt>
<trkpt lat="53.226313" lon="-3.992798"><ele>133</ele><time>2022-10-20T09:50:49Z</time><name>PT232</name></trkpt>
<trkpt lat="53.226312" lon="-3.992736"><ele>134</ele><time>2022-10-20T09:50:52Z</time><name>PT233</name></trkpt>
<trkpt lat="53.226315" lon="-3.992663"><ele>135</ele><time>2022-10-20T09:50:57Z</time><name>PT234</name></trkpt>
<trkpt lat="53.226322" lon="-3.992602"><ele>135</ele><time>2022-10-20T09:51:00Z</time><name>PT235</name></trkpt>
<trkpt lat="53.226320" lon="-3.992550"><ele>136</ele><time>2022-10-20T09:51:04Z</time><name>PT236</name></trkpt>
<trkpt lat="53.226324" lon="-3.992480"><ele>137</ele><time>2022-10-20T09:51:09Z</time><name>PT237</name></trkpt>
<trkpt lat="53.226326" lon="-3.992431"><ele>137</ele><time>2022-10-20T09:51:12Z</time><name>PT238</name></trkpt>
<trkpt lat="53.226331" lon="-3.992369"><ele>138</ele><time>2022-10-20T09:51:15Z</time><name>PT239</name></trkpt>
<trkpt lat="53.226341" lon="-3.992325"><ele>135</ele><time>2022-10-20T09:51:18Z</time><name>PT240</name></trkpt>
<trkpt lat="53.226353" lon="-3.992278"><ele>136</ele><time>2022-10-20T09:51:21Z</time><name>PT241</name></trkpt>
<trkpt lat="53.226368" lon="-3.992240"><ele>133</ele><time>2022-10-20T09:51:25Z</time><name>PT242</name></trkpt>
<trkpt lat="53.226365" lon="-3.992164"><ele>136</ele><time>2022-10-20T09:51:28Z</time><name>PT243</name></trkpt>
<trkpt lat="53.226378" lon="-3.992090"><ele>136</ele><time>2022-10-20T09:51:33Z</time><name>PT244</name></trkpt>
<trkpt lat="53.226387" lon="-3.992007"><ele>140</ele><time>2022-10-20T09:51:36Z</time><name>PT245</name></trkpt>
<trkpt lat="53.226379" lon="-3.991949"><ele>140</ele><time>2022-10-20T09:51:40Z</time><name>PT246</name></trkpt>
<trkpt lat="53.226383" lon="-3.991864"><ele>143</ele><time>2022-10-20T09:51:45Z</time><name>PT247</name></trkpt>
<trkpt lat="53.226385" lon="-3.991839"><ele>141</ele><time>2022-10-20T09:51:48Z</time><name>PT248</name></trkpt>
<trkpt lat="53.226386" lon="-3.991780"><ele>142</ele><time>2022-10-20T09:51:51Z</time><name>PT249</name></trkpt>
<trkpt lat="53.226385" lon="-3.991722"><ele>144</ele><time>2022-10-20T09:51:54Z</time><name>PT250</name></trkpt>
<trkpt lat="53.226382" lon="-3.991640"><ele>146</ele><time>2022-10-20T09:51:57Z</time><name>PT251</name></trkpt>
<trkpt lat="53.226366" lon="-3.991579"><ele>146</ele><time>2022-10-20T09:52:00Z</time><name>PT252</name></trkpt>
<trkpt lat="53.226357" lon="-3.991519"><ele>147</ele><time>2022-10-20T09:52:04Z</time><name>PT253</name></trkpt>
<trkpt lat="53.226337" lon="-3.991477"><ele>146</ele><time>2022-10-20T09:52:07Z</time><name>PT254</name></trkpt>
<trkpt lat="53.226326" lon="-3.991409"><ele>149</ele><time>2022-10-20T09:52:10Z</time><name>PT255</name></trkpt>
<trkpt lat="53.226301" lon="-3.991348"><ele>151</ele><time>2022-10-20T09:52:15Z</time><name>PT256</name></trkpt>
<trkpt lat="53.226280" lon="-3.991311"><ele>150</ele><time>2022-10-20T09:52:18Z</time><name>PT257</name></trkpt>
<trkpt lat="53.226259" lon="-3.991289"><ele>150</ele><time>2022-10-20T09:52:21Z</time><name>PT258</name></trkpt>
<trkpt lat="53.226227" lon="-3.991250"><ele>152</ele><time>2022-10-20T09:52:25Z</time><name>PT259</name></trkpt>
<trkpt lat="53.226195" lon="-3.991216"><ele>152</ele><time>2022-10-20T09:52:30Z</time><name>PT260</name></trkpt>
<trkpt lat="53.226174" lon="-3.991171"><ele>153</ele><time>2022-10-20T09:52:33Z</time><name>PT261</name></trkpt>
<trkpt lat="53.226148" lon="-3.991124"><ele>150</ele><time>2022-10-20T09:52:36Z</time><name>PT262</name></trkpt>
<trkpt lat="53.226136" lon="-3.991086"><ele>149</ele><time>2022-10-20T09:52:39Z</time><name>PT263</name></trkpt>
<trkpt lat="53.226107" lon="-3.991044"><ele>153</ele><time>2022-10-20T09:52:43Z</time><name>PT264</name></trkpt>
<trkpt lat="53.226077" lon="-3.990994"><ele>155</ele><time>2022-10-20T09:52:48Z</time><name>PT265</name></trkpt>
<trkpt lat="53.226061" lon="-3.990968"><ele>154</ele><time>2022-10-20T09:52:51Z</time><name>PT266</name></trkpt>
<trkpt lat="53.226049" lon="-3.990907"><ele>157</ele><time>2022-10-20T09:52:54Z</time><name>PT267</name></trkpt>
<trkpt lat="53.226053" lon="-3.990846"><ele>154</ele><time>2022-10-20T09:52:58Z</time><name>PT268</name></trkpt>
<trkpt lat="53.226044" lon="-3.990806"><ele>155</ele><time>2022-10-20T09:53:01Z</time><name>PT269</name></trkpt>
<trkpt lat="53.226047" lon="-3.990780"><ele>157</ele><time>2022-10-20T09:53:06Z</time><name>PT270</name></trkpt>
<trkpt lat="53.226042" lon="-3.990732"><ele>157</ele><time>2022-10-20T09:53:09Z</time><name>PT271</name></trkpt>
<trkpt lat="53.226036" lon="-3.990694"><ele>159</ele><time>2022-10-20T09:53:12Z</time><name>PT272</name></trkpt>
<trkpt lat="53.226038" lon="-3.990659"><ele>160</ele><time>2022-10-20T09:53:16Z</time><name>PT273</name></trkpt>
<trkpt lat="53.226044" lon="-3.990613"><ele>161</ele><time>2022-10-20T09:53:21Z</time><name>PT274</name></trkpt>
<trkpt lat="53.226039" lon="-3.990560"><ele>160</ele><time>2022-10-20T09:53:24Z</time><name>PT275</name></trkpt>
<trkpt lat="53.226025" lon="-3.990511"><ele>164</ele><time>2022-10-20T09:53:27Z</time><name>PT276</name></trkpt>
<trkpt lat="53.226016" lon="-3.990481"><ele>165</ele><time>2022-10-20T09:53:31Z</time><name>PT277</name></trkpt>
<trkpt lat="53.226014" lon="-3.990487"><ele>166</ele><time>2022-10-20T09:53:34Z</time><name>PT278</name></trkpt>
<trkpt lat="53.226020" lon="-3.990461"><ele>168</ele><time>2022-10-20T09:53:39Z</time><name>PT279</name></trkpt>
<trkpt lat="53.226014" lon="-3.990459"><ele>168</ele><time>2022-10-20T09:53:42Z</time><name>PT280</name></trkpt>
<trkpt lat="53.226018" lon="-3.990444"><ele>166</ele><time>2022-10-20T09:53:46Z</time><name>PT281</name></trkpt>
<trkpt lat="53.226018" lon="-3.990456"><ele>165</ele><time>2022-10-20T09:54:01Z</time><name>PT282</name></trkpt>
<trkpt lat="53.226021" lon="-3.990435"><ele>165</ele><time>2022-10-20T09:54:06Z</time><name>PT283</name></trkpt>
<trkpt lat="53.226019" lon="-3.990432"><ele>166</ele><time>2022-10-20T09:54:09Z</time><name>PT284</name></trkpt>
<trkpt lat="53.226019" lon="-3.990431"><ele>166</ele><time>2022-10-20T09:54:12Z</time><name>PT285</name></trkpt>
<trkpt lat="53.226021" lon="-3.990405"><ele>165</ele><time>2022-10-20T09:54:15Z</time><name>PT286</name></trkpt>
<trkpt lat="53.226024" lon="-3.990378"><ele>165</ele><time>2022-10-20T09:54:19Z</time><name>PT287</name></trkpt>
<trkpt lat="53.226022" lon="-3.990382"><ele>165</ele><time>2022-10-20T09:54:22Z</time><name>PT288</name></trkpt>
<trkpt lat="53.226028" lon="-3.990343"><ele>166</ele><time>2022-10-20T09:54:48Z</time><name>PT289</name></trkpt>
<trkpt lat="53.226034" lon="-3.990290"><ele>166</ele><time>2022-10-20T09:54:52Z</time><name>PT290</name></trkpt>
<trkpt lat="53.226034" lon="-3.990257"><ele>166</ele><time>2022-10-20T09:54:57Z</time><name>PT291</name></trkpt>
<trkpt lat="53.226029" lon="-3.990207"><ele>166</ele><time>2022-10-20T09:55:00Z</time><name>PT292</name></trkpt>
<trkpt lat="53.226022" lon="-3.990163"><ele>167</ele><time>2022-10-20T09:55:03Z</time><name>PT293</name></trkpt>
<trkpt lat="53.226015" lon="-3.990127"><ele>169</ele><time>2022-10-20T09:55:06Z</time><name>PT294</name></trkpt>
<trkpt lat="53.226001" lon="-3.990075"><ele>171</ele><time>2022-10-20T09:55:09Z</time><name>PT295</name></trkpt>
<trkpt lat="53.225985" lon="-3.990033"><ele>173</ele><time>2022-10-20T09:55:12Z</time><name>PT296</name></trkpt>
<trkpt lat="53.225973" lon="-3.989996"><ele>174</ele><time>2022-10-20T09:55:16Z</time><name>PT297</name></trkpt>
<trkpt lat="53.225968" lon="-3.989959"><ele>176</ele><time>2022-10-20T09:55:19Z</time><name>PT298</name></trkpt>
<trkpt lat="53.225951" lon="-3.989919"><ele>176</ele><time>2022-10-20T09:55:22Z</time><name>PT299</name></trkpt>
<trkpt lat="53.225953" lon="-3.989897"><ele>176</ele><time>2022-10-20T09:55:25Z</time><name>PT300</name></trkpt>
<trkpt lat="53.225946" lon="-3.989860"><ele>176</ele><time>2022-10-20T09:55:28Z</time><name>PT301</name></trkpt>
<trkpt lat="53.225940" lon="-3.989837"><ele>176</ele><time>2022-10-20T09:55:31Z</time><name>PT302</name></trkpt>
<trkpt lat="53.225932" lon="-3.989779"><ele>175</ele><time>2022-10-20T09:55:36Z</time><name>PT303</name></trkpt>
<trkpt lat="53.225922" lon="-3.989735"><ele>176</ele><time>2022-10-20T09:55:39Z</time><name>PT304</name></trkpt>
<trkpt lat="53.225915" lon="-3.989705"><ele>176</ele><time>2022-10-20T09:55:42Z</time><name>PT305</name></trkpt>
<trkpt lat="53.225895" lon="-3.989656"><ele>179</ele><time>2022-10-20T09:55:46Z</time><name>PT306</name></trkpt>
<trkpt lat="53.225877" lon="-3.989623"><ele>183</ele><time>2022-10-20T09:55:51Z</time><name>PT307</name></trkpt>
<trkpt lat="53.225868" lon="-3.989591"><ele>181</ele><time>2022-10-20T09:55:54Z</time><name>PT308</name></trkpt>
<trkpt lat="53.225851" lon="-3.989531"><ele>184</ele><time>2022-10-20T09:55:57Z</time><name>PT309</name></trkpt>
<trkpt lat="53.225837" lon="-3.989491"><ele>185</ele><time>2022-10-20T09:56:00Z</time><name>PT310</name></trkpt>
<trkpt lat="53.225818" lon="-3.989445"><ele>185</ele><time>2022-10-20T09:56:04Z</time><name>PT311</name></trkpt>
<trkpt lat="53.225797" lon="-3.989395"><ele>184</ele><time>2022-10-20T09:56:09Z</time><name>PT312</name></trkpt>
<trkpt lat="53.225785" lon="-3.989346"><ele>185</ele><time>2022-10-20T09:56:12Z</time><name>PT313</name></trkpt>
<trkpt lat="53.225781" lon="-3.989293"><ele>184</ele><time>2022-10-20T09:56:16Z</time><name>PT314</name></trkpt>
<trkpt lat="53.225790" lon="-3.989265"><ele>181</ele><time>2022-10-20T09:56:19Z</time><name>PT315</name></trkpt>
<trkpt lat="53.225790" lon="-3.989223"><ele>182</ele><time>2022-10-20T09:56:22Z</time><name>PT316</name></trkpt>
<trkpt lat="53.225785" lon="-3.989183"><ele>180</ele><time>2022-10-20T09:56:25Z</time><name>PT317</name></trkpt>
<trkpt lat="53.225790" lon="-3.989129"><ele>183</ele><time>2022-10-20T09:56:30Z</time><name>PT318</name></trkpt>
<trkpt lat="53.225787" lon="-3.989101"><ele>183</ele><time>2022-10-20T09:56:33Z</time><name>PT319</name></trkpt>
<trkpt lat="53.225785" lon="-3.989049"><ele>184</ele><time>2022-10-20T09:56:36Z</time><name>PT320</name></trkpt>
<trkpt lat="53.225794" lon="-3.988997"><ele>185</ele><time>2022-10-20T09:56:39Z</time><name>PT321</name></trkpt>
<trkpt lat="53.225799" lon="-3.988960"><ele>185</ele><time>2022-10-20T09:56:42Z</time><name>PT322</name></trkpt>
<trkpt lat="53.225802" lon="-3.988908"><ele>184</ele><time>2022-10-20T09:56:46Z</time><name>PT323</name></trkpt>
<trkpt lat="53.225800" lon="-3.988854"><ele>185</ele><time>2022-10-20T09:56:49Z</time><name>PT324</name></trkpt>
<trkpt lat="53.225805" lon="-3.988782"><ele>186</ele><time>2022-10-20T09:56:54Z</time><name>PT325</name></trkpt>
<trkpt lat="53.225809" lon="-3.988740"><ele>187</ele><time>2022-10-20T09:56:57Z</time><name>PT326</name></trkpt>
<trkpt lat="53.225810" lon="-3.988692"><ele>186</ele><time>2022-10-20T09:57:00Z</time><name>PT327</name></trkpt>
<trkpt lat="53.225811" lon="-3.988633"><ele>187</ele><time>2022-10-20T09:57:04Z</time><name>PT328</name></trkpt>
<trkpt lat="53.225811" lon="-3.988598"><ele>187</ele><time>2022-10-20T09:57:07Z</time><name>PT329</name></trkpt>
<trkpt lat="53.225810" lon="-3.988565"><ele>186</ele><time>2022-10-20T09:57:10Z</time><name>PT330</name></trkpt>
<trkpt lat="53.225814" lon="-3.988508"><ele>187</ele><time>2022-10-20T09:57:15Z</time><name>PT331</name></trkpt>
<trkpt lat="53.225817" lon="-3.988454"><ele>188</ele><time>2022-10-20T09:57:18Z</time><name>PT332</name></trkpt>
<trkpt lat="53.225814" lon="-3.988389"><ele>189</ele><time>2022-10-20T09:57:21Z</time><name>PT333</name></trkpt>
<trkpt lat="53.225809" lon="-3.988314"><ele>190</ele><time>2022-10-20T09:57:24Z</time><name>PT334</name></trkpt>
<trkpt lat="53.225805" lon="-3.988255"><ele>191</ele><time>2022-10-20T09:57:28Z</time><name>PT335</name></trkpt>
<trkpt lat="53.225797" lon="-3.988214"><ele>190</ele><time>2022-10-20T09:57:31Z</time><name>PT336</name></trkpt>
<trkpt lat="53.225789" lon="-3.988168"><ele>190</ele><time>2022-10-20T09:57:34Z</time><name>PT337</name></trkpt>
<trkpt lat="53.225792" lon="-3.988081"><ele>193</ele><time>2022-10-20T09:57:39Z</time><name>PT338</name></trkpt>
<trkpt lat="53.225773" lon="-3.987995"><ele>194</ele><time>2022-10-20T09:57:42Z</time><name>PT339</name></trkpt>
<trkpt lat="53.225767" lon="-3.987962"><ele>194</ele><time>2022-10-20T09:57:46Z</time><name>PT340</name></trkpt>
<trkpt lat="53.225752" lon="-3.987911"><ele>194</ele><time>2022-10-20T09:57:51Z</time><name>PT341</name></trkpt>
<trkpt lat="53.225718" lon="-3.987832"><ele>193</ele><time>2022-10-20T09:57:54Z</time><name>PT342</name></trkpt>
<trkpt lat="53.225697" lon="-3.987780"><ele>195</ele><time>2022-10-20T09:57:58Z</time><name>PT343</name></trkpt>
<trkpt lat="53.225672" lon="-3.987753"><ele>196</ele><time>2022-10-20T09:58:03Z</time><name>PT344</name></trkpt>
<trkpt lat="53.225668" lon="-3.987755"><ele>196</ele><time>2022-10-20T09:58:06Z</time><name>PT345</name></trkpt>
<trkpt lat="53.225654" lon="-3.987716"><ele>197</ele><time>2022-10-20T09:58:09Z</time><name>PT346</name></trkpt>
<trkpt lat="53.225637" lon="-3.987658"><ele>196</ele><time>2022-10-20T09:58:12Z</time><name>PT347</name></trkpt>
<trkpt lat="53.225623" lon="-3.987633"><ele>196</ele><time>2022-10-20T09:58:15Z</time><name>PT348</name></trkpt>
<trkpt lat="53.225596" lon="-3.987576"><ele>195</ele><time>2022-10-20T09:58:19Z</time><name>PT349</name></trkpt>
<trkpt lat="53.225576" lon="-3.987528"><ele>197</ele><time>2022-10-20T09:58:22Z</time><name>PT350</name></trkpt>
<trkpt lat="53.225550" lon="-3.987468"><ele>195</ele><time>2022-10-20T09:58:27Z</time><name>PT351</name></trkpt>
<trkpt lat="53.225530" lon="-3.987435"><ele>194</ele><time>2022-10-20T09:58:30Z</time><name>PT352</name></trkpt>
<trkpt lat="53.225514" lon="-3.987383"><ele>194</ele><time>2022-10-20T09:58:33Z</time><name>PT353</name></trkpt>
<trkpt lat="53.225493" lon="-3.987322"><ele>193</ele><time>2022-10-20T09:58:37Z</time><name>PT354</name></trkpt>
<trkpt lat="53.225473" lon="-3.987250"><ele>192</ele><time>2022-10-20T09:58:42Z</time><name>PT355</name></trkpt>
<trkpt lat="53.225462" lon="-3.987210"><ele>191</ele><time>2022-10-20T09:58:45Z</time><name>PT356</name></trkpt>
<trkpt lat="53.225446" lon="-3.987170"><ele>191</ele><time>2022-10-20T09:58:48Z</time><name>PT357</name></trkpt>
<trkpt lat="53.225435" lon="-3.987115"><ele>191</ele><time>2022-10-20T09:58:51Z</time><name>PT358</name></trkpt>
<trkpt lat="53.225415" lon="-3.987044"><ele>192</ele><time>2022-10-20T09:58:54Z</time><name>PT359</name></trkpt>
<trkpt lat="53.225398" lon="-3.986989"><ele>192</ele><time>2022-10-20T09:58:58Z</time><name>PT360</name></trkpt>
<trkpt lat="53.225383" lon="-3.986916"><ele>195</ele><time>2022-10-20T09:59:01Z</time><name>PT361</name></trkpt>
<trkpt lat="53.225365" lon="-3.986830"><ele>197</ele><time>2022-10-20T09:59:06Z</time><name>PT362</name></trkpt>
<trkpt lat="53.225353" lon="-3.986776"><ele>198</ele><time>2022-10-20T09:59:09Z</time><name>PT363</name></trkpt>
<trkpt lat="53.225344" lon="-3.986734"><ele>197</ele><time>2022-10-20T09:59:12Z</time><name>PT364</name></trkpt>
<trkpt lat="53.225338" lon="-3.986686"><ele>197</ele><time>2022-10-20T09:59:15Z</time><name>PT365</name></trkpt>
<trkpt lat="53.225320" lon="-3.986613"><ele>199</ele><time>2022-10-20T09:59:18Z</time><name>PT366</name></trkpt>
<trkpt lat="53.225305" lon="-3.986563"><ele>198</ele><time>2022-10-20T09:59:21Z</time><name>PT367</name></trkpt>
<trkpt lat="53.225300" lon="-3.986510"><ele>198</ele><time>2022-10-20T09:59:24Z</time><name>PT368</name></trkpt>
<trkpt lat="53.225279" lon="-3.986437"><ele>200</ele><time>2022-10-20T09:59:28Z</time><name>PT369</name></trkpt>
<trkpt lat="53.225262" lon="-3.986375"><ele>199</ele><time>2022-10-20T09:59:33Z</time><name>PT370</name></trkpt>
<trkpt lat="53.225250" lon="-3.986324"><ele>200</ele><time>2022-10-20T09:59:36Z</time><name>PT371</name></trkpt>
<trkpt lat="53.225228" lon="-3.986249"><ele>200</ele><time>2022-10-20T09:59:39Z</time><name>PT372</name></trkpt>
<trkpt lat="53.225217" lon="-3.986201"><ele>200</ele><time>2022-10-20T09:59:42Z</time><name>PT373</name></trkpt>
<trkpt lat="53.225203" lon="-3.986146"><ele>199</ele><time>2022-10-20T09:59:46Z</time><name>PT374</name></trkpt>
<trkpt lat="53.225190" lon="-3.986117"><ele>199</ele><time>2022-10-20T09:59:49Z</time><name>PT375</name></trkpt>
<trkpt lat="53.225182" lon="-3.986076"><ele>198</ele><time>2022-10-20T09:59:52Z</time><name>PT376</name></trkpt>
<trkpt lat="53.225152" lon="-3.986013"><ele>197</ele><time>2022-10-20T09:59:57Z</time><name>PT377</name></trkpt>
<trkpt lat="53.225123" lon="-3.985930"><ele>199</ele><time>2022-10-20T10:00:00Z</time><name>PT378</name></trkpt>
<trkpt lat="53.225098" lon="-3.985895"><ele>199</ele><time>2022-10-20T10:00:03Z</time><name>PT379</name></trkpt>
<trkpt lat="53.225062" lon="-3.985842"><ele>200</ele><time>2022-10-20T10:00:07Z</time><name>PT380</name></trkpt>
<trkpt lat="53.225033" lon="-3.985808"><ele>199</ele><time>2022-10-20T10:00:10Z</time><name>PT381</name></trkpt>
<trkpt lat="53.225012" lon="-3.985780"><ele>198</ele><time>2022-10-20T10:00:13Z</time><name>PT382</name></trkpt>
<trkpt lat="53.224981" lon="-3.985724"><ele>199</ele><time>2022-10-20T10:00:18Z</time><name>PT383</name></trkpt>
<trkpt lat="53.224953" lon="-3.985670"><ele>198</ele><time>2022-10-20T10:00:21Z</time><name>PT384</name></trkpt>
<trkpt lat="53.224927" lon="-3.985616"><ele>199</ele><time>2022-10-20T10:00:24Z</time><name>PT385</name></trkpt>
<trkpt lat="53.224905" lon="-3.985542"><ele>201</ele><time>2022-10-20T10:00:28Z</time><name>PT386</name></trkpt>
<trkpt lat="53.224882" lon="-3.985482"><ele>201</ele><time>2022-10-20T10:00:31Z</time><name>PT387</name></trkpt>
<trkpt lat="53.224871" lon="-3.985394"><ele>199</ele><time>2022-10-20T10:00:36Z</time><name>PT388</name></trkpt>
<trkpt lat="53.224872" lon="-3.985344"><ele>200</ele><time>2022-10-20T10:00:39Z</time><name>PT389</name></trkpt>
<trkpt lat="53.224869" lon="-3.985296"><ele>200</ele><time>2022-10-20T10:00:42Z</time><name>PT390</name></trkpt>
<trkpt lat="53.224874" lon="-3.985238"><ele>201</ele><time>2022-10-20T10:00:45Z</time><name>PT391</name></trkpt>
<trkpt lat="53.224879" lon="-3.985191"><ele>201</ele><time>2022-10-20T10:00:48Z</time><name>PT392</name></trkpt>
<trkpt lat="53.224896" lon="-3.985141"><ele>201</ele><time>2022-10-20T10:00:51Z</time><name>PT393</name></trkpt>
<trkpt lat="53.224903" lon="-3.985081"><ele>202</ele><time>2022-10-20T10:00:55Z</time><name>PT394</name></trkpt>
<trkpt lat="53.224896" lon="-3.985030"><ele>203</ele><time>2022-10-20T10:01:00Z</time><name>PT395</name></trkpt>
<trkpt lat="53.224881" lon="-3.984990"><ele>203</ele><time>2022-10-20T10:01:03Z</time><name>PT396</name></trkpt>
<trkpt lat="53.224867" lon="-3.984946"><ele>203</ele><time>2022-10-20T10:01:06Z</time><name>PT397</name></trkpt>
<trkpt lat="53.224851" lon="-3.984898"><ele>205</ele><time>2022-10-20T10:01:10Z</time><name>PT398</name></trkpt>
<trkpt lat="53.224839" lon="-3.984876"><ele>205</ele><time>2022-10-20T10:01:13Z</time><name>PT399</name></trkpt>
<trkpt lat="53.224812" lon="-3.984827"><ele>205</ele><time>2022-10-20T10:01:18Z</time><name>PT400</name></trkpt>
<trkpt lat="53.224781" lon="-3.984787"><ele>205</ele><time>2022-10-20T10:01:21Z</time><name>PT401</name></trkpt>
<trkpt lat="53.224752" lon="-3.984726"><ele>205</ele><time>2022-10-20T10:01:24Z</time><name>PT402</name></trkpt>
<trkpt lat="53.224728" lon="-3.984686"><ele>206</ele><time>2022-10-20T10:01:27Z</time><name>PT403</name></trkpt>
<trkpt lat="53.224697" lon="-3.984643"><ele>208</ele><time>2022-10-20T10:01:31Z</time><name>PT404</name></trkpt>
<trkpt lat="53.224665" lon="-3.984603"><ele>207</ele><time>2022-10-20T10:01:36Z</time><name>PT405</name></trkpt>
<trkpt lat="53.224640" lon="-3.984562"><ele>207</ele><time>2022-10-20T10:01:39Z</time><name>PT406</name></trkpt>
<trkpt lat="53.224623" lon="-3.984531"><ele>206</ele><time>2022-10-20T10:01:42Z</time><name>PT407</name></trkpt>
<trkpt lat="53.224597" lon="-3.984494"><ele>207</ele><time>2022-10-20T10:01:45Z</time><name>PT408</name></trkpt>
<trkpt lat="53.224575" lon="-3.984427"><ele>209</ele><time>2022-10-20T10:01:48Z</time><name>PT409</name></trkpt>
<trkpt lat="53.224556" lon="-3.984387"><ele>209</ele><time>2022-10-20T10:01:52Z</time><name>PT410</name></trkpt>
<trkpt lat="53.224546" lon="-3.984335"><ele>210</ele><time>2022-10-20T10:01:57Z</time><name>PT411</name></trkpt>
<trkpt lat="53.224542" lon="-3.984294"><ele>211</ele><time>2022-10-20T10:02:00Z</time><name>PT412</name></trkpt>
<trkpt lat="53.224558" lon="-3.984241"><ele>212</ele><time>2022-10-20T10:02:03Z</time><name>PT413</name></trkpt>
<trkpt lat="53.224591" lon="-3.984198"><ele>213</ele><time>2022-10-20T10:02:07Z</time><name>PT414</name></trkpt>
<trkpt lat="53.224620" lon="-3.984202"><ele>212</ele><time>2022-10-20T10:02:10Z</time><name>PT415</name></trkpt>
<trkpt lat="53.224667" lon="-3.984211"><ele>213</ele><time>2022-10-20T10:02:15Z</time><name>PT416</name></trkpt>
<trkpt lat="53.224699" lon="-3.984214"><ele>213</ele><time>2022-10-20T10:02:18Z</time><name>PT417</name></trkpt>
<trkpt lat="53.224729" lon="-3.984201"><ele>214</ele><time>2022-10-20T10:02:21Z</time><name>PT418</name></trkpt>
<trkpt lat="53.224770" lon="-3.984180"><ele>216</ele><time>2022-10-20T10:02:24Z</time><name>PT419</name></trkpt>
<trkpt lat="53.224790" lon="-3.984160"><ele>215</ele><time>2022-10-20T10:02:27Z</time><name>PT420</name></trkpt>
<trkpt lat="53.224818" lon="-3.984146"><ele>215</ele><time>2022-10-20T10:02:30Z</time><name>PT421</name></trkpt>
<trkpt lat="53.224846" lon="-3.984129"><ele>214</ele><time>2022-10-20T10:02:34Z</time><name>PT422</name></trkpt>
<trkpt lat="53.224878" lon="-3.984116"><ele>215</ele><time>2022-10-20T10:02:37Z</time><name>PT423</name></trkpt>
<trkpt lat="53.224915" lon="-3.984102"><ele>216</ele><time>2022-10-20T10:02:42Z</time><name>PT424</name></trkpt>
<trkpt lat="53.224944" lon="-3.984093"><ele>217</ele><time>2022-10-20T10:02:45Z</time><name>PT425</name></trkpt>
<trkpt lat="53.224973" lon="-3.984080"><ele>219</ele><time>2022-10-20T10:02:48Z</time><name>PT426</name></trkpt>
<trkpt lat="53.225003" lon="-3.984074"><ele>220</ele><time>2022-10-20T10:02:51Z</time><name>PT427</name></trkpt>
<trkpt lat="53.225040" lon="-3.984073"><ele>221</ele><time>2022-10-20T10:02:54Z</time><name>PT428</name></trkpt>
<trkpt lat="53.225080" lon="-3.984077"><ele>223</ele><time>2022-10-20T10:02:58Z</time><name>PT429</name></trkpt>
<trkpt lat="53.225102" lon="-3.984077"><ele>223</ele><time>2022-10-20T10:03:01Z</time><name>PT430</name></trkpt>
<trkpt lat="53.225134" lon="-3.984084"><ele>224</ele><time>2022-10-20T10:03:06Z</time><name>PT431</name></trkpt>
<trkpt lat="53.225162" lon="-3.984084"><ele>224</ele><time>2022-10-20T10:03:09Z</time><name>PT432</name></trkpt>
<trkpt lat="53.225195" lon="-3.984089"><ele>225</ele><time>2022-10-20T10:03:12Z</time><name>PT433</name></trkpt>
<trkpt lat="53.225226" lon="-3.984091"><ele>225</ele><time>2022-10-20T10:03:16Z</time><name>PT434</name></trkpt>
<trkpt lat="53.225263" lon="-3.984098"><ele>226</ele><time>2022-10-20T10:03:21Z</time><name>PT435</name></trkpt>
<trkpt lat="53.225300" lon="-3.984098"><ele>227</ele><time>2022-10-20T10:03:24Z</time><name>PT436</name></trkpt>
<trkpt lat="53.225343" lon="-3.984109"><ele>228</ele><time>2022-10-20T10:03:28Z</time><name>PT437</name></trkpt>
<trkpt lat="53.225387" lon="-3.984123"><ele>230</ele><time>2022-10-20T10:03:33Z</time><name>PT438</name></trkpt>
<trkpt lat="53.225414" lon="-3.984136"><ele>231</ele><time>2022-10-20T10:03:36Z</time><name>PT439</name></trkpt>
<trkpt lat="53.225436" lon="-3.984146"><ele>232</ele><time>2022-10-20T10:03:39Z</time><name>PT440</name></trkpt>
<trkpt lat="53.225473" lon="-3.984162"><ele>233</ele><time>2022-10-20T10:03:42Z</time><name>PT441</name></trkpt>
<trkpt lat="53.225503" lon="-3.984178"><ele>232</ele><time>2022-10-20T10:03:46Z</time><name>PT442</name></trkpt>
<trkpt lat="53.225530" lon="-3.984200"><ele>231</ele><time>2022-10-20T10:03:51Z</time><name>PT443</name></trkpt>
<trkpt lat="53.225558" lon="-3.984216"><ele>231</ele><time>2022-10-20T10:03:54Z</time><name>PT444</name></trkpt>
<trkpt lat="53.225586" lon="-3.984228"><ele>232</ele><time>2022-10-20T10:03:57Z</time><name>PT445</name></trkpt>
<trkpt lat="53.225614" lon="-3.984228"><ele>233</ele><time>2022-10-20T10:04:00Z</time><name>PT446</name></trkpt>
<trkpt lat="53.225643" lon="-3.984225"><ele>233</ele><time>2022-10-20T10:04:03Z</time><name>PT447</name></trkpt>
<trkpt lat="53.225676" lon="-3.984225"><ele>233</ele><time>2022-10-20T10:04:07Z</time><name>PT448</name></trkpt>
<trkpt lat="53.225706" lon="-3.984235"><ele>235</ele><time>2022-10-20T10:04:10Z</time><name>PT449</name></trkpt>
<trkpt lat="53.225737" lon="-3.984241"><ele>235</ele><time>2022-10-20T10:04:13Z</time><name>PT450</name></trkpt>
<trkpt lat="53.225770" lon="-3.984246"><ele>236</ele><time>2022-10-20T10:04:16Z</time><name>PT451</name></trkpt>
<trkpt lat="53.225815" lon="-3.984259"><ele>238</ele><time>2022-10-20T10:04:21Z</time><name>PT452</name></trkpt>
<trkpt lat="53.225851" lon="-3.984264"><ele>238</ele><time>2022-10-20T10:04:24Z</time><name>PT453</name></trkpt>
<trkpt lat="53.225890" lon="-3.984266"><ele>238</ele><time>2022-10-20T10:04:28Z</time><name>PT454</name></trkpt>
<trkpt lat="53.225922" lon="-3.984270"><ele>238</ele><time>2022-10-20T10:04:31Z</time><name>PT455</name></trkpt>
<trkpt lat="53.225958" lon="-3.984276"><ele>238</ele><time>2022-10-20T10:04:36Z</time><name>PT456</name></trkpt>
<trkpt lat="53.225989" lon="-3.984284"><ele>239</ele><time>2022-10-20T10:04:39Z</time><name>PT457</name></trkpt>
<trkpt lat="53.226019" lon="-3.984289"><ele>239</ele><time>2022-10-20T10:04:42Z</time><name>PT458</name></trkpt>
<trkpt lat="53.226057" lon="-3.984291"><ele>239</ele><time>2022-10-20T10:04:45Z</time><name>PT459</name></trkpt>
<trkpt lat="53.226097" lon="-3.984304"><ele>240</ele><time>2022-10-20T10:04:49Z</time><name>PT460</name></trkpt>
<trkpt lat="53.226128" lon="-3.984309"><ele>240</ele><time>2022-10-20T10:04:52Z</time><name>PT461</name></trkpt>
<trkpt lat="53.226161" lon="-3.984314"><ele>241</ele><time>2022-10-20T10:04:55Z</time><name>PT462</name></trkpt>
<trkpt lat="53.226199" lon="-3.984312"><ele>241</ele><time>2022-10-20T10:05:00Z</time><name>PT463</name></trkpt>
<trkpt lat="53.226235" lon="-3.984308"><ele>241</ele><time>2022-10-20T10:05:03Z</time><name>PT464</name></trkpt>
<trkpt lat="53.226285" lon="-3.984306"><ele>242</ele><time>2022-10-20T10:05:06Z</time><name>PT465</name></trkpt>
<trkpt lat="53.226316" lon="-3.984294"><ele>242</ele><time>2022-10-20T10:05:09Z</time><name>PT466</name></trkpt>
<trkpt lat="53.226363" lon="-3.984289"><ele>242</ele><time>2022-10-20T10:05:13Z</time><name>PT467</name></trkpt>
<trkpt lat="53.226397" lon="-3.984281"><ele>242</ele><time>2022-10-20T10:05:16Z</time><name>PT468</name></trkpt>
<trkpt lat="53.226427" lon="-3.984270"><ele>242</ele><time>2022-10-20T10:05:19Z</time><name>PT469</name></trkpt>
<trkpt lat="53.226478" lon="-3.984261"><ele>244</ele><time>2022-10-20T10:05:24Z</time><name>PT470</name></trkpt>
<trkpt lat="53.226518" lon="-3.984255"><ele>245</ele><time>2022-10-20T10:05:27Z</time><name>PT471</name></trkpt>
<trkpt lat="53.226558" lon="-3.984244"><ele>245</ele><time>2022-10-20T10:05:30Z</time><name>PT472</name></trkpt>
<trkpt lat="53.226590" lon="-3.984244"><ele>245</ele><time>2022-10-20T10:05:33Z</time><name>PT473</name></trkpt>
<trkpt lat="53.226617" lon="-3.984244"><ele>245</ele><time>2022-10-20T10:05:36Z</time><name>PT474</name></trkpt>
<trkpt lat="53.226657" lon="-3.984237"><ele>246</ele><time>2022-10-20T10:05:40Z</time><name>PT475</name></trkpt>
<trkpt lat="53.226693" lon="-3.984229"><ele>246</ele><time>2022-10-20T10:05:45Z</time><name>PT476</name></trkpt>
<trkpt lat="53.226728" lon="-3.984225"><ele>246</ele><time>2022-10-20T10:05:48Z</time><name>PT477</name></trkpt>
<trkpt lat="53.226772" lon="-3.984216"><ele>247</ele><time>2022-10-20T10:05:52Z</time><name>PT478</name></trkpt>
<trkpt lat="53.226801" lon="-3.984215"><ele>247</ele><time>2022-10-20T10:05:55Z</time><name>PT479</name></trkpt>
<trkpt lat="53.226845" lon="-3.984214"><ele>247</ele><time>2022-10-20T10:06:00Z</time><name>PT480</name></trkpt>
<trkpt lat="53.226877" lon="-3.984220"><ele>247</ele><time>2022-10-20T10:06:03Z</time><name>PT481</name></trkpt>
<trkpt lat="53.226923" lon="-3.984218"><ele>247</ele><time>2022-10-20T10:06:06Z</time><name>PT482</name></trkpt>
<trkpt lat="53.226968" lon="-3.984224"><ele>249</ele><time>2022-10-20T10:06:10Z</time><name>PT483</name></trkpt>
<trkpt lat="53.227024" lon="-3.984235"><ele>252</ele><time>2022-10-20T10:06:15Z</time><name>PT484</name></trkpt>
<trkpt lat="53.227060" lon="-3.984249"><ele>253</ele><time>2022-10-20T10:06:18Z</time><name>PT485</name></trkpt>
<trkpt lat="53.227100" lon="-3.984258"><ele>253</ele><time>2022-10-20T10:06:21Z</time><name>PT486</name></trkpt>
<trkpt lat="53.227137" lon="-3.984269"><ele>253</ele><time>2022-10-20T10:06:24Z</time><name>PT487</name></trkpt>
<trkpt lat="53.227187" lon="-3.984301"><ele>254</ele><time>2022-10-20T10:06:27Z</time><name>PT488</name></trkpt>
<trkpt lat="53.227224" lon="-3.984323"><ele>255</ele><time>2022-10-20T10:06:30Z</time><name>PT489</name></trkpt>
<trkpt lat="53.227271" lon="-3.984347"><ele>255</ele><time>2022-10-20T10:06:34Z</time><name>PT490</name></trkpt>
<trkpt lat="53.227314" lon="-3.984379"><ele>256</ele><time>2022-10-20T10:06:39Z</time><name>PT491</name></trkpt>
<trkpt lat="53.227343" lon="-3.984404"><ele>255</ele><time>2022-10-20T10:06:42Z</time><name>PT492</name></trkpt>
<trkpt lat="53.227388" lon="-3.984428"><ele>255</ele><time>2022-10-20T10:06:45Z</time><name>PT493</name></trkpt>
<trkpt lat="53.227432" lon="-3.984459"><ele>255</ele><time>2022-10-20T10:06:49Z</time><name>PT494</name></trkpt>
<trkpt lat="53.227466" lon="-3.984484"><ele>256</ele><time>2022-10-20T10:06:52Z</time><name>PT495</name></trkpt>
<trkpt lat="53.227512" lon="-3.984511"><ele>256</ele><time>2022-10-20T10:06:57Z</time><name>PT496</name></trkpt>
<trkpt lat="53.227554" lon="-3.984538"><ele>255</ele><time>2022-10-20T10:07:00Z</time><name>PT497</name></trkpt>
<trkpt lat="53.227593" lon="-3.984557"><ele>256</ele><time>2022-10-20T10:07:03Z</time><name>PT498</name></trkpt>
<trkpt lat="53.227641" lon="-3.984576"><ele>255</ele><time>2022-10-20T10:07:07Z</time><name>PT499</name></trkpt>
<trkpt lat="53.227686" lon="-3.984600"><ele>255</ele><time>2022-10-20T10:07:12Z</time><name>PT500</name></trkpt>
<trkpt lat="53.227723" lon="-3.984610"><ele>255</ele><time>2022-10-20T10:07:15Z</time><name>PT501</name></trkpt>
<trkpt lat="53.227770" lon="-3.984619"><ele>255</ele><time>2022-10-20T10:07:18Z</time><name>PT502</name></trkpt>
<trkpt lat="53.227814" lon="-3.984636"><ele>254</ele><time>2022-10-20T10:07:22Z</time><name>PT503</name></trkpt>
<trkpt lat="53.227852" lon="-3.984643"><ele>254</ele><time>2022-10-20T10:07:25Z</time><name>PT504</name></trkpt>
<trkpt lat="53.227896" lon="-3.984652"><ele>253</ele><time>2022-10-20T10:07:30Z</time><name>PT505</name></trkpt>
<trkpt lat="53.227931" lon="-3.984664"><ele>253</ele><time>2022-10-20T10:07:33Z</time><name>PT506</name></trkpt>
<trkpt lat="53.227976" lon="-3.984681"><ele>253</ele><time>2022-10-20T10:07:36Z</time><name>PT507</name></trkpt>
<trkpt lat="53.228013" lon="-3.984678"><ele>253</ele><time>2022-10-20T10:07:39Z</time><name>PT508</name></trkpt>
<trkpt lat="53.228062" lon="-3.984676"><ele>252</ele><time>2022-10-20T10:07:42Z</time><name>PT509</name></trkpt>
<trkpt lat="53.228112" lon="-3.984677"><ele>251</ele><time>2022-10-20T10:07:46Z</time><name>PT510</name></trkpt>
<trkpt lat="53.228146" lon="-3.984667"><ele>251</ele><time>2022-10-20T10:07:49Z</time><name>PT511</name></trkpt>
<trkpt lat="53.228192" lon="-3.984649"><ele>251</ele><time>2022-10-20T10:07:54Z</time><name>PT512</name></trkpt>
<trkpt lat="53.228231" lon="-3.984619"><ele>252</ele><time>2022-10-20T10:07:57Z</time><name>PT513</name></trkpt>
<trkpt lat="53.228259" lon="-3.984565"><ele>250</ele><time>2022-10-20T10:08:00Z</time><name>PT514</name></trkpt>
<trkpt lat="53.228282" lon="-3.984518"><ele>253</ele><time>2022-10-20T10:08:04Z</time><name>PT515</name></trkpt>
<trkpt lat="53.228300" lon="-3.984475"><ele>253</ele><time>2022-10-20T10:08:09Z</time><name>PT516</name></trkpt>
<trkpt lat="53.228307" lon="-3.984434"><ele>253</ele><time>2022-10-20T10:08:12Z</time><name>PT517</name></trkpt>
<trkpt lat="53.228322" lon="-3.984364"><ele>254</ele><time>2022-10-20T10:08:15Z</time><name>PT518</name></trkpt>
<trkpt lat="53.228326" lon="-3.984312"><ele>255</ele><time>2022-10-20T10:08:18Z</time><name>PT519</name></trkpt>
<trkpt lat="53.228330" lon="-3.984276"><ele>256</ele><time>2022-10-20T10:08:22Z</time><name>PT520</name></trkpt>
<trkpt lat="53.228325" lon="-3.984270"><ele>255</ele><time>2022-10-20T10:08:27Z</time><name>PT521</name></trkpt>
<trkpt lat="53.228324" lon="-3.984279"><ele>255</ele><time>2022-10-20T10:08:30Z</time><name>PT522</name></trkpt>
<trkpt lat="53.228326" lon="-3.984283"><ele>255</ele><time>2022-10-20T10:08:33Z</time><name>PT523</name></trkpt>
<trkpt lat="53.228325" lon="-3.984279"><ele>256</ele><time>2022-10-20T10:08:48Z</time><name>PT524</name></trkpt>
<trkpt lat="53.228325" lon="-3.984277"><ele>255</ele><time>2022-10-20T10:08:51Z</time><name>PT525</name></trkpt>
<trkpt lat="53.228327" lon="-3.984281"><ele>255</ele><time>2022-10-20T10:09:39Z</time><name>PT526</name></trkpt>
<trkpt lat="53.228319" lon="-3.984285"><ele>254</ele><time>2022-10-20T10:09:42Z</time><name>PT527</name></trkpt>
<trkpt lat="53.228302" lon="-3.984220"><ele>255</ele><time>2022-10-20T10:09:54Z</time><name>PT528</name></trkpt>
<trkpt lat="53.228284" lon="-3.984176"><ele>256</ele><time>2022-10-20T10:09:57Z</time><name>PT529</name></trkpt>
<trkpt lat="53.228259" lon="-3.984114"><ele>256</ele><time>2022-10-20T10:10:00Z</time><name>PT530</name></trkpt>
<trkpt lat="53.228240" lon="-3.984075"><ele>258</ele><time>2022-10-20T10:10:03Z</time><name>PT531</name></trkpt>
<trkpt lat="53.228202" lon="-3.984027"><ele>257</ele><time>2022-10-20T10:10:07Z</time><name>PT532</name></trkpt>
<trkpt lat="53.228179" lon="-3.983968"><ele>257</ele><time>2022-10-20T10:10:12Z</time><name>PT533</name></trkpt>
<trkpt lat="53.228162" lon="-3.983934"><ele>258</ele><time>2022-10-20T10:10:15Z</time><name>PT534</name></trkpt>
<trkpt lat="53.228148" lon="-3.983906"><ele>258</ele><time>2022-10-20T10:10:18Z</time><name>PT535</name></trkpt>
<trkpt lat="53.228124" lon="-3.983859"><ele>258</ele><time>2022-10-20T10:10:21Z</time><name>PT536</name></trkpt>
<trkpt lat="53.228112" lon="-3.983822"><ele>258</ele><time>2022-10-20T10:10:24Z</time><name>PT537</name></trkpt>
<trkpt lat="53.228093" lon="-3.983770"><ele>258</ele><time>2022-10-20T10:10:28Z</time><name>PT538</name></trkpt>
<trkpt lat="53.228071" lon="-3.983722"><ele>259</ele><time>2022-10-20T10:10:33Z</time><name>PT539</name></trkpt>
<trkpt lat="53.228055" lon="-3.983686"><ele>259</ele><time>2022-10-20T10:10:36Z</time><name>PT540</name></trkpt>
<trkpt lat="53.228040" lon="-3.983640"><ele>259</ele><time>2022-10-20T10:10:39Z</time><name>PT541</name></trkpt>
<trkpt lat="53.228014" lon="-3.983596"><ele>260</ele><time>2022-10-20T10:10:43Z</time><name>PT542</name></trkpt>
<trkpt lat="53.227988" lon="-3.983537"><ele>259</ele><time>2022-10-20T10:10:48Z</time><name>PT543</name></trkpt>
<trkpt lat="53.227960" lon="-3.983476"><ele>260</ele><time>2022-10-20T10:10:51Z</time><name>PT544</name></trkpt>
<trkpt lat="53.227938" lon="-3.983414"><ele>260</ele><time>2022-10-20T10:10:55Z</time><name>PT545</name></trkpt>
<trkpt lat="53.227922" lon="-3.983350"><ele>261</ele><time>2022-10-20T10:11:00Z</time><name>PT546</name></trkpt>
<trkpt lat="53.227904" lon="-3.983288"><ele>261</ele><time>2022-10-20T10:11:03Z</time><name>PT547</name></trkpt>
<trkpt lat="53.227893" lon="-3.983245"><ele>262</ele><time>2022-10-20T10:11:06Z</time><name>PT548</name></trkpt>
<trkpt lat="53.227879" lon="-3.983188"><ele>262</ele><time>2022-10-20T10:11:10Z</time><name>PT549</name></trkpt>
<trkpt lat="53.227864" lon="-3.983120"><ele>264</ele><time>2022-10-20T10:11:15Z</time><name>PT550</name></trkpt>
<trkpt lat="53.227863" lon="-3.983053"><ele>264</ele><time>2022-10-20T10:11:18Z</time><name>PT551</name></trkpt>
<trkpt lat="53.227866" lon="-3.982999"><ele>264</ele><time>2022-10-20T10:11:22Z</time><name>PT552</name></trkpt>
<trkpt lat="53.227863" lon="-3.982952"><ele>265</ele><time>2022-10-20T10:11:25Z</time><name>PT553</name></trkpt>
<trkpt lat="53.227855" lon="-3.982893"><ele>266</ele><time>2022-10-20T10:11:30Z</time><name>PT554</name></trkpt>
<trkpt lat="53.227859" lon="-3.982846"><ele>265</ele><time>2022-10-20T10:11:33Z</time><name>PT555</name></trkpt>
<trkpt lat="53.227871" lon="-3.982805"><ele>267</ele><time>2022-10-20T10:11:36Z</time><name>PT556</name></trkpt>
<trkpt lat="53.227867" lon="-3.982739"><ele>267</ele><time>2022-10-20T10:11:39Z</time><name>PT557</name></trkpt>
<trkpt lat="53.227868" lon="-3.982698"><ele>267</ele><time>2022-10-20T10:11:42Z</time><name>PT558</name></trkpt>
<trkpt lat="53.227864" lon="-3.982649"><ele>267</ele><time>2022-10-20T10:11:45Z</time><name>PT559</name></trkpt>
<trkpt lat="53.227866" lon="-3.982601"><ele>266</ele><time>2022-10-20T10:11:48Z</time><name>PT560</name></trkpt>
<trkpt lat="53.227867" lon="-3.982529"><ele>266</ele><time>2022-10-20T10:11:52Z</time><name>PT561</name></trkpt>
<trkpt lat="53.227845" lon="-3.982458"><ele>267</ele><time>2022-10-20T10:11:57Z</time><name>PT562</name></trkpt>
<trkpt lat="53.227816" lon="-3.982417"><ele>267</ele><time>2022-10-20T10:12:00Z</time><name>PT563</name></trkpt>
<trkpt lat="53.227783" lon="-3.982377"><ele>268</ele><time>2022-10-20T10:12:04Z</time><name>PT564</name></trkpt>
<trkpt lat="53.227765" lon="-3.982338"><ele>268</ele><time>2022-10-20T10:12:07Z</time><name>PT565</name></trkpt>
<trkpt lat="53.227755" lon="-3.982305"><ele>268</ele><time>2022-10-20T10:12:10Z</time><name>PT566</name></trkpt>
<trkpt lat="53.227726" lon="-3.982259"><ele>269</ele><time>2022-10-20T10:12:15Z</time><name>PT567</name></trkpt>
<trkpt lat="53.227706" lon="-3.982220"><ele>269</ele><time>2022-10-20T10:12:18Z</time><name>PT568</name></trkpt>
<trkpt lat="53.227684" lon="-3.982187"><ele>270</ele><time>2022-10-20T10:12:21Z</time><name>PT569</name></trkpt>
<trkpt lat="53.227654" lon="-3.982139"><ele>270</ele><time>2022-10-20T10:12:24Z</time><name>PT570</name></trkpt>
<trkpt lat="53.227628" lon="-3.982106"><ele>272</ele><time>2022-10-20T10:12:28Z</time><name>PT571</name></trkpt>
<trkpt lat="53.227606" lon="-3.982082"><ele>271</ele><time>2022-10-20T10:12:33Z</time><name>PT572</name></trkpt>
<trkpt lat="53.227576" lon="-3.982046"><ele>272</ele><time>2022-10-20T10:12:36Z</time><name>PT573</name></trkpt>
<trkpt lat="53.227549" lon="-3.982025"><ele>271</ele><time>2022-10-20T10:12:39Z</time><name>PT574</name></trkpt>
<trkpt lat="53.227515" lon="-3.981990"><ele>271</ele><time>2022-10-20T10:12:43Z</time><name>PT575</name></trkpt>
<trkpt lat="53.227494" lon="-3.981961"><ele>271</ele><time>2022-10-20T10:12:46Z</time><name>PT576</name></trkpt>
<trkpt lat="53.227476" lon="-3.981928"><ele>271</ele><time>2022-10-20T10:12:49Z</time><name>PT577</name></trkpt>
<trkpt lat="53.227457" lon="-3.981874"><ele>271</ele><time>2022-10-20T10:12:54Z</time><name>PT578</name></trkpt>
<trkpt lat="53.227451" lon="-3.981810"><ele>272</ele><time>2022-10-20T10:12:57Z</time><name>PT579</name></trkpt>
<trkpt lat="53.227451" lon="-3.981769"><ele>272</ele><time>2022-10-20T10:13:00Z</time><name>PT580</name></trkpt>
<trkpt lat="53.227453" lon="-3.981729"><ele>272</ele><time>2022-10-20T10:13:03Z</time><name>PT581</name></trkpt>
<trkpt lat="53.227455" lon="-3.981689"><ele>273</ele><time>2022-10-20T10:13:06Z</time><name>PT582</name></trkpt>
<trkpt lat="53.227458" lon="-3.981637"><ele>273</ele><time>2022-10-20T10:13:09Z</time><name>PT583</name></trkpt>
<trkpt lat="53.227458" lon="-3.981567"><ele>273</ele><time>2022-10-20T10:13:13Z</time><name>PT584</name></trkpt>
<trkpt lat="53.227456" lon="-3.981513"><ele>273</ele><time>2022-10-20T10:13:16Z</time><name>PT585</name></trkpt>
<trkpt lat="53.227457" lon="-3.981457"><ele>273</ele><time>2022-10-20T10:13:19Z</time><name>PT586</name></trkpt>
<trkpt lat="53.227460" lon="-3.981395"><ele>273</ele><time>2022-10-20T10:13:24Z</time><name>PT587</name></trkpt>
<trkpt lat="53.227466" lon="-3.981350"><ele>274</ele><time>2022-10-20T10:13:27Z</time><name>PT588</name></trkpt>
<trkpt lat="53.227472" lon="-3.981289"><ele>274</ele><time>2022-10-20T10:13:30Z</time><name>PT589</name></trkpt>
<trkpt lat="53.227479" lon="-3.981215"><ele>274</ele><time>2022-10-20T10:13:34Z</time><name>PT590</name></trkpt>
<trkpt lat="53.227493" lon="-3.981145"><ele>275</ele><time>2022-10-20T10:13:39Z</time><name>PT591</name></trkpt>
<trkpt lat="53.227492" lon="-3.981086"><ele>274</ele><time>2022-10-20T10:13:42Z</time><name>PT592</name></trkpt>
<trkpt lat="53.227482" lon="-3.981038"><ele>274</ele><time>2022-10-20T10:13:45Z</time><name>PT593</name></trkpt>
<trkpt lat="53.227466" lon="-3.980961"><ele>274</ele><time>2022-10-20T10:13:48Z</time><name>PT594</name></trkpt>
<trkpt lat="53.227463" lon="-3.980888"><ele>274</ele><time>2022-10-20T10:13:52Z</time><name>PT595</name></trkpt>
<trkpt lat="53.227457" lon="-3.980847"><ele>274</ele><time>2022-10-20T10:13:55Z</time><name>PT596</name></trkpt>
<trkpt lat="53.227442" lon="-3.980791"><ele>274</ele><time>2022-10-20T10:14:00Z</time><name>PT597</name></trkpt>
<trkpt lat="53.227422" lon="-3.980750"><ele>275</ele><time>2022-10-20T10:14:03Z</time><name>PT598</name></trkpt>
<trkpt lat="53.227397" lon="-3.980688"><ele>276</ele><time>2022-10-20T10:14:06Z</time><name>PT599</name></trkpt>
<trkpt lat="53.227379" lon="-3.980650"><ele>277</ele><time>2022-10-20T10:14:09Z</time><name>PT600</name></trkpt>
<trkpt lat="53.227355" lon="-3.980602"><ele>278</ele><time>2022-10-20T10:14:13Z</time><name>PT601</name></trkpt>
<trkpt lat="53.227329" lon="-3.980555"><ele>278</ele><time>2022-10-20T10:14:18Z</time><name>PT602</name></trkpt>
<trkpt lat="53.227295" lon="-3.980515"><ele>279</ele><time>2022-10-20T10:14:21Z</time><name>PT603</name></trkpt>
<trkpt lat="53.227267" lon="-3.980485"><ele>279</ele><time>2022-10-20T10:14:24Z</time><name>PT604</name></trkpt>
<trkpt lat="53.227241" lon="-3.980448"><ele>280</ele><time>2022-10-20T10:14:28Z</time><name>PT605</name></trkpt>
<trkpt lat="53.227221" lon="-3.980413"><ele>280</ele><time>2022-10-20T10:14:33Z</time><name>PT606</name></trkpt>
<trkpt lat="53.227209" lon="-3.980378"><ele>280</ele><time>2022-10-20T10:14:36Z</time><name>PT607</name></trkpt>
<trkpt lat="53.227195" lon="-3.980348"><ele>280</ele><time>2022-10-20T10:14:39Z</time><name>PT608</name></trkpt>
<trkpt lat="53.227185" lon="-3.980315"><ele>280</ele><time>2022-10-20T10:14:42Z</time><name>PT609</name></trkpt>
<trkpt lat="53.227172" lon="-3.980265"><ele>281</ele><time>2022-10-20T10:14:45Z</time><name>PT610</name></trkpt>
<trkpt lat="53.227155" lon="-3.980240"><ele>280</ele><time>2022-10-20T10:14:48Z</time><name>PT611</name></trkpt>
<trkpt lat="53.227139" lon="-3.980192"><ele>280</ele><time>2022-10-20T10:14:52Z</time><name>PT612</name></trkpt>
<trkpt lat="53.227128" lon="-3.980155"><ele>281</ele><time>2022-10-20T10:14:55Z</time><name>PT613</name></trkpt>
<trkpt lat="53.227105" lon="-3.980120"><ele>282</ele><time>2022-10-20T10:15:00Z</time><name>PT614</name></trkpt>
<trkpt lat="53.227090" lon="-3.980086"><ele>282</ele><time>2022-10-20T10:15:03Z</time><name>PT615</name></trkpt>
<trkpt lat="53.227069" lon="-3.980037"><ele>283</ele><time>2022-10-20T10:15:07Z</time><name>PT616</name></trkpt>
<trkpt lat="53.227048" lon="-3.979989"><ele>284</ele><time>2022-10-20T10:15:12Z</time><name>PT617</name></trkpt>
<trkpt lat="53.227034" lon="-3.979938"><ele>285</ele><time>2022-10-20T10:15:15Z</time><name>PT618</name></trkpt>
<trkpt lat="53.227022" lon="-3.979889"><ele>286</ele><time>2022-10-20T10:15:19Z</time><name>PT619</name></trkpt>
<trkpt lat="53.227017" lon="-3.979856"><ele>287</ele><time>2022-10-20T10:15:22Z</time><name>PT620</name></trkpt>
<trkpt lat="53.227017" lon="-3.979796"><ele>288</ele><time>2022-10-20T10:15:27Z</time><name>PT621</name></trkpt>
<trkpt lat="53.227008" lon="-3.979770"><ele>288</ele><time>2022-10-20T10:15:30Z</time><name>PT622</name></trkpt>
<trkpt lat="53.226996" lon="-3.979736"><ele>289</ele><time>2022-10-20T10:15:33Z</time><name>PT623</name></trkpt>
<trkpt lat="53.226978" lon="-3.979704"><ele>289</ele><time>2022-10-20T10:15:36Z</time><name>PT624</name></trkpt>
<trkpt lat="53.226978" lon="-3.979662"><ele>291</ele><time>2022-10-20T10:15:39Z</time><name>PT625</name></trkpt>
<trkpt lat="53.226977" lon="-3.979610"><ele>291</ele><time>2022-10-20T10:15:43Z</time><name>PT626</name></trkpt>
<trkpt lat="53.226953" lon="-3.979589"><ele>291</ele><time>2022-10-20T10:15:46Z</time><name>PT627</name></trkpt>
<trkpt lat="53.226924" lon="-3.979565"><ele>292</ele><time>2022-10-20T10:15:51Z</time><name>PT628</name></trkpt>
<trkpt lat="53.226900" lon="-3.979533"><ele>293</ele><time>2022-10-20T10:15:54Z</time><name>PT629</name></trkpt>
<trkpt lat="53.226884" lon="-3.979510"><ele>293</ele><time>2022-10-20T10:15:57Z</time><name>PT630</name></trkpt>
<trkpt lat="53.226853" lon="-3.979499"><ele>295</ele><time>2022-10-20T10:16:01Z</time><name>PT631</name></trkpt>
<trkpt lat="53.226851" lon="-3.979466"><ele>295</ele><time>2022-10-20T10:16:04Z</time><name>PT632</name></trkpt>
<trkpt lat="53.226843" lon="-3.979427"><ele>295</ele><time>2022-10-20T10:16:09Z</time><name>PT633</name></trkpt>
<trkpt lat="53.226834" lon="-3.979393"><ele>295</ele><time>2022-10-20T10:16:12Z</time><name>PT634</name></trkpt>
<trkpt lat="53.226834" lon="-3.979359"><ele>296</ele><time>2022-10-20T10:16:15Z</time><name>PT635</name></trkpt>
<trkpt lat="53.226832" lon="-3.979305"><ele>295</ele><time>2022-10-20T10:16:18Z</time><name>PT636</name></trkpt>
<trkpt lat="53.226828" lon="-3.979266"><ele>295</ele><time>2022-10-20T10:16:21Z</time><name>PT637</name></trkpt>
<trkpt lat="53.226824" lon="-3.979224"><ele>297</ele><time>2022-10-20T10:16:25Z</time><name>PT638</name></trkpt>
<trkpt lat="53.226820" lon="-3.979168"><ele>297</ele><time>2022-10-20T10:16:30Z</time><name>PT639</name></trkpt>
<trkpt lat="53.226812" lon="-3.979132"><ele>298</ele><time>2022-10-20T10:16:33Z</time><name>PT640</name></trkpt>
<trkpt lat="53.226803" lon="-3.979086"><ele>300</ele><time>2022-10-20T10:16:36Z</time><name>PT641</name></trkpt>
<trkpt lat="53.226798" lon="-3.979052"><ele>300</ele><time>2022-10-20T10:16:39Z</time><name>PT642</name></trkpt>
<trkpt lat="53.226792" lon="-3.979001"><ele>301</ele><time>2022-10-20T10:16:43Z</time><name>PT643</name></trkpt>
<trkpt lat="53.226786" lon="-3.978967"><ele>302</ele><time>2022-10-20T10:16:46Z</time><name>PT644</name></trkpt>
<trkpt lat="53.226779" lon="-3.978935"><ele>303</ele><time>2022-10-20T10:16:49Z</time><name>PT645</name></trkpt>
<trkpt lat="53.226762" lon="-3.978908"><ele>302</ele><time>2022-10-20T10:16:52Z</time><name>PT646</name></trkpt>
<trkpt lat="53.226751" lon="-3.978873"><ele>302</ele><time>2022-10-20T10:16:57Z</time><name>PT647</name></trkpt>
<trkpt lat="53.226736" lon="-3.978839"><ele>303</ele><time>2022-10-20T10:17:00Z</time><name>PT648</name></trkpt>
<trkpt lat="53.226727" lon="-3.978805"><ele>304</ele><time>2022-10-20T10:17:04Z</time><name>PT649</name></trkpt>
<trkpt lat="53.226717" lon="-3.978785"><ele>305</ele><time>2022-10-20T10:17:07Z</time><name>PT650</name></trkpt>
<trkpt lat="53.226704" lon="-3.978759"><ele>305</ele><time>2022-10-20T10:17:10Z</time><name>PT651</name></trkpt>
<trkpt lat="53.226694" lon="-3.978724"><ele>306</ele><time>2022-10-20T10:17:15Z</time><name>PT652</name></trkpt>
<trkpt lat="53.226684" lon="-3.978699"><ele>307</ele><time>2022-10-20T10:17:18Z</time><name>PT653</name></trkpt>
<trkpt lat="53.226668" lon="-3.978656"><ele>308</ele><time>2022-10-20T10:17:21Z</time><name>PT654</name></trkpt>
<trkpt lat="53.226658" lon="-3.978627"><ele>309</ele><time>2022-10-20T10:17:24Z</time><name>PT655</name></trkpt>
<trkpt lat="53.226643" lon="-3.978589"><ele>309</ele><time>2022-10-20T10:17:28Z</time><name>PT656</name></trkpt>
<trkpt lat="53.226629" lon="-3.978555"><ele>310</ele><time>2022-10-20T10:17:33Z</time><name>PT657</name></trkpt>
<trkpt lat="53.226620" lon="-3.978526"><ele>311</ele><time>2022-10-20T10:17:36Z</time><name>PT658</name></trkpt>
<trkpt lat="53.226603" lon="-3.978476"><ele>311</ele><time>2022-10-20T10:17:39Z</time><name>PT659</name></trkpt>
<trkpt lat="53.226587" lon="-3.978440"><ele>311</ele><time>2022-10-20T10:17:43Z</time><name>PT660</name></trkpt>
<trkpt lat="53.226567" lon="-3.978412"><ele>312</ele><time>2022-10-20T10:17:48Z</time><name>PT661</name></trkpt>
<trkpt lat="53.226543" lon="-3.978376"><ele>313</ele><time>2022-10-20T10:17:51Z</time><name>PT662</name></trkpt>
<trkpt lat="53.226518" lon="-3.978344"><ele>313</ele><time>2022-10-20T10:17:55Z</time><name>PT663</name></trkpt>
<trkpt lat="53.226495" lon="-3.978308"><ele>314</ele><time>2022-10-20T10:18:00Z</time><name>PT664</name></trkpt>
<trkpt lat="53.226474" lon="-3.978280"><ele>314</ele><time>2022-10-20T10:18:03Z</time><name>PT665</name></trkpt>
<trkpt lat="53.226448" lon="-3.978266"><ele>315</ele><time>2022-10-20T10:18:06Z</time><name>PT666</name></trkpt>
<trkpt lat="53.226428" lon="-3.978249"><ele>315</ele><time>2022-10-20T10:18:09Z</time><name>PT667</name></trkpt>
<trkpt lat="53.226405" lon="-3.978235"><ele>315</ele><time>2022-10-20T10:18:12Z</time><name>PT668</name></trkpt>
<trkpt lat="53.226373" lon="-3.978222"><ele>315</ele><time>2022-10-20T10:18:16Z</time><name>PT669</name></trkpt>
<trkpt lat="53.226352" lon="-3.978208"><ele>316</ele><time>2022-10-20T10:18:21Z</time><name>PT670</name></trkpt>
<trkpt lat="53.226329" lon="-3.978191"><ele>317</ele><time>2022-10-20T10:18:24Z</time><name>PT671</name></trkpt>
<trkpt lat="53.226310" lon="-3.978167"><ele>319</ele><time>2022-10-20T10:18:28Z</time><name>PT672</name></trkpt>
<trkpt lat="53.226292" lon="-3.978148"><ele>320</ele><time>2022-10-20T10:18:33Z</time><name>PT673</name></trkpt>
<trkpt lat="53.226277" lon="-3.978133"><ele>320</ele><time>2022-10-20T10:18:36Z</time><name>PT674</name></trkpt>
<trkpt lat="53.226232" lon="-3.978112"><ele>323</ele><time>2022-10-20T10:18:58Z</time><name>PT675</name></trkpt>
<trkpt lat="53.226228" lon="-3.978106"><ele>324</ele><time>2022-10-20T10:19:03Z</time><name>PT676</name></trkpt>
<trkpt lat="53.226198" lon="-3.978114"><ele>326</ele><time>2022-10-20T10:19:09Z</time><name>PT677</name></trkpt>
<trkpt lat="53.226152" lon="-3.978074"><ele>326</ele><time>2022-10-20T10:19:13Z</time><name>PT678</name></trkpt>
<trkpt lat="53.226133" lon="-3.978080"><ele>327</ele><time>2022-10-20T10:19:18Z</time><name>PT679</name></trkpt>
<trkpt lat="53.226105" lon="-3.978073"><ele>328</ele><time>2022-10-20T10:19:24Z</time><name>PT680</name></trkpt>
<trkpt lat="53.226078" lon="-3.978070"><ele>329</ele><time>2022-10-20T10:19:27Z</time><name>PT681</name></trkpt>
<trkpt lat="53.226055" lon="-3.978081"><ele>330</ele><time>2022-10-20T10:19:31Z</time><name>PT682</name></trkpt>
<trkpt lat="53.226050" lon="-3.978088"><ele>330</ele><time>2022-10-20T10:19:36Z</time><name>PT683</name></trkpt>
<trkpt lat="53.226011" lon="-3.978122"><ele>333</ele><time>2022-10-20T10:19:54Z</time><name>PT684</name></trkpt>
<trkpt lat="53.225966" lon="-3.978125"><ele>334</ele><time>2022-10-20T10:19:57Z</time><name>PT685</name></trkpt>
<trkpt lat="53.225938" lon="-3.978137"><ele>334</ele><time>2022-10-20T10:20:00Z</time><name>PT686</name></trkpt>
<trkpt lat="53.225904" lon="-3.978162"><ele>335</ele><time>2022-10-20T10:20:04Z</time><name>PT687</name></trkpt>
<trkpt lat="53.225885" lon="-3.978167"><ele>336</ele><time>2022-10-20T10:20:07Z</time><name>PT688</name></trkpt>
<trkpt lat="53.225865" lon="-3.978175"><ele>338</ele><time>2022-10-20T10:20:10Z</time><name>PT689</name></trkpt>
<trkpt lat="53.225843" lon="-3.978187"><ele>339</ele><time>2022-10-20T10:20:15Z</time><name>PT690</name></trkpt>
<trkpt lat="53.225824" lon="-3.978186"><ele>341</ele><time>2022-10-20T10:20:18Z</time><name>PT691</name></trkpt>
<trkpt lat="53.225792" lon="-3.978195"><ele>342</ele><time>2022-10-20T10:20:22Z</time><name>PT692</name></trkpt>
<trkpt lat="53.225770" lon="-3.978187"><ele>343</ele><time>2022-10-20T10:20:25Z</time><name>PT693</name></trkpt>
<trkpt lat="53.225756" lon="-3.978177"><ele>344</ele><time>2022-10-20T10:20:28Z</time><name>PT694</name></trkpt>
<trkpt lat="53.225742" lon="-3.978158"><ele>343</ele><time>2022-10-20T10:20:31Z</time><name>PT695</name></trkpt>
<trkpt lat="53.225734" lon="-3.978154"><ele>343</ele><time>2022-10-20T10:20:36Z</time><name>PT696</name></trkpt>
<trkpt lat="53.225708" lon="-3.978156"><ele>344</ele><time>2022-10-20T10:20:42Z</time><name>PT697</name></trkpt>
<trkpt lat="53.225685" lon="-3.978149"><ele>345</ele><time>2022-10-20T10:20:45Z</time><name>PT698</name></trkpt>
<trkpt lat="53.225671" lon="-3.978138"><ele>346</ele><time>2022-10-20T10:20:48Z</time><name>PT699</name></trkpt>
<trkpt lat="53.225668" lon="-3.978113"><ele>345</ele><time>2022-10-20T10:20:52Z</time><name>PT700</name></trkpt>
<trkpt lat="53.225661" lon="-3.978100"><ele>345</ele><time>2022-10-20T10:20:57Z</time><name>PT701</name></trkpt>
<trkpt lat="53.225664" lon="-3.978074"><ele>346</ele><time>2022-10-20T10:21:13Z</time><name>PT702</name></trkpt>
<trkpt lat="53.225668" lon="-3.978085"><ele>346</ele><time>2022-10-20T10:21:16Z</time><name>PT703</name></trkpt>
<trkpt lat="53.225663" lon="-3.978074"><ele>345</ele><time>2022-10-20T10:21:21Z</time><name>PT704</name></trkpt>
<trkpt lat="53.225672" lon="-3.978058"><ele>346</ele><time>2022-10-20T10:21:24Z</time><name>PT705</name></trkpt>
<trkpt lat="53.225673" lon="-3.978070"><ele>345</ele><time>2022-10-20T10:21:36Z</time><name>PT706</name></trkpt>
<trkpt lat="53.225672" lon="-3.978063"><ele>345</ele><time>2022-10-20T10:21:39Z</time><name>PT707</name></trkpt>
<trkpt lat="53.225664" lon="-3.978056"><ele>348</ele><time>2022-10-20T10:21:51Z</time><name>PT708</name></trkpt>
<trkpt lat="53.225663" lon="-3.978038"><ele>348</ele><time>2022-10-20T10:22:15Z</time><name>PT709</name></trkpt>
<trkpt lat="53.225666" lon="-3.978029"><ele>348</ele><time>2022-10-20T10:22:18Z</time><name>PT710</name></trkpt>
<trkpt lat="53.225664" lon="-3.978031"><ele>348</ele><time>2022-10-20T10:22:21Z</time><name>PT711</name></trkpt>
<trkpt lat="53.225664" lon="-3.978030"><ele>348</ele><time>2022-10-20T10:22:24Z</time><name>PT712</name></trkpt>
<trkpt lat="53.225664" lon="-3.978038"><ele>347</ele><time>2022-10-20T10:22:28Z</time><name>PT713</name></trkpt>
<trkpt lat="53.225665" lon="-3.978032"><ele>347</ele><time>2022-10-20T10:22:40Z</time><name>PT714</name></trkpt>
<trkpt lat="53.225669" lon="-3.978032"><ele>346</ele><time>2022-10-20T10:22:43Z</time><name>PT715</name></trkpt>
<trkpt lat="53.225673" lon="-3.978047"><ele>345</ele><time>2022-10-20T10:22:54Z</time><name>PT716</name></trkpt>
<trkpt lat="53.225670" lon="-3.978053"><ele>346</ele><time>2022-10-20T10:23:09Z</time><name>PT717</name></trkpt>
<trkpt lat="53.225667" lon="-3.978052"><ele>346</ele><time>2022-10-20T10:23:12Z</time><name>PT718</name></trkpt>
<trkpt lat="53.225670" lon="-3.978062"><ele>347</ele><time>2022-10-20T10:23:16Z</time><name>PT719</name></trkpt>
<trkpt lat="53.225667" lon="-3.978067"><ele>347</ele><time>2022-10-20T10:23:21Z</time><name>PT720</name></trkpt>
<trkpt lat="53.225666" lon="-3.978071"><ele>347</ele><time>2022-10-20T10:23:31Z</time><name>PT721</name></trkpt>
<trkpt lat="53.225665" lon="-3.978074"><ele>347</ele><time>2022-10-20T10:23:36Z</time><name>PT722</name></trkpt>
<trkpt lat="53.225667" lon="-3.978068"><ele>346</ele><time>2022-10-20T10:23:49Z</time><name>PT723</name></trkpt>
<trkpt lat="53.225664" lon="-3.978068"><ele>346</ele><time>2022-10-20T10:23:52Z</time><name>PT724</name></trkpt>
<trkpt lat="53.225663" lon="-3.978066"><ele>346</ele><time>2022-10-20T10:23:57Z</time><name>PT725</name></trkpt>
<trkpt lat="53.225667" lon="-3.978060"><ele>346</ele><time>2022-10-20T10:24:13Z</time><name>PT726</name></trkpt>
<trkpt lat="53.225667" lon="-3.978077"><ele>348</ele><time>2022-10-20T10:24:34Z</time><name>PT727</name></trkpt>
<trkpt lat="53.225668" lon="-3.978078"><ele>347</ele><time>2022-10-20T10:24:39Z</time><name>PT728</name></trkpt>
<trkpt lat="53.225674" lon="-3.978087"><ele>347</ele><time>2022-10-20T10:24:49Z</time><name>PT729</name></trkpt>
<trkpt lat="53.225673" lon="-3.978083"><ele>347</ele><time>2022-10-20T10:24:52Z</time><name>PT730</name></trkpt>
<trkpt lat="53.225668" lon="-3.978079"><ele>347</ele><time>2022-10-20T10:25:00Z</time><name>PT731</name></trkpt>
<trkpt lat="53.225667" lon="-3.978085"><ele>348</ele><time>2022-10-20T10:25:39Z</time><name>PT732</name></trkpt>
<trkpt lat="53.225664" lon="-3.978088"><ele>349</ele><time>2022-10-20T10:25:46Z</time><name>PT733</name></trkpt>
<trkpt lat="53.225673" lon="-3.978062"><ele>350</ele><time>2022-10-20T10:25:49Z</time><name>PT734</name></trkpt>
<trkpt lat="53.225686" lon="-3.978026"><ele>351</ele><time>2022-10-20T10:25:54Z</time><name>PT735</name></trkpt>
<trkpt lat="53.225686" lon="-3.978016"><ele>351</ele><time>2022-10-20T10:25:57Z</time><name>PT736</name></trkpt>
<trkpt lat="53.225685" lon="-3.978013"><ele>351</ele><time>2022-10-20T10:26:00Z</time><name>PT737</name></trkpt>
<trkpt lat="53.225683" lon="-3.977979"><ele>352</ele><time>2022-10-20T10:26:03Z</time><name>PT738</name></trkpt>
<trkpt lat="53.225677" lon="-3.977934"><ele>353</ele><time>2022-10-20T10:26:07Z</time><name>PT739</name></trkpt>
<trkpt lat="53.225681" lon="-3.977889"><ele>353</ele><time>2022-10-20T10:26:12Z</time><name>PT740</name></trkpt>
<trkpt lat="53.225680" lon="-3.977849"><ele>354</ele><time>2022-10-20T10:26:15Z</time><name>PT741</name></trkpt>
<trkpt lat="53.225689" lon="-3.977804"><ele>354</ele><time>2022-10-20T10:26:18Z</time><name>PT742</name></trkpt>
<trkpt lat="53.225688" lon="-3.977763"><ele>354</ele><time>2022-10-20T10:26:22Z</time><name>PT743</name></trkpt>
<trkpt lat="53.225686" lon="-3.977721"><ele>354</ele><time>2022-10-20T10:26:27Z</time><name>PT744</name></trkpt>
<trkpt lat="53.225690" lon="-3.977673"><ele>354</ele><time>2022-10-20T10:26:30Z</time><name>PT745</name></trkpt>
<trkpt lat="53.225694" lon="-3.977629"><ele>355</ele><time>2022-10-20T10:26:34Z</time><name>PT746</name></trkpt>
<trkpt lat="53.225698" lon="-3.977596"><ele>356</ele><time>2022-10-20T10:26:37Z</time><name>PT747</name></trkpt>
<trkpt lat="53.225698" lon="-3.977562"><ele>357</ele><time>2022-10-20T10:26:42Z</time><name>PT748</name></trkpt>
<trkpt lat="53.225697" lon="-3.977548"><ele>357</ele><time>2022-10-20T10:26:45Z</time><name>PT749</name></trkpt>
<trkpt lat="53.225676" lon="-3.977493"><ele>358</ele><time>2022-10-20T10:27:19Z</time><name>PT750</name></trkpt>
<trkpt lat="53.225663" lon="-3.977445"><ele>360</ele><time>2022-10-20T10:27:22Z</time><name>PT751</name></trkpt>
<trkpt lat="53.225666" lon="-3.977406"><ele>361</ele><time>2022-10-20T10:27:25Z</time><name>PT752</name></trkpt>
<trkpt lat="53.225663" lon="-3.977374"><ele>362</ele><time>2022-10-20T10:27:30Z</time><name>PT753</name></trkpt>
<trkpt lat="53.225657" lon="-3.977320"><ele>363</ele><time>2022-10-20T10:27:36Z</time><name>PT754</name></trkpt>
<trkpt lat="53.225654" lon="-3.977283"><ele>364</ele><time>2022-10-20T10:27:39Z</time><name>PT755</name></trkpt>
<trkpt lat="53.225645" lon="-3.977235"><ele>366</ele><time>2022-10-20T10:27:43Z</time><name>PT756</name></trkpt>
<trkpt lat="53.225654" lon="-3.977203"><ele>367</ele><time>2022-10-20T10:27:48Z</time><name>PT757</name></trkpt>
<trkpt lat="53.225652" lon="-3.977148"><ele>368</ele><time>2022-10-20T10:27:51Z</time><name>PT758</name></trkpt>
<trkpt lat="53.225646" lon="-3.977088"><ele>369</ele><time>2022-10-20T10:27:55Z</time><name>PT759</name></trkpt>
<trkpt lat="53.225639" lon="-3.977042"><ele>370</ele><time>2022-10-20T10:28:00Z</time><name>PT760</name></trkpt>
<trkpt lat="53.225637" lon="-3.977028"><ele>370</ele><time>2022-10-20T10:28:06Z</time><name>PT761</name></trkpt>
<trkpt lat="53.225634" lon="-3.976944"><ele>372</ele><time>2022-10-20T10:28:10Z</time><name>PT762</name></trkpt>
<trkpt lat="53.225635" lon="-3.976902"><ele>373</ele><time>2022-10-20T10:28:13Z</time><name>PT763</name></trkpt>
<trkpt lat="53.225633" lon="-3.976840"><ele>374</ele><time>2022-10-20T10:28:18Z</time><name>PT764</name></trkpt>
<trkpt lat="53.225630" lon="-3.976810"><ele>375</ele><time>2022-10-20T10:28:21Z</time><name>PT765</name></trkpt>
<trkpt lat="53.225628" lon="-3.976764"><ele>376</ele><time>2022-10-20T10:28:24Z</time><name>PT766</name></trkpt>
<trkpt lat="53.225625" lon="-3.976718"><ele>376</ele><time>2022-10-20T10:28:28Z</time><name>PT767</name></trkpt>
<trkpt lat="53.225617" lon="-3.976690"><ele>377</ele><time>2022-10-20T10:28:31Z</time><name>PT768</name></trkpt>
<trkpt lat="53.225616" lon="-3.976682"><ele>378</ele><time>2022-10-20T10:28:36Z</time><name>PT769</name></trkpt>
<trkpt lat="53.225608" lon="-3.976624"><ele>378</ele><time>2022-10-20T10:28:54Z</time><name>PT770</name></trkpt>
<trkpt lat="53.225601" lon="-3.976578"><ele>380</ele><time>2022-10-20T10:28:57Z</time><name>PT771</name></trkpt>
<trkpt lat="53.225596" lon="-3.976497"><ele>381</ele><time>2022-10-20T10:29:00Z</time><name>PT772</name></trkpt>
<trkpt lat="53.225591" lon="-3.976442"><ele>382</ele><time>2022-10-20T10:29:03Z</time><name>PT773</name></trkpt>
<trkpt lat="53.225596" lon="-3.976360"><ele>383</ele><time>2022-10-20T10:29:07Z</time><name>PT774</name></trkpt>
<trkpt lat="53.225588" lon="-3.976308"><ele>384</ele><time>2022-10-20T10:29:12Z</time><name>PT775</name></trkpt>
<trkpt lat="53.225585" lon="-3.976265"><ele>385</ele><time>2022-10-20T10:29:15Z</time><name>PT776</name></trkpt>
<trkpt lat="53.225581" lon="-3.976222"><ele>385</ele><time>2022-10-20T10:29:18Z</time><name>PT777</name></trkpt>
<trkpt lat="53.225565" lon="-3.976170"><ele>386</ele><time>2022-10-20T10:29:21Z</time><name>PT778</name></trkpt>
<trkpt lat="53.225564" lon="-3.976116"><ele>387</ele><time>2022-10-20T10:29:25Z</time><name>PT779</name></trkpt>
<trkpt lat="53.225560" lon="-3.976073"><ele>388</ele><time>2022-10-20T10:29:28Z</time><name>PT780</name></trkpt>
<trkpt lat="53.225553" lon="-3.976019"><ele>388</ele><time>2022-10-20T10:29:33Z</time><name>PT781</name></trkpt>
<trkpt lat="53.225543" lon="-3.975983"><ele>389</ele><time>2022-10-20T10:29:36Z</time><name>PT782</name></trkpt>
<trkpt lat="53.225526" lon="-3.975926"><ele>390</ele><time>2022-10-20T10:29:39Z</time><name>PT783</name></trkpt>
<trkpt lat="53.225523" lon="-3.975877"><ele>390</ele><time>2022-10-20T10:29:43Z</time><name>PT784</name></trkpt>
<trkpt lat="53.225511" lon="-3.975836"><ele>389</ele><time>2022-10-20T10:29:46Z</time><name>PT785</name></trkpt>
<trkpt lat="53.225494" lon="-3.975788"><ele>390</ele><time>2022-10-20T10:29:51Z</time><name>PT786</name></trkpt>
<trkpt lat="53.225486" lon="-3.975744"><ele>390</ele><time>2022-10-20T10:29:54Z</time><name>PT787</name></trkpt>
<trkpt lat="53.225465" lon="-3.975697"><ele>390</ele><time>2022-10-20T10:29:57Z</time><name>PT788</name></trkpt>
<trkpt lat="53.225444" lon="-3.975651"><ele>391</ele><time>2022-10-20T10:30:01Z</time><name>PT789</name></trkpt>
<trkpt lat="53.225430" lon="-3.975626"><ele>391</ele><time>2022-10-20T10:30:04Z</time><name>PT790</name></trkpt>
<trkpt lat="53.225410" lon="-3.975598"><ele>392</ele><time>2022-10-20T10:30:09Z</time><name>PT791</name></trkpt>
<trkpt lat="53.225385" lon="-3.975566"><ele>393</ele><time>2022-10-20T10:30:12Z</time><name>PT792</name></trkpt>
<trkpt lat="53.225368" lon="-3.975558"><ele>393</ele><time>2022-10-20T10:30:15Z</time><name>PT793</name></trkpt>
<trkpt lat="53.225351" lon="-3.975562"><ele>394</ele><time>2022-10-20T10:30:18Z</time><name>PT794</name></trkpt>
<trkpt lat="53.225332" lon="-3.975546"><ele>394</ele><time>2022-10-20T10:30:21Z</time><name>PT795</name></trkpt>
<trkpt lat="53.225311" lon="-3.975527"><ele>395</ele><time>2022-10-20T10:30:25Z</time><name>PT796</name></trkpt>
<trkpt lat="53.225297" lon="-3.975519"><ele>396</ele><time>2022-10-20T10:30:30Z</time><name>PT797</name></trkpt>
<trkpt lat="53.225284" lon="-3.975508"><ele>397</ele><time>2022-10-20T10:30:33Z</time><name>PT798</name></trkpt>
<trkpt lat="53.225270" lon="-3.975482"><ele>398</ele><time>2022-10-20T10:30:36Z</time><name>PT799</name></trkpt>
<trkpt lat="53.225263" lon="-3.975472"><ele>398</ele><time>2022-10-20T10:30:40Z</time><name>PT800</name></trkpt>
<trkpt lat="53.225262" lon="-3.975445"><ele>399</ele><time>2022-10-20T10:30:45Z</time><name>PT801</name></trkpt>
<trkpt lat="53.225259" lon="-3.975440"><ele>399</ele><time>2022-10-20T10:30:48Z</time><name>PT802</name></trkpt>
<trkpt lat="53.225257" lon="-3.975433"><ele>399</ele><time>2022-10-20T10:30:52Z</time><name>PT803</name></trkpt>
<trkpt lat="53.225249" lon="-3.975400"><ele>400</ele><time>2022-10-20T10:30:57Z</time><name>PT804</name></trkpt>
<trkpt lat="53.225253" lon="-3.975367"><ele>401</ele><time>2022-10-20T10:31:00Z</time><name>PT805</name></trkpt>
<trkpt lat="53.225255" lon="-3.975320"><ele>401</ele><time>2022-10-20T10:31:03Z</time><name>PT806</name></trkpt>
<trkpt lat="53.225255" lon="-3.975266"><ele>402</ele><time>2022-10-20T10:31:07Z</time><name>PT807</name></trkpt>
<trkpt lat="53.225257" lon="-3.975213"><ele>402</ele><time>2022-10-20T10:31:12Z</time><name>PT808</name></trkpt>
<trkpt lat="53.225255" lon="-3.975177"><ele>403</ele><time>2022-10-20T10:31:15Z</time><name>PT809</name></trkpt>
<trkpt lat="53.225268" lon="-3.975114"><ele>404</ele><time>2022-10-20T10:31:18Z</time><name>PT810</name></trkpt>
<trkpt lat="53.225270" lon="-3.975074"><ele>404</ele><time>2022-10-20T10:31:21Z</time><name>PT811</name></trkpt>
<trkpt lat="53.225278" lon="-3.975030"><ele>405</ele><time>2022-10-20T10:31:25Z</time><name>PT812</name></trkpt>
<trkpt lat="53.225286" lon="-3.974970"><ele>406</ele><time>2022-10-20T10:31:30Z</time><name>PT813</name></trkpt>
<trkpt lat="53.225288" lon="-3.974923"><ele>406</ele><time>2022-10-20T10:31:33Z</time><name>PT814</name></trkpt>
<trkpt lat="53.225291" lon="-3.974889"><ele>406</ele><time>2022-10-20T10:31:36Z</time><name>PT815</name></trkpt>
<trkpt lat="53.225297" lon="-3.974839"><ele>407</ele><time>2022-10-20T10:31:39Z</time><name>PT816</name></trkpt>
<trkpt lat="53.225306" lon="-3.974795"><ele>408</ele><time>2022-10-20T10:31:42Z</time><name>PT817</name></trkpt>
<trkpt lat="53.225310" lon="-3.974743"><ele>409</ele><time>2022-10-20T10:31:46Z</time><name>PT818</name></trkpt>
<trkpt lat="53.225318" lon="-3.974693"><ele>410</ele><time>2022-10-20T10:31:51Z</time><name>PT819</name></trkpt>
<trkpt lat="53.225320" lon="-3.974648"><ele>410</ele><time>2022-10-20T10:31:54Z</time><name>PT820</name></trkpt>
<trkpt lat="53.225315" lon="-3.974612"><ele>412</ele><time>2022-10-20T10:31:57Z</time><name>PT821</name></trkpt>
<trkpt lat="53.225304" lon="-3.974571"><ele>413</ele><time>2022-10-20T10:32:00Z</time><name>PT822</name></trkpt>
<trkpt lat="53.225293" lon="-3.974520"><ele>414</ele><time>2022-10-20T10:32:03Z</time><name>PT823</name></trkpt>
<trkpt lat="53.225287" lon="-3.974470"><ele>414</ele><time>2022-10-20T10:32:07Z</time><name>PT824</name></trkpt>
<trkpt lat="53.225282" lon="-3.974436"><ele>415</ele><time>2022-10-20T10:32:10Z</time><name>PT825</name></trkpt>
<trkpt lat="53.225278" lon="-3.974396"><ele>416</ele><time>2022-10-20T10:32:13Z</time><name>PT826</name></trkpt>
<trkpt lat="53.225268" lon="-3.974372"><ele>416</ele><time>2022-10-20T10:32:16Z</time><name>PT827</name></trkpt>
<trkpt lat="53.225254" lon="-3.974354"><ele>417</ele><time>2022-10-20T10:32:19Z</time><name>PT828</name></trkpt>
<trkpt lat="53.225242" lon="-3.974313"><ele>418</ele><time>2022-10-20T10:32:24Z</time><name>PT829</name></trkpt>
<trkpt lat="53.225237" lon="-3.974287"><ele>419</ele><time>2022-10-20T10:32:27Z</time><name>PT830</name></trkpt>
<trkpt lat="53.225234" lon="-3.974231"><ele>419</ele><time>2022-10-20T10:32:30Z</time><name>PT831</name></trkpt>
<trkpt lat="53.225227" lon="-3.974185"><ele>420</ele><time>2022-10-20T10:32:34Z</time><name>PT832</name></trkpt>
<trkpt lat="53.225222" lon="-3.974146"><ele>421</ele><time>2022-10-20T10:32:37Z</time><name>PT833</name></trkpt>
<trkpt lat="53.225217" lon="-3.974088"><ele>422</ele><time>2022-10-20T10:32:42Z</time><name>PT834</name></trkpt>
<trkpt lat="53.225216" lon="-3.974033"><ele>422</ele><time>2022-10-20T10:32:45Z</time><name>PT835</name></trkpt>
<trkpt lat="53.225211" lon="-3.973986"><ele>423</ele><time>2022-10-20T10:32:48Z</time><name>PT836</name></trkpt>
<trkpt lat="53.225221" lon="-3.973920"><ele>422</ele><time>2022-10-20T10:32:52Z</time><name>PT837</name></trkpt>
<trkpt lat="53.225222" lon="-3.973876"><ele>422</ele><time>2022-10-20T10:32:55Z</time><name>PT838</name></trkpt>
<trkpt lat="53.225221" lon="-3.973825"><ele>422</ele><time>2022-10-20T10:33:00Z</time><name>PT839</name></trkpt>
<trkpt lat="53.225217" lon="-3.973783"><ele>422</ele><time>2022-10-20T10:33:03Z</time><name>PT840</name></trkpt>
<trkpt lat="53.225201" lon="-3.973729"><ele>422</ele><time>2022-10-20T10:33:06Z</time><name>PT841</name></trkpt>
<trkpt lat="53.225198" lon="-3.973689"><ele>423</ele><time>2022-10-20T10:33:09Z</time><name>PT842</name></trkpt>
<trkpt lat="53.225194" lon="-3.973630"><ele>423</ele><time>2022-10-20T10:33:13Z</time><name>PT843</name></trkpt>
<trkpt lat="53.225187" lon="-3.973570"><ele>424</ele><time>2022-10-20T10:33:18Z</time><name>PT844</name></trkpt>
<trkpt lat="53.225183" lon="-3.973528"><ele>425</ele><time>2022-10-20T10:33:21Z</time><name>PT845</name></trkpt>
<trkpt lat="53.225171" lon="-3.973467"><ele>425</ele><time>2022-10-20T10:33:24Z</time><name>PT846</name></trkpt>
<trkpt lat="53.225161" lon="-3.973432"><ele>425</ele><time>2022-10-20T10:33:27Z</time><name>PT847</name></trkpt>
<trkpt lat="53.225146" lon="-3.973399"><ele>426</ele><time>2022-10-20T10:33:31Z</time><name>PT848</name></trkpt>
<trkpt lat="53.225128" lon="-3.973364"><ele>426</ele><time>2022-10-20T10:33:36Z</time><name>PT849</name></trkpt>
<trkpt lat="53.225105" lon="-3.973324"><ele>427</ele><time>2022-10-20T10:33:39Z</time><name>PT850</name></trkpt>
<trkpt lat="53.225080" lon="-3.973293"><ele>427</ele><time>2022-10-20T10:33:43Z</time><name>PT851</name></trkpt>
<trkpt lat="53.225060" lon="-3.973278"><ele>428</ele><time>2022-10-20T10:33:46Z</time><name>PT852</name></trkpt>
<trkpt lat="53.225041" lon="-3.973255"><ele>429</ele><time>2022-10-20T10:33:51Z</time><name>PT853</name></trkpt>
<trkpt lat="53.225024" lon="-3.973217"><ele>429</ele><time>2022-10-20T10:33:54Z</time><name>PT854</name></trkpt>
<trkpt lat="53.224999" lon="-3.973178"><ele>430</ele><time>2022-10-20T10:33:57Z</time><name>PT855</name></trkpt>
<trkpt lat="53.224986" lon="-3.973143"><ele>431</ele><time>2022-10-20T10:34:00Z</time><name>PT856</name></trkpt>
<trkpt lat="53.224971" lon="-3.973094"><ele>431</ele><time>2022-10-20T10:34:04Z</time><name>PT857</name></trkpt>
<trkpt lat="53.224961" lon="-3.973058"><ele>431</ele><time>2022-10-20T10:34:07Z</time><name>PT858</name></trkpt>
<trkpt lat="53.224944" lon="-3.973027"><ele>432</ele><time>2022-10-20T10:34:10Z</time><name>PT859</name></trkpt>
<trkpt lat="53.224921" lon="-3.972993"><ele>432</ele><time>2022-10-20T10:34:15Z</time><name>PT860</name></trkpt>
<trkpt lat="53.224897" lon="-3.972981"><ele>432</ele><time>2022-10-20T10:34:18Z</time><name>PT861</name></trkpt>
<trkpt lat="53.224864" lon="-3.972972"><ele>433</ele><time>2022-10-20T10:34:22Z</time><name>PT862</name></trkpt>
<trkpt lat="53.224832" lon="-3.972956"><ele>432</ele><time>2022-10-20T10:34:27Z</time><name>PT863</name></trkpt>
<trkpt lat="53.224810" lon="-3.972942"><ele>433</ele><time>2022-10-20T10:34:30Z</time><name>PT864</name></trkpt>
<trkpt lat="53.224790" lon="-3.972924"><ele>433</ele><time>2022-10-20T10:34:33Z</time><name>PT865</name></trkpt>
<trkpt lat="53.224771" lon="-3.972912"><ele>433</ele><time>2022-10-20T10:34:36Z</time><name>PT866</name></trkpt>
<trkpt lat="53.224764" lon="-3.972906"><ele>433</ele><time>2022-10-20T10:34:40Z</time><name>PT867</name></trkpt>
<trkpt lat="53.224768" lon="-3.972903"><ele>434</ele><time>2022-10-20T10:34:43Z</time><name>PT868</name></trkpt>
<trkpt lat="53.224768" lon="-3.972901"><ele>435</ele><time>2022-10-20T10:34:51Z</time><name>PT869</name></trkpt>
<trkpt lat="53.224770" lon="-3.972899"><ele>435</ele><time>2022-10-20T10:34:54Z</time><name>PT870</name></trkpt>
<trkpt lat="53.224766" lon="-3.972906"><ele>434</ele><time>2022-10-20T10:35:40Z</time><name>PT871</name></trkpt>
<trkpt lat="53.224762" lon="-3.972921"><ele>434</ele><time>2022-10-20T10:35:45Z</time><name>PT872</name></trkpt>
<trkpt lat="53.224769" lon="-3.972915"><ele>433</ele><time>2022-10-20T10:35:51Z</time><name>PT873</name></trkpt>
<trkpt lat="53.224765" lon="-3.972908"><ele>433</ele><time>2022-10-20T10:36:18Z</time><name>PT874</name></trkpt>
<trkpt lat="53.224762" lon="-3.972902"><ele>434</ele><time>2022-10-20T10:36:21Z</time><name>PT875</name></trkpt>
<trkpt lat="53.224764" lon="-3.972887"><ele>434</ele><time>2022-10-20T10:36:24Z</time><name>PT876</name></trkpt>
<trkpt lat="53.224757" lon="-3.972823"><ele>434</ele><time>2022-10-20T10:36:28Z</time><name>PT877</name></trkpt>
<trkpt lat="53.224759" lon="-3.972760"><ele>434</ele><time>2022-10-20T10:36:33Z</time><name>PT878</name></trkpt>
<trkpt lat="53.224771" lon="-3.972717"><ele>434</ele><time>2022-10-20T10:36:36Z</time><name>PT879</name></trkpt>
<trkpt lat="53.224779" lon="-3.972683"><ele>434</ele><time>2022-10-20T10:36:39Z</time><name>PT880</name></trkpt>
<trkpt lat="53.224786" lon="-3.972639"><ele>434</ele><time>2022-10-20T10:36:42Z</time><name>PT881</name></trkpt>
<trkpt lat="53.224795" lon="-3.972589"><ele>435</ele><time>2022-10-20T10:36:46Z</time><name>PT882</name></trkpt>
<trkpt lat="53.224793" lon="-3.972567"><ele>435</ele><time>2022-10-20T10:36:49Z</time><name>PT883</name></trkpt>
<trkpt lat="53.224789" lon="-3.972517"><ele>436</ele><time>2022-10-20T10:36:54Z</time><name>PT884</name></trkpt>
<trkpt lat="53.224784" lon="-3.972481"><ele>437</ele><time>2022-10-20T10:36:57Z</time><name>PT885</name></trkpt>
<trkpt lat="53.224787" lon="-3.972439"><ele>438</ele><time>2022-10-20T10:37:01Z</time><name>PT886</name></trkpt>
<trkpt lat="53.224788" lon="-3.972385"><ele>438</ele><time>2022-10-20T10:37:06Z</time><name>PT887</name></trkpt>
<trkpt lat="53.224785" lon="-3.972346"><ele>438</ele><time>2022-10-20T10:37:09Z</time><name>PT888</name></trkpt>
<trkpt lat="53.224779" lon="-3.972314"><ele>438</ele><time>2022-10-20T10:37:12Z</time><name>PT889</name></trkpt>
<trkpt lat="53.224770" lon="-3.972274"><ele>439</ele><time>2022-10-20T10:37:15Z</time><name>PT890</name></trkpt>
<trkpt lat="53.224762" lon="-3.972226"><ele>440</ele><time>2022-10-20T10:37:18Z</time><name>PT891</name></trkpt>
<trkpt lat="53.224756" lon="-3.972180"><ele>440</ele><time>2022-10-20T10:37:22Z</time><name>PT892</name></trkpt>
<trkpt lat="53.224756" lon="-3.972132"><ele>440</ele><time>2022-10-20T10:37:25Z</time><name>PT893</name></trkpt>
<trkpt lat="53.224758" lon="-3.972075"><ele>441</ele><time>2022-10-20T10:37:30Z</time><name>PT894</name></trkpt>
<trkpt lat="53.224760" lon="-3.972041"><ele>442</ele><time>2022-10-20T10:37:33Z</time><name>PT895</name></trkpt>
<trkpt lat="53.224755" lon="-3.971993"><ele>443</ele><time>2022-10-20T10:37:36Z</time><name>PT896</name></trkpt>
<trkpt lat="53.224754" lon="-3.971960"><ele>443</ele><time>2022-10-20T10:37:39Z</time><name>PT897</name></trkpt>
<trkpt lat="53.224751" lon="-3.971915"><ele>444</ele><time>2022-10-20T10:37:42Z</time><name>PT898</name></trkpt>
<trkpt lat="53.224752" lon="-3.971869"><ele>445</ele><time>2022-10-20T10:37:46Z</time><name>PT899</name></trkpt>
<trkpt lat="53.224752" lon="-3.971826"><ele>446</ele><time>2022-10-20T10:37:51Z</time><name>PT900</name></trkpt>
<trkpt lat="53.224755" lon="-3.971792"><ele>447</ele><time>2022-10-20T10:37:54Z</time><name>PT901</name></trkpt>
<trkpt lat="53.224761" lon="-3.971753"><ele>448</ele><time>2022-10-20T10:37:57Z</time><name>PT902</name></trkpt>
<trkpt lat="53.224768" lon="-3.971715"><ele>449</ele><time>2022-10-20T10:38:00Z</time><name>PT903</name></trkpt>
<trkpt lat="53.224781" lon="-3.971668"><ele>449</ele><time>2022-10-20T10:38:04Z</time><name>PT904</name></trkpt>
<trkpt lat="53.224793" lon="-3.971635"><ele>450</ele><time>2022-10-20T10:38:07Z</time><name>PT905</name></trkpt>
<trkpt lat="53.224800" lon="-3.971594"><ele>452</ele><time>2022-10-20T10:38:12Z</time><name>PT906</name></trkpt>
<trkpt lat="53.224807" lon="-3.971561"><ele>452</ele><time>2022-10-20T10:38:15Z</time><name>PT907</name></trkpt>
<trkpt lat="53.224815" lon="-3.971533"><ele>453</ele><time>2022-10-20T10:38:18Z</time><name>PT908</name></trkpt>
<trkpt lat="53.224822" lon="-3.971494"><ele>454</ele><time>2022-10-20T10:38:21Z</time><name>PT909</name></trkpt>
<trkpt lat="53.224821" lon="-3.971448"><ele>455</ele><time>2022-10-20T10:38:25Z</time><name>PT910</name></trkpt>
<trkpt lat="53.224822" lon="-3.971418"><ele>456</ele><time>2022-10-20T10:38:28Z</time><name>PT911</name></trkpt>
<trkpt lat="53.224820" lon="-3.971382"><ele>456</ele><time>2022-10-20T10:38:33Z</time><name>PT912</name></trkpt>
<trkpt lat="53.224814" lon="-3.971358"><ele>457</ele><time>2022-10-20T10:38:36Z</time><name>PT913</name></trkpt>
<trkpt lat="53.224811" lon="-3.971336"><ele>457</ele><time>2022-10-20T10:38:39Z</time><name>PT914</name></trkpt>
<trkpt lat="53.224811" lon="-3.971282"><ele>458</ele><time>2022-10-20T10:38:54Z</time><name>PT915</name></trkpt>
<trkpt lat="53.224815" lon="-3.971244"><ele>459</ele><time>2022-10-20T10:38:57Z</time><name>PT916</name></trkpt>
<trkpt lat="53.224820" lon="-3.971199"><ele>460</ele><time>2022-10-20T10:39:00Z</time><name>PT917</name></trkpt>
<trkpt lat="53.224823" lon="-3.971158"><ele>461</ele><time>2022-10-20T10:39:04Z</time><name>PT918</name></trkpt>
<trkpt lat="53.224831" lon="-3.971117"><ele>463</ele><time>2022-10-20T10:39:09Z</time><name>PT919</name></trkpt>
<trkpt lat="53.224840" lon="-3.971084"><ele>464</ele><time>2022-10-20T10:39:12Z</time><name>PT920</name></trkpt>
<trkpt lat="53.224852" lon="-3.971058"><ele>464</ele><time>2022-10-20T10:39:39Z</time><name>PT921</name></trkpt>
<trkpt lat="53.224861" lon="-3.971031"><ele>465</ele><time>2022-10-20T10:39:43Z</time><name>PT922</name></trkpt>
<trkpt lat="53.224888" lon="-3.970978"><ele>467</ele><time>2022-10-20T10:39:54Z</time><name>PT923</name></trkpt>
<trkpt lat="53.224903" lon="-3.970928"><ele>468</ele><time>2022-10-20T10:39:57Z</time><name>PT924</name></trkpt>
<trkpt lat="53.224919" lon="-3.970888"><ele>470</ele><time>2022-10-20T10:40:00Z</time><name>PT925</name></trkpt>
<trkpt lat="53.224933" lon="-3.970847"><ele>471</ele><time>2022-10-20T10:40:04Z</time><name>PT926</name></trkpt>
<trkpt lat="53.224944" lon="-3.970824"><ele>471</ele><time>2022-10-20T10:40:07Z</time><name>PT927</name></trkpt>
<trkpt lat="53.224959" lon="-3.970765"><ele>472</ele><time>2022-10-20T10:40:12Z</time><name>PT928</name></trkpt>
<trkpt lat="53.224962" lon="-3.970717"><ele>474</ele><time>2022-10-20T10:40:15Z</time><name>PT929</name></trkpt>
<trkpt lat="53.224965" lon="-3.970688"><ele>475</ele><time>2022-10-20T10:40:19Z</time><name>PT930</name></trkpt>
<trkpt lat="53.224963" lon="-3.970669"><ele>476</ele><time>2022-10-20T10:40:22Z</time><name>PT931</name></trkpt>
<trkpt lat="53.224964" lon="-3.970636"><ele>477</ele><time>2022-10-20T10:40:27Z</time><name>PT932</name></trkpt>
<trkpt lat="53.224965" lon="-3.970637"><ele>477</ele><time>2022-10-20T10:40:30Z</time><name>PT933</name></trkpt>
<trkpt lat="53.224966" lon="-3.970614"><ele>478</ele><time>2022-10-20T10:40:33Z</time><name>PT934</name></trkpt>
<trkpt lat="53.224975" lon="-3.970582"><ele>480</ele><time>2022-10-20T10:40:36Z</time><name>PT935</name></trkpt>
<trkpt lat="53.224988" lon="-3.970543"><ele>481</ele><time>2022-10-20T10:40:39Z</time><name>PT936</name></trkpt>
<trkpt lat="53.224997" lon="-3.970505"><ele>481</ele><time>2022-10-20T10:40:42Z</time><name>PT937</name></trkpt>
<trkpt lat="53.224999" lon="-3.970471"><ele>482</ele><time>2022-10-20T10:40:45Z</time><name>PT938</name></trkpt>
<trkpt lat="53.225003" lon="-3.970436"><ele>482</ele><time>2022-10-20T10:40:48Z</time><name>PT939</name></trkpt>
<trkpt lat="53.224999" lon="-3.970406"><ele>483</ele><time>2022-10-20T10:40:53Z</time><name>PT940</name></trkpt>
<trkpt lat="53.224994" lon="-3.970389"><ele>484</ele><time>2022-10-20T10:40:56Z</time><name>PT941</name></trkpt>
<trkpt lat="53.224992" lon="-3.970385"><ele>484</ele><time>2022-10-20T10:40:59Z</time><name>PT942</name></trkpt>
<trkpt lat="53.224991" lon="-3.970384"><ele>484</ele><time>2022-10-20T10:41:21Z</time><name>PT943</name></trkpt>
<trkpt lat="53.224989" lon="-3.970377"><ele>484</ele><time>2022-10-20T10:41:24Z</time><name>PT944</name></trkpt>
<trkpt lat="53.224988" lon="-3.970392"><ele>484</ele><time>2022-10-20T10:43:02Z</time><name>PT945</name></trkpt>
<trkpt lat="53.225008" lon="-3.970351"><ele>482</ele><time>2022-10-20T10:43:05Z</time><name>PT946</name></trkpt>
<trkpt lat="53.225011" lon="-3.970344"><ele>482</ele><time>2022-10-20T10:43:12Z</time><name>PT947</name></trkpt>
<trkpt lat="53.225016" lon="-3.970339"><ele>482</ele><time>2022-10-20T10:43:17Z</time><name>PT948</name></trkpt>
<trkpt lat="53.225023" lon="-3.970336"><ele>481</ele><time>2022-10-20T10:43:20Z</time><name>PT949</name></trkpt>
<trkpt lat="53.225024" lon="-3.970334"><ele>482</ele><time>2022-10-20T10:43:24Z</time><name>PT950</name></trkpt>
<trkpt lat="53.225029" lon="-3.970333"><ele>481</ele><time>2022-10-20T10:44:53Z</time><name>PT951</name></trkpt>
<trkpt lat="53.225028" lon="-3.970334"><ele>481</ele><time>2022-10-20T10:44:56Z</time><name>PT952</name></trkpt>
<trkpt lat="53.225045" lon="-3.970330"><ele>481</ele><time>2022-10-20T10:45:06Z</time><name>PT953</name></trkpt>
<trkpt lat="53.225048" lon="-3.970319"><ele>481</ele><time>2022-10-20T10:45:09Z</time><name>PT954</name></trkpt>
<trkpt lat="53.225052" lon="-3.970319"><ele>481</ele><time>2022-10-20T10:45:14Z</time><name>PT955</name></trkpt>
<trkpt lat="53.225055" lon="-3.970302"><ele>481</ele><time>2022-10-20T10:45:17Z</time><name>PT956</name></trkpt>
<trkpt lat="53.225063" lon="-3.970284"><ele>482</ele><time>2022-10-20T10:45:20Z</time><name>PT957</name></trkpt>
<trkpt lat="53.225090" lon="-3.970245"><ele>483</ele><time>2022-10-20T10:45:24Z</time><name>PT958</name></trkpt>
<trkpt lat="53.225088" lon="-3.970239"><ele>483</ele><time>2022-10-20T10:45:27Z</time><name>PT959</name></trkpt>
<trkpt lat="53.225113" lon="-3.970232"><ele>483</ele><time>2022-10-20T10:45:30Z</time><name>PT960</name></trkpt>
<trkpt lat="53.225133" lon="-3.970212"><ele>483</ele><time>2022-10-20T10:45:35Z</time><name>PT961</name></trkpt>
<trkpt lat="53.225147" lon="-3.970182"><ele>484</ele><time>2022-10-20T10:45:38Z</time><name>PT962</name></trkpt>
<trkpt lat="53.225164" lon="-3.970144"><ele>484</ele><time>2022-10-20T10:45:41Z</time><name>PT963</name></trkpt>
<trkpt lat="53.225172" lon="-3.970088"><ele>485</ele><time>2022-10-20T10:45:44Z</time><name>PT964</name></trkpt>
<trkpt lat="53.225180" lon="-3.970052"><ele>485</ele><time>2022-10-20T10:45:47Z</time><name>PT965</name></trkpt>
<trkpt lat="53.225190" lon="-3.970000"><ele>487</ele><time>2022-10-20T10:45:51Z</time><name>PT966</name></trkpt>
<trkpt lat="53.225192" lon="-3.969958"><ele>488</ele><time>2022-10-20T10:45:56Z</time><name>PT967</name></trkpt>
<trkpt lat="53.225192" lon="-3.969925"><ele>489</ele><time>2022-10-20T10:45:59Z</time><name>PT968</name></trkpt>
<trkpt lat="53.225208" lon="-3.969908"><ele>491</ele><time>2022-10-20T10:46:03Z</time><name>PT969</name></trkpt>
<trkpt lat="53.225216" lon="-3.969884"><ele>492</ele><time>2022-10-20T10:46:08Z</time><name>PT970</name></trkpt>
<trkpt lat="53.225220" lon="-3.969855"><ele>492</ele><time>2022-10-20T10:46:11Z</time><name>PT971</name></trkpt>
<trkpt lat="53.225227" lon="-3.969825"><ele>493</ele><time>2022-10-20T10:46:14Z</time><name>PT972</name></trkpt>
<trkpt lat="53.225226" lon="-3.969792"><ele>494</ele><time>2022-10-20T10:46:18Z</time><name>PT973</name></trkpt>
<trkpt lat="53.225235" lon="-3.969733"><ele>494</ele><time>2022-10-20T10:46:23Z</time><name>PT974</name></trkpt>
<trkpt lat="53.225247" lon="-3.969673"><ele>494</ele><time>2022-10-20T10:46:26Z</time><name>PT975</name></trkpt>
<trkpt lat="53.225261" lon="-3.969614"><ele>493</ele><time>2022-10-20T10:46:30Z</time><name>PT976</name></trkpt>
<trkpt lat="53.225285" lon="-3.969558"><ele>493</ele><time>2022-10-20T10:46:35Z</time><name>PT977</name></trkpt>
<trkpt lat="53.225309" lon="-3.969501"><ele>492</ele><time>2022-10-20T10:46:38Z</time><name>PT978</name></trkpt>
<trkpt lat="53.225325" lon="-3.969446"><ele>492</ele><time>2022-10-20T10:46:41Z</time><name>PT979</name></trkpt>
<trkpt lat="53.225337" lon="-3.969400"><ele>492</ele><time>2022-10-20T10:46:44Z</time><name>PT980</name></trkpt>
<trkpt lat="53.225348" lon="-3.969347"><ele>493</ele><time>2022-10-20T10:46:47Z</time><name>PT981</name></trkpt>
<trkpt lat="53.225353" lon="-3.969319"><ele>494</ele><time>2022-10-20T10:46:50Z</time><name>PT982</name></trkpt>
<trkpt lat="53.225364" lon="-3.969289"><ele>494</ele><time>2022-10-20T10:46:53Z</time><name>PT983</name></trkpt>
<trkpt lat="53.225376" lon="-3.969250"><ele>495</ele><time>2022-10-20T10:46:57Z</time><name>PT984</name></trkpt>
<trkpt lat="53.225381" lon="-3.969216"><ele>496</ele><time>2022-10-20T10:47:00Z</time><name>PT985</name></trkpt>
<trkpt lat="53.225384" lon="-3.969177"><ele>497</ele><time>2022-10-20T10:47:05Z</time><name>PT986</name></trkpt>
<trkpt lat="53.225386" lon="-3.969147"><ele>497</ele><time>2022-10-20T10:47:08Z</time><name>PT987</name></trkpt>
<trkpt lat="53.225384" lon="-3.969127"><ele>499</ele><time>2022-10-20T10:47:11Z</time><name>PT988</name></trkpt>
<trkpt lat="53.225358" lon="-3.969117"><ele>499</ele><time>2022-10-20T10:47:33Z</time><name>PT989</name></trkpt>
<trkpt lat="53.225331" lon="-3.969096"><ele>500</ele><time>2022-10-20T10:47:36Z</time><name>PT990</name></trkpt>
<trkpt lat="53.225308" lon="-3.969057"><ele>501</ele><time>2022-10-20T10:47:41Z</time><name>PT991</name></trkpt>
<trkpt lat="53.225305" lon="-3.969016"><ele>502</ele><time>2022-10-20T10:47:44Z</time><name>PT992</name></trkpt>
<trkpt lat="53.225300" lon="-3.968979"><ele>502</ele><time>2022-10-20T10:47:47Z</time><name>PT993</name></trkpt>
<trkpt lat="53.225302" lon="-3.968928"><ele>503</ele><time>2022-10-20T10:47:50Z</time><name>PT994</name></trkpt>
<trkpt lat="53.225313" lon="-3.968892"><ele>504</ele><time>2022-10-20T10:47:53Z</time><name>PT995</name></trkpt>
<trkpt lat="53.225311" lon="-3.968862"><ele>505</ele><time>2022-10-20T10:47:56Z</time><name>PT996</name></trkpt>
<trkpt lat="53.225313" lon="-3.968828"><ele>506</ele><time>2022-10-20T10:48:00Z</time><name>PT997</name></trkpt>
<trkpt lat="53.225307" lon="-3.968803"><ele>507</ele><time>2022-10-20T10:48:03Z</time><name>PT998</name></trkpt>
<trkpt lat="53.225300" lon="-3.968786"><ele>507</ele><time>2022-10-20T10:48:06Z</time><name>PT999</name></trkpt>
<trkpt lat="53.225296" lon="-3.968775"><ele>508</ele><time>2022-10-20T10:48:11Z</time><name>PT1000</name></trkpt>
<trkpt lat="53.225285" lon="-3.968744"><ele>509</ele><time>2022-10-20T10:48:14Z</time><name>PT1001</name></trkpt>
<trkpt lat="53.225270" lon="-3.968722"><ele>510</ele><time>2022-10-20T10:48:18Z</time><name>PT1002</name></trkpt>
<trkpt lat="53.225254" lon="-3.968706"><ele>511</ele><time>2022-10-20T10:48:21Z</time><name>PT1003</name></trkpt>
<trkpt lat="53.225252" lon="-3.968683"><ele>512</ele><time>2022-10-20T10:48:24Z</time><name>PT1004</name></trkpt>
<trkpt lat="53.225246" lon="-3.968652"><ele>514</ele><time>2022-10-20T10:48:29Z</time><name>PT1005</name></trkpt>
<trkpt lat="53.225244" lon="-3.968628"><ele>515</ele><time>2022-10-20T10:48:32Z</time><name>PT1006</name></trkpt>
<trkpt lat="53.225243" lon="-3.968601"><ele>516</ele><time>2022-10-20T10:48:35Z</time><name>PT1007</name></trkpt>
<trkpt lat="53.225240" lon="-3.968567"><ele>517</ele><time>2022-10-20T10:48:38Z</time><name>PT1008</name></trkpt>
<trkpt lat="53.225227" lon="-3.968545"><ele>517</ele><time>2022-10-20T10:48:42Z</time><name>PT1009</name></trkpt>
<trkpt lat="53.225215" lon="-3.968527"><ele>518</ele><time>2022-10-20T10:48:45Z</time><name>PT1010</name></trkpt>
<trkpt lat="53.225216" lon="-3.968498"><ele>519</ele><time>2022-10-20T10:48:48Z</time><name>PT1011</name></trkpt>
<trkpt lat="53.225221" lon="-3.968466"><ele>520</ele><time>2022-10-20T10:48:53Z</time><name>PT1012</name></trkpt>
<trkpt lat="53.225217" lon="-3.968438"><ele>521</ele><time>2022-10-20T10:48:56Z</time><name>PT1013</name></trkpt>
<trkpt lat="53.225216" lon="-3.968403"><ele>522</ele><time>2022-10-20T10:48:59Z</time><name>PT1014</name></trkpt>
<trkpt lat="53.225233" lon="-3.968364"><ele>522</ele><time>2022-10-20T10:49:03Z</time><name>PT1015</name></trkpt>
<trkpt lat="53.225229" lon="-3.968338"><ele>523</ele><time>2022-10-20T10:49:06Z</time><name>PT1016</name></trkpt>
<trkpt lat="53.225237" lon="-3.968313"><ele>523</ele><time>2022-10-20T10:49:09Z</time><name>PT1017</name></trkpt>
<trkpt lat="53.225235" lon="-3.968286"><ele>525</ele><time>2022-10-20T10:49:14Z</time><name>PT1018</name></trkpt>
<trkpt lat="53.225220" lon="-3.968256"><ele>524</ele><time>2022-10-20T10:49:17Z</time><name>PT1019</name></trkpt>
<trkpt lat="53.225216" lon="-3.968243"><ele>524</ele><time>2022-10-20T10:49:20Z</time><name>PT1020</name></trkpt>
<trkpt lat="53.225211" lon="-3.968205"><ele>524</ele><time>2022-10-20T10:49:23Z</time><name>PT1021</name></trkpt>
<trkpt lat="53.225205" lon="-3.968151"><ele>526</ele><time>2022-10-20T10:49:27Z</time><name>PT1022</name></trkpt>
<trkpt lat="53.225196" lon="-3.968123"><ele>526</ele><time>2022-10-20T10:49:30Z</time><name>PT1023</name></trkpt>
<trkpt lat="53.225176" lon="-3.968095"><ele>527</ele><time>2022-10-20T10:49:33Z</time><name>PT1024</name></trkpt>
<trkpt lat="53.225161" lon="-3.968068"><ele>528</ele><time>2022-10-20T10:49:36Z</time><name>PT1025</name></trkpt>
<trkpt lat="53.225145" lon="-3.968041"><ele>528</ele><time>2022-10-20T10:49:41Z</time><name>PT1026</name></trkpt>
<trkpt lat="53.225144" lon="-3.967984"><ele>528</ele><time>2022-10-20T10:49:44Z</time><name>PT1027</name></trkpt>
<trkpt lat="53.225138" lon="-3.967945"><ele>529</ele><time>2022-10-20T10:49:47Z</time><name>PT1028</name></trkpt>
<trkpt lat="53.225122" lon="-3.967881"><ele>528</ele><time>2022-10-20T10:49:51Z</time><name>PT1029</name></trkpt>
<trkpt lat="53.225118" lon="-3.967797"><ele>528</ele><time>2022-10-20T10:49:56Z</time><name>PT1030</name></trkpt>
<trkpt lat="53.225119" lon="-3.967729"><ele>529</ele><time>2022-10-20T10:49:59Z</time><name>PT1031</name></trkpt>
<trkpt lat="53.225122" lon="-3.967662"><ele>529</ele><time>2022-10-20T10:50:03Z</time><name>PT1032</name></trkpt>
<trkpt lat="53.225123" lon="-3.967583"><ele>529</ele><time>2022-10-20T10:50:08Z</time><name>PT1033</name></trkpt>
<trkpt lat="53.225115" lon="-3.967533"><ele>528</ele><time>2022-10-20T10:50:11Z</time><name>PT1034</name></trkpt>
<trkpt lat="53.225104" lon="-3.967476"><ele>530</ele><time>2022-10-20T10:50:14Z</time><name>PT1035</name></trkpt>
<trkpt lat="53.225101" lon="-3.967422"><ele>531</ele><time>2022-10-20T10:50:18Z</time><name>PT1036</name></trkpt>
<trkpt lat="53.225097" lon="-3.967387"><ele>531</ele><time>2022-10-20T10:50:21Z</time><name>PT1037</name></trkpt>
<trkpt lat="53.225100" lon="-3.967349"><ele>532</ele><time>2022-10-20T10:50:24Z</time><name>PT1038</name></trkpt>
<trkpt lat="53.225110" lon="-3.967289"><ele>532</ele><time>2022-10-20T10:50:29Z</time><name>PT1039</name></trkpt>
<trkpt lat="53.225112" lon="-3.967223"><ele>533</ele><time>2022-10-20T10:50:32Z</time><name>PT1040</name></trkpt>
<trkpt lat="53.225116" lon="-3.967155"><ele>534</ele><time>2022-10-20T10:50:36Z</time><name>PT1041</name></trkpt>
<trkpt lat="53.225122" lon="-3.967102"><ele>534</ele><time>2022-10-20T10:50:39Z</time><name>PT1042</name></trkpt>
<trkpt lat="53.225127" lon="-3.967062"><ele>534</ele><time>2022-10-20T10:50:42Z</time><name>PT1043</name></trkpt>
<trkpt lat="53.225132" lon="-3.967011"><ele>535</ele><time>2022-10-20T10:50:47Z</time><name>PT1044</name></trkpt>
<trkpt lat="53.225139" lon="-3.966966"><ele>536</ele><time>2022-10-20T10:50:50Z</time><name>PT1045</name></trkpt>
<trkpt lat="53.225144" lon="-3.966923"><ele>537</ele><time>2022-10-20T10:50:53Z</time><name>PT1046</name></trkpt>
<trkpt lat="53.225144" lon="-3.966874"><ele>538</ele><time>2022-10-20T10:50:56Z</time><name>PT1047</name></trkpt>
<trkpt lat="53.225143" lon="-3.966812"><ele>539</ele><time>2022-10-20T10:50:59Z</time><name>PT1048</name></trkpt>
<trkpt lat="53.225143" lon="-3.966764"><ele>540</ele><time>2022-10-20T10:51:02Z</time><name>PT1049</name></trkpt>
<trkpt lat="53.225133" lon="-3.966741"><ele>541</ele><time>2022-10-20T10:51:06Z</time><name>PT1050</name></trkpt>
<trkpt lat="53.225142" lon="-3.966746"><ele>541</ele><time>2022-10-20T10:51:20Z</time><name>PT1051</name></trkpt>
<trkpt lat="53.225137" lon="-3.966747"><ele>541</ele><time>2022-10-20T10:51:24Z</time><name>PT1052</name></trkpt>
<trkpt lat="53.225136" lon="-3.966747"><ele>541</ele><time>2022-10-20T10:51:29Z</time><name>PT1053</name></trkpt>
<trkpt lat="53.225128" lon="-3.966727"><ele>540</ele><time>2022-10-20T10:52:03Z</time><name>PT1054</name></trkpt>
<trkpt lat="53.225121" lon="-3.966717"><ele>540</ele><time>2022-10-20T10:52:08Z</time><name>PT1055</name></trkpt>
<trkpt lat="53.225119" lon="-3.966657"><ele>540</ele><time>2022-10-20T10:52:14Z</time><name>PT1056</name></trkpt>
<trkpt lat="53.225126" lon="-3.966591"><ele>540</ele><time>2022-10-20T10:52:18Z</time><name>PT1057</name></trkpt>
<trkpt lat="53.225120" lon="-3.966553"><ele>540</ele><time>2022-10-20T10:52:21Z</time><name>PT1058</name></trkpt>
<trkpt lat="53.225106" lon="-3.966492"><ele>539</ele><time>2022-10-20T10:52:24Z</time><name>PT1059</name></trkpt>
<trkpt lat="53.225084" lon="-3.966436"><ele>538</ele><time>2022-10-20T10:52:29Z</time><name>PT1060</name></trkpt>
<trkpt lat="53.225066" lon="-3.966386"><ele>537</ele><time>2022-10-20T10:52:32Z</time><name>PT1061</name></trkpt>
<trkpt lat="53.225058" lon="-3.966345"><ele>536</ele><time>2022-10-20T10:52:35Z</time><name>PT1062</name></trkpt>
<trkpt lat="53.225054" lon="-3.966301"><ele>535</ele><time>2022-10-20T10:52:38Z</time><name>PT1063</name></trkpt>
<trkpt lat="53.225038" lon="-3.966255"><ele>534</ele><time>2022-10-20T10:52:42Z</time><name>PT1064</name></trkpt>
<trkpt lat="53.225028" lon="-3.966220"><ele>534</ele><time>2022-10-20T10:52:45Z</time><name>PT1065</name></trkpt>
<trkpt lat="53.225019" lon="-3.966165"><ele>532</ele><time>2022-10-20T10:52:50Z</time><name>PT1066</name></trkpt>
<trkpt lat="53.225002" lon="-3.966124"><ele>532</ele><time>2022-10-20T10:52:53Z</time><name>PT1067</name></trkpt>
<trkpt lat="53.224991" lon="-3.966052"><ele>530</ele><time>2022-10-20T10:52:56Z</time><name>PT1068</name></trkpt>
<trkpt lat="53.224978" lon="-3.966014"><ele>530</ele><time>2022-10-20T10:52:59Z</time><name>PT1069</name></trkpt>
<trkpt lat="53.224980" lon="-3.965952"><ele>529</ele><time>2022-10-20T10:53:03Z</time><name>PT1070</name></trkpt>
<trkpt lat="53.224974" lon="-3.965918"><ele>528</ele><time>2022-10-20T10:53:06Z</time><name>PT1071</name></trkpt>
<trkpt lat="53.224955" lon="-3.965858"><ele>527</ele><time>2022-10-20T10:53:11Z</time><name>PT1072</name></trkpt>
<trkpt lat="53.224947" lon="-3.965822"><ele>526</ele><time>2022-10-20T10:53:14Z</time><name>PT1073</name></trkpt>
<trkpt lat="53.224935" lon="-3.965770"><ele>525</ele><time>2022-10-20T10:53:17Z</time><name>PT1074</name></trkpt>
<trkpt lat="53.224935" lon="-3.965705"><ele>524</ele><time>2022-10-20T10:53:21Z</time><name>PT1075</name></trkpt>
<trkpt lat="53.224931" lon="-3.965662"><ele>522</ele><time>2022-10-20T10:53:24Z</time><name>PT1076</name></trkpt>
<trkpt lat="53.224922" lon="-3.965633"><ele>522</ele><time>2022-10-20T10:53:27Z</time><name>PT1077</name></trkpt>
<trkpt lat="53.224910" lon="-3.965589"><ele>521</ele><time>2022-10-20T10:53:32Z</time><name>PT1078</name></trkpt>
<trkpt lat="53.224914" lon="-3.965552"><ele>520</ele><time>2022-10-20T10:53:35Z</time><name>PT1079</name></trkpt>
<trkpt lat="53.224904" lon="-3.965507"><ele>520</ele><time>2022-10-20T10:53:38Z</time><name>PT1080</name></trkpt>
<trkpt lat="53.224906" lon="-3.965451"><ele>518</ele><time>2022-10-20T10:53:41Z</time><name>PT1081</name></trkpt>
<trkpt lat="53.224895" lon="-3.965389"><ele>519</ele><time>2022-10-20T10:53:45Z</time><name>PT1082</name></trkpt>
<trkpt lat="53.224890" lon="-3.965333"><ele>518</ele><time>2022-10-20T10:53:50Z</time><name>PT1083</name></trkpt>
<trkpt lat="53.224885" lon="-3.965268"><ele>518</ele><time>2022-10-20T10:53:53Z</time><name>PT1084</name></trkpt>
<trkpt lat="53.224886" lon="-3.965225"><ele>517</ele><time>2022-10-20T10:53:56Z</time><name>PT1085</name></trkpt>
<trkpt lat="53.224867" lon="-3.965161"><ele>516</ele><time>2022-10-20T10:54:00Z</time><name>PT1086</name></trkpt>
<trkpt lat="53.224863" lon="-3.965123"><ele>516</ele><time>2022-10-20T10:54:03Z</time><name>PT1087</name></trkpt>
<trkpt lat="53.224857" lon="-3.965066"><ele>514</ele><time>2022-10-20T10:54:08Z</time><name>PT1088</name></trkpt>
<trkpt lat="53.224842" lon="-3.965025"><ele>512</ele><time>2022-10-20T10:54:11Z</time><name>PT1089</name></trkpt>
<trkpt lat="53.224837" lon="-3.964968"><ele>510</ele><time>2022-10-20T10:54:14Z</time><name>PT1090</name></trkpt>
<trkpt lat="53.224833" lon="-3.964916"><ele>510</ele><time>2022-10-20T10:54:17Z</time><name>PT1091</name></trkpt>
<trkpt lat="53.224810" lon="-3.964864"><ele>509</ele><time>2022-10-20T10:54:21Z</time><name>PT1092</name></trkpt>
<trkpt lat="53.224806" lon="-3.964815"><ele>509</ele><time>2022-10-20T10:54:24Z</time><name>PT1093</name></trkpt>
<trkpt lat="53.224802" lon="-3.964760"><ele>509</ele><time>2022-10-20T10:54:29Z</time><name>PT1094</name></trkpt>
<trkpt lat="53.224796" lon="-3.964694"><ele>508</ele><time>2022-10-20T10:54:32Z</time><name>PT1095</name></trkpt>
<trkpt lat="53.224795" lon="-3.964641"><ele>508</ele><time>2022-10-20T10:54:35Z</time><name>PT1096</name></trkpt>
<trkpt lat="53.224785" lon="-3.964586"><ele>506</ele><time>2022-10-20T10:54:38Z</time><name>PT1097</name></trkpt>
<trkpt lat="53.224762" lon="-3.964527"><ele>505</ele><time>2022-10-20T10:54:42Z</time><name>PT1098</name></trkpt>
<trkpt lat="53.224756" lon="-3.964482"><ele>505</ele><time>2022-10-20T10:54:45Z</time><name>PT1099</name></trkpt>
<trkpt lat="53.224754" lon="-3.964434"><ele>504</ele><time>2022-10-20T10:54:48Z</time><name>PT1100</name></trkpt>
<trkpt lat="53.224760" lon="-3.964390"><ele>503</ele><time>2022-10-20T10:54:51Z</time><name>PT1101</name></trkpt>
<trkpt lat="53.224759" lon="-3.964328"><ele>501</ele><time>2022-10-20T10:54:56Z</time><name>PT1102</name></trkpt>
<trkpt lat="53.224756" lon="-3.964273"><ele>501</ele><time>2022-10-20T10:54:59Z</time><name>PT1103</name></trkpt>
<trkpt lat="53.224744" lon="-3.964199"><ele>500</ele><time>2022-10-20T10:55:02Z</time><name>PT1104</name></trkpt>
<trkpt lat="53.224735" lon="-3.964139"><ele>500</ele><time>2022-10-20T10:55:05Z</time><name>PT1105</name></trkpt>
<trkpt lat="53.224729" lon="-3.964061"><ele>501</ele><time>2022-10-20T10:55:09Z</time><name>PT1106</name></trkpt>
<trkpt lat="53.224720" lon="-3.963999"><ele>500</ele><time>2022-10-20T10:55:12Z</time><name>PT1107</name></trkpt>
<trkpt lat="53.224717" lon="-3.963943"><ele>499</ele><time>2022-10-20T10:55:15Z</time><name>PT1108</name></trkpt>
<trkpt lat="53.224692" lon="-3.963892"><ele>500</ele><time>2022-10-20T10:55:18Z</time><name>PT1109</name></trkpt>
<trkpt lat="53.224677" lon="-3.963824"><ele>501</ele><time>2022-10-20T10:55:23Z</time><name>PT1110</name></trkpt>
<trkpt lat="53.224665" lon="-3.963774"><ele>501</ele><time>2022-10-20T10:55:26Z</time><name>PT1111</name></trkpt>
<trkpt lat="53.224650" lon="-3.963719"><ele>501</ele><time>2022-10-20T10:55:29Z</time><name>PT1112</name></trkpt>
<trkpt lat="53.224631" lon="-3.963667"><ele>501</ele><time>2022-10-20T10:55:32Z</time><name>PT1113</name></trkpt>
<trkpt lat="53.224608" lon="-3.963605"><ele>501</ele><time>2022-10-20T10:55:35Z</time><name>PT1114</name></trkpt>
<trkpt lat="53.224585" lon="-3.963542"><ele>500</ele><time>2022-10-20T10:55:39Z</time><name>PT1115</name></trkpt>
<trkpt lat="53.224568" lon="-3.963500"><ele>498</ele><time>2022-10-20T10:55:44Z</time><name>PT1116</name></trkpt>
<trkpt lat="53.224544" lon="-3.963439"><ele>500</ele><time>2022-10-20T10:55:47Z</time><name>PT1117</name></trkpt>
<trkpt lat="53.224531" lon="-3.963381"><ele>501</ele><time>2022-10-20T10:55:51Z</time><name>PT1118</name></trkpt>
<trkpt lat="53.224518" lon="-3.963343"><ele>502</ele><time>2022-10-20T10:55:54Z</time><name>PT1119</name></trkpt>
<trkpt lat="53.224511" lon="-3.963299"><ele>503</ele><time>2022-10-20T10:55:59Z</time><name>PT1120</name></trkpt>
<trkpt lat="53.224504" lon="-3.963261"><ele>504</ele><time>2022-10-20T10:56:02Z</time><name>PT1121</name></trkpt>
<trkpt lat="53.224500" lon="-3.963190"><ele>505</ele><time>2022-10-20T10:56:05Z</time><name>PT1122</name></trkpt>
<trkpt lat="53.224487" lon="-3.963131"><ele>505</ele><time>2022-10-20T10:56:09Z</time><name>PT1123</name></trkpt>
<trkpt lat="53.224483" lon="-3.963057"><ele>505</ele><time>2022-10-20T10:56:14Z</time><name>PT1124</name></trkpt>
<trkpt lat="53.224491" lon="-3.962988"><ele>506</ele><time>2022-10-20T10:56:17Z</time><name>PT1125</name></trkpt>
<trkpt lat="53.224491" lon="-3.962941"><ele>506</ele><time>2022-10-20T10:56:20Z</time><name>PT1126</name></trkpt>
<trkpt lat="53.224488" lon="-3.962876"><ele>506</ele><time>2022-10-20T10:56:24Z</time><name>PT1127</name></trkpt>
<trkpt lat="53.224483" lon="-3.962806"><ele>506</ele><time>2022-10-20T10:56:29Z</time><name>PT1128</name></trkpt>
<trkpt lat="53.224472" lon="-3.962763"><ele>506</ele><time>2022-10-20T10:56:32Z</time><name>PT1129</name></trkpt>
<trkpt lat="53.224460" lon="-3.962732"><ele>506</ele><time>2022-10-20T10:56:35Z</time><name>PT1130</name></trkpt>
<trkpt lat="53.224461" lon="-3.962676"><ele>506</ele><time>2022-10-20T10:56:38Z</time><name>PT1131</name></trkpt>
<trkpt lat="53.224457" lon="-3.962620"><ele>508</ele><time>2022-10-20T10:56:42Z</time><name>PT1132</name></trkpt>
<trkpt lat="53.224455" lon="-3.962584"><ele>508</ele><time>2022-10-20T10:56:45Z</time><name>PT1133</name></trkpt>
<trkpt lat="53.224460" lon="-3.962552"><ele>509</ele><time>2022-10-20T10:56:48Z</time><name>PT1134</name></trkpt>
<trkpt lat="53.224472" lon="-3.962493"><ele>511</ele><time>2022-10-20T10:56:53Z</time><name>PT1135</name></trkpt>
<trkpt lat="53.224483" lon="-3.962458"><ele>511</ele><time>2022-10-20T10:56:56Z</time><name>PT1136</name></trkpt>
<trkpt lat="53.224512" lon="-3.962415"><ele>511</ele><time>2022-10-20T10:56:59Z</time><name>PT1137</name></trkpt>
<trkpt lat="53.224533" lon="-3.962390"><ele>512</ele><time>2022-10-20T10:57:02Z</time><name>PT1138</name></trkpt>
<trkpt lat="53.224552" lon="-3.962359"><ele>512</ele><time>2022-10-20T10:57:06Z</time><name>PT1139</name></trkpt>
<trkpt lat="53.224562" lon="-3.962322"><ele>513</ele><time>2022-10-20T10:57:09Z</time><name>PT1140</name></trkpt>
<trkpt lat="53.224569" lon="-3.962284"><ele>514</ele><time>2022-10-20T10:57:12Z</time><name>PT1141</name></trkpt>
<trkpt lat="53.224583" lon="-3.962231"><ele>514</ele><time>2022-10-20T10:57:17Z</time><name>PT1142</name></trkpt>
<trkpt lat="53.224593" lon="-3.962188"><ele>515</ele><time>2022-10-20T10:57:20Z</time><name>PT1143</name></trkpt>
<trkpt lat="53.224601" lon="-3.962156"><ele>516</ele><time>2022-10-20T10:57:23Z</time><name>PT1144</name></trkpt>
<trkpt lat="53.224612" lon="-3.962130"><ele>517</ele><time>2022-10-20T10:57:26Z</time><name>PT1145</name></trkpt>
<trkpt lat="53.224618" lon="-3.962093"><ele>517</ele><time>2022-10-20T10:57:29Z</time><name>PT1146</name></trkpt>
<trkpt lat="53.224627" lon="-3.962058"><ele>518</ele><time>2022-10-20T10:57:32Z</time><name>PT1147</name></trkpt>
<trkpt lat="53.224640" lon="-3.962021"><ele>519</ele><time>2022-10-20T10:57:36Z</time><name>PT1148</name></trkpt>
<trkpt lat="53.224653" lon="-3.961977"><ele>520</ele><time>2022-10-20T10:57:41Z</time><name>PT1149</name></trkpt>
<trkpt lat="53.224661" lon="-3.961941"><ele>520</ele><time>2022-10-20T10:57:44Z</time><name>PT1150</name></trkpt>
<trkpt lat="53.224673" lon="-3.961897"><ele>521</ele><time>2022-10-20T10:57:47Z</time><name>PT1151</name></trkpt>
<trkpt lat="53.224685" lon="-3.961863"><ele>521</ele><time>2022-10-20T10:57:50Z</time><name>PT1152</name></trkpt>
<trkpt lat="53.224699" lon="-3.961816"><ele>522</ele><time>2022-10-20T10:57:54Z</time><name>PT1153</name></trkpt>
<trkpt lat="53.224709" lon="-3.961773"><ele>522</ele><time>2022-10-20T10:57:57Z</time><name>PT1154</name></trkpt>
<trkpt lat="53.224721" lon="-3.961717"><ele>524</ele><time>2022-10-20T10:58:02Z</time><name>PT1155</name></trkpt>
<trkpt lat="53.224732" lon="-3.961679"><ele>525</ele><time>2022-10-20T10:58:05Z</time><name>PT1156</name></trkpt>
<trkpt lat="53.224751" lon="-3.961634"><ele>525</ele><time>2022-10-20T10:58:08Z</time><name>PT1157</name></trkpt>
<trkpt lat="53.224774" lon="-3.961584"><ele>526</ele><time>2022-10-20T10:58:12Z</time><name>PT1158</name></trkpt>
<trkpt lat="53.224789" lon="-3.961552"><ele>526</ele><time>2022-10-20T10:58:15Z</time><name>PT1159</name></trkpt>
<trkpt lat="53.224804" lon="-3.961508"><ele>526</ele><time>2022-10-20T10:58:20Z</time><name>PT1160</name></trkpt>
<trkpt lat="53.224820" lon="-3.961470"><ele>527</ele><time>2022-10-20T10:58:23Z</time><name>PT1161</name></trkpt>
<trkpt lat="53.224834" lon="-3.961426"><ele>527</ele><time>2022-10-20T10:58:26Z</time><name>PT1162</name></trkpt>
<trkpt lat="53.224851" lon="-3.961384"><ele>527</ele><time>2022-10-20T10:58:29Z</time><name>PT1163</name></trkpt>
<trkpt lat="53.224865" lon="-3.961328"><ele>526</ele><time>2022-10-20T10:58:32Z</time><name>PT1164</name></trkpt>
<trkpt lat="53.224879" lon="-3.961289"><ele>526</ele><time>2022-10-20T10:58:35Z</time><name>PT1165</name></trkpt>
<trkpt lat="53.224895" lon="-3.961236"><ele>527</ele><time>2022-10-20T10:58:39Z</time><name>PT1166</name></trkpt>
<trkpt lat="53.224906" lon="-3.961199"><ele>527</ele><time>2022-10-20T10:58:42Z</time><name>PT1167</name></trkpt>
<trkpt lat="53.224910" lon="-3.961156"><ele>527</ele><time>2022-10-20T10:58:47Z</time><name>PT1168</name></trkpt>
<trkpt lat="53.224921" lon="-3.961141"><ele>528</ele><time>2022-10-20T10:58:50Z</time><name>PT1169</name></trkpt>
<trkpt lat="53.224933" lon="-3.961110"><ele>528</ele><time>2022-10-20T10:58:53Z</time><name>PT1170</name></trkpt>
<trkpt lat="53.224951" lon="-3.961066"><ele>528</ele><time>2022-10-20T10:58:56Z</time><name>PT1171</name></trkpt>
<trkpt lat="53.224971" lon="-3.961030"><ele>529</ele><time>2022-10-20T10:59:00Z</time><name>PT1172</name></trkpt>
<trkpt lat="53.224989" lon="-3.960979"><ele>529</ele><time>2022-10-20T10:59:05Z</time><name>PT1173</name></trkpt>
<trkpt lat="53.225009" lon="-3.960937"><ele>529</ele><time>2022-10-20T10:59:08Z</time><name>PT1174</name></trkpt>
<trkpt lat="53.225037" lon="-3.960889"><ele>530</ele><time>2022-10-20T10:59:11Z</time><name>PT1175</name></trkpt>
<trkpt lat="53.225066" lon="-3.960844"><ele>530</ele><time>2022-10-20T10:59:15Z</time><name>PT1176</name></trkpt>
<trkpt lat="53.225082" lon="-3.960811"><ele>530</ele><time>2022-10-20T10:59:18Z</time><name>PT1177</name></trkpt>
<trkpt lat="53.225093" lon="-3.960766"><ele>529</ele><time>2022-10-20T10:59:23Z</time><name>PT1178</name></trkpt>
<trkpt lat="53.225103" lon="-3.960736"><ele>529</ele><time>2022-10-20T10:59:26Z</time><name>PT1179</name></trkpt>
<trkpt lat="53.225111" lon="-3.960705"><ele>530</ele><time>2022-10-20T10:59:29Z</time><name>PT1180</name></trkpt>
<trkpt lat="53.225112" lon="-3.960706"><ele>530</ele><time>2022-10-20T10:59:33Z</time><name>PT1181</name></trkpt>
<trkpt lat="53.225115" lon="-3.960709"><ele>530</ele><time>2022-10-20T10:59:39Z</time><name>PT1182</name></trkpt>
<trkpt lat="53.225116" lon="-3.960702"><ele>529</ele><time>2022-10-20T10:59:44Z</time><name>PT1183</name></trkpt>
<trkpt lat="53.225124" lon="-3.960679"><ele>529</ele><time>2022-10-20T10:59:47Z</time><name>PT1184</name></trkpt>
<trkpt lat="53.225121" lon="-3.960685"><ele>529</ele><time>2022-10-20T10:59:51Z</time><name>PT1185</name></trkpt>
<trkpt lat="53.225119" lon="-3.960692"><ele>530</ele><time>2022-10-20T10:59:56Z</time><name>PT1186</name></trkpt>
<trkpt lat="53.225120" lon="-3.960693"><ele>530</ele><time>2022-10-20T10:59:59Z</time><name>PT1187</name></trkpt>
<trkpt lat="53.225118" lon="-3.960697"><ele>530</ele><time>2022-10-20T11:00:18Z</time><name>PT1188</name></trkpt>
<trkpt lat="53.225120" lon="-3.960693"><ele>530</ele><time>2022-10-20T11:00:21Z</time><name>PT1189</name></trkpt>
<trkpt lat="53.225126" lon="-3.960680"><ele>530</ele><time>2022-10-20T11:00:32Z</time><name>PT1190</name></trkpt>
<trkpt lat="53.225133" lon="-3.960675"><ele>529</ele><time>2022-10-20T11:00:35Z</time><name>PT1191</name></trkpt>
<trkpt lat="53.225137" lon="-3.960646"><ele>530</ele><time>2022-10-20T11:00:53Z</time><name>PT1192</name></trkpt>
<trkpt lat="53.225140" lon="-3.960605"><ele>531</ele><time>2022-10-20T11:00:56Z</time><name>PT1193</name></trkpt>
<trkpt lat="53.225148" lon="-3.960542"><ele>532</ele><time>2022-10-20T11:00:59Z</time><name>PT1194</name></trkpt>
<trkpt lat="53.225160" lon="-3.960482"><ele>533</ele><time>2022-10-20T11:01:02Z</time><name>PT1195</name></trkpt>
<trkpt lat="53.225165" lon="-3.960425"><ele>533</ele><time>2022-10-20T11:01:06Z</time><name>PT1196</name></trkpt>
<trkpt lat="53.225169" lon="-3.960378"><ele>533</ele><time>2022-10-20T11:01:09Z</time><name>PT1197</name></trkpt>
<trkpt lat="53.225173" lon="-3.960340"><ele>535</ele><time>2022-10-20T11:01:12Z</time><name>PT1198</name></trkpt>
<trkpt lat="53.225181" lon="-3.960300"><ele>535</ele><time>2022-10-20T11:01:17Z</time><name>PT1199</name></trkpt>
<trkpt lat="53.225192" lon="-3.960265"><ele>536</ele><time>2022-10-20T11:01:20Z</time><name>PT1200</name></trkpt>
<trkpt lat="53.225199" lon="-3.960226"><ele>537</ele><time>2022-10-20T11:01:23Z</time><name>PT1201</name></trkpt>
<trkpt lat="53.225208" lon="-3.960188"><ele>537</ele><time>2022-10-20T11:01:26Z</time><name>PT1202</name></trkpt>
<trkpt lat="53.225212" lon="-3.960128"><ele>538</ele><time>2022-10-20T11:01:29Z</time><name>PT1203</name></trkpt>
<trkpt lat="53.225215" lon="-3.960083"><ele>539</ele><time>2022-10-20T11:01:33Z</time><name>PT1204</name></trkpt>
<trkpt lat="53.225216" lon="-3.960046"><ele>540</ele><time>2022-10-20T11:01:36Z</time><name>PT1205</name></trkpt>
<trkpt lat="53.225212" lon="-3.959991"><ele>540</ele><time>2022-10-20T11:01:41Z</time><name>PT1206</name></trkpt>
<trkpt lat="53.225215" lon="-3.959958"><ele>540</ele><time>2022-10-20T11:01:44Z</time><name>PT1207</name></trkpt>
<trkpt lat="53.225213" lon="-3.959912"><ele>540</ele><time>2022-10-20T11:01:47Z</time><name>PT1208</name></trkpt>
<trkpt lat="53.225203" lon="-3.959872"><ele>541</ele><time>2022-10-20T11:01:51Z</time><name>PT1209</name></trkpt>
<trkpt lat="53.225186" lon="-3.959835"><ele>542</ele><time>2022-10-20T11:01:56Z</time><name>PT1210</name></trkpt>
<trkpt lat="53.225181" lon="-3.959807"><ele>542</ele><time>2022-10-20T11:01:59Z</time><name>PT1211</name></trkpt>
<trkpt lat="53.225181" lon="-3.959775"><ele>543</ele><time>2022-10-20T11:02:02Z</time><name>PT1212</name></trkpt>
<trkpt lat="53.225183" lon="-3.959757"><ele>544</ele><time>2022-10-20T11:02:05Z</time><name>PT1213</name></trkpt>
<trkpt lat="53.225182" lon="-3.959721"><ele>545</ele><time>2022-10-20T11:02:09Z</time><name>PT1214</name></trkpt>
<trkpt lat="53.225175" lon="-3.959698"><ele>546</ele><time>2022-10-20T11:02:12Z</time><name>PT1215</name></trkpt>
<trkpt lat="53.225168" lon="-3.959671"><ele>547</ele><time>2022-10-20T11:02:17Z</time><name>PT1216</name></trkpt>
<trkpt lat="53.225152" lon="-3.959653"><ele>548</ele><time>2022-10-20T11:02:20Z</time><name>PT1217</name></trkpt>
<trkpt lat="53.225138" lon="-3.959622"><ele>550</ele><time>2022-10-20T11:02:24Z</time><name>PT1218</name></trkpt>
<trkpt lat="53.225145" lon="-3.959593"><ele>550</ele><time>2022-10-20T11:02:27Z</time><name>PT1219</name></trkpt>
<trkpt lat="53.225162" lon="-3.959567"><ele>551</ele><time>2022-10-20T11:02:32Z</time><name>PT1220</name></trkpt>
<trkpt lat="53.225177" lon="-3.959541"><ele>550</ele><time>2022-10-20T11:02:35Z</time><name>PT1221</name></trkpt>
<trkpt lat="53.225186" lon="-3.959518"><ele>550</ele><time>2022-10-20T11:02:38Z</time><name>PT1222</name></trkpt>
<trkpt lat="53.225193" lon="-3.959497"><ele>551</ele><time>2022-10-20T11:02:41Z</time><name>PT1223</name></trkpt>
<trkpt lat="53.225205" lon="-3.959472"><ele>552</ele><time>2022-10-20T11:02:44Z</time><name>PT1224</name></trkpt>
<trkpt lat="53.225212" lon="-3.959443"><ele>553</ele><time>2022-10-20T11:02:48Z</time><name>PT1225</name></trkpt>
<trkpt lat="53.225220" lon="-3.959412"><ele>554</ele><time>2022-10-20T11:02:53Z</time><name>PT1226</name></trkpt>
<trkpt lat="53.225204" lon="-3.959396"><ele>555</ele><time>2022-10-20T11:02:56Z</time><name>PT1227</name></trkpt>
<trkpt lat="53.225207" lon="-3.959374"><ele>555</ele><time>2022-10-20T11:02:59Z</time><name>PT1228</name></trkpt>
<trkpt lat="53.225219" lon="-3.959342"><ele>556</ele><time>2022-10-20T11:03:03Z</time><name>PT1229</name></trkpt>
<trkpt lat="53.225229" lon="-3.959315"><ele>556</ele><time>2022-10-20T11:03:08Z</time><name>PT1230</name></trkpt>
<trkpt lat="53.225237" lon="-3.959286"><ele>557</ele><time>2022-10-20T11:03:11Z</time><name>PT1231</name></trkpt>
<trkpt lat="53.225257" lon="-3.959217"><ele>557</ele><time>2022-10-20T11:03:15Z</time><name>PT1232</name></trkpt>
<trkpt lat="53.225262" lon="-3.959189"><ele>558</ele><time>2022-10-20T11:03:18Z</time><name>PT1233</name></trkpt>
<trkpt lat="53.225249" lon="-3.959160"><ele>559</ele><time>2022-10-20T11:03:23Z</time><name>PT1234</name></trkpt>
<trkpt lat="53.225236" lon="-3.959122"><ele>559</ele><time>2022-10-20T11:03:26Z</time><name>PT1235</name></trkpt>
<trkpt lat="53.225237" lon="-3.959065"><ele>559</ele><time>2022-10-20T11:03:29Z</time><name>PT1236</name></trkpt>
<trkpt lat="53.225231" lon="-3.959017"><ele>559</ele><time>2022-10-20T11:03:32Z</time><name>PT1237</name></trkpt>
<trkpt lat="53.225215" lon="-3.958961"><ele>558</ele><time>2022-10-20T11:03:35Z</time><name>PT1238</name></trkpt>
<trkpt lat="53.225198" lon="-3.958905"><ele>558</ele><time>2022-10-20T11:03:39Z</time><name>PT1239</name></trkpt>
<trkpt lat="53.225180" lon="-3.958860"><ele>557</ele><time>2022-10-20T11:03:42Z</time><name>PT1240</name></trkpt>
<trkpt lat="53.225154" lon="-3.958809"><ele>558</ele><time>2022-10-20T11:03:47Z</time><name>PT1241</name></trkpt>
<trkpt lat="53.225125" lon="-3.958776"><ele>558</ele><time>2022-10-20T11:03:50Z</time><name>PT1242</name></trkpt>
<trkpt lat="53.225109" lon="-3.958754"><ele>558</ele><time>2022-10-20T11:03:53Z</time><name>PT1243</name></trkpt>
<trkpt lat="53.225092" lon="-3.958724"><ele>559</ele><time>2022-10-20T11:03:56Z</time><name>PT1244</name></trkpt>
<trkpt lat="53.225066" lon="-3.958700"><ele>559</ele><time>2022-10-20T11:04:00Z</time><name>PT1245</name></trkpt>
<trkpt lat="53.225030" lon="-3.958661"><ele>560</ele><time>2022-10-20T11:04:05Z</time><name>PT1246</name></trkpt>
<trkpt lat="53.225007" lon="-3.958630"><ele>561</ele><time>2022-10-20T11:04:08Z</time><name>PT1247</name></trkpt>
<trkpt lat="53.224985" lon="-3.958589"><ele>561</ele><time>2022-10-20T11:04:11Z</time><name>PT1248</name></trkpt>
<trkpt lat="53.224963" lon="-3.958553"><ele>561</ele><time>2022-10-20T11:04:15Z</time><name>PT1249</name></trkpt>
<trkpt lat="53.224944" lon="-3.958530"><ele>561</ele><time>2022-10-20T11:04:18Z</time><name>PT1250</name></trkpt>
<trkpt lat="53.224921" lon="-3.958502"><ele>561</ele><time>2022-10-20T11:04:21Z</time><name>PT1251</name></trkpt>
<trkpt lat="53.224890" lon="-3.958487"><ele>562</ele><time>2022-10-20T11:04:26Z</time><name>PT1252</name></trkpt>
<trkpt lat="53.224869" lon="-3.958470"><ele>562</ele><time>2022-10-20T11:04:29Z</time><name>PT1253</name></trkpt>
<trkpt lat="53.224855" lon="-3.958439"><ele>563</ele><time>2022-10-20T11:04:32Z</time><name>PT1254</name></trkpt>
<trkpt lat="53.224836" lon="-3.958419"><ele>563</ele><time>2022-10-20T11:04:35Z</time><name>PT1255</name></trkpt>
<trkpt lat="53.224817" lon="-3.958417"><ele>564</ele><time>2022-10-20T11:04:38Z</time><name>PT1256</name></trkpt>
<trkpt lat="53.224812" lon="-3.958415"><ele>563</ele><time>2022-10-20T11:04:41Z</time><name>PT1257</name></trkpt>
<trkpt lat="53.224809" lon="-3.958414"><ele>564</ele><time>2022-10-20T11:04:45Z</time><name>PT1258</name></trkpt>
<trkpt lat="53.224809" lon="-3.958417"><ele>564</ele><time>2022-10-20T11:06:11Z</time><name>PT1259</name></trkpt>
<trkpt lat="53.224811" lon="-3.958408"><ele>564</ele><time>2022-10-20T11:06:14Z</time><name>PT1260</name></trkpt>
<trkpt lat="53.224813" lon="-3.958409"><ele>564</ele><time>2022-10-20T11:06:20Z</time><name>PT1261</name></trkpt>
<trkpt lat="53.224820" lon="-3.958420"><ele>563</ele><time>2022-10-20T11:06:23Z</time><name>PT1262</name></trkpt>
<trkpt lat="53.224824" lon="-3.958421"><ele>564</ele><time>2022-10-20T11:06:26Z</time><name>PT1263</name></trkpt>
<trkpt lat="53.224826" lon="-3.958433"><ele>563</ele><time>2022-10-20T11:06:30Z</time><name>PT1264</name></trkpt>
<trkpt lat="53.224810" lon="-3.958421"><ele>563</ele><time>2022-10-20T11:06:35Z</time><name>PT1265</name></trkpt>
<trkpt lat="53.224816" lon="-3.958439"><ele>564</ele><time>2022-10-20T11:06:38Z</time><name>PT1266</name></trkpt>
<trkpt lat="53.224814" lon="-3.958448"><ele>564</ele><time>2022-10-20T11:06:41Z</time><name>PT1267</name></trkpt>
<trkpt lat="53.224817" lon="-3.958435"><ele>564</ele><time>2022-10-20T11:06:44Z</time><name>PT1268</name></trkpt>
<trkpt lat="53.224812" lon="-3.958440"><ele>564</ele><time>2022-10-20T11:06:48Z</time><name>PT1269</name></trkpt>
<trkpt lat="53.224802" lon="-3.958434"><ele>564</ele><time>2022-10-20T11:06:56Z</time><name>PT1270</name></trkpt>
<trkpt lat="53.224785" lon="-3.958406"><ele>563</ele><time>2022-10-20T11:06:59Z</time><name>PT1271</name></trkpt>
<trkpt lat="53.224771" lon="-3.958391"><ele>563</ele><time>2022-10-20T11:07:02Z</time><name>PT1272</name></trkpt>
<trkpt lat="53.224742" lon="-3.958369"><ele>562</ele><time>2022-10-20T11:07:06Z</time><name>PT1273</name></trkpt>
<trkpt lat="53.224714" lon="-3.958354"><ele>560</ele><time>2022-10-20T11:07:11Z</time><name>PT1274</name></trkpt>
<trkpt lat="53.224697" lon="-3.958337"><ele>560</ele><time>2022-10-20T11:07:14Z</time><name>PT1275</name></trkpt>
<trkpt lat="53.224672" lon="-3.958321"><ele>559</ele><time>2022-10-20T11:07:17Z</time><name>PT1276</name></trkpt>
<trkpt lat="53.224643" lon="-3.958300"><ele>558</ele><time>2022-10-20T11:07:20Z</time><name>PT1277</name></trkpt>
<trkpt lat="53.224623" lon="-3.958292"><ele>558</ele><time>2022-10-20T11:07:23Z</time><name>PT1278</name></trkpt>
<trkpt lat="53.224597" lon="-3.958268"><ele>557</ele><time>2022-10-20T11:07:27Z</time><name>PT1279</name></trkpt>
<trkpt lat="53.224578" lon="-3.958252"><ele>556</ele><time>2022-10-20T11:07:30Z</time><name>PT1280</name></trkpt>
<trkpt lat="53.224550" lon="-3.958240"><ele>555</ele><time>2022-10-20T11:07:35Z</time><name>PT1281</name></trkpt>
<trkpt lat="53.224529" lon="-3.958231"><ele>554</ele><time>2022-10-20T11:07:38Z</time><name>PT1282</name></trkpt>
<trkpt lat="53.224503" lon="-3.958211"><ele>553</ele><time>2022-10-20T11:07:41Z</time><name>PT1283</name></trkpt>
<trkpt lat="53.224491" lon="-3.958187"><ele>553</ele><time>2022-10-20T11:07:44Z</time><name>PT1284</name></trkpt>
<trkpt lat="53.224457" lon="-3.958168"><ele>553</ele><time>2022-10-20T11:07:48Z</time><name>PT1285</name></trkpt>
<trkpt lat="53.224438" lon="-3.958164"><ele>553</ele><time>2022-10-20T11:07:51Z</time><name>PT1286</name></trkpt>
<trkpt lat="53.224421" lon="-3.958155"><ele>552</ele><time>2022-10-20T11:07:54Z</time><name>PT1287</name></trkpt>
<trkpt lat="53.224398" lon="-3.958137"><ele>552</ele><time>2022-10-20T11:07:59Z</time><name>PT1288</name></trkpt>
<trkpt lat="53.224374" lon="-3.958126"><ele>552</ele><time>2022-10-20T11:08:02Z</time><name>PT1289</name></trkpt>
<trkpt lat="53.224348" lon="-3.958110"><ele>552</ele><time>2022-10-20T11:08:05Z</time><name>PT1290</name></trkpt>
<trkpt lat="53.224318" lon="-3.958082"><ele>551</ele><time>2022-10-20T11:08:09Z</time><name>PT1291</name></trkpt>
<trkpt lat="53.224284" lon="-3.958062"><ele>551</ele><time>2022-10-20T11:08:14Z</time><name>PT1292</name></trkpt>
<trkpt lat="53.224262" lon="-3.958045"><ele>550</ele><time>2022-10-20T11:08:17Z</time><name>PT1293</name></trkpt>
<trkpt lat="53.224244" lon="-3.958039"><ele>550</ele><time>2022-10-20T11:08:20Z</time><name>PT1294</name></trkpt>
<trkpt lat="53.224211" lon="-3.958024"><ele>549</ele><time>2022-10-20T11:08:23Z</time><name>PT1295</name></trkpt>
<trkpt lat="53.224178" lon="-3.958010"><ele>548</ele><time>2022-10-20T11:08:27Z</time><name>PT1296</name></trkpt>
<trkpt lat="53.224158" lon="-3.957992"><ele>547</ele><time>2022-10-20T11:08:30Z</time><name>PT1297</name></trkpt>
<trkpt lat="53.224137" lon="-3.957982"><ele>547</ele><time>2022-10-20T11:08:33Z</time><name>PT1298</name></trkpt>
<trkpt lat="53.224113" lon="-3.957965"><ele>546</ele><time>2022-10-20T11:08:38Z</time><name>PT1299</name></trkpt>
<trkpt lat="53.224079" lon="-3.957941"><ele>546</ele><time>2022-10-20T11:08:41Z</time><name>PT1300</name></trkpt>
<trkpt lat="53.224049" lon="-3.957912"><ele>546</ele><time>2022-10-20T11:08:45Z</time><name>PT1301</name></trkpt>
<trkpt lat="53.224017" lon="-3.957884"><ele>547</ele><time>2022-10-20T11:08:50Z</time><name>PT1302</name></trkpt>
<trkpt lat="53.223993" lon="-3.957871"><ele>547</ele><time>2022-10-20T11:08:53Z</time><name>PT1303</name></trkpt>
<trkpt lat="53.223971" lon="-3.957857"><ele>548</ele><time>2022-10-20T11:08:57Z</time><name>PT1304</name></trkpt>
<trkpt lat="53.223945" lon="-3.957839"><ele>549</ele><time>2022-10-20T11:09:02Z</time><name>PT1305</name></trkpt>
<trkpt lat="53.223935" lon="-3.957823"><ele>550</ele><time>2022-10-20T11:09:05Z</time><name>PT1306</name></trkpt>
<trkpt lat="53.223921" lon="-3.957804"><ele>551</ele><time>2022-10-20T11:09:08Z</time><name>PT1307</name></trkpt>
<trkpt lat="53.223895" lon="-3.957784"><ele>552</ele><time>2022-10-20T11:09:11Z</time><name>PT1308</name></trkpt>
<trkpt lat="53.223862" lon="-3.957759"><ele>551</ele><time>2022-10-20T11:09:15Z</time><name>PT1309</name></trkpt>
<trkpt lat="53.223843" lon="-3.957741"><ele>551</ele><time>2022-10-20T11:09:18Z</time><name>PT1310</name></trkpt>
<trkpt lat="53.223817" lon="-3.957717"><ele>551</ele><time>2022-10-20T11:09:21Z</time><name>PT1311</name></trkpt>
<trkpt lat="53.223789" lon="-3.957696"><ele>552</ele><time>2022-10-20T11:09:26Z</time><name>PT1312</name></trkpt>
<trkpt lat="53.223758" lon="-3.957696"><ele>551</ele><time>2022-10-20T11:09:29Z</time><name>PT1313</name></trkpt>
<trkpt lat="53.223722" lon="-3.957700"><ele>551</ele><time>2022-10-20T11:09:33Z</time><name>PT1314</name></trkpt>
<trkpt lat="53.223707" lon="-3.957690"><ele>551</ele><time>2022-10-20T11:09:36Z</time><name>PT1315</name></trkpt>
<trkpt lat="53.223684" lon="-3.957682"><ele>551</ele><time>2022-10-20T11:09:41Z</time><name>PT1316</name></trkpt>
<trkpt lat="53.223656" lon="-3.957695"><ele>551</ele><time>2022-10-20T11:09:44Z</time><name>PT1317</name></trkpt>
<trkpt lat="53.223636" lon="-3.957665"><ele>551</ele><time>2022-10-20T11:09:47Z</time><name>PT1318</name></trkpt>
<trkpt lat="53.223646" lon="-3.957616"><ele>551</ele><time>2022-10-20T11:09:51Z</time><name>PT1319</name></trkpt>
<trkpt lat="53.223644" lon="-3.957582"><ele>550</ele><time>2022-10-20T11:09:54Z</time><name>PT1320</name></trkpt>
<trkpt lat="53.223634" lon="-3.957551"><ele>549</ele><time>2022-10-20T11:09:59Z</time><name>PT1321</name></trkpt>
<trkpt lat="53.223620" lon="-3.957530"><ele>548</ele><time>2022-10-20T11:10:02Z</time><name>PT1322</name></trkpt>
<trkpt lat="53.223625" lon="-3.957488"><ele>548</ele><time>2022-10-20T11:10:05Z</time><name>PT1323</name></trkpt>
<trkpt lat="53.223642" lon="-3.957454"><ele>548</ele><time>2022-10-20T11:10:09Z</time><name>PT1324</name></trkpt>
<trkpt lat="53.223651" lon="-3.957421"><ele>548</ele><time>2022-10-20T11:10:12Z</time><name>PT1325</name></trkpt>
<trkpt lat="53.223633" lon="-3.957404"><ele>546</ele><time>2022-10-20T11:10:17Z</time><name>PT1326</name></trkpt>
<trkpt lat="53.223622" lon="-3.957374"><ele>546</ele><time>2022-10-20T11:10:20Z</time><name>PT1327</name></trkpt>
<trkpt lat="53.223603" lon="-3.957344"><ele>545</ele><time>2022-10-20T11:10:23Z</time><name>PT1328</name></trkpt>
<trkpt lat="53.223614" lon="-3.957324"><ele>545</ele><time>2022-10-20T11:10:27Z</time><name>PT1329</name></trkpt>
<trkpt lat="53.223631" lon="-3.957292"><ele>544</ele><time>2022-10-20T11:10:30Z</time><name>PT1330</name></trkpt>
<trkpt lat="53.223633" lon="-3.957265"><ele>543</ele><time>2022-10-20T11:10:33Z</time><name>PT1331</name></trkpt>
<trkpt lat="53.223628" lon="-3.957237"><ele>542</ele><time>2022-10-20T11:10:36Z</time><name>PT1332</name></trkpt>
<trkpt lat="53.223624" lon="-3.957205"><ele>541</ele><time>2022-10-20T11:10:39Z</time><name>PT1333</name></trkpt>
<trkpt lat="53.223613" lon="-3.957166"><ele>539</ele><time>2022-10-20T11:10:44Z</time><name>PT1334</name></trkpt>
<trkpt lat="53.223610" lon="-3.957147"><ele>539</ele><time>2022-10-20T11:10:47Z</time><name>PT1335</name></trkpt>
<trkpt lat="53.223620" lon="-3.957109"><ele>538</ele><time>2022-10-20T11:10:50Z</time><name>PT1336</name></trkpt>
<trkpt lat="53.223634" lon="-3.957077"><ele>537</ele><time>2022-10-20T11:10:53Z</time><name>PT1337</name></trkpt>
<trkpt lat="53.223650" lon="-3.957047"><ele>536</ele><time>2022-10-20T11:10:56Z</time><name>PT1338</name></trkpt>
<trkpt lat="53.223667" lon="-3.957017"><ele>536</ele><time>2022-10-20T11:11:00Z</time><name>PT1339</name></trkpt>
<trkpt lat="53.223667" lon="-3.956990"><ele>535</ele><time>2022-10-20T11:11:03Z</time><name>PT1340</name></trkpt>
<trkpt lat="53.223675" lon="-3.956949"><ele>534</ele><time>2022-10-20T11:11:08Z</time><name>PT1341</name></trkpt>
<trkpt lat="53.223682" lon="-3.956908"><ele>534</ele><time>2022-10-20T11:11:11Z</time><name>PT1342</name></trkpt>
<trkpt lat="53.223700" lon="-3.956858"><ele>532</ele><time>2022-10-20T11:11:15Z</time><name>PT1343</name></trkpt>
<trkpt lat="53.223698" lon="-3.956806"><ele>531</ele><time>2022-10-20T11:11:20Z</time><name>PT1344</name></trkpt>
<trkpt lat="53.223692" lon="-3.956766"><ele>530</ele><time>2022-10-20T11:11:23Z</time><name>PT1345</name></trkpt>
<trkpt lat="53.223680" lon="-3.956711"><ele>528</ele><time>2022-10-20T11:11:26Z</time><name>PT1346</name></trkpt>
<trkpt lat="53.223682" lon="-3.956655"><ele>528</ele><time>2022-10-20T11:11:30Z</time><name>PT1347</name></trkpt>
<trkpt lat="53.223687" lon="-3.956610"><ele>528</ele><time>2022-10-20T11:11:33Z</time><name>PT1348</name></trkpt>
<trkpt lat="53.223690" lon="-3.956569"><ele>526</ele><time>2022-10-20T11:11:36Z</time><name>PT1349</name></trkpt>
<trkpt lat="53.223682" lon="-3.956533"><ele>525</ele><time>2022-10-20T11:11:39Z</time><name>PT1350</name></trkpt>
<trkpt lat="53.223680" lon="-3.956489"><ele>525</ele><time>2022-10-20T11:11:44Z</time><name>PT1351</name></trkpt>
<trkpt lat="53.223671" lon="-3.956461"><ele>524</ele><time>2022-10-20T11:11:47Z</time><name>PT1352</name></trkpt>
<trkpt lat="53.223667" lon="-3.956427"><ele>524</ele><time>2022-10-20T11:11:50Z</time><name>PT1353</name></trkpt>
<trkpt lat="53.223655" lon="-3.956377"><ele>523</ele><time>2022-10-20T11:11:53Z</time><name>PT1354</name></trkpt>
<trkpt lat="53.223656" lon="-3.956335"><ele>522</ele><time>2022-10-20T11:11:56Z</time><name>PT1355</name></trkpt>
<trkpt lat="53.223644" lon="-3.956285"><ele>522</ele><time>2022-10-20T11:12:00Z</time><name>PT1356</name></trkpt>
<trkpt lat="53.223634" lon="-3.956250"><ele>522</ele><time>2022-10-20T11:12:03Z</time><name>PT1357</name></trkpt>
<trkpt lat="53.223628" lon="-3.956211"><ele>521</ele><time>2022-10-20T11:12:06Z</time><name>PT1358</name></trkpt>
<trkpt lat="53.223616" lon="-3.956148"><ele>521</ele><time>2022-10-20T11:12:11Z</time><name>PT1359</name></trkpt>
<trkpt lat="53.223603" lon="-3.956084"><ele>521</ele><time>2022-10-20T11:12:14Z</time><name>PT1360</name></trkpt>
<trkpt lat="53.223604" lon="-3.956030"><ele>521</ele><time>2022-10-20T11:12:18Z</time><name>PT1361</name></trkpt>
<trkpt lat="53.223613" lon="-3.956026"><ele>521</ele><time>2022-10-20T11:12:23Z</time><name>PT1362</name></trkpt>
<trkpt lat="53.223616" lon="-3.956027"><ele>521</ele><time>2022-10-20T11:12:26Z</time><name>PT1363</name></trkpt>
<trkpt lat="53.223612" lon="-3.956026"><ele>521</ele><time>2022-10-20T11:12:29Z</time><name>PT1364</name></trkpt>
<trkpt lat="53.223585" lon="-3.955958"><ele>521</ele><time>2022-10-20T11:12:33Z</time><name>PT1365</name></trkpt>
<trkpt lat="53.223570" lon="-3.955879"><ele>520</ele><time>2022-10-20T11:12:38Z</time><name>PT1366</name></trkpt>
<trkpt lat="53.223553" lon="-3.955795"><ele>520</ele><time>2022-10-20T11:12:41Z</time><name>PT1367</name></trkpt>
<trkpt lat="53.223547" lon="-3.955729"><ele>520</ele><time>2022-10-20T11:12:44Z</time><name>PT1368</name></trkpt>
<trkpt lat="53.223534" lon="-3.955665"><ele>520</ele><time>2022-10-20T11:12:47Z</time><name>PT1369</name></trkpt>
<trkpt lat="53.223520" lon="-3.955576"><ele>520</ele><time>2022-10-20T11:12:51Z</time><name>PT1370</name></trkpt>
<trkpt lat="53.223503" lon="-3.955515"><ele>520</ele><time>2022-10-20T11:12:54Z</time><name>PT1371</name></trkpt>
<trkpt lat="53.223489" lon="-3.955455"><ele>520</ele><time>2022-10-20T11:12:57Z</time><name>PT1372</name></trkpt>
<trkpt lat="53.223474" lon="-3.955371"><ele>520</ele><time>2022-10-20T11:13:02Z</time><name>PT1373</name></trkpt>
<trkpt lat="53.223447" lon="-3.955291"><ele>520</ele><time>2022-10-20T11:13:05Z</time><name>PT1374</name></trkpt>
<trkpt lat="53.223437" lon="-3.955222"><ele>520</ele><time>2022-10-20T11:13:08Z</time><name>PT1375</name></trkpt>
<trkpt lat="53.223409" lon="-3.955151"><ele>520</ele><time>2022-10-20T11:13:12Z</time><name>PT1376</name></trkpt>
<trkpt lat="53.223386" lon="-3.955100"><ele>521</ele><time>2022-10-20T11:13:15Z</time><name>PT1377</name></trkpt>
<trkpt lat="53.223365" lon="-3.955043"><ele>521</ele><time>2022-10-20T11:13:18Z</time><name>PT1378</name></trkpt>
<trkpt lat="53.223339" lon="-3.954968"><ele>521</ele><time>2022-10-20T11:13:23Z</time><name>PT1379</name></trkpt>
<trkpt lat="53.223318" lon="-3.954897"><ele>521</ele><time>2022-10-20T11:13:26Z</time><name>PT1380</name></trkpt>
<trkpt lat="53.223295" lon="-3.954828"><ele>522</ele><time>2022-10-20T11:13:30Z</time><name>PT1381</name></trkpt>
<trkpt lat="53.223270" lon="-3.954753"><ele>522</ele><time>2022-10-20T11:13:35Z</time><name>PT1382</name></trkpt>
<trkpt lat="53.223250" lon="-3.954679"><ele>523</ele><time>2022-10-20T11:13:38Z</time><name>PT1383</name></trkpt>
<trkpt lat="53.223225" lon="-3.954614"><ele>523</ele><time>2022-10-20T11:13:42Z</time><name>PT1384</name></trkpt>
<trkpt lat="53.223211" lon="-3.954558"><ele>524</ele><time>2022-10-20T11:13:45Z</time><name>PT1385</name></trkpt>
<trkpt lat="53.223192" lon="-3.954509"><ele>524</ele><time>2022-10-20T11:13:48Z</time><name>PT1386</name></trkpt>
<trkpt lat="53.223178" lon="-3.954443"><ele>525</ele><time>2022-10-20T11:13:53Z</time><name>PT1387</name></trkpt>
<trkpt lat="53.223155" lon="-3.954405"><ele>525</ele><time>2022-10-20T11:13:56Z</time><name>PT1388</name></trkpt>
<trkpt lat="53.223141" lon="-3.954361"><ele>525</ele><time>2022-10-20T11:13:59Z</time><name>PT1389</name></trkpt>
<trkpt lat="53.223120" lon="-3.954324"><ele>526</ele><time>2022-10-20T11:14:02Z</time><name>PT1390</name></trkpt>
<trkpt lat="53.223100" lon="-3.954272"><ele>526</ele><time>2022-10-20T11:14:05Z</time><name>PT1391</name></trkpt>
<trkpt lat="53.223080" lon="-3.954242"><ele>526</ele><time>2022-10-20T11:14:08Z</time><name>PT1392</name></trkpt>
<trkpt lat="53.223056" lon="-3.954199"><ele>527</ele><time>2022-10-20T11:14:12Z</time><name>PT1393</name></trkpt>
<trkpt lat="53.223040" lon="-3.954157"><ele>527</ele><time>2022-10-20T11:14:17Z</time><name>PT1394</name></trkpt>
<trkpt lat="53.223027" lon="-3.954121"><ele>528</ele><time>2022-10-20T11:14:20Z</time><name>PT1395</name></trkpt>
<trkpt lat="53.223015" lon="-3.954086"><ele>529</ele><time>2022-10-20T11:14:23Z</time><name>PT1396</name></trkpt>
<trkpt lat="53.222994" lon="-3.954055"><ele>529</ele><time>2022-10-20T11:14:26Z</time><name>PT1397</name></trkpt>
<trkpt lat="53.222979" lon="-3.954016"><ele>530</ele><time>2022-10-20T11:14:29Z</time><name>PT1398</name></trkpt>
<trkpt lat="53.222968" lon="-3.953983"><ele>530</ele><time>2022-10-20T11:14:32Z</time><name>PT1399</name></trkpt>
<trkpt lat="53.222947" lon="-3.953960"><ele>530</ele><time>2022-10-20T11:14:35Z</time><name>PT1400</name></trkpt>
<trkpt lat="53.222928" lon="-3.953942"><ele>530</ele><time>2022-10-20T11:14:38Z</time><name>PT1401</name></trkpt>
<trkpt lat="53.222909" lon="-3.953900"><ele>531</ele><time>2022-10-20T11:14:42Z</time><name>PT1402</name></trkpt>
<trkpt lat="53.222897" lon="-3.953862"><ele>532</ele><time>2022-10-20T11:14:47Z</time><name>PT1403</name></trkpt>
<trkpt lat="53.222887" lon="-3.953828"><ele>532</ele><time>2022-10-20T11:14:50Z</time><name>PT1404</name></trkpt>
<trkpt lat="53.222878" lon="-3.953785"><ele>534</ele><time>2022-10-20T11:14:53Z</time><name>PT1405</name></trkpt>
<trkpt lat="53.222871" lon="-3.953752"><ele>534</ele><time>2022-10-20T11:14:56Z</time><name>PT1406</name></trkpt>
<trkpt lat="53.222862" lon="-3.953710"><ele>535</ele><time>2022-10-20T11:15:00Z</time><name>PT1407</name></trkpt>
<trkpt lat="53.222851" lon="-3.953683"><ele>535</ele><time>2022-10-20T11:15:03Z</time><name>PT1408</name></trkpt>
<trkpt lat="53.222843" lon="-3.953645"><ele>536</ele><time>2022-10-20T11:15:08Z</time><name>PT1409</name></trkpt>
<trkpt lat="53.222836" lon="-3.953619"><ele>536</ele><time>2022-10-20T11:15:11Z</time><name>PT1410</name></trkpt>
<trkpt lat="53.222830" lon="-3.953587"><ele>537</ele><time>2022-10-20T11:15:14Z</time><name>PT1411</name></trkpt>
<trkpt lat="53.222832" lon="-3.953557"><ele>537</ele><time>2022-10-20T11:15:17Z</time><name>PT1412</name></trkpt>
<trkpt lat="53.222823" lon="-3.953516"><ele>538</ele><time>2022-10-20T11:15:20Z</time><name>PT1413</name></trkpt>
<trkpt lat="53.222822" lon="-3.953482"><ele>539</ele><time>2022-10-20T11:15:23Z</time><name>PT1414</name></trkpt>
<trkpt lat="53.222819" lon="-3.953438"><ele>540</ele><time>2022-10-20T11:15:27Z</time><name>PT1415</name></trkpt>
<trkpt lat="53.222809" lon="-3.953404"><ele>540</ele><time>2022-10-20T11:15:30Z</time><name>PT1416</name></trkpt>
<trkpt lat="53.222798" lon="-3.953369"><ele>541</ele><time>2022-10-20T11:15:34Z</time><name>PT1417</name></trkpt>
<trkpt lat="53.222784" lon="-3.953337"><ele>541</ele><time>2022-10-20T11:15:37Z</time><name>PT1418</name></trkpt>
<trkpt lat="53.222764" lon="-3.953293"><ele>542</ele><time>2022-10-20T11:15:40Z</time><name>PT1419</name></trkpt>
<trkpt lat="53.222753" lon="-3.953249"><ele>543</ele><time>2022-10-20T11:15:44Z</time><name>PT1420</name></trkpt>
<trkpt lat="53.222743" lon="-3.953214"><ele>543</ele><time>2022-10-20T11:15:47Z</time><name>PT1421</name></trkpt>
<trkpt lat="53.222730" lon="-3.953166"><ele>544</ele><time>2022-10-20T11:15:52Z</time><name>PT1422</name></trkpt>
<trkpt lat="53.222720" lon="-3.953127"><ele>544</ele><time>2022-10-20T11:15:55Z</time><name>PT1423</name></trkpt>
<trkpt lat="53.222699" lon="-3.953084"><ele>545</ele><time>2022-10-20T11:15:58Z</time><name>PT1424</name></trkpt>
<trkpt lat="53.222680" lon="-3.953055"><ele>545</ele><time>2022-10-20T11:16:01Z</time><name>PT1425</name></trkpt>
<trkpt lat="53.222653" lon="-3.953009"><ele>545</ele><time>2022-10-20T11:16:05Z</time><name>PT1426</name></trkpt>
<trkpt lat="53.222622" lon="-3.952967"><ele>546</ele><time>2022-10-20T11:16:10Z</time><name>PT1427</name></trkpt>
<trkpt lat="53.222600" lon="-3.952940"><ele>546</ele><time>2022-10-20T11:16:13Z</time><name>PT1428</name></trkpt>
<trkpt lat="53.222574" lon="-3.952903"><ele>547</ele><time>2022-10-20T11:16:16Z</time><name>PT1429</name></trkpt>
<trkpt lat="53.222552" lon="-3.952868"><ele>547</ele><time>2022-10-20T11:16:19Z</time><name>PT1430</name></trkpt>
<trkpt lat="53.222522" lon="-3.952839"><ele>547</ele><time>2022-10-20T11:16:22Z</time><name>PT1431</name></trkpt>
<trkpt lat="53.222488" lon="-3.952813"><ele>548</ele><time>2022-10-20T11:16:26Z</time><name>PT1432</name></trkpt>
<trkpt lat="53.222452" lon="-3.952785"><ele>548</ele><time>2022-10-20T11:16:31Z</time><name>PT1433</name></trkpt>
<trkpt lat="53.222423" lon="-3.952769"><ele>548</ele><time>2022-10-20T11:16:34Z</time><name>PT1434</name></trkpt>
<trkpt lat="53.222381" lon="-3.952756"><ele>549</ele><time>2022-10-20T11:16:37Z</time><name>PT1435</name></trkpt>
<trkpt lat="53.222341" lon="-3.952751"><ele>549</ele><time>2022-10-20T11:16:41Z</time><name>PT1436</name></trkpt>
<trkpt lat="53.222311" lon="-3.952750"><ele>550</ele><time>2022-10-20T11:16:44Z</time><name>PT1437</name></trkpt>
<trkpt lat="53.222272" lon="-3.952732"><ele>550</ele><time>2022-10-20T11:16:49Z</time><name>PT1438</name></trkpt>
<trkpt lat="53.222247" lon="-3.952712"><ele>550</ele><time>2022-10-20T11:16:52Z</time><name>PT1439</name></trkpt>
<trkpt lat="53.222219" lon="-3.952697"><ele>551</ele><time>2022-10-20T11:16:55Z</time><name>PT1440</name></trkpt>
<trkpt lat="53.222195" lon="-3.952677"><ele>551</ele><time>2022-10-20T11:16:58Z</time><name>PT1441</name></trkpt>
<trkpt lat="53.222158" lon="-3.952651"><ele>551</ele><time>2022-10-20T11:17:01Z</time><name>PT1442</name></trkpt>
<trkpt lat="53.222120" lon="-3.952639"><ele>552</ele><time>2022-10-20T11:17:05Z</time><name>PT1443</name></trkpt>
<trkpt lat="53.222089" lon="-3.952625"><ele>552</ele><time>2022-10-20T11:17:08Z</time><name>PT1444</name></trkpt>
<trkpt lat="53.222050" lon="-3.952602"><ele>552</ele><time>2022-10-20T11:17:13Z</time><name>PT1445</name></trkpt>
<trkpt lat="53.222022" lon="-3.952597"><ele>552</ele><time>2022-10-20T11:17:16Z</time><name>PT1446</name></trkpt>
<trkpt lat="53.221984" lon="-3.952593"><ele>553</ele><time>2022-10-20T11:17:19Z</time><name>PT1447</name></trkpt>
<trkpt lat="53.221948" lon="-3.952591"><ele>553</ele><time>2022-10-20T11:17:23Z</time><name>PT1448</name></trkpt>
<trkpt lat="53.221916" lon="-3.952576"><ele>554</ele><time>2022-10-20T11:17:28Z</time><name>PT1449</name></trkpt>
<trkpt lat="53.221889" lon="-3.952558"><ele>554</ele><time>2022-10-20T11:17:31Z</time><name>PT1450</name></trkpt>
<trkpt lat="53.221853" lon="-3.952546"><ele>555</ele><time>2022-10-20T11:17:34Z</time><name>PT1451</name></trkpt>
<trkpt lat="53.221830" lon="-3.952540"><ele>555</ele><time>2022-10-20T11:17:37Z</time><name>PT1452</name></trkpt>
<trkpt lat="53.221801" lon="-3.952529"><ele>556</ele><time>2022-10-20T11:17:40Z</time><name>PT1453</name></trkpt>
<trkpt lat="53.221766" lon="-3.952513"><ele>556</ele><time>2022-10-20T11:17:44Z</time><name>PT1454</name></trkpt>
<trkpt lat="53.221742" lon="-3.952502"><ele>557</ele><time>2022-10-20T11:17:47Z</time><name>PT1455</name></trkpt>
<trkpt lat="53.221709" lon="-3.952490"><ele>557</ele><time>2022-10-20T11:17:52Z</time><name>PT1456</name></trkpt>
<trkpt lat="53.221680" lon="-3.952481"><ele>557</ele><time>2022-10-20T11:17:55Z</time><name>PT1457</name></trkpt>
<trkpt lat="53.221644" lon="-3.952471"><ele>558</ele><time>2022-10-20T11:17:59Z</time><name>PT1458</name></trkpt>
<trkpt lat="53.221600" lon="-3.952463"><ele>558</ele><time>2022-10-20T11:18:04Z</time><name>PT1459</name></trkpt>
<trkpt lat="53.221560" lon="-3.952450"><ele>559</ele><time>2022-10-20T11:18:07Z</time><name>PT1460</name></trkpt>
<trkpt lat="53.221524" lon="-3.952441"><ele>559</ele><time>2022-10-20T11:18:11Z</time><name>PT1461</name></trkpt>
<trkpt lat="53.221483" lon="-3.952431"><ele>560</ele><time>2022-10-20T11:18:16Z</time><name>PT1462</name></trkpt>
<trkpt lat="53.221452" lon="-3.952415"><ele>560</ele><time>2022-10-20T11:18:19Z</time><name>PT1463</name></trkpt>
<trkpt lat="53.221430" lon="-3.952402"><ele>561</ele><time>2022-10-20T11:18:22Z</time><name>PT1464</name></trkpt>
<trkpt lat="53.221403" lon="-3.952376"><ele>561</ele><time>2022-10-20T11:18:26Z</time><name>PT1465</name></trkpt>
<trkpt lat="53.221390" lon="-3.952375"><ele>561</ele><time>2022-10-20T11:18:29Z</time><name>PT1466</name></trkpt>
<trkpt lat="53.221390" lon="-3.952376"><ele>561</ele><time>2022-10-20T11:18:34Z</time><name>PT1467</name></trkpt>
<trkpt lat="53.221390" lon="-3.952367"><ele>561</ele><time>2022-10-20T11:18:40Z</time><name>PT1468</name></trkpt>
<trkpt lat="53.221385" lon="-3.952374"><ele>561</ele><time>2022-10-20T11:18:44Z</time><name>PT1469</name></trkpt>
<trkpt lat="53.221388" lon="-3.952374"><ele>561</ele><time>2022-10-20T11:18:47Z</time><name>PT1470</name></trkpt>
<trkpt lat="53.221386" lon="-3.952375"><ele>561</ele><time>2022-10-20T11:18:50Z</time><name>PT1471</name></trkpt>
<trkpt lat="53.221383" lon="-3.952374"><ele>561</ele><time>2022-10-20T11:19:14Z</time><name>PT1472</name></trkpt>
<trkpt lat="53.221382" lon="-3.952370"><ele>561</ele><time>2022-10-20T11:19:19Z</time><name>PT1473</name></trkpt>
<trkpt lat="53.221388" lon="-3.952366"><ele>562</ele><time>2022-10-20T11:19:40Z</time><name>PT1474</name></trkpt>
<trkpt lat="53.221385" lon="-3.952364"><ele>562</ele><time>2022-10-20T11:19:47Z</time><name>PT1475</name></trkpt>
<trkpt lat="53.221386" lon="-3.952364"><ele>562</ele><time>2022-10-20T11:19:52Z</time><name>PT1476</name></trkpt>
<trkpt lat="53.221382" lon="-3.952365"><ele>562</ele><time>2022-10-20T11:20:01Z</time><name>PT1477</name></trkpt>
<trkpt lat="53.221384" lon="-3.952360"><ele>562</ele><time>2022-10-20T11:20:04Z</time><name>PT1478</name></trkpt>
<trkpt lat="53.221384" lon="-3.952361"><ele>562</ele><time>2022-10-20T11:20:07Z</time><name>PT1479</name></trkpt>
<trkpt lat="53.221381" lon="-3.952364"><ele>562</ele><time>2022-10-20T11:20:11Z</time><name>PT1480</name></trkpt>
<trkpt lat="53.221383" lon="-3.952373"><ele>562</ele><time>2022-10-20T11:20:19Z</time><name>PT1481</name></trkpt>
<trkpt lat="53.221384" lon="-3.952369"><ele>562</ele><time>2022-10-20T11:20:22Z</time><name>PT1482</name></trkpt>
<trkpt lat="53.221391" lon="-3.952385"><ele>563</ele><time>2022-10-20T11:20:25Z</time><name>PT1483</name></trkpt>
<trkpt lat="53.221392" lon="-3.952396"><ele>563</ele><time>2022-10-20T11:20:28Z</time><name>PT1484</name></trkpt>
<trkpt lat="53.221388" lon="-3.952404"><ele>563</ele><time>2022-10-20T11:20:31Z</time><name>PT1485</name></trkpt>
<trkpt lat="53.221385" lon="-3.952398"><ele>561</ele><time>2022-10-20T11:20:35Z</time><name>PT1486</name></trkpt>
<trkpt lat="53.221383" lon="-3.952395"><ele>562</ele><time>2022-10-20T11:20:38Z</time><name>PT1487</name></trkpt>
<trkpt lat="53.221384" lon="-3.952396"><ele>563</ele><time>2022-10-20T11:20:43Z</time><name>PT1488</name></trkpt>
<trkpt lat="53.221385" lon="-3.952395"><ele>562</ele><time>2022-10-20T11:21:17Z</time><name>PT1489</name></trkpt>
<trkpt lat="53.221384" lon="-3.952395"><ele>562</ele><time>2022-10-20T11:21:22Z</time><name>PT1490</name></trkpt>
<trkpt lat="53.221384" lon="-3.952392"><ele>562</ele><time>2022-10-20T11:21:59Z</time><name>PT1491</name></trkpt>
<trkpt lat="53.221385" lon="-3.952384"><ele>562</ele><time>2022-10-20T11:22:04Z</time><name>PT1492</name></trkpt>
<trkpt lat="53.221390" lon="-3.952384"><ele>561</ele><time>2022-10-20T11:27:46Z</time><name>PT1493</name></trkpt>
<trkpt lat="53.221392" lon="-3.952382"><ele>561</ele><time>2022-10-20T11:27:49Z</time><name>PT1494</name></trkpt>
<trkpt lat="53.221394" lon="-3.952385"><ele>561</ele><time>2022-10-20T11:27:58Z</time><name>PT1495</name></trkpt>
<trkpt lat="53.221393" lon="-3.952381"><ele>560</ele><time>2022-10-20T11:28:02Z</time><name>PT1496</name></trkpt>
<trkpt lat="53.221392" lon="-3.952380"><ele>560</ele><time>2022-10-20T11:28:07Z</time><name>PT1497</name></trkpt>
<trkpt lat="53.221393" lon="-3.952391"><ele>560</ele><time>2022-10-20T11:30:47Z</time><name>PT1498</name></trkpt>
<trkpt lat="53.221395" lon="-3.952397"><ele>561</ele><time>2022-10-20T11:30:52Z</time><name>PT1499</name></trkpt>
<trkpt lat="53.221396" lon="-3.952389"><ele>561</ele><time>2022-10-20T11:30:55Z</time><name>PT1500</name></trkpt>
<trkpt lat="53.221400" lon="-3.952368"><ele>561</ele><time>2022-10-20T11:31:23Z</time><name>PT1501</name></trkpt>
<trkpt lat="53.221392" lon="-3.952361"><ele>560</ele><time>2022-10-20T11:31:26Z</time><name>PT1502</name></trkpt>
<trkpt lat="53.221395" lon="-3.952359"><ele>560</ele><time>2022-10-20T11:31:31Z</time><name>PT1503</name></trkpt>
<trkpt lat="53.221395" lon="-3.952358"><ele>560</ele><time>2022-10-20T11:31:52Z</time><name>PT1504</name></trkpt>
<trkpt lat="53.221395" lon="-3.952353"><ele>560</ele><time>2022-10-20T11:32:32Z</time><name>PT1505</name></trkpt>
<trkpt lat="53.221394" lon="-3.952352"><ele>560</ele><time>2022-10-20T11:33:07Z</time><name>PT1506</name></trkpt>
<trkpt lat="53.221395" lon="-3.952345"><ele>560</ele><time>2022-10-20T11:33:35Z</time><name>PT1507</name></trkpt>
<trkpt lat="53.221382" lon="-3.952298"><ele>560</ele><time>2022-10-20T11:33:40Z</time><name>PT1508</name></trkpt>
<trkpt lat="53.221368" lon="-3.952250"><ele>560</ele><time>2022-10-20T11:33:43Z</time><name>PT1509</name></trkpt>
<trkpt lat="53.221357" lon="-3.952207"><ele>560</ele><time>2022-10-20T11:33:46Z</time><name>PT1510</name></trkpt>
<trkpt lat="53.221345" lon="-3.952147"><ele>560</ele><time>2022-10-20T11:33:49Z</time><name>PT1511</name></trkpt>
<trkpt lat="53.221330" lon="-3.952091"><ele>559</ele><time>2022-10-20T11:33:53Z</time><name>PT1512</name></trkpt>
<trkpt lat="53.221313" lon="-3.952043"><ele>559</ele><time>2022-10-20T11:33:58Z</time><name>PT1513</name></trkpt>
<trkpt lat="53.221300" lon="-3.952010"><ele>559</ele><time>2022-10-20T11:34:01Z</time><name>PT1514</name></trkpt>
<trkpt lat="53.221290" lon="-3.951976"><ele>558</ele><time>2022-10-20T11:34:04Z</time><name>PT1515</name></trkpt>
<trkpt lat="53.221286" lon="-3.951961"><ele>558</ele><time>2022-10-20T11:34:07Z</time><name>PT1516</name></trkpt>
<trkpt lat="53.221286" lon="-3.951959"><ele>559</ele><time>2022-10-20T11:34:10Z</time><name>PT1517</name></trkpt>
<trkpt lat="53.221272" lon="-3.951913"><ele>558</ele><time>2022-10-20T11:34:19Z</time><name>PT1518</name></trkpt>
<trkpt lat="53.221253" lon="-3.951875"><ele>558</ele><time>2022-10-20T11:34:22Z</time><name>PT1519</name></trkpt>
<trkpt lat="53.221223" lon="-3.951834"><ele>558</ele><time>2022-10-20T11:34:25Z</time><name>PT1520</name></trkpt>
<trkpt lat="53.221206" lon="-3.951789"><ele>558</ele><time>2022-10-20T11:34:28Z</time><name>PT1521</name></trkpt>
<trkpt lat="53.221179" lon="-3.951746"><ele>557</ele><time>2022-10-20T11:34:32Z</time><name>PT1522</name></trkpt>
<trkpt lat="53.221164" lon="-3.951704"><ele>557</ele><time>2022-10-20T11:34:35Z</time><name>PT1523</name></trkpt>
<trkpt lat="53.221140" lon="-3.951650"><ele>557</ele><time>2022-10-20T11:34:40Z</time><name>PT1524</name></trkpt>
<trkpt lat="53.221118" lon="-3.951612"><ele>556</ele><time>2022-10-20T11:34:43Z</time><name>PT1525</name></trkpt>
<trkpt lat="53.221095" lon="-3.951552"><ele>556</ele><time>2022-10-20T11:34:46Z</time><name>PT1526</name></trkpt>
<trkpt lat="53.221082" lon="-3.951503"><ele>555</ele><time>2022-10-20T11:34:49Z</time><name>PT1527</name></trkpt>
<trkpt lat="53.221060" lon="-3.951448"><ele>554</ele><time>2022-10-20T11:34:53Z</time><name>PT1528</name></trkpt>
<trkpt lat="53.221046" lon="-3.951400"><ele>554</ele><time>2022-10-20T11:34:56Z</time><name>PT1529</name></trkpt>
<trkpt lat="53.221018" lon="-3.951346"><ele>554</ele><time>2022-10-20T11:35:01Z</time><name>PT1530</name></trkpt>
<trkpt lat="53.220997" lon="-3.951298"><ele>553</ele><time>2022-10-20T11:35:04Z</time><name>PT1531</name></trkpt>
<trkpt lat="53.220982" lon="-3.951231"><ele>553</ele><time>2022-10-20T11:35:08Z</time><name>PT1532</name></trkpt>
<trkpt lat="53.220971" lon="-3.951184"><ele>552</ele><time>2022-10-20T11:35:11Z</time><name>PT1533</name></trkpt>
<trkpt lat="53.220958" lon="-3.951121"><ele>552</ele><time>2022-10-20T11:35:16Z</time><name>PT1534</name></trkpt>
<trkpt lat="53.220948" lon="-3.951070"><ele>552</ele><time>2022-10-20T11:35:19Z</time><name>PT1535</name></trkpt>
<trkpt lat="53.220927" lon="-3.951024"><ele>552</ele><time>2022-10-20T11:35:22Z</time><name>PT1536</name></trkpt>
<trkpt lat="53.220892" lon="-3.950972"><ele>551</ele><time>2022-10-20T11:35:25Z</time><name>PT1537</name></trkpt>
<trkpt lat="53.220865" lon="-3.950935"><ele>551</ele><time>2022-10-20T11:35:28Z</time><name>PT1538</name></trkpt>
<trkpt lat="53.220838" lon="-3.950871"><ele>550</ele><time>2022-10-20T11:35:32Z</time><name>PT1539</name></trkpt>
<trkpt lat="53.220817" lon="-3.950798"><ele>549</ele><time>2022-10-20T11:35:37Z</time><name>PT1540</name></trkpt>
<trkpt lat="53.220793" lon="-3.950751"><ele>548</ele><time>2022-10-20T11:35:40Z</time><name>PT1541</name></trkpt>
<trkpt lat="53.220759" lon="-3.950697"><ele>548</ele><time>2022-10-20T11:35:43Z</time><name>PT1542</name></trkpt>
<trkpt lat="53.220737" lon="-3.950644"><ele>548</ele><time>2022-10-20T11:35:46Z</time><name>PT1543</name></trkpt>
<trkpt lat="53.220709" lon="-3.950589"><ele>547</ele><time>2022-10-20T11:35:50Z</time><name>PT1544</name></trkpt>
<trkpt lat="53.220690" lon="-3.950550"><ele>547</ele><time>2022-10-20T11:35:55Z</time><name>PT1545</name></trkpt>
<trkpt lat="53.220670" lon="-3.950520"><ele>547</ele><time>2022-10-20T11:35:58Z</time><name>PT1546</name></trkpt>
<trkpt lat="53.220639" lon="-3.950459"><ele>547</ele><time>2022-10-20T11:36:01Z</time><name>PT1547</name></trkpt>
<trkpt lat="53.220616" lon="-3.950417"><ele>546</ele><time>2022-10-20T11:36:04Z</time><name>PT1548</name></trkpt>
<trkpt lat="53.220582" lon="-3.950367"><ele>546</ele><time>2022-10-20T11:36:08Z</time><name>PT1549</name></trkpt>
<trkpt lat="53.220548" lon="-3.950316"><ele>546</ele><time>2022-10-20T11:36:13Z</time><name>PT1550</name></trkpt>
<trkpt lat="53.220525" lon="-3.950268"><ele>546</ele><time>2022-10-20T11:36:16Z</time><name>PT1551</name></trkpt>
<trkpt lat="53.220495" lon="-3.950213"><ele>546</ele><time>2022-10-20T11:36:19Z</time><name>PT1552</name></trkpt>
<trkpt lat="53.220482" lon="-3.950174"><ele>546</ele><time>2022-10-20T11:36:22Z</time><name>PT1553</name></trkpt>
<trkpt lat="53.220458" lon="-3.950123"><ele>546</ele><time>2022-10-20T11:36:26Z</time><name>PT1554</name></trkpt>
<trkpt lat="53.220447" lon="-3.950064"><ele>546</ele><time>2022-10-20T11:36:29Z</time><name>PT1555</name></trkpt>
<trkpt lat="53.220434" lon="-3.950015"><ele>546</ele><time>2022-10-20T11:36:32Z</time><name>PT1556</name></trkpt>
<trkpt lat="53.220422" lon="-3.949962"><ele>546</ele><time>2022-10-20T11:36:35Z</time><name>PT1557</name></trkpt>
<trkpt lat="53.220409" lon="-3.949909"><ele>546</ele><time>2022-10-20T11:36:38Z</time><name>PT1558</name></trkpt>
<trkpt lat="53.220394" lon="-3.949861"><ele>545</ele><time>2022-10-20T11:36:41Z</time><name>PT1559</name></trkpt>
<trkpt lat="53.220378" lon="-3.949794"><ele>546</ele><time>2022-10-20T11:36:46Z</time><name>PT1560</name></trkpt>
<trkpt lat="53.220361" lon="-3.949714"><ele>546</ele><time>2022-10-20T11:36:49Z</time><name>PT1561</name></trkpt>
<trkpt lat="53.220349" lon="-3.949649"><ele>546</ele><time>2022-10-20T11:36:53Z</time><name>PT1562</name></trkpt>
<trkpt lat="53.220330" lon="-3.949584"><ele>545</ele><time>2022-10-20T11:36:58Z</time><name>PT1563</name></trkpt>
<trkpt lat="53.220310" lon="-3.949524"><ele>545</ele><time>2022-10-20T11:37:01Z</time><name>PT1564</name></trkpt>
<trkpt lat="53.220292" lon="-3.949460"><ele>546</ele><time>2022-10-20T11:37:05Z</time><name>PT1565</name></trkpt>
<trkpt lat="53.220275" lon="-3.949415"><ele>546</ele><time>2022-10-20T11:37:08Z</time><name>PT1566</name></trkpt>
<trkpt lat="53.220251" lon="-3.949355"><ele>546</ele><time>2022-10-20T11:37:13Z</time><name>PT1567</name></trkpt>
<trkpt lat="53.220237" lon="-3.949304"><ele>546</ele><time>2022-10-20T11:37:16Z</time><name>PT1568</name></trkpt>
<trkpt lat="53.220223" lon="-3.949251"><ele>546</ele><time>2022-10-20T11:37:19Z</time><name>PT1569</name></trkpt>
<trkpt lat="53.220203" lon="-3.949181"><ele>545</ele><time>2022-10-20T11:37:22Z</time><name>PT1570</name></trkpt>
<trkpt lat="53.220183" lon="-3.949144"><ele>545</ele><time>2022-10-20T11:37:25Z</time><name>PT1571</name></trkpt>
<trkpt lat="53.220155" lon="-3.949112"><ele>545</ele><time>2022-10-20T11:37:28Z</time><name>PT1572</name></trkpt>
<trkpt lat="53.220129" lon="-3.949066"><ele>545</ele><time>2022-10-20T11:37:32Z</time><name>PT1573</name></trkpt>
<trkpt lat="53.220092" lon="-3.949038"><ele>545</ele><time>2022-10-20T11:37:37Z</time><name>PT1574</name></trkpt>
<trkpt lat="53.220064" lon="-3.949019"><ele>545</ele><time>2022-10-20T11:37:40Z</time><name>PT1575</name></trkpt>
<trkpt lat="53.220024" lon="-3.949001"><ele>546</ele><time>2022-10-20T11:37:43Z</time><name>PT1576</name></trkpt>
<trkpt lat="53.219980" lon="-3.948962"><ele>545</ele><time>2022-10-20T11:37:47Z</time><name>PT1577</name></trkpt>
<trkpt lat="53.219951" lon="-3.948936"><ele>546</ele><time>2022-10-20T11:37:50Z</time><name>PT1578</name></trkpt>
<trkpt lat="53.219918" lon="-3.948890"><ele>546</ele><time>2022-10-20T11:37:55Z</time><name>PT1579</name></trkpt>
<trkpt lat="53.219892" lon="-3.948849"><ele>546</ele><time>2022-10-20T11:37:58Z</time><name>PT1580</name></trkpt>
<trkpt lat="53.219861" lon="-3.948805"><ele>547</ele><time>2022-10-20T11:38:01Z</time><name>PT1581</name></trkpt>
<trkpt lat="53.219830" lon="-3.948753"><ele>548</ele><time>2022-10-20T11:38:05Z</time><name>PT1582</name></trkpt>
<trkpt lat="53.219803" lon="-3.948728"><ele>547</ele><time>2022-10-20T11:38:08Z</time><name>PT1583</name></trkpt>
<trkpt lat="53.219781" lon="-3.948680"><ele>548</ele><time>2022-10-20T11:38:11Z</time><name>PT1584</name></trkpt>
<trkpt lat="53.219764" lon="-3.948614"><ele>549</ele><time>2022-10-20T11:38:16Z</time><name>PT1585</name></trkpt>
<trkpt lat="53.219754" lon="-3.948565"><ele>549</ele><time>2022-10-20T11:38:19Z</time><name>PT1586</name></trkpt>
<trkpt lat="53.219744" lon="-3.948518"><ele>549</ele><time>2022-10-20T11:38:22Z</time><name>PT1587</name></trkpt>
<trkpt lat="53.219715" lon="-3.948476"><ele>549</ele><time>2022-10-20T11:38:25Z</time><name>PT1588</name></trkpt>
<trkpt lat="53.219696" lon="-3.948446"><ele>550</ele><time>2022-10-20T11:38:28Z</time><name>PT1589</name></trkpt>
<trkpt lat="53.219677" lon="-3.948395"><ele>550</ele><time>2022-10-20T11:38:32Z</time><name>PT1590</name></trkpt>
<trkpt lat="53.219657" lon="-3.948342"><ele>551</ele><time>2022-10-20T11:38:37Z</time><name>PT1591</name></trkpt>
<trkpt lat="53.219636" lon="-3.948292"><ele>551</ele><time>2022-10-20T11:38:40Z</time><name>PT1592</name></trkpt>
<trkpt lat="53.219637" lon="-3.948243"><ele>551</ele><time>2022-10-20T11:38:43Z</time><name>PT1593</name></trkpt>
<trkpt lat="53.219645" lon="-3.948179"><ele>551</ele><time>2022-10-20T11:38:47Z</time><name>PT1594</name></trkpt>
<trkpt lat="53.219673" lon="-3.948115"><ele>552</ele><time>2022-10-20T11:38:52Z</time><name>PT1595</name></trkpt>
<trkpt lat="53.219689" lon="-3.948067"><ele>552</ele><time>2022-10-20T11:38:55Z</time><name>PT1596</name></trkpt>
<trkpt lat="53.219691" lon="-3.948016"><ele>552</ele><time>2022-10-20T11:38:58Z</time><name>PT1597</name></trkpt>
<trkpt lat="53.219681" lon="-3.947960"><ele>553</ele><time>2022-10-20T11:39:01Z</time><name>PT1598</name></trkpt>
<trkpt lat="53.219672" lon="-3.947901"><ele>553</ele><time>2022-10-20T11:39:04Z</time><name>PT1599</name></trkpt>
<trkpt lat="53.219672" lon="-3.947833"><ele>553</ele><time>2022-10-20T11:39:07Z</time><name>PT1600</name></trkpt>
<trkpt lat="53.219670" lon="-3.947800"><ele>554</ele><time>2022-10-20T11:39:10Z</time><name>PT1601</name></trkpt>
<trkpt lat="53.219665" lon="-3.947744"><ele>554</ele><time>2022-10-20T11:39:14Z</time><name>PT1602</name></trkpt>
<trkpt lat="53.219667" lon="-3.947701"><ele>554</ele><time>2022-10-20T11:39:17Z</time><name>PT1603</name></trkpt>
<trkpt lat="53.219657" lon="-3.947637"><ele>554</ele><time>2022-10-20T11:39:22Z</time><name>PT1604</name></trkpt>
<trkpt lat="53.219636" lon="-3.947605"><ele>555</ele><time>2022-10-20T11:39:25Z</time><name>PT1605</name></trkpt>
<trkpt lat="53.219601" lon="-3.947560"><ele>555</ele><time>2022-10-20T11:39:28Z</time><name>PT1606</name></trkpt>
<trkpt lat="53.219573" lon="-3.947526"><ele>555</ele><time>2022-10-20T11:39:31Z</time><name>PT1607</name></trkpt>
<trkpt lat="53.219548" lon="-3.947477"><ele>555</ele><time>2022-10-20T11:39:35Z</time><name>PT1608</name></trkpt>
<trkpt lat="53.219525" lon="-3.947446"><ele>555</ele><time>2022-10-20T11:39:38Z</time><name>PT1609</name></trkpt>
<trkpt lat="53.219497" lon="-3.947398"><ele>555</ele><time>2022-10-20T11:39:43Z</time><name>PT1610</name></trkpt>
<trkpt lat="53.219473" lon="-3.947373"><ele>556</ele><time>2022-10-20T11:39:46Z</time><name>PT1611</name></trkpt>
<trkpt lat="53.219446" lon="-3.947337"><ele>557</ele><time>2022-10-20T11:39:49Z</time><name>PT1612</name></trkpt>
<trkpt lat="53.219423" lon="-3.947311"><ele>557</ele><time>2022-10-20T11:39:53Z</time><name>PT1613</name></trkpt>
<trkpt lat="53.219405" lon="-3.947285"><ele>558</ele><time>2022-10-20T11:39:56Z</time><name>PT1614</name></trkpt>
<trkpt lat="53.219373" lon="-3.947251"><ele>558</ele><time>2022-10-20T11:40:01Z</time><name>PT1615</name></trkpt>
<trkpt lat="53.219349" lon="-3.947220"><ele>559</ele><time>2022-10-20T11:40:04Z</time><name>PT1616</name></trkpt>
<trkpt lat="53.219311" lon="-3.947181"><ele>559</ele><time>2022-10-20T11:40:07Z</time><name>PT1617</name></trkpt>
<trkpt lat="53.219282" lon="-3.947149"><ele>559</ele><time>2022-10-20T11:40:10Z</time><name>PT1618</name></trkpt>
<trkpt lat="53.219250" lon="-3.947095"><ele>560</ele><time>2022-10-20T11:40:14Z</time><name>PT1619</name></trkpt>
<trkpt lat="53.219224" lon="-3.947046"><ele>560</ele><time>2022-10-20T11:40:19Z</time><name>PT1620</name></trkpt>
<trkpt lat="53.219196" lon="-3.946995"><ele>560</ele><time>2022-10-20T11:40:22Z</time><name>PT1621</name></trkpt>
<trkpt lat="53.219182" lon="-3.946954"><ele>561</ele><time>2022-10-20T11:40:25Z</time><name>PT1622</name></trkpt>
<trkpt lat="53.219170" lon="-3.946911"><ele>562</ele><time>2022-10-20T11:40:28Z</time><name>PT1623</name></trkpt>
<trkpt lat="53.219143" lon="-3.946861"><ele>562</ele><time>2022-10-20T11:40:33Z</time><name>PT1624</name></trkpt>
<trkpt lat="53.219117" lon="-3.946831"><ele>562</ele><time>2022-10-20T11:40:36Z</time><name>PT1625</name></trkpt>
<trkpt lat="53.219090" lon="-3.946775"><ele>563</ele><time>2022-10-20T11:40:39Z</time><name>PT1626</name></trkpt>
<trkpt lat="53.219071" lon="-3.946741"><ele>563</ele><time>2022-10-20T11:40:43Z</time><name>PT1627</name></trkpt>
<trkpt lat="53.219059" lon="-3.946738"><ele>563</ele><time>2022-10-20T11:40:46Z</time><name>PT1628</name></trkpt>
<trkpt lat="53.219052" lon="-3.946718"><ele>564</ele><time>2022-10-20T11:40:49Z</time><name>PT1629</name></trkpt>
<trkpt lat="53.219032" lon="-3.946697"><ele>564</ele><time>2022-10-20T11:40:52Z</time><name>PT1630</name></trkpt>
<trkpt lat="53.219004" lon="-3.946645"><ele>564</ele><time>2022-10-20T11:40:57Z</time><name>PT1631</name></trkpt>
<trkpt lat="53.218977" lon="-3.946595"><ele>565</ele><time>2022-10-20T11:41:00Z</time><name>PT1632</name></trkpt>
<trkpt lat="53.218959" lon="-3.946547"><ele>565</ele><time>2022-10-20T11:41:03Z</time><name>PT1633</name></trkpt>
<trkpt lat="53.218934" lon="-3.946483"><ele>565</ele><time>2022-10-20T11:41:07Z</time><name>PT1634</name></trkpt>
<trkpt lat="53.218919" lon="-3.946450"><ele>566</ele><time>2022-10-20T11:41:12Z</time><name>PT1635</name></trkpt>
<trkpt lat="53.218907" lon="-3.946406"><ele>567</ele><time>2022-10-20T11:41:15Z</time><name>PT1636</name></trkpt>
<trkpt lat="53.218894" lon="-3.946374"><ele>568</ele><time>2022-10-20T11:41:18Z</time><name>PT1637</name></trkpt>
<trkpt lat="53.218869" lon="-3.946322"><ele>568</ele><time>2022-10-20T11:41:21Z</time><name>PT1638</name></trkpt>
<trkpt lat="53.218840" lon="-3.946277"><ele>569</ele><time>2022-10-20T11:41:25Z</time><name>PT1639</name></trkpt>
<trkpt lat="53.218802" lon="-3.946238"><ele>569</ele><time>2022-10-20T11:41:30Z</time><name>PT1640</name></trkpt>
<trkpt lat="53.218775" lon="-3.946210"><ele>570</ele><time>2022-10-20T11:41:33Z</time><name>PT1641</name></trkpt>
<trkpt lat="53.218739" lon="-3.946173"><ele>570</ele><time>2022-10-20T11:41:36Z</time><name>PT1642</name></trkpt>
<trkpt lat="53.218703" lon="-3.946137"><ele>571</ele><time>2022-10-20T11:41:40Z</time><name>PT1643</name></trkpt>
<trkpt lat="53.218676" lon="-3.946107"><ele>571</ele><time>2022-10-20T11:41:43Z</time><name>PT1644</name></trkpt>
<trkpt lat="53.218641" lon="-3.946074"><ele>571</ele><time>2022-10-20T11:41:48Z</time><name>PT1645</name></trkpt>
<trkpt lat="53.218618" lon="-3.946044"><ele>571</ele><time>2022-10-20T11:41:51Z</time><name>PT1646</name></trkpt>
<trkpt lat="53.218583" lon="-3.946007"><ele>572</ele><time>2022-10-20T11:41:54Z</time><name>PT1647</name></trkpt>
<trkpt lat="53.218558" lon="-3.945980"><ele>572</ele><time>2022-10-20T11:41:57Z</time><name>PT1648</name></trkpt>
<trkpt lat="53.218524" lon="-3.945934"><ele>573</ele><time>2022-10-20T11:42:01Z</time><name>PT1649</name></trkpt>
<trkpt lat="53.218497" lon="-3.945898"><ele>573</ele><time>2022-10-20T11:42:04Z</time><name>PT1650</name></trkpt>
<trkpt lat="53.218463" lon="-3.945859"><ele>573</ele><time>2022-10-20T11:42:09Z</time><name>PT1651</name></trkpt>
<trkpt lat="53.218423" lon="-3.945822"><ele>573</ele><time>2022-10-20T11:42:12Z</time><name>PT1652</name></trkpt>
<trkpt lat="53.218391" lon="-3.945781"><ele>574</ele><time>2022-10-20T11:42:16Z</time><name>PT1653</name></trkpt>
<trkpt lat="53.218371" lon="-3.945742"><ele>574</ele><time>2022-10-20T11:42:19Z</time><name>PT1654</name></trkpt>
<trkpt lat="53.218339" lon="-3.945692"><ele>575</ele><time>2022-10-20T11:42:24Z</time><name>PT1655</name></trkpt>
<trkpt lat="53.218315" lon="-3.945658"><ele>575</ele><time>2022-10-20T11:42:27Z</time><name>PT1656</name></trkpt>
<trkpt lat="53.218291" lon="-3.945628"><ele>575</ele><time>2022-10-20T11:42:30Z</time><name>PT1657</name></trkpt>
<trkpt lat="53.218255" lon="-3.945581"><ele>575</ele><time>2022-10-20T11:42:33Z</time><name>PT1658</name></trkpt>
<trkpt lat="53.218225" lon="-3.945524"><ele>575</ele><time>2022-10-20T11:42:37Z</time><name>PT1659</name></trkpt>
<trkpt lat="53.218201" lon="-3.945480"><ele>576</ele><time>2022-10-20T11:42:40Z</time><name>PT1660</name></trkpt>
<trkpt lat="53.218175" lon="-3.945432"><ele>577</ele><time>2022-10-20T11:42:45Z</time><name>PT1661</name></trkpt>
<trkpt lat="53.218158" lon="-3.945383"><ele>577</ele><time>2022-10-20T11:42:48Z</time><name>PT1662</name></trkpt>
<trkpt lat="53.218130" lon="-3.945325"><ele>577</ele><time>2022-10-20T11:42:51Z</time><name>PT1663</name></trkpt>
<trkpt lat="53.218112" lon="-3.945293"><ele>578</ele><time>2022-10-20T11:42:54Z</time><name>PT1664</name></trkpt>
<trkpt lat="53.218088" lon="-3.945243"><ele>579</ele><time>2022-10-20T11:42:58Z</time><name>PT1665</name></trkpt>
<trkpt lat="53.218063" lon="-3.945187"><ele>580</ele><time>2022-10-20T11:43:03Z</time><name>PT1666</name></trkpt>
<trkpt lat="53.218041" lon="-3.945134"><ele>580</ele><time>2022-10-20T11:43:06Z</time><name>PT1667</name></trkpt>
<trkpt lat="53.218028" lon="-3.945077"><ele>581</ele><time>2022-10-20T11:43:10Z</time><name>PT1668</name></trkpt>
<trkpt lat="53.218007" lon="-3.945040"><ele>581</ele><time>2022-10-20T11:43:13Z</time><name>PT1669</name></trkpt>
<trkpt lat="53.217974" lon="-3.945000"><ele>582</ele><time>2022-10-20T11:43:18Z</time><name>PT1670</name></trkpt>
<trkpt lat="53.217942" lon="-3.944959"><ele>583</ele><time>2022-10-20T11:43:21Z</time><name>PT1671</name></trkpt>
<trkpt lat="53.217914" lon="-3.944937"><ele>583</ele><time>2022-10-20T11:43:24Z</time><name>PT1672</name></trkpt>
<trkpt lat="53.217876" lon="-3.944900"><ele>583</ele><time>2022-10-20T11:43:28Z</time><name>PT1673</name></trkpt>
<trkpt lat="53.217852" lon="-3.944864"><ele>583</ele><time>2022-10-20T11:43:31Z</time><name>PT1674</name></trkpt>
<trkpt lat="53.217821" lon="-3.944831"><ele>582</ele><time>2022-10-20T11:43:34Z</time><name>PT1675</name></trkpt>
<trkpt lat="53.217793" lon="-3.944803"><ele>582</ele><time>2022-10-20T11:43:37Z</time><name>PT1676</name></trkpt>
<trkpt lat="53.217761" lon="-3.944772"><ele>583</ele><time>2022-10-20T11:43:42Z</time><name>PT1677</name></trkpt>
<trkpt lat="53.217725" lon="-3.944728"><ele>583</ele><time>2022-10-20T11:43:45Z</time><name>PT1678</name></trkpt>
<trkpt lat="53.217691" lon="-3.944681"><ele>583</ele><time>2022-10-20T11:43:49Z</time><name>PT1679</name></trkpt>
<trkpt lat="53.217664" lon="-3.944624"><ele>584</ele><time>2022-10-20T11:43:54Z</time><name>PT1680</name></trkpt>
<trkpt lat="53.217651" lon="-3.944580"><ele>585</ele><time>2022-10-20T11:43:57Z</time><name>PT1681</name></trkpt>
<trkpt lat="53.217627" lon="-3.944523"><ele>586</ele><time>2022-10-20T11:44:00Z</time><name>PT1682</name></trkpt>
<trkpt lat="53.217614" lon="-3.944478"><ele>586</ele><time>2022-10-20T11:44:03Z</time><name>PT1683</name></trkpt>
<trkpt lat="53.217598" lon="-3.944423"><ele>587</ele><time>2022-10-20T11:44:06Z</time><name>PT1684</name></trkpt>
<trkpt lat="53.217582" lon="-3.944357"><ele>588</ele><time>2022-10-20T11:44:10Z</time><name>PT1685</name></trkpt>
<trkpt lat="53.217569" lon="-3.944307"><ele>588</ele><time>2022-10-20T11:44:13Z</time><name>PT1686</name></trkpt>
<trkpt lat="53.217556" lon="-3.944255"><ele>588</ele><time>2022-10-20T11:44:16Z</time><name>PT1687</name></trkpt>
<trkpt lat="53.217531" lon="-3.944183"><ele>588</ele><time>2022-10-20T11:44:21Z</time><name>PT1688</name></trkpt>
<trkpt lat="53.217503" lon="-3.944123"><ele>588</ele><time>2022-10-20T11:44:24Z</time><name>PT1689</name></trkpt>
<trkpt lat="53.217477" lon="-3.944088"><ele>589</ele><time>2022-10-20T11:44:27Z</time><name>PT1690</name></trkpt>
<trkpt lat="53.217445" lon="-3.944038"><ele>590</ele><time>2022-10-20T11:44:31Z</time><name>PT1691</name></trkpt>
<trkpt lat="53.217411" lon="-3.943998"><ele>589</ele><time>2022-10-20T11:44:36Z</time><name>PT1692</name></trkpt>
<trkpt lat="53.217388" lon="-3.943959"><ele>590</ele><time>2022-10-20T11:44:39Z</time><name>PT1693</name></trkpt>
<trkpt lat="53.217365" lon="-3.943927"><ele>590</ele><time>2022-10-20T11:44:42Z</time><name>PT1694</name></trkpt>
<trkpt lat="53.217338" lon="-3.943878"><ele>590</ele><time>2022-10-20T11:44:45Z</time><name>PT1695</name></trkpt>
<trkpt lat="53.217308" lon="-3.943839"><ele>590</ele><time>2022-10-20T11:44:49Z</time><name>PT1696</name></trkpt>
<trkpt lat="53.217288" lon="-3.943802"><ele>590</ele><time>2022-10-20T11:44:52Z</time><name>PT1697</name></trkpt>
<trkpt lat="53.217260" lon="-3.943747"><ele>590</ele><time>2022-10-20T11:44:57Z</time><name>PT1698</name></trkpt>
<trkpt lat="53.217228" lon="-3.943693"><ele>591</ele><time>2022-10-20T11:45:00Z</time><name>PT1699</name></trkpt>
<trkpt lat="53.217205" lon="-3.943666"><ele>591</ele><time>2022-10-20T11:45:03Z</time><name>PT1700</name></trkpt>
<trkpt lat="53.217180" lon="-3.943634"><ele>592</ele><time>2022-10-20T11:45:06Z</time><name>PT1701</name></trkpt>
<trkpt lat="53.217148" lon="-3.943588"><ele>592</ele><time>2022-10-20T11:45:10Z</time><name>PT1702</name></trkpt>
<trkpt lat="53.217124" lon="-3.943548"><ele>592</ele><time>2022-10-20T11:45:13Z</time><name>PT1703</name></trkpt>
<trkpt lat="53.217100" lon="-3.943511"><ele>592</ele><time>2022-10-20T11:45:16Z</time><name>PT1704</name></trkpt>
<trkpt lat="53.217077" lon="-3.943476"><ele>593</ele><time>2022-10-20T11:45:19Z</time><name>PT1705</name></trkpt>
<trkpt lat="53.217038" lon="-3.943428"><ele>593</ele><time>2022-10-20T11:45:24Z</time><name>PT1706</name></trkpt>
<trkpt lat="53.217010" lon="-3.943395"><ele>594</ele><time>2022-10-20T11:45:27Z</time><name>PT1707</name></trkpt>
<trkpt lat="53.216982" lon="-3.943356"><ele>594</ele><time>2022-10-20T11:45:30Z</time><name>PT1708</name></trkpt>
<trkpt lat="53.216963" lon="-3.943312"><ele>594</ele><time>2022-10-20T11:45:33Z</time><name>PT1709</name></trkpt>
<trkpt lat="53.216943" lon="-3.943263"><ele>594</ele><time>2022-10-20T11:45:36Z</time><name>PT1710</name></trkpt>
<trkpt lat="53.216914" lon="-3.943195"><ele>595</ele><time>2022-10-20T11:45:39Z</time><name>PT1711</name></trkpt>
<trkpt lat="53.216897" lon="-3.943154"><ele>595</ele><time>2022-10-20T11:45:42Z</time><name>PT1712</name></trkpt>
<trkpt lat="53.216868" lon="-3.943101"><ele>596</ele><time>2022-10-20T11:45:46Z</time><name>PT1713</name></trkpt>
<trkpt lat="53.216831" lon="-3.943062"><ele>598</ele><time>2022-10-20T11:45:51Z</time><name>PT1714</name></trkpt>
<trkpt lat="53.216814" lon="-3.943016"><ele>598</ele><time>2022-10-20T11:45:54Z</time><name>PT1715</name></trkpt>
<trkpt lat="53.216798" lon="-3.942963"><ele>597</ele><time>2022-10-20T11:45:57Z</time><name>PT1716</name></trkpt>
<trkpt lat="53.216775" lon="-3.942902"><ele>598</ele><time>2022-10-20T11:46:00Z</time><name>PT1717</name></trkpt>
<trkpt lat="53.216762" lon="-3.942859"><ele>598</ele><time>2022-10-20T11:46:03Z</time><name>PT1718</name></trkpt>
<trkpt lat="53.216738" lon="-3.942801"><ele>599</ele><time>2022-10-20T11:46:07Z</time><name>PT1719</name></trkpt>
<trkpt lat="53.216725" lon="-3.942762"><ele>599</ele><time>2022-10-20T11:46:10Z</time><name>PT1720</name></trkpt>
<trkpt lat="53.216705" lon="-3.942727"><ele>600</ele><time>2022-10-20T11:46:13Z</time><name>PT1721</name></trkpt>
<trkpt lat="53.216698" lon="-3.942693"><ele>601</ele><time>2022-10-20T11:46:16Z</time><name>PT1722</name></trkpt>
<trkpt lat="53.216675" lon="-3.942649"><ele>601</ele><time>2022-10-20T11:46:21Z</time><name>PT1723</name></trkpt>
<trkpt lat="53.216650" lon="-3.942601"><ele>602</ele><time>2022-10-20T11:46:24Z</time><name>PT1724</name></trkpt>
<trkpt lat="53.216624" lon="-3.942547"><ele>602</ele><time>2022-10-20T11:46:28Z</time><name>PT1725</name></trkpt>
<trkpt lat="53.216600" lon="-3.942497"><ele>602</ele><time>2022-10-20T11:46:33Z</time><name>PT1726</name></trkpt>
<trkpt lat="53.216583" lon="-3.942455"><ele>603</ele><time>2022-10-20T11:46:36Z</time><name>PT1727</name></trkpt>
<trkpt lat="53.216556" lon="-3.942399"><ele>604</ele><time>2022-10-20T11:46:39Z</time><name>PT1728</name></trkpt>
<trkpt lat="53.216540" lon="-3.942354"><ele>604</ele><time>2022-10-20T11:46:42Z</time><name>PT1729</name></trkpt>
<trkpt lat="53.216528" lon="-3.942309"><ele>604</ele><time>2022-10-20T11:46:45Z</time><name>PT1730</name></trkpt>
<trkpt lat="53.216501" lon="-3.942256"><ele>605</ele><time>2022-10-20T11:46:49Z</time><name>PT1731</name></trkpt>
<trkpt lat="53.216484" lon="-3.942194"><ele>605</ele><time>2022-10-20T11:46:54Z</time><name>PT1732</name></trkpt>
<trkpt lat="53.216464" lon="-3.942154"><ele>605</ele><time>2022-10-20T11:46:57Z</time><name>PT1733</name></trkpt>
<trkpt lat="53.216447" lon="-3.942102"><ele>606</ele><time>2022-10-20T11:47:00Z</time><name>PT1734</name></trkpt>
<trkpt lat="53.216421" lon="-3.942053"><ele>605</ele><time>2022-10-20T11:47:03Z</time><name>PT1735</name></trkpt>
<trkpt lat="53.216402" lon="-3.942012"><ele>606</ele><time>2022-10-20T11:47:06Z</time><name>PT1736</name></trkpt>
<trkpt lat="53.216378" lon="-3.941959"><ele>607</ele><time>2022-10-20T11:47:10Z</time><name>PT1737</name></trkpt>
<trkpt lat="53.216359" lon="-3.941924"><ele>607</ele><time>2022-10-20T11:47:13Z</time><name>PT1738</name></trkpt>
<trkpt lat="53.216331" lon="-3.941880"><ele>608</ele><time>2022-10-20T11:47:18Z</time><name>PT1739</name></trkpt>
<trkpt lat="53.216303" lon="-3.941834"><ele>609</ele><time>2022-10-20T11:47:21Z</time><name>PT1740</name></trkpt>
<trkpt lat="53.216284" lon="-3.941795"><ele>609</ele><time>2022-10-20T11:47:24Z</time><name>PT1741</name></trkpt>
<trkpt lat="53.216262" lon="-3.941746"><ele>610</ele><time>2022-10-20T11:47:28Z</time><name>PT1742</name></trkpt>
<trkpt lat="53.216241" lon="-3.941697"><ele>610</ele><time>2022-10-20T11:47:33Z</time><name>PT1743</name></trkpt>
<trkpt lat="53.216226" lon="-3.941663"><ele>611</ele><time>2022-10-20T11:47:36Z</time><name>PT1744</name></trkpt>
<trkpt lat="53.216208" lon="-3.941613"><ele>611</ele><time>2022-10-20T11:47:39Z</time><name>PT1745</name></trkpt>
<trkpt lat="53.216190" lon="-3.941576"><ele>612</ele><time>2022-10-20T11:47:42Z</time><name>PT1746</name></trkpt>
<trkpt lat="53.216166" lon="-3.941525"><ele>613</ele><time>2022-10-20T11:47:46Z</time><name>PT1747</name></trkpt>
<trkpt lat="53.216151" lon="-3.941483"><ele>613</ele><time>2022-10-20T11:47:49Z</time><name>PT1748</name></trkpt>
<trkpt lat="53.216127" lon="-3.941433"><ele>613</ele><time>2022-10-20T11:47:54Z</time><name>PT1749</name></trkpt>
<trkpt lat="53.216107" lon="-3.941396"><ele>614</ele><time>2022-10-20T11:47:57Z</time><name>PT1750</name></trkpt>
<trkpt lat="53.216080" lon="-3.941350"><ele>614</ele><time>2022-10-20T11:48:00Z</time><name>PT1751</name></trkpt>
<trkpt lat="53.216058" lon="-3.941303"><ele>615</ele><time>2022-10-20T11:48:04Z</time><name>PT1752</name></trkpt>
<trkpt lat="53.216040" lon="-3.941271"><ele>615</ele><time>2022-10-20T11:48:07Z</time><name>PT1753</name></trkpt>
<trkpt lat="53.216013" lon="-3.941229"><ele>616</ele><time>2022-10-20T11:48:12Z</time><name>PT1754</name></trkpt>
<trkpt lat="53.215995" lon="-3.941192"><ele>617</ele><time>2022-10-20T11:48:15Z</time><name>PT1755</name></trkpt>
<trkpt lat="53.215977" lon="-3.941136"><ele>617</ele><time>2022-10-20T11:48:18Z</time><name>PT1756</name></trkpt>
<trkpt lat="53.215954" lon="-3.941088"><ele>617</ele><time>2022-10-20T11:48:22Z</time><name>PT1757</name></trkpt>
<trkpt lat="53.215931" lon="-3.941036"><ele>618</ele><time>2022-10-20T11:48:27Z</time><name>PT1758</name></trkpt>
<trkpt lat="53.215904" lon="-3.940988"><ele>618</ele><time>2022-10-20T11:48:30Z</time><name>PT1759</name></trkpt>
<trkpt lat="53.215875" lon="-3.940943"><ele>619</ele><time>2022-10-20T11:48:34Z</time><name>PT1760</name></trkpt>
<trkpt lat="53.215847" lon="-3.940891"><ele>620</ele><time>2022-10-20T11:48:39Z</time><name>PT1761</name></trkpt>
<trkpt lat="53.215829" lon="-3.940855"><ele>620</ele><time>2022-10-20T11:48:42Z</time><name>PT1762</name></trkpt>
<trkpt lat="53.215804" lon="-3.940808"><ele>621</ele><time>2022-10-20T11:48:45Z</time><name>PT1763</name></trkpt>
<trkpt lat="53.215785" lon="-3.940766"><ele>621</ele><time>2022-10-20T11:48:48Z</time><name>PT1764</name></trkpt>
<trkpt lat="53.215767" lon="-3.940734"><ele>622</ele><time>2022-10-20T11:48:51Z</time><name>PT1765</name></trkpt>
<trkpt lat="53.215745" lon="-3.940693"><ele>623</ele><time>2022-10-20T11:48:55Z</time><name>PT1766</name></trkpt>
<trkpt lat="53.215725" lon="-3.940647"><ele>624</ele><time>2022-10-20T11:49:00Z</time><name>PT1767</name></trkpt>
<trkpt lat="53.215701" lon="-3.940605"><ele>624</ele><time>2022-10-20T11:49:03Z</time><name>PT1768</name></trkpt>
<trkpt lat="53.215682" lon="-3.940561"><ele>625</ele><time>2022-10-20T11:49:07Z</time><name>PT1769</name></trkpt>
<trkpt lat="53.215668" lon="-3.940532"><ele>624</ele><time>2022-10-20T11:49:10Z</time><name>PT1770</name></trkpt>
<trkpt lat="53.215653" lon="-3.940491"><ele>625</ele><time>2022-10-20T11:49:13Z</time><name>PT1771</name></trkpt>
<trkpt lat="53.215642" lon="-3.940445"><ele>625</ele><time>2022-10-20T11:49:16Z</time><name>PT1772</name></trkpt>
<trkpt lat="53.215623" lon="-3.940388"><ele>625</ele><time>2022-10-20T11:49:21Z</time><name>PT1773</name></trkpt>
<trkpt lat="53.215607" lon="-3.940346"><ele>626</ele><time>2022-10-20T11:49:24Z</time><name>PT1774</name></trkpt>
<trkpt lat="53.215585" lon="-3.940299"><ele>626</ele><time>2022-10-20T11:49:27Z</time><name>PT1775</name></trkpt>
<trkpt lat="53.215557" lon="-3.940253"><ele>626</ele><time>2022-10-20T11:49:31Z</time><name>PT1776</name></trkpt>
<trkpt lat="53.215542" lon="-3.940215"><ele>626</ele><time>2022-10-20T11:49:34Z</time><name>PT1777</name></trkpt>
<trkpt lat="53.215527" lon="-3.940173"><ele>627</ele><time>2022-10-20T11:49:37Z</time><name>PT1778</name></trkpt>
<trkpt lat="53.215500" lon="-3.940124"><ele>627</ele><time>2022-10-20T11:49:42Z</time><name>PT1779</name></trkpt>
<trkpt lat="53.215484" lon="-3.940088"><ele>628</ele><time>2022-10-20T11:49:45Z</time><name>PT1780</name></trkpt>
<trkpt lat="53.215457" lon="-3.940041"><ele>628</ele><time>2022-10-20T11:49:48Z</time><name>PT1781</name></trkpt>
<trkpt lat="53.215418" lon="-3.939990"><ele>630</ele><time>2022-10-20T11:49:52Z</time><name>PT1782</name></trkpt>
<trkpt lat="53.215403" lon="-3.939952"><ele>630</ele><time>2022-10-20T11:49:55Z</time><name>PT1783</name></trkpt>
<trkpt lat="53.215371" lon="-3.939917"><ele>631</ele><time>2022-10-20T11:50:00Z</time><name>PT1784</name></trkpt>
<trkpt lat="53.215344" lon="-3.939884"><ele>632</ele><time>2022-10-20T11:50:03Z</time><name>PT1785</name></trkpt>
<trkpt lat="53.215313" lon="-3.939868"><ele>632</ele><time>2022-10-20T11:50:07Z</time><name>PT1786</name></trkpt>
<trkpt lat="53.215291" lon="-3.939842"><ele>633</ele><time>2022-10-20T11:50:12Z</time><name>PT1787</name></trkpt>
<trkpt lat="53.215284" lon="-3.939818"><ele>633</ele><time>2022-10-20T11:50:15Z</time><name>PT1788</name></trkpt>
<trkpt lat="53.215257" lon="-3.939769"><ele>632</ele><time>2022-10-20T11:50:18Z</time><name>PT1789</name></trkpt>
<trkpt lat="53.215234" lon="-3.939739"><ele>633</ele><time>2022-10-20T11:50:21Z</time><name>PT1790</name></trkpt>
<trkpt lat="53.215209" lon="-3.939697"><ele>634</ele><time>2022-10-20T11:50:25Z</time><name>PT1791</name></trkpt>
<trkpt lat="53.215193" lon="-3.939659"><ele>634</ele><time>2022-10-20T11:50:28Z</time><name>PT1792</name></trkpt>
<trkpt lat="53.215167" lon="-3.939615"><ele>634</ele><time>2022-10-20T11:50:33Z</time><name>PT1793</name></trkpt>
<trkpt lat="53.215148" lon="-3.939573"><ele>635</ele><time>2022-10-20T11:50:36Z</time><name>PT1794</name></trkpt>
<trkpt lat="53.215122" lon="-3.939521"><ele>635</ele><time>2022-10-20T11:50:39Z</time><name>PT1795</name></trkpt>
<trkpt lat="53.215097" lon="-3.939472"><ele>636</ele><time>2022-10-20T11:50:43Z</time><name>PT1796</name></trkpt>
<trkpt lat="53.215075" lon="-3.939414"><ele>637</ele><time>2022-10-20T11:50:48Z</time><name>PT1797</name></trkpt>
<trkpt lat="53.215054" lon="-3.939362"><ele>638</ele><time>2022-10-20T11:50:51Z</time><name>PT1798</name></trkpt>
<trkpt lat="53.215038" lon="-3.939326"><ele>639</ele><time>2022-10-20T11:50:54Z</time><name>PT1799</name></trkpt>
<trkpt lat="53.215018" lon="-3.939273"><ele>640</ele><time>2022-10-20T11:50:58Z</time><name>PT1800</name></trkpt>
<trkpt lat="53.214988" lon="-3.939230"><ele>641</ele><time>2022-10-20T11:51:03Z</time><name>PT1801</name></trkpt>
<trkpt lat="53.214963" lon="-3.939178"><ele>641</ele><time>2022-10-20T11:51:06Z</time><name>PT1802</name></trkpt>
<trkpt lat="53.214948" lon="-3.939143"><ele>642</ele><time>2022-10-20T11:51:09Z</time><name>PT1803</name></trkpt>
<trkpt lat="53.214922" lon="-3.939100"><ele>642</ele><time>2022-10-20T11:51:13Z</time><name>PT1804</name></trkpt>
<trkpt lat="53.214909" lon="-3.939070"><ele>644</ele><time>2022-10-20T11:51:16Z</time><name>PT1805</name></trkpt>
<trkpt lat="53.214889" lon="-3.939035"><ele>645</ele><time>2022-10-20T11:51:21Z</time><name>PT1806</name></trkpt>
<trkpt lat="53.214873" lon="-3.938991"><ele>645</ele><time>2022-10-20T11:51:24Z</time><name>PT1807</name></trkpt>
<trkpt lat="53.214850" lon="-3.938944"><ele>646</ele><time>2022-10-20T11:51:27Z</time><name>PT1808</name></trkpt>
<trkpt lat="53.214836" lon="-3.938912"><ele>646</ele><time>2022-10-20T11:51:30Z</time><name>PT1809</name></trkpt>
<trkpt lat="53.214818" lon="-3.938873"><ele>647</ele><time>2022-10-20T11:51:33Z</time><name>PT1810</name></trkpt>
<trkpt lat="53.214788" lon="-3.938827"><ele>647</ele><time>2022-10-20T11:51:37Z</time><name>PT1811</name></trkpt>
<trkpt lat="53.214757" lon="-3.938796"><ele>647</ele><time>2022-10-20T11:51:42Z</time><name>PT1812</name></trkpt>
<trkpt lat="53.214734" lon="-3.938789"><ele>649</ele><time>2022-10-20T11:51:45Z</time><name>PT1813</name></trkpt>
<trkpt lat="53.214707" lon="-3.938775"><ele>650</ele><time>2022-10-20T11:51:48Z</time><name>PT1814</name></trkpt>
<trkpt lat="53.214679" lon="-3.938760"><ele>651</ele><time>2022-10-20T11:51:52Z</time><name>PT1815</name></trkpt>
<trkpt lat="53.214655" lon="-3.938756"><ele>652</ele><time>2022-10-20T11:51:55Z</time><name>PT1816</name></trkpt>
<trkpt lat="53.214626" lon="-3.938728"><ele>652</ele><time>2022-10-20T11:52:00Z</time><name>PT1817</name></trkpt>
<trkpt lat="53.214606" lon="-3.938709"><ele>653</ele><time>2022-10-20T11:52:03Z</time><name>PT1818</name></trkpt>
<trkpt lat="53.214585" lon="-3.938663"><ele>653</ele><time>2022-10-20T11:52:06Z</time><name>PT1819</name></trkpt>
<trkpt lat="53.214565" lon="-3.938632"><ele>653</ele><time>2022-10-20T11:52:09Z</time><name>PT1820</name></trkpt>
<trkpt lat="53.214536" lon="-3.938592"><ele>653</ele><time>2022-10-20T11:52:13Z</time><name>PT1821</name></trkpt>
<trkpt lat="53.214515" lon="-3.938547"><ele>654</ele><time>2022-10-20T11:52:18Z</time><name>PT1822</name></trkpt>
<trkpt lat="53.214492" lon="-3.938514"><ele>654</ele><time>2022-10-20T11:52:21Z</time><name>PT1823</name></trkpt>
<trkpt lat="53.214471" lon="-3.938481"><ele>655</ele><time>2022-10-20T11:52:25Z</time><name>PT1824</name></trkpt>
<trkpt lat="53.214460" lon="-3.938452"><ele>655</ele><time>2022-10-20T11:52:28Z</time><name>PT1825</name></trkpt>
<trkpt lat="53.214445" lon="-3.938395"><ele>657</ele><time>2022-10-20T11:52:33Z</time><name>PT1826</name></trkpt>
<trkpt lat="53.214440" lon="-3.938364"><ele>659</ele><time>2022-10-20T11:52:36Z</time><name>PT1827</name></trkpt>
<trkpt lat="53.214426" lon="-3.938328"><ele>659</ele><time>2022-10-20T11:52:39Z</time><name>PT1828</name></trkpt>
<trkpt lat="53.214412" lon="-3.938278"><ele>659</ele><time>2022-10-20T11:52:42Z</time><name>PT1829</name></trkpt>
<trkpt lat="53.214394" lon="-3.938230"><ele>660</ele><time>2022-10-20T11:52:46Z</time><name>PT1830</name></trkpt>
<trkpt lat="53.214380" lon="-3.938192"><ele>659</ele><time>2022-10-20T11:52:49Z</time><name>PT1831</name></trkpt>
<trkpt lat="53.214359" lon="-3.938143"><ele>660</ele><time>2022-10-20T11:52:54Z</time><name>PT1832</name></trkpt>
<trkpt lat="53.214338" lon="-3.938106"><ele>661</ele><time>2022-10-20T11:52:57Z</time><name>PT1833</name></trkpt>
<trkpt lat="53.214303" lon="-3.938085"><ele>660</ele><time>2022-10-20T11:53:00Z</time><name>PT1834</name></trkpt>
<trkpt lat="53.214275" lon="-3.938057"><ele>661</ele><time>2022-10-20T11:53:04Z</time><name>PT1835</name></trkpt>
<trkpt lat="53.214244" lon="-3.938020"><ele>662</ele><time>2022-10-20T11:53:09Z</time><name>PT1836</name></trkpt>
<trkpt lat="53.214223" lon="-3.937974"><ele>663</ele><time>2022-10-20T11:53:12Z</time><name>PT1837</name></trkpt>
<trkpt lat="53.214215" lon="-3.937937"><ele>663</ele><time>2022-10-20T11:53:15Z</time><name>PT1838</name></trkpt>
<trkpt lat="53.214202" lon="-3.937899"><ele>663</ele><time>2022-10-20T11:53:18Z</time><name>PT1839</name></trkpt>
<trkpt lat="53.214192" lon="-3.937869"><ele>664</ele><time>2022-10-20T11:53:21Z</time><name>PT1840</name></trkpt>
<trkpt lat="53.214183" lon="-3.937823"><ele>667</ele><time>2022-10-20T11:53:25Z</time><name>PT1841</name></trkpt>
<trkpt lat="53.214169" lon="-3.937787"><ele>667</ele><time>2022-10-20T11:53:28Z</time><name>PT1842</name></trkpt>
<trkpt lat="53.214146" lon="-3.937740"><ele>668</ele><time>2022-10-20T11:53:33Z</time><name>PT1843</name></trkpt>
<trkpt lat="53.214132" lon="-3.937713"><ele>667</ele><time>2022-10-20T11:53:36Z</time><name>PT1844</name></trkpt>
<trkpt lat="53.214108" lon="-3.937679"><ele>669</ele><time>2022-10-20T11:53:39Z</time><name>PT1845</name></trkpt>
<trkpt lat="53.214087" lon="-3.937641"><ele>669</ele><time>2022-10-20T11:53:43Z</time><name>PT1846</name></trkpt>
<trkpt lat="53.214066" lon="-3.937617"><ele>670</ele><time>2022-10-20T11:53:46Z</time><name>PT1847</name></trkpt>
<trkpt lat="53.214045" lon="-3.937599"><ele>671</ele><time>2022-10-20T11:53:49Z</time><name>PT1848</name></trkpt>
<trkpt lat="53.214020" lon="-3.937562"><ele>671</ele><time>2022-10-20T11:53:54Z</time><name>PT1849</name></trkpt>
<trkpt lat="53.214003" lon="-3.937534"><ele>672</ele><time>2022-10-20T11:53:57Z</time><name>PT1850</name></trkpt>
<trkpt lat="53.213984" lon="-3.937504"><ele>673</ele><time>2022-10-20T11:54:00Z</time><name>PT1851</name></trkpt>
<trkpt lat="53.213967" lon="-3.937455"><ele>673</ele><time>2022-10-20T11:54:03Z</time><name>PT1852</name></trkpt>
<trkpt lat="53.213944" lon="-3.937411"><ele>673</ele><time>2022-10-20T11:54:07Z</time><name>PT1853</name></trkpt>
<trkpt lat="53.213921" lon="-3.937359"><ele>673</ele><time>2022-10-20T11:54:12Z</time><name>PT1854</name></trkpt>
<trkpt lat="53.213892" lon="-3.937319"><ele>672</ele><time>2022-10-20T11:54:15Z</time><name>PT1855</name></trkpt>
<trkpt lat="53.213873" lon="-3.937285"><ele>674</ele><time>2022-10-20T11:54:18Z</time><name>PT1856</name></trkpt>
<trkpt lat="53.213841" lon="-3.937238"><ele>674</ele><time>2022-10-20T11:54:22Z</time><name>PT1857</name></trkpt>
<trkpt lat="53.213819" lon="-3.937211"><ele>675</ele><time>2022-10-20T11:54:25Z</time><name>PT1858</name></trkpt>
<trkpt lat="53.213791" lon="-3.937171"><ele>675</ele><time>2022-10-20T11:54:30Z</time><name>PT1859</name></trkpt>
<trkpt lat="53.213771" lon="-3.937138"><ele>675</ele><time>2022-10-20T11:54:33Z</time><name>PT1860</name></trkpt>
<trkpt lat="53.213753" lon="-3.937087"><ele>676</ele><time>2022-10-20T11:54:36Z</time><name>PT1861</name></trkpt>
<trkpt lat="53.213720" lon="-3.937049"><ele>676</ele><time>2022-10-20T11:54:40Z</time><name>PT1862</name></trkpt>
<trkpt lat="53.213692" lon="-3.937005"><ele>677</ele><time>2022-10-20T11:54:45Z</time><name>PT1863</name></trkpt>
<trkpt lat="53.213650" lon="-3.936983"><ele>678</ele><time>2022-10-20T11:54:48Z</time><name>PT1864</name></trkpt>
<trkpt lat="53.213617" lon="-3.936966"><ele>679</ele><time>2022-10-20T11:54:52Z</time><name>PT1865</name></trkpt>
<trkpt lat="53.213589" lon="-3.936958"><ele>680</ele><time>2022-10-20T11:54:57Z</time><name>PT1866</name></trkpt>
<trkpt lat="53.213567" lon="-3.936939"><ele>681</ele><time>2022-10-20T11:55:00Z</time><name>PT1867</name></trkpt>
<trkpt lat="53.213537" lon="-3.936910"><ele>682</ele><time>2022-10-20T11:55:03Z</time><name>PT1868</name></trkpt>
<trkpt lat="53.213506" lon="-3.936875"><ele>682</ele><time>2022-10-20T11:55:07Z</time><name>PT1869</name></trkpt>
<trkpt lat="53.213489" lon="-3.936852"><ele>683</ele><time>2022-10-20T11:55:10Z</time><name>PT1870</name></trkpt>
<trkpt lat="53.213468" lon="-3.936803"><ele>684</ele><time>2022-10-20T11:55:15Z</time><name>PT1871</name></trkpt>
<trkpt lat="53.213449" lon="-3.936769"><ele>684</ele><time>2022-10-20T11:55:18Z</time><name>PT1872</name></trkpt>
<trkpt lat="53.213419" lon="-3.936732"><ele>684</ele><time>2022-10-20T11:55:21Z</time><name>PT1873</name></trkpt>
<trkpt lat="53.213390" lon="-3.936695"><ele>686</ele><time>2022-10-20T11:55:25Z</time><name>PT1874</name></trkpt>
<trkpt lat="53.213350" lon="-3.936668"><ele>687</ele><time>2022-10-20T11:55:30Z</time><name>PT1875</name></trkpt>
<trkpt lat="53.213330" lon="-3.936636"><ele>687</ele><time>2022-10-20T11:55:33Z</time><name>PT1876</name></trkpt>
<trkpt lat="53.213302" lon="-3.936608"><ele>687</ele><time>2022-10-20T11:55:36Z</time><name>PT1877</name></trkpt>
<trkpt lat="53.213269" lon="-3.936571"><ele>688</ele><time>2022-10-20T11:55:39Z</time><name>PT1878</name></trkpt>
<trkpt lat="53.213233" lon="-3.936542"><ele>688</ele><time>2022-10-20T11:55:43Z</time><name>PT1879</name></trkpt>
<trkpt lat="53.213201" lon="-3.936516"><ele>688</ele><time>2022-10-20T11:55:48Z</time><name>PT1880</name></trkpt>
<trkpt lat="53.213163" lon="-3.936501"><ele>688</ele><time>2022-10-20T11:55:51Z</time><name>PT1881</name></trkpt>
<trkpt lat="53.213130" lon="-3.936491"><ele>688</ele><time>2022-10-20T11:55:54Z</time><name>PT1882</name></trkpt>
<trkpt lat="53.213091" lon="-3.936476"><ele>688</ele><time>2022-10-20T11:55:58Z</time><name>PT1883</name></trkpt>
<trkpt lat="53.213068" lon="-3.936476"><ele>689</ele><time>2022-10-20T11:56:01Z</time><name>PT1884</name></trkpt>
<trkpt lat="53.213046" lon="-3.936472"><ele>689</ele><time>2022-10-20T11:56:04Z</time><name>PT1885</name></trkpt>
<trkpt lat="53.213011" lon="-3.936463"><ele>690</ele><time>2022-10-20T11:56:09Z</time><name>PT1886</name></trkpt>
<trkpt lat="53.212986" lon="-3.936447"><ele>691</ele><time>2022-10-20T11:56:12Z</time><name>PT1887</name></trkpt>
<trkpt lat="53.212961" lon="-3.936432"><ele>692</ele><time>2022-10-20T11:56:15Z</time><name>PT1888</name></trkpt>
<trkpt lat="53.212930" lon="-3.936411"><ele>692</ele><time>2022-10-20T11:56:18Z</time><name>PT1889</name></trkpt>
<trkpt lat="53.212891" lon="-3.936390"><ele>693</ele><time>2022-10-20T11:56:22Z</time><name>PT1890</name></trkpt>
<trkpt lat="53.212865" lon="-3.936377"><ele>694</ele><time>2022-10-20T11:56:25Z</time><name>PT1891</name></trkpt>
<trkpt lat="53.212830" lon="-3.936354"><ele>695</ele><time>2022-10-20T11:56:30Z</time><name>PT1892</name></trkpt>
<trkpt lat="53.212791" lon="-3.936331"><ele>695</ele><time>2022-10-20T11:56:33Z</time><name>PT1893</name></trkpt>
<trkpt lat="53.212756" lon="-3.936317"><ele>695</ele><time>2022-10-20T11:56:37Z</time><name>PT1894</name></trkpt>
<trkpt lat="53.212721" lon="-3.936306"><ele>695</ele><time>2022-10-20T11:56:42Z</time><name>PT1895</name></trkpt>
<trkpt lat="53.212694" lon="-3.936291"><ele>696</ele><time>2022-10-20T11:56:45Z</time><name>PT1896</name></trkpt>
<trkpt lat="53.212665" lon="-3.936276"><ele>696</ele><time>2022-10-20T11:56:48Z</time><name>PT1897</name></trkpt>
<trkpt lat="53.212633" lon="-3.936269"><ele>696</ele><time>2022-10-20T11:56:51Z</time><name>PT1898</name></trkpt>
<trkpt lat="53.212608" lon="-3.936254"><ele>696</ele><time>2022-10-20T11:56:54Z</time><name>PT1899</name></trkpt>
<trkpt lat="53.212570" lon="-3.936237"><ele>696</ele><time>2022-10-20T11:56:58Z</time><name>PT1900</name></trkpt>
<trkpt lat="53.212549" lon="-3.936231"><ele>697</ele><time>2022-10-20T11:57:01Z</time><name>PT1901</name></trkpt>
<trkpt lat="53.212522" lon="-3.936224"><ele>699</ele><time>2022-10-20T11:57:06Z</time><name>PT1902</name></trkpt>
<trkpt lat="53.212504" lon="-3.936223"><ele>699</ele><time>2022-10-20T11:57:09Z</time><name>PT1903</name></trkpt>
<trkpt lat="53.212482" lon="-3.936213"><ele>700</ele><time>2022-10-20T11:57:12Z</time><name>PT1904</name></trkpt>
<trkpt lat="53.212460" lon="-3.936209"><ele>702</ele><time>2022-10-20T11:57:15Z</time><name>PT1905</name></trkpt>
<trkpt lat="53.212442" lon="-3.936205"><ele>702</ele><time>2022-10-20T11:57:18Z</time><name>PT1906</name></trkpt>
<trkpt lat="53.212412" lon="-3.936199"><ele>703</ele><time>2022-10-20T11:57:21Z</time><name>PT1907</name></trkpt>
<trkpt lat="53.212388" lon="-3.936195"><ele>704</ele><time>2022-10-20T11:57:24Z</time><name>PT1908</name></trkpt>
<trkpt lat="53.212354" lon="-3.936190"><ele>706</ele><time>2022-10-20T11:57:28Z</time><name>PT1909</name></trkpt>
<trkpt lat="53.212313" lon="-3.936184"><ele>706</ele><time>2022-10-20T11:57:33Z</time><name>PT1910</name></trkpt>
<trkpt lat="53.212294" lon="-3.936186"><ele>707</ele><time>2022-10-20T11:57:36Z</time><name>PT1911</name></trkpt>
<trkpt lat="53.212264" lon="-3.936189"><ele>708</ele><time>2022-10-20T11:57:39Z</time><name>PT1912</name></trkpt>
<trkpt lat="53.212231" lon="-3.936195"><ele>708</ele><time>2022-10-20T11:57:43Z</time><name>PT1913</name></trkpt>
<trkpt lat="53.212212" lon="-3.936195"><ele>709</ele><time>2022-10-20T11:57:46Z</time><name>PT1914</name></trkpt>
<trkpt lat="53.212181" lon="-3.936202"><ele>710</ele><time>2022-10-20T11:57:51Z</time><name>PT1915</name></trkpt>
<trkpt lat="53.212158" lon="-3.936196"><ele>711</ele><time>2022-10-20T11:57:54Z</time><name>PT1916</name></trkpt>
<trkpt lat="53.212130" lon="-3.936200"><ele>712</ele><time>2022-10-20T11:57:57Z</time><name>PT1917</name></trkpt>
<trkpt lat="53.212105" lon="-3.936208"><ele>713</ele><time>2022-10-20T11:58:00Z</time><name>PT1918</name></trkpt>
<trkpt lat="53.212083" lon="-3.936209"><ele>713</ele><time>2022-10-20T11:58:03Z</time><name>PT1919</name></trkpt>
<trkpt lat="53.212048" lon="-3.936225"><ele>714</ele><time>2022-10-20T11:58:07Z</time><name>PT1920</name></trkpt>
<trkpt lat="53.212010" lon="-3.936237"><ele>714</ele><time>2022-10-20T11:58:12Z</time><name>PT1921</name></trkpt>
<trkpt lat="53.211988" lon="-3.936242"><ele>714</ele><time>2022-10-20T11:58:15Z</time><name>PT1922</name></trkpt>
<trkpt lat="53.211961" lon="-3.936246"><ele>715</ele><time>2022-10-20T11:58:18Z</time><name>PT1923</name></trkpt>
<trkpt lat="53.211938" lon="-3.936257"><ele>716</ele><time>2022-10-20T11:58:21Z</time><name>PT1924</name></trkpt>
<trkpt lat="53.211899" lon="-3.936263"><ele>716</ele><time>2022-10-20T11:58:24Z</time><name>PT1925</name></trkpt>
<trkpt lat="53.211864" lon="-3.936267"><ele>716</ele><time>2022-10-20T11:58:28Z</time><name>PT1926</name></trkpt>
<trkpt lat="53.211838" lon="-3.936269"><ele>717</ele><time>2022-10-20T11:58:31Z</time><name>PT1927</name></trkpt>
<trkpt lat="53.211804" lon="-3.936275"><ele>718</ele><time>2022-10-20T11:58:36Z</time><name>PT1928</name></trkpt>
<trkpt lat="53.211781" lon="-3.936277"><ele>718</ele><time>2022-10-20T11:58:39Z</time><name>PT1929</name></trkpt>
<trkpt lat="53.211758" lon="-3.936284"><ele>719</ele><time>2022-10-20T11:58:42Z</time><name>PT1930</name></trkpt>
<trkpt lat="53.211726" lon="-3.936291"><ele>719</ele><time>2022-10-20T11:58:46Z</time><name>PT1931</name></trkpt>
<trkpt lat="53.211695" lon="-3.936297"><ele>721</ele><time>2022-10-20T11:58:51Z</time><name>PT1932</name></trkpt>
<trkpt lat="53.211678" lon="-3.936297"><ele>722</ele><time>2022-10-20T11:58:54Z</time><name>PT1933</name></trkpt>
<trkpt lat="53.211651" lon="-3.936298"><ele>722</ele><time>2022-10-20T11:58:57Z</time><name>PT1934</name></trkpt>
<trkpt lat="53.211612" lon="-3.936290"><ele>723</ele><time>2022-10-20T11:59:00Z</time><name>PT1935</name></trkpt>
<trkpt lat="53.211577" lon="-3.936280"><ele>724</ele><time>2022-10-20T11:59:04Z</time><name>PT1936</name></trkpt>
<trkpt lat="53.211541" lon="-3.936271"><ele>725</ele><time>2022-10-20T11:59:09Z</time><name>PT1937</name></trkpt>
<trkpt lat="53.211516" lon="-3.936269"><ele>725</ele><time>2022-10-20T11:59:12Z</time><name>PT1938</name></trkpt>
<trkpt lat="53.211486" lon="-3.936269"><ele>727</ele><time>2022-10-20T11:59:15Z</time><name>PT1939</name></trkpt>
<trkpt lat="53.211460" lon="-3.936273"><ele>727</ele><time>2022-10-20T11:59:18Z</time><name>PT1940</name></trkpt>
<trkpt lat="53.211425" lon="-3.936293"><ele>728</ele><time>2022-10-20T11:59:22Z</time><name>PT1941</name></trkpt>
<trkpt lat="53.211389" lon="-3.936295"><ele>729</ele><time>2022-10-20T11:59:27Z</time><name>PT1942</name></trkpt>
<trkpt lat="53.211357" lon="-3.936297"><ele>729</ele><time>2022-10-20T11:59:30Z</time><name>PT1943</name></trkpt>
<trkpt lat="53.211322" lon="-3.936305"><ele>730</ele><time>2022-10-20T11:59:33Z</time><name>PT1944</name></trkpt>
<trkpt lat="53.211295" lon="-3.936312"><ele>730</ele><time>2022-10-20T11:59:36Z</time><name>PT1945</name></trkpt>
<trkpt lat="53.211275" lon="-3.936315"><ele>730</ele><time>2022-10-20T11:59:39Z</time><name>PT1946</name></trkpt>
<trkpt lat="53.211239" lon="-3.936334"><ele>730</ele><time>2022-10-20T11:59:43Z</time><name>PT1947</name></trkpt>
<trkpt lat="53.211200" lon="-3.936342"><ele>730</ele><time>2022-10-20T11:59:48Z</time><name>PT1948</name></trkpt>
<trkpt lat="53.211160" lon="-3.936339"><ele>730</ele><time>2022-10-20T11:59:51Z</time><name>PT1949</name></trkpt>
<trkpt lat="53.211134" lon="-3.936338"><ele>730</ele><time>2022-10-20T11:59:54Z</time><name>PT1950</name></trkpt>
<trkpt lat="53.211099" lon="-3.936329"><ele>731</ele><time>2022-10-20T11:59:58Z</time><name>PT1951</name></trkpt>
<trkpt lat="53.211078" lon="-3.936320"><ele>731</ele><time>2022-10-20T12:00:01Z</time><name>PT1952</name></trkpt>
<trkpt lat="53.211040" lon="-3.936307"><ele>732</ele><time>2022-10-20T12:00:06Z</time><name>PT1953</name></trkpt>
<trkpt lat="53.211018" lon="-3.936306"><ele>732</ele><time>2022-10-20T12:00:09Z</time><name>PT1954</name></trkpt>
<trkpt lat="53.210989" lon="-3.936290"><ele>732</ele><time>2022-10-20T12:00:12Z</time><name>PT1955</name></trkpt>
<trkpt lat="53.210949" lon="-3.936282"><ele>732</ele><time>2022-10-20T12:00:15Z</time><name>PT1956</name></trkpt>
<trkpt lat="53.210914" lon="-3.936276"><ele>733</ele><time>2022-10-20T12:00:19Z</time><name>PT1957</name></trkpt>
<trkpt lat="53.210891" lon="-3.936264"><ele>734</ele><time>2022-10-20T12:00:22Z</time><name>PT1958</name></trkpt>
<trkpt lat="53.210868" lon="-3.936247"><ele>736</ele><time>2022-10-20T12:00:25Z</time><name>PT1959</name></trkpt>
<trkpt lat="53.210830" lon="-3.936235"><ele>735</ele><time>2022-10-20T12:00:30Z</time><name>PT1960</name></trkpt>
<trkpt lat="53.210803" lon="-3.936231"><ele>736</ele><time>2022-10-20T12:00:33Z</time><name>PT1961</name></trkpt>
<trkpt lat="53.210761" lon="-3.936218"><ele>736</ele><time>2022-10-20T12:00:36Z</time><name>PT1962</name></trkpt>
<trkpt lat="53.210732" lon="-3.936217"><ele>737</ele><time>2022-10-20T12:00:39Z</time><name>PT1963</name></trkpt>
<trkpt lat="53.210698" lon="-3.936207"><ele>738</ele><time>2022-10-20T12:00:43Z</time><name>PT1964</name></trkpt>
<trkpt lat="53.210679" lon="-3.936201"><ele>739</ele><time>2022-10-20T12:00:46Z</time><name>PT1965</name></trkpt>
<trkpt lat="53.210642" lon="-3.936192"><ele>739</ele><time>2022-10-20T12:00:51Z</time><name>PT1966</name></trkpt>
<trkpt lat="53.210601" lon="-3.936181"><ele>739</ele><time>2022-10-20T12:00:54Z</time><name>PT1967</name></trkpt>
<trkpt lat="53.210560" lon="-3.936168"><ele>739</ele><time>2022-10-20T12:00:58Z</time><name>PT1968</name></trkpt>
<trkpt lat="53.210527" lon="-3.936161"><ele>739</ele><time>2022-10-20T12:01:01Z</time><name>PT1969</name></trkpt>
<trkpt lat="53.210482" lon="-3.936152"><ele>739</ele><time>2022-10-20T12:01:06Z</time><name>PT1970</name></trkpt>
<trkpt lat="53.210455" lon="-3.936143"><ele>739</ele><time>2022-10-20T12:01:09Z</time><name>PT1971</name></trkpt>
<trkpt lat="53.210424" lon="-3.936143"><ele>739</ele><time>2022-10-20T12:01:12Z</time><name>PT1972</name></trkpt>
<trkpt lat="53.210388" lon="-3.936140"><ele>740</ele><time>2022-10-20T12:01:15Z</time><name>PT1973</name></trkpt>
<trkpt lat="53.210365" lon="-3.936143"><ele>741</ele><time>2022-10-20T12:01:18Z</time><name>PT1974</name></trkpt>
<trkpt lat="53.210364" lon="-3.936146"><ele>741</ele><time>2022-10-20T12:01:22Z</time><name>PT1975</name></trkpt>
<trkpt lat="53.210341" lon="-3.936162"><ele>740</ele><time>2022-10-20T12:01:33Z</time><name>PT1976</name></trkpt>
<trkpt lat="53.210333" lon="-3.936163"><ele>740</ele><time>2022-10-20T12:01:36Z</time><name>PT1977</name></trkpt>
<trkpt lat="53.210321" lon="-3.936157"><ele>741</ele><time>2022-10-20T12:01:48Z</time><name>PT1978</name></trkpt>
<trkpt lat="53.210307" lon="-3.936144"><ele>741</ele><time>2022-10-20T12:01:51Z</time><name>PT1979</name></trkpt>
<trkpt lat="53.210299" lon="-3.936132"><ele>741</ele><time>2022-10-20T12:01:55Z</time><name>PT1980</name></trkpt>
<trkpt lat="53.210295" lon="-3.936134"><ele>741</ele><time>2022-10-20T12:01:58Z</time><name>PT1981</name></trkpt>
<trkpt lat="53.210282" lon="-3.936124"><ele>741</ele><time>2022-10-20T12:02:03Z</time><name>PT1982</name></trkpt>
<trkpt lat="53.210263" lon="-3.936107"><ele>741</ele><time>2022-10-20T12:02:06Z</time><name>PT1983</name></trkpt>
<trkpt lat="53.210252" lon="-3.936101"><ele>741</ele><time>2022-10-20T12:02:09Z</time><name>PT1984</name></trkpt>
<trkpt lat="53.210252" lon="-3.936100"><ele>741</ele><time>2022-10-20T12:02:12Z</time><name>PT1985</name></trkpt>
<trkpt lat="53.210225" lon="-3.936079"><ele>742</ele><time>2022-10-20T12:02:16Z</time><name>PT1986</name></trkpt>
<trkpt lat="53.210204" lon="-3.936062"><ele>742</ele><time>2022-10-20T12:02:21Z</time><name>PT1987</name></trkpt>
<trkpt lat="53.210204" lon="-3.936065"><ele>742</ele><time>2022-10-20T12:02:24Z</time><name>PT1988</name></trkpt>
<trkpt lat="53.210187" lon="-3.936057"><ele>743</ele><time>2022-10-20T12:02:27Z</time><name>PT1989</name></trkpt>
<trkpt lat="53.210162" lon="-3.936031"><ele>743</ele><time>2022-10-20T12:02:30Z</time><name>PT1990</name></trkpt>
<trkpt lat="53.210137" lon="-3.936004"><ele>744</ele><time>2022-10-20T12:02:34Z</time><name>PT1991</name></trkpt>
<trkpt lat="53.210089" lon="-3.935991"><ele>744</ele><time>2022-10-20T12:02:37Z</time><name>PT1992</name></trkpt>
<trkpt lat="53.210071" lon="-3.935979"><ele>745</ele><time>2022-10-20T12:02:40Z</time><name>PT1993</name></trkpt>
<trkpt lat="53.210027" lon="-3.935973"><ele>746</ele><time>2022-10-20T12:02:43Z</time><name>PT1994</name></trkpt>
<trkpt lat="53.209983" lon="-3.935967"><ele>746</ele><time>2022-10-20T12:02:48Z</time><name>PT1995</name></trkpt>
<trkpt lat="53.209949" lon="-3.935960"><ele>746</ele><time>2022-10-20T12:02:51Z</time><name>PT1996</name></trkpt>
<trkpt lat="53.209933" lon="-3.935961"><ele>747</ele><time>2022-10-20T12:02:54Z</time><name>PT1997</name></trkpt>
<trkpt lat="53.209930" lon="-3.935962"><ele>747</ele><time>2022-10-20T12:02:58Z</time><name>PT1998</name></trkpt>
<trkpt lat="53.209930" lon="-3.935965"><ele>747</ele><time>2022-10-20T12:03:03Z</time><name>PT1999</name></trkpt>
<trkpt lat="53.209947" lon="-3.935963"><ele>747</ele><time>2022-10-20T12:03:06Z</time><name>PT2000</name></trkpt>
<trkpt lat="53.209974" lon="-3.935958"><ele>747</ele><time>2022-10-20T12:03:09Z</time><name>PT2001</name></trkpt>
<trkpt lat="53.209970" lon="-3.935948"><ele>746</ele><time>2022-10-20T12:03:12Z</time><name>PT2002</name></trkpt>
<trkpt lat="53.209944" lon="-3.935949"><ele>746</ele><time>2022-10-20T12:03:15Z</time><name>PT2003</name></trkpt>
<trkpt lat="53.209903" lon="-3.935953"><ele>746</ele><time>2022-10-20T12:03:19Z</time><name>PT2004</name></trkpt>
<trkpt lat="53.209878" lon="-3.935936"><ele>747</ele><time>2022-10-20T12:03:24Z</time><name>PT2005</name></trkpt>
<trkpt lat="53.209853" lon="-3.935911"><ele>748</ele><time>2022-10-20T12:03:27Z</time><name>PT2006</name></trkpt>
<trkpt lat="53.209827" lon="-3.935891"><ele>748</ele><time>2022-10-20T12:03:30Z</time><name>PT2007</name></trkpt>
<trkpt lat="53.209803" lon="-3.935868"><ele>749</ele><time>2022-10-20T12:03:34Z</time><name>PT2008</name></trkpt>
<trkpt lat="53.209779" lon="-3.935833"><ele>750</ele><time>2022-10-20T12:03:39Z</time><name>PT2009</name></trkpt>
<trkpt lat="53.209760" lon="-3.935816"><ele>750</ele><time>2022-10-20T12:03:42Z</time><name>PT2010</name></trkpt>
<trkpt lat="53.209730" lon="-3.935799"><ele>751</ele><time>2022-10-20T12:03:45Z</time><name>PT2011</name></trkpt>
<trkpt lat="53.209708" lon="-3.935790"><ele>752</ele><time>2022-10-20T12:03:49Z</time><name>PT2012</name></trkpt>
<trkpt lat="53.209679" lon="-3.935782"><ele>753</ele><time>2022-10-20T12:03:54Z</time><name>PT2013</name></trkpt>
<trkpt lat="53.209656" lon="-3.935775"><ele>753</ele><time>2022-10-20T12:03:57Z</time><name>PT2014</name></trkpt>
<trkpt lat="53.209635" lon="-3.935772"><ele>754</ele><time>2022-10-20T12:04:00Z</time><name>PT2015</name></trkpt>
<trkpt lat="53.209601" lon="-3.935758"><ele>754</ele><time>2022-10-20T12:04:03Z</time><name>PT2016</name></trkpt>
<trkpt lat="53.209571" lon="-3.935753"><ele>754</ele><time>2022-10-20T12:04:06Z</time><name>PT2017</name></trkpt>
<trkpt lat="53.209549" lon="-3.935745"><ele>755</ele><time>2022-10-20T12:04:09Z</time><name>PT2018</name></trkpt>
<trkpt lat="53.209523" lon="-3.935747"><ele>755</ele><time>2022-10-20T12:04:13Z</time><name>PT2019</name></trkpt>
<trkpt lat="53.209500" lon="-3.935723"><ele>755</ele><time>2022-10-20T12:04:18Z</time><name>PT2020</name></trkpt>
<trkpt lat="53.209477" lon="-3.935718"><ele>756</ele><time>2022-10-20T12:04:21Z</time><name>PT2021</name></trkpt>
<trkpt lat="53.209451" lon="-3.935717"><ele>757</ele><time>2022-10-20T12:04:24Z</time><name>PT2022</name></trkpt>
<trkpt lat="53.209408" lon="-3.935701"><ele>759</ele><time>2022-10-20T12:04:27Z</time><name>PT2023</name></trkpt>
<trkpt lat="53.209381" lon="-3.935701"><ele>760</ele><time>2022-10-20T12:04:31Z</time><name>PT2024</name></trkpt>
<trkpt lat="53.209353" lon="-3.935699"><ele>760</ele><time>2022-10-20T12:04:34Z</time><name>PT2025</name></trkpt>
<trkpt lat="53.209322" lon="-3.935701"><ele>762</ele><time>2022-10-20T12:04:37Z</time><name>PT2026</name></trkpt>
<trkpt lat="53.209288" lon="-3.935692"><ele>763</ele><time>2022-10-20T12:04:42Z</time><name>PT2027</name></trkpt>
<trkpt lat="53.209262" lon="-3.935695"><ele>764</ele><time>2022-10-20T12:04:45Z</time><name>PT2028</name></trkpt>
<trkpt lat="53.209234" lon="-3.935688"><ele>764</ele><time>2022-10-20T12:04:48Z</time><name>PT2029</name></trkpt>
<trkpt lat="53.209202" lon="-3.935686"><ele>764</ele><time>2022-10-20T12:04:51Z</time><name>PT2030</name></trkpt>
<trkpt lat="53.209156" lon="-3.935680"><ele>765</ele><time>2022-10-20T12:04:54Z</time><name>PT2031</name></trkpt>
<trkpt lat="53.209110" lon="-3.935684"><ele>765</ele><time>2022-10-20T12:04:58Z</time><name>PT2032</name></trkpt>
<trkpt lat="53.209068" lon="-3.935685"><ele>765</ele><time>2022-10-20T12:05:03Z</time><name>PT2033</name></trkpt>
<trkpt lat="53.209025" lon="-3.935679"><ele>766</ele><time>2022-10-20T12:05:06Z</time><name>PT2034</name></trkpt>
<trkpt lat="53.208979" lon="-3.935692"><ele>766</ele><time>2022-10-20T12:05:10Z</time><name>PT2035</name></trkpt>
<trkpt lat="53.208949" lon="-3.935708"><ele>766</ele><time>2022-10-20T12:05:13Z</time><name>PT2036</name></trkpt>
<trkpt lat="53.208921" lon="-3.935703"><ele>766</ele><time>2022-10-20T12:05:16Z</time><name>PT2037</name></trkpt>
<trkpt lat="53.208897" lon="-3.935701"><ele>765</ele><time>2022-10-20T12:05:19Z</time><name>PT2038</name></trkpt>
<trkpt lat="53.208873" lon="-3.935683"><ele>765</ele><time>2022-10-20T12:05:24Z</time><name>PT2039</name></trkpt>
<trkpt lat="53.208849" lon="-3.935662"><ele>765</ele><time>2022-10-20T12:05:27Z</time><name>PT2040</name></trkpt>
<trkpt lat="53.208807" lon="-3.935679"><ele>765</ele><time>2022-10-20T12:05:31Z</time><name>PT2041</name></trkpt>
<trkpt lat="53.208777" lon="-3.935669"><ele>765</ele><time>2022-10-20T12:05:34Z</time><name>PT2042</name></trkpt>
<trkpt lat="53.208750" lon="-3.935648"><ele>765</ele><time>2022-10-20T12:05:37Z</time><name>PT2043</name></trkpt>
<trkpt lat="53.208725" lon="-3.935640"><ele>766</ele><time>2022-10-20T12:05:40Z</time><name>PT2044</name></trkpt>
<trkpt lat="53.208700" lon="-3.935633"><ele>766</ele><time>2022-10-20T12:05:45Z</time><name>PT2045</name></trkpt>
<trkpt lat="53.208678" lon="-3.935625"><ele>766</ele><time>2022-10-20T12:05:48Z</time><name>PT2046</name></trkpt>
<trkpt lat="53.208652" lon="-3.935622"><ele>767</ele><time>2022-10-20T12:05:51Z</time><name>PT2047</name></trkpt>
<trkpt lat="53.208629" lon="-3.935622"><ele>767</ele><time>2022-10-20T12:05:54Z</time><name>PT2048</name></trkpt>
<trkpt lat="53.208597" lon="-3.935617"><ele>768</ele><time>2022-10-20T12:05:57Z</time><name>PT2049</name></trkpt>
<trkpt lat="53.208566" lon="-3.935618"><ele>770</ele><time>2022-10-20T12:06:01Z</time><name>PT2050</name></trkpt>
<trkpt lat="53.208529" lon="-3.935608"><ele>771</ele><time>2022-10-20T12:06:06Z</time><name>PT2051</name></trkpt>
<trkpt lat="53.208489" lon="-3.935605"><ele>771</ele><time>2022-10-20T12:06:09Z</time><name>PT2052</name></trkpt>
<trkpt lat="53.208457" lon="-3.935600"><ele>771</ele><time>2022-10-20T12:06:12Z</time><name>PT2053</name></trkpt>
<trkpt lat="53.208415" lon="-3.935596"><ele>771</ele><time>2022-10-20T12:06:16Z</time><name>PT2054</name></trkpt>
<trkpt lat="53.208381" lon="-3.935588"><ele>772</ele><time>2022-10-20T12:06:19Z</time><name>PT2055</name></trkpt>
<trkpt lat="53.208333" lon="-3.935581"><ele>771</ele><time>2022-10-20T12:06:24Z</time><name>PT2056</name></trkpt>
<trkpt lat="53.208300" lon="-3.935571"><ele>771</ele><time>2022-10-20T12:06:27Z</time><name>PT2057</name></trkpt>
<trkpt lat="53.208278" lon="-3.935566"><ele>772</ele><time>2022-10-20T12:06:30Z</time><name>PT2058</name></trkpt>
<trkpt lat="53.208251" lon="-3.935567"><ele>772</ele><time>2022-10-20T12:06:33Z</time><name>PT2059</name></trkpt>
<trkpt lat="53.208210" lon="-3.935569"><ele>772</ele><time>2022-10-20T12:06:36Z</time><name>PT2060</name></trkpt>
<trkpt lat="53.208173" lon="-3.935571"><ele>773</ele><time>2022-10-20T12:06:39Z</time><name>PT2061</name></trkpt>
<trkpt lat="53.208142" lon="-3.935565"><ele>773</ele><time>2022-10-20T12:06:42Z</time><name>PT2062</name></trkpt>
<trkpt lat="53.208107" lon="-3.935564"><ele>772</ele><time>2022-10-20T12:06:45Z</time><name>PT2063</name></trkpt>
<trkpt lat="53.208078" lon="-3.935562"><ele>773</ele><time>2022-10-20T12:06:48Z</time><name>PT2064</name></trkpt>
<trkpt lat="53.208036" lon="-3.935556"><ele>774</ele><time>2022-10-20T12:06:53Z</time><name>PT2065</name></trkpt>
<trkpt lat="53.208009" lon="-3.935553"><ele>774</ele><time>2022-10-20T12:06:56Z</time><name>PT2066</name></trkpt>
<trkpt lat="53.207972" lon="-3.935543"><ele>776</ele><time>2022-10-20T12:06:59Z</time><name>PT2067</name></trkpt>
<trkpt lat="53.207946" lon="-3.935535"><ele>778</ele><time>2022-10-20T12:07:03Z</time><name>PT2068</name></trkpt>
<trkpt lat="53.207911" lon="-3.935532"><ele>779</ele><time>2022-10-20T12:07:08Z</time><name>PT2069</name></trkpt>
<trkpt lat="53.207880" lon="-3.935532"><ele>781</ele><time>2022-10-20T12:07:11Z</time><name>PT2070</name></trkpt>
<trkpt lat="53.207857" lon="-3.935531"><ele>781</ele><time>2022-10-20T12:07:14Z</time><name>PT2071</name></trkpt>
<trkpt lat="53.207822" lon="-3.935533"><ele>782</ele><time>2022-10-20T12:07:18Z</time><name>PT2072</name></trkpt>
<trkpt lat="53.207800" lon="-3.935534"><ele>783</ele><time>2022-10-20T12:07:21Z</time><name>PT2073</name></trkpt>
<trkpt lat="53.207756" lon="-3.935539"><ele>782</ele><time>2022-10-20T12:07:26Z</time><name>PT2074</name></trkpt>
<trkpt lat="53.207723" lon="-3.935538"><ele>782</ele><time>2022-10-20T12:07:29Z</time><name>PT2075</name></trkpt>
<trkpt lat="53.207689" lon="-3.935542"><ele>782</ele><time>2022-10-20T12:07:32Z</time><name>PT2076</name></trkpt>
<trkpt lat="53.207654" lon="-3.935537"><ele>781</ele><time>2022-10-20T12:07:35Z</time><name>PT2077</name></trkpt>
<trkpt lat="53.207615" lon="-3.935518"><ele>778</ele><time>2022-10-20T12:07:38Z</time><name>PT2078</name></trkpt>
<trkpt lat="53.207619" lon="-3.935494"><ele>778</ele><time>2022-10-20T12:07:42Z</time><name>PT2079</name></trkpt>
<trkpt lat="53.207622" lon="-3.935464"><ele>779</ele><time>2022-10-20T12:07:45Z</time><name>PT2080</name></trkpt>
<trkpt lat="53.207624" lon="-3.935421"><ele>780</ele><time>2022-10-20T12:07:48Z</time><name>PT2081</name></trkpt>
<trkpt lat="53.207637" lon="-3.935402"><ele>781</ele><time>2022-10-20T12:07:53Z</time><name>PT2082</name></trkpt>
<trkpt lat="53.207644" lon="-3.935406"><ele>781</ele><time>2022-10-20T12:07:56Z</time><name>PT2083</name></trkpt>
<trkpt lat="53.207648" lon="-3.935410"><ele>781</ele><time>2022-10-20T12:07:59Z</time><name>PT2084</name></trkpt>
<trkpt lat="53.207652" lon="-3.935400"><ele>781</ele><time>2022-10-20T12:08:02Z</time><name>PT2085</name></trkpt>
<trkpt lat="53.207648" lon="-3.935396"><ele>781</ele><time>2022-10-20T12:08:06Z</time><name>PT2086</name></trkpt>
<trkpt lat="53.207660" lon="-3.935383"><ele>781</ele><time>2022-10-20T12:08:11Z</time><name>PT2087</name></trkpt>
<trkpt lat="53.207665" lon="-3.935377"><ele>781</ele><time>2022-10-20T12:08:14Z</time><name>PT2088</name></trkpt>
<trkpt lat="53.207668" lon="-3.935353"><ele>779</ele><time>2022-10-20T12:08:17Z</time><name>PT2089</name></trkpt>
<trkpt lat="53.207650" lon="-3.935320"><ele>778</ele><time>2022-10-20T12:08:21Z</time><name>PT2090</name></trkpt>
<trkpt lat="53.207638" lon="-3.935313"><ele>779</ele><time>2022-10-20T12:08:24Z</time><name>PT2091</name></trkpt>
<trkpt lat="53.207627" lon="-3.935316"><ele>781</ele><time>2022-10-20T12:08:29Z</time><name>PT2092</name></trkpt>
<trkpt lat="53.207614" lon="-3.935309"><ele>780</ele><time>2022-10-20T12:08:32Z</time><name>PT2093</name></trkpt>
<trkpt lat="53.207612" lon="-3.935307"><ele>780</ele><time>2022-10-20T12:08:35Z</time><name>PT2094</name></trkpt>
<trkpt lat="53.207617" lon="-3.935317"><ele>780</ele><time>2022-10-20T12:10:11Z</time><name>PT2095</name></trkpt>
<trkpt lat="53.207616" lon="-3.935319"><ele>780</ele><time>2022-10-20T12:10:14Z</time><name>PT2096</name></trkpt>
<trkpt lat="53.207619" lon="-3.935322"><ele>780</ele><time>2022-10-20T12:10:26Z</time><name>PT2097</name></trkpt>
<trkpt lat="53.207618" lon="-3.935322"><ele>779</ele><time>2022-10-20T12:10:29Z</time><name>PT2098</name></trkpt>
<trkpt lat="53.207615" lon="-3.935331"><ele>780</ele><time>2022-10-20T12:10:35Z</time><name>PT2099</name></trkpt>
<trkpt lat="53.207632" lon="-3.935321"><ele>779</ele><time>2022-10-20T12:10:39Z</time><name>PT2100</name></trkpt>
<trkpt lat="53.207625" lon="-3.935329"><ele>779</ele><time>2022-10-20T12:10:42Z</time><name>PT2101</name></trkpt>
<trkpt lat="53.207622" lon="-3.935329"><ele>778</ele><time>2022-10-20T12:10:47Z</time><name>PT2102</name></trkpt>
<trkpt lat="53.207623" lon="-3.935328"><ele>778</ele><time>2022-10-20T12:16:59Z</time><name>PT2103</name></trkpt>
<trkpt lat="53.207637" lon="-3.935300"><ele>777</ele><time>2022-10-20T12:17:20Z</time><name>PT2104</name></trkpt>
<trkpt lat="53.207646" lon="-3.935282"><ele>778</ele><time>2022-10-20T12:17:23Z</time><name>PT2105</name></trkpt>
<trkpt lat="53.207659" lon="-3.935300"><ele>777</ele><time>2022-10-20T12:17:26Z</time><name>PT2106</name></trkpt>
<trkpt lat="53.207662" lon="-3.935354"><ele>776</ele><time>2022-10-20T12:17:29Z</time><name>PT2107</name></trkpt>
<trkpt lat="53.207655" lon="-3.935400"><ele>776</ele><time>2022-10-20T12:17:33Z</time><name>PT2108</name></trkpt>
<trkpt lat="53.207634" lon="-3.935449"><ele>777</ele><time>2022-10-20T12:17:38Z</time><name>PT2109</name></trkpt>
<trkpt lat="53.207615" lon="-3.935473"><ele>777</ele><time>2022-10-20T12:17:41Z</time><name>PT2110</name></trkpt>
<trkpt lat="53.207606" lon="-3.935497"><ele>776</ele><time>2022-10-20T12:17:44Z</time><name>PT2111</name></trkpt>
<trkpt lat="53.207593" lon="-3.935535"><ele>776</ele><time>2022-10-20T12:17:47Z</time><name>PT2112</name></trkpt>
<trkpt lat="53.207573" lon="-3.935574"><ele>776</ele><time>2022-10-20T12:17:51Z</time><name>PT2113</name></trkpt>
<trkpt lat="53.207538" lon="-3.935612"><ele>776</ele><time>2022-10-20T12:17:56Z</time><name>PT2114</name></trkpt>
<trkpt lat="53.207503" lon="-3.935636"><ele>776</ele><time>2022-10-20T12:17:59Z</time><name>PT2115</name></trkpt>
<trkpt lat="53.207462" lon="-3.935662"><ele>776</ele><time>2022-10-20T12:18:02Z</time><name>PT2116</name></trkpt>
<trkpt lat="53.207433" lon="-3.935687"><ele>777</ele><time>2022-10-20T12:18:05Z</time><name>PT2117</name></trkpt>
<trkpt lat="53.207401" lon="-3.935707"><ele>776</ele><time>2022-10-20T12:18:08Z</time><name>PT2118</name></trkpt>
<trkpt lat="53.207361" lon="-3.935728"><ele>775</ele><time>2022-10-20T12:18:12Z</time><name>PT2119</name></trkpt>
<trkpt lat="53.207332" lon="-3.935734"><ele>775</ele><time>2022-10-20T12:18:15Z</time><name>PT2120</name></trkpt>
<trkpt lat="53.207307" lon="-3.935748"><ele>774</ele><time>2022-10-20T12:18:18Z</time><name>PT2121</name></trkpt>
<trkpt lat="53.207277" lon="-3.935762"><ele>775</ele><time>2022-10-20T12:18:23Z</time><name>PT2122</name></trkpt>
<trkpt lat="53.207237" lon="-3.935783"><ele>772</ele><time>2022-10-20T12:18:26Z</time><name>PT2123</name></trkpt>
<trkpt lat="53.207210" lon="-3.935802"><ele>771</ele><time>2022-10-20T12:18:29Z</time><name>PT2124</name></trkpt>
<trkpt lat="53.207176" lon="-3.935812"><ele>771</ele><time>2022-10-20T12:18:32Z</time><name>PT2125</name></trkpt>
<trkpt lat="53.207148" lon="-3.935831"><ele>770</ele><time>2022-10-20T12:18:35Z</time><name>PT2126</name></trkpt>
<trkpt lat="53.207114" lon="-3.935841"><ele>769</ele><time>2022-10-20T12:18:38Z</time><name>PT2127</name></trkpt>
<trkpt lat="53.207071" lon="-3.935860"><ele>768</ele><time>2022-10-20T12:18:42Z</time><name>PT2128</name></trkpt>
<trkpt lat="53.207027" lon="-3.935877"><ele>768</ele><time>2022-10-20T12:18:47Z</time><name>PT2129</name></trkpt>
<trkpt lat="53.206993" lon="-3.935891"><ele>768</ele><time>2022-10-20T12:18:50Z</time><name>PT2130</name></trkpt>
<trkpt lat="53.206950" lon="-3.935916"><ele>767</ele><time>2022-10-20T12:18:53Z</time><name>PT2131</name></trkpt>
<trkpt lat="53.206906" lon="-3.935931"><ele>767</ele><time>2022-10-20T12:18:57Z</time><name>PT2132</name></trkpt>
<trkpt lat="53.206871" lon="-3.935953"><ele>767</ele><time>2022-10-20T12:19:00Z</time><name>PT2133</name></trkpt>
<trkpt lat="53.206834" lon="-3.935963"><ele>767</ele><time>2022-10-20T12:19:03Z</time><name>PT2134</name></trkpt>
<trkpt lat="53.206799" lon="-3.935970"><ele>767</ele><time>2022-10-20T12:19:06Z</time><name>PT2135</name></trkpt>
<trkpt lat="53.206745" lon="-3.935967"><ele>766</ele><time>2022-10-20T12:19:11Z</time><name>PT2136</name></trkpt>
<trkpt lat="53.206713" lon="-3.935969"><ele>766</ele><time>2022-10-20T12:19:14Z</time><name>PT2137</name></trkpt>
<trkpt lat="53.206669" lon="-3.935966"><ele>767</ele><time>2022-10-20T12:19:17Z</time><name>PT2138</name></trkpt>
<trkpt lat="53.206628" lon="-3.935987"><ele>766</ele><time>2022-10-20T12:19:21Z</time><name>PT2139</name></trkpt>
<trkpt lat="53.206591" lon="-3.936017"><ele>767</ele><time>2022-10-20T12:19:26Z</time><name>PT2140</name></trkpt>
<trkpt lat="53.206556" lon="-3.936062"><ele>767</ele><time>2022-10-20T12:19:29Z</time><name>PT2141</name></trkpt>
<trkpt lat="53.206524" lon="-3.936120"><ele>767</ele><time>2022-10-20T12:19:33Z</time><name>PT2142</name></trkpt>
<trkpt lat="53.206493" lon="-3.936162"><ele>765</ele><time>2022-10-20T12:19:36Z</time><name>PT2143</name></trkpt>
<trkpt lat="53.206467" lon="-3.936207"><ele>764</ele><time>2022-10-20T12:19:39Z</time><name>PT2144</name></trkpt>
<trkpt lat="53.206434" lon="-3.936232"><ele>764</ele><time>2022-10-20T12:19:42Z</time><name>PT2145</name></trkpt>
<trkpt lat="53.206393" lon="-3.936273"><ele>763</ele><time>2022-10-20T12:19:47Z</time><name>PT2146</name></trkpt>
<trkpt lat="53.206358" lon="-3.936290"><ele>762</ele><time>2022-10-20T12:19:50Z</time><name>PT2147</name></trkpt>
<trkpt lat="53.206328" lon="-3.936303"><ele>763</ele><time>2022-10-20T12:19:53Z</time><name>PT2148</name></trkpt>
<trkpt lat="53.206273" lon="-3.936313"><ele>762</ele><time>2022-10-20T12:19:56Z</time><name>PT2149</name></trkpt>
<trkpt lat="53.206242" lon="-3.936328"><ele>762</ele><time>2022-10-20T12:19:59Z</time><name>PT2150</name></trkpt>
<trkpt lat="53.206200" lon="-3.936338"><ele>762</ele><time>2022-10-20T12:20:03Z</time><name>PT2151</name></trkpt>
<trkpt lat="53.206173" lon="-3.936349"><ele>762</ele><time>2022-10-20T12:20:06Z</time><name>PT2152</name></trkpt>
<trkpt lat="53.206137" lon="-3.936358"><ele>761</ele><time>2022-10-20T12:20:09Z</time><name>PT2153</name></trkpt>
<trkpt lat="53.206088" lon="-3.936367"><ele>760</ele><time>2022-10-20T12:20:14Z</time><name>PT2154</name></trkpt>
<trkpt lat="53.206037" lon="-3.936376"><ele>760</ele><time>2022-10-20T12:20:17Z</time><name>PT2155</name></trkpt>
<trkpt lat="53.206010" lon="-3.936390"><ele>759</ele><time>2022-10-20T12:20:20Z</time><name>PT2156</name></trkpt>
<trkpt lat="53.205964" lon="-3.936414"><ele>760</ele><time>2022-10-20T12:20:24Z</time><name>PT2157</name></trkpt>
<trkpt lat="53.205935" lon="-3.936425"><ele>760</ele><time>2022-10-20T12:20:27Z</time><name>PT2158</name></trkpt>
<trkpt lat="53.205888" lon="-3.936454"><ele>760</ele><time>2022-10-20T12:20:32Z</time><name>PT2159</name></trkpt>
<trkpt lat="53.205853" lon="-3.936487"><ele>759</ele><time>2022-10-20T12:20:35Z</time><name>PT2160</name></trkpt>
<trkpt lat="53.205808" lon="-3.936521"><ele>758</ele><time>2022-10-20T12:20:38Z</time><name>PT2161</name></trkpt>
<trkpt lat="53.205775" lon="-3.936567"><ele>758</ele><time>2022-10-20T12:20:42Z</time><name>PT2162</name></trkpt>
<trkpt lat="53.205742" lon="-3.936599"><ele>757</ele><time>2022-10-20T12:20:47Z</time><name>PT2163</name></trkpt>
<trkpt lat="53.205713" lon="-3.936622"><ele>756</ele><time>2022-10-20T12:20:50Z</time><name>PT2164</name></trkpt>
<trkpt lat="53.205681" lon="-3.936635"><ele>756</ele><time>2022-10-20T12:20:53Z</time><name>PT2165</name></trkpt>
<trkpt lat="53.205655" lon="-3.936655"><ele>757</ele><time>2022-10-20T12:20:56Z</time><name>PT2166</name></trkpt>
<trkpt lat="53.205619" lon="-3.936676"><ele>757</ele><time>2022-10-20T12:20:59Z</time><name>PT2167</name></trkpt>
<trkpt lat="53.205576" lon="-3.936660"><ele>757</ele><time>2022-10-20T12:21:03Z</time><name>PT2168</name></trkpt>
<trkpt lat="53.205565" lon="-3.936659"><ele>757</ele><time>2022-10-20T12:21:06Z</time><name>PT2169</name></trkpt>
<trkpt lat="53.205539" lon="-3.936672"><ele>756</ele><time>2022-10-20T12:21:09Z</time><name>PT2170</name></trkpt>
<trkpt lat="53.205514" lon="-3.936691"><ele>756</ele><time>2022-10-20T12:21:12Z</time><name>PT2171</name></trkpt>
<trkpt lat="53.205485" lon="-3.936736"><ele>754</ele><time>2022-10-20T12:21:17Z</time><name>PT2172</name></trkpt>
<trkpt lat="53.205458" lon="-3.936742"><ele>754</ele><time>2022-10-20T12:21:20Z</time><name>PT2173</name></trkpt>
<trkpt lat="53.205449" lon="-3.936757"><ele>753</ele><time>2022-10-20T12:21:23Z</time><name>PT2174</name></trkpt>
<trkpt lat="53.205426" lon="-3.936790"><ele>753</ele><time>2022-10-20T12:21:26Z</time><name>PT2175</name></trkpt>
<trkpt lat="53.205385" lon="-3.936834"><ele>752</ele><time>2022-10-20T12:21:30Z</time><name>PT2176</name></trkpt>
<trkpt lat="53.205345" lon="-3.936872"><ele>751</ele><time>2022-10-20T12:21:35Z</time><name>PT2177</name></trkpt>
<trkpt lat="53.205320" lon="-3.936894"><ele>750</ele><time>2022-10-20T12:21:38Z</time><name>PT2178</name></trkpt>
<trkpt lat="53.205284" lon="-3.936924"><ele>750</ele><time>2022-10-20T12:21:41Z</time><name>PT2179</name></trkpt>
<trkpt lat="53.205254" lon="-3.936941"><ele>751</ele><time>2022-10-20T12:21:44Z</time><name>PT2180</name></trkpt>
<trkpt lat="53.205218" lon="-3.936959"><ele>750</ele><time>2022-10-20T12:21:47Z</time><name>PT2181</name></trkpt>
<trkpt lat="53.205178" lon="-3.936984"><ele>750</ele><time>2022-10-20T12:21:51Z</time><name>PT2182</name></trkpt>
<trkpt lat="53.205143" lon="-3.936995"><ele>750</ele><time>2022-10-20T12:21:54Z</time><name>PT2183</name></trkpt>
<trkpt lat="53.205111" lon="-3.936983"><ele>751</ele><time>2022-10-20T12:21:59Z</time><name>PT2184</name></trkpt>
<trkpt lat="53.205083" lon="-3.936971"><ele>750</ele><time>2022-10-20T12:22:02Z</time><name>PT2185</name></trkpt>
<trkpt lat="53.205049" lon="-3.936959"><ele>750</ele><time>2022-10-20T12:22:05Z</time><name>PT2186</name></trkpt>
<trkpt lat="53.205008" lon="-3.936938"><ele>749</ele><time>2022-10-20T12:22:08Z</time><name>PT2187</name></trkpt>
<trkpt lat="53.204979" lon="-3.936932"><ele>749</ele><time>2022-10-20T12:22:11Z</time><name>PT2188</name></trkpt>
<trkpt lat="53.204952" lon="-3.936936"><ele>749</ele><time>2022-10-20T12:22:15Z</time><name>PT2189</name></trkpt>
<trkpt lat="53.204927" lon="-3.936953"><ele>747</ele><time>2022-10-20T12:22:20Z</time><name>PT2190</name></trkpt>
<trkpt lat="53.204904" lon="-3.936956"><ele>747</ele><time>2022-10-20T12:22:23Z</time><name>PT2191</name></trkpt>
<trkpt lat="53.204906" lon="-3.936957"><ele>748</ele><time>2022-10-20T12:22:26Z</time><name>PT2192</name></trkpt>
<trkpt lat="53.204891" lon="-3.936956"><ele>748</ele><time>2022-10-20T12:22:33Z</time><name>PT2193</name></trkpt>
<trkpt lat="53.204854" lon="-3.936963"><ele>747</ele><time>2022-10-20T12:22:36Z</time><name>PT2194</name></trkpt>
<trkpt lat="53.204821" lon="-3.936982"><ele>746</ele><time>2022-10-20T12:22:39Z</time><name>PT2195</name></trkpt>
<trkpt lat="53.204786" lon="-3.937005"><ele>746</ele><time>2022-10-20T12:22:44Z</time><name>PT2196</name></trkpt>
<trkpt lat="53.204743" lon="-3.937016"><ele>745</ele><time>2022-10-20T12:22:47Z</time><name>PT2197</name></trkpt>
<trkpt lat="53.204708" lon="-3.937027"><ele>745</ele><time>2022-10-20T12:22:50Z</time><name>PT2198</name></trkpt>
<trkpt lat="53.204666" lon="-3.937045"><ele>743</ele><time>2022-10-20T12:22:53Z</time><name>PT2199</name></trkpt>
<trkpt lat="53.204638" lon="-3.937049"><ele>744</ele><time>2022-10-20T12:22:57Z</time><name>PT2200</name></trkpt>
<trkpt lat="53.204632" lon="-3.937047"><ele>744</ele><time>2022-10-20T12:23:02Z</time><name>PT2201</name></trkpt>
<trkpt lat="53.204603" lon="-3.937047"><ele>743</ele><time>2022-10-20T12:23:05Z</time><name>PT2202</name></trkpt>
<trkpt lat="53.204574" lon="-3.937060"><ele>743</ele><time>2022-10-20T12:23:08Z</time><name>PT2203</name></trkpt>
<trkpt lat="53.204532" lon="-3.937061"><ele>743</ele><time>2022-10-20T12:23:11Z</time><name>PT2204</name></trkpt>
<trkpt lat="53.204490" lon="-3.937069"><ele>743</ele><time>2022-10-20T12:23:15Z</time><name>PT2205</name></trkpt>
<trkpt lat="53.204460" lon="-3.937064"><ele>743</ele><time>2022-10-20T12:23:18Z</time><name>PT2206</name></trkpt>
<trkpt lat="53.204415" lon="-3.937073"><ele>743</ele><time>2022-10-20T12:23:23Z</time><name>PT2207</name></trkpt>
<trkpt lat="53.204375" lon="-3.937082"><ele>742</ele><time>2022-10-20T12:23:26Z</time><name>PT2208</name></trkpt>
<trkpt lat="53.204335" lon="-3.937097"><ele>741</ele><time>2022-10-20T12:23:30Z</time><name>PT2209</name></trkpt>
<trkpt lat="53.204292" lon="-3.937119"><ele>740</ele><time>2022-10-20T12:23:35Z</time><name>PT2210</name></trkpt>
<trkpt lat="53.204252" lon="-3.937144"><ele>738</ele><time>2022-10-20T12:23:38Z</time><name>PT2211</name></trkpt>
<trkpt lat="53.204210" lon="-3.937163"><ele>737</ele><time>2022-10-20T12:23:42Z</time><name>PT2212</name></trkpt>
<trkpt lat="53.204184" lon="-3.937168"><ele>737</ele><time>2022-10-20T12:23:47Z</time><name>PT2213</name></trkpt>
<trkpt lat="53.204162" lon="-3.937171"><ele>736</ele><time>2022-10-20T12:23:50Z</time><name>PT2214</name></trkpt>
<trkpt lat="53.204120" lon="-3.937170"><ele>736</ele><time>2022-10-20T12:23:53Z</time><name>PT2215</name></trkpt>
<trkpt lat="53.204078" lon="-3.937175"><ele>735</ele><time>2022-10-20T12:23:57Z</time><name>PT2216</name></trkpt>
<trkpt lat="53.204035" lon="-3.937180"><ele>735</ele><time>2022-10-20T12:24:02Z</time><name>PT2217</name></trkpt>
<trkpt lat="53.204007" lon="-3.937185"><ele>736</ele><time>2022-10-20T12:24:05Z</time><name>PT2218</name></trkpt>
<trkpt lat="53.203971" lon="-3.937208"><ele>735</ele><time>2022-10-20T12:24:08Z</time><name>PT2219</name></trkpt>
<trkpt lat="53.203945" lon="-3.937246"><ele>735</ele><time>2022-10-20T12:24:11Z</time><name>PT2220</name></trkpt>
<trkpt lat="53.203916" lon="-3.937276"><ele>735</ele><time>2022-10-20T12:24:15Z</time><name>PT2221</name></trkpt>
<trkpt lat="53.203890" lon="-3.937314"><ele>735</ele><time>2022-10-20T12:24:20Z</time><name>PT2222</name></trkpt>
<trkpt lat="53.203868" lon="-3.937343"><ele>736</ele><time>2022-10-20T12:24:23Z</time><name>PT2223</name></trkpt>
<trkpt lat="53.203837" lon="-3.937378"><ele>736</ele><time>2022-10-20T12:24:26Z</time><name>PT2224</name></trkpt>
<trkpt lat="53.203813" lon="-3.937411"><ele>736</ele><time>2022-10-20T12:24:29Z</time><name>PT2225</name></trkpt>
<trkpt lat="53.203778" lon="-3.937441"><ele>736</ele><time>2022-10-20T12:24:33Z</time><name>PT2226</name></trkpt>
<trkpt lat="53.203745" lon="-3.937482"><ele>735</ele><time>2022-10-20T12:24:38Z</time><name>PT2227</name></trkpt>
<trkpt lat="53.203714" lon="-3.937519"><ele>735</ele><time>2022-10-20T12:24:41Z</time><name>PT2228</name></trkpt>
<trkpt lat="53.203671" lon="-3.937556"><ele>735</ele><time>2022-10-20T12:24:44Z</time><name>PT2229</name></trkpt>
<trkpt lat="53.203632" lon="-3.937566"><ele>735</ele><time>2022-10-20T12:24:47Z</time><name>PT2230</name></trkpt>
<trkpt lat="53.203583" lon="-3.937581"><ele>735</ele><time>2022-10-20T12:24:51Z</time><name>PT2231</name></trkpt>
<trkpt lat="53.203545" lon="-3.937584"><ele>735</ele><time>2022-10-20T12:24:54Z</time><name>PT2232</name></trkpt>
<trkpt lat="53.203502" lon="-3.937587"><ele>735</ele><time>2022-10-20T12:24:59Z</time><name>PT2233</name></trkpt>
<trkpt lat="53.203476" lon="-3.937598"><ele>736</ele><time>2022-10-20T12:25:02Z</time><name>PT2234</name></trkpt>
<trkpt lat="53.203451" lon="-3.937619"><ele>736</ele><time>2022-10-20T12:25:05Z</time><name>PT2235</name></trkpt>
<trkpt lat="53.203415" lon="-3.937648"><ele>736</ele><time>2022-10-20T12:25:08Z</time><name>PT2236</name></trkpt>
<trkpt lat="53.203373" lon="-3.937672"><ele>736</ele><time>2022-10-20T12:25:12Z</time><name>PT2237</name></trkpt>
<trkpt lat="53.203322" lon="-3.937696"><ele>735</ele><time>2022-10-20T12:25:17Z</time><name>PT2238</name></trkpt>
<trkpt lat="53.203283" lon="-3.937725"><ele>735</ele><time>2022-10-20T12:25:20Z</time><name>PT2239</name></trkpt>
<trkpt lat="53.203241" lon="-3.937763"><ele>735</ele><time>2022-10-20T12:25:24Z</time><name>PT2240</name></trkpt>
<trkpt lat="53.203211" lon="-3.937804"><ele>735</ele><time>2022-10-20T12:25:29Z</time><name>PT2241</name></trkpt>
<trkpt lat="53.203174" lon="-3.937826"><ele>735</ele><time>2022-10-20T12:25:32Z</time><name>PT2242</name></trkpt>
<trkpt lat="53.203143" lon="-3.937860"><ele>734</ele><time>2022-10-20T12:25:35Z</time><name>PT2243</name></trkpt>
<trkpt lat="53.203115" lon="-3.937887"><ele>735</ele><time>2022-10-20T12:25:38Z</time><name>PT2244</name></trkpt>
<trkpt lat="53.203077" lon="-3.937928"><ele>735</ele><time>2022-10-20T12:25:41Z</time><name>PT2245</name></trkpt>
<trkpt lat="53.203042" lon="-3.937971"><ele>735</ele><time>2022-10-20T12:25:45Z</time><name>PT2246</name></trkpt>
<trkpt lat="53.203014" lon="-3.938009"><ele>735</ele><time>2022-10-20T12:25:48Z</time><name>PT2247</name></trkpt>
<trkpt lat="53.202988" lon="-3.938051"><ele>736</ele><time>2022-10-20T12:25:51Z</time><name>PT2248</name></trkpt>
<trkpt lat="53.202959" lon="-3.938072"><ele>736</ele><time>2022-10-20T12:25:54Z</time><name>PT2249</name></trkpt>
<trkpt lat="53.202906" lon="-3.938099"><ele>734</ele><time>2022-10-20T12:25:59Z</time><name>PT2250</name></trkpt>
<trkpt lat="53.202881" lon="-3.938116"><ele>734</ele><time>2022-10-20T12:26:02Z</time><name>PT2251</name></trkpt>
<trkpt lat="53.202833" lon="-3.938135"><ele>733</ele><time>2022-10-20T12:26:05Z</time><name>PT2252</name></trkpt>
<trkpt lat="53.202791" lon="-3.938165"><ele>733</ele><time>2022-10-20T12:26:09Z</time><name>PT2253</name></trkpt>
<trkpt lat="53.202756" lon="-3.938180"><ele>734</ele><time>2022-10-20T12:26:12Z</time><name>PT2254</name></trkpt>
<trkpt lat="53.202724" lon="-3.938195"><ele>735</ele><time>2022-10-20T12:26:15Z</time><name>PT2255</name></trkpt>
<trkpt lat="53.202684" lon="-3.938221"><ele>735</ele><time>2022-10-20T12:26:20Z</time><name>PT2256</name></trkpt>
<trkpt lat="53.202659" lon="-3.938241"><ele>735</ele><time>2022-10-20T12:26:23Z</time><name>PT2257</name></trkpt>
<trkpt lat="53.202620" lon="-3.938276"><ele>736</ele><time>2022-10-20T12:26:26Z</time><name>PT2258</name></trkpt>
<trkpt lat="53.202586" lon="-3.938291"><ele>735</ele><time>2022-10-20T12:26:29Z</time><name>PT2259</name></trkpt>
<trkpt lat="53.202543" lon="-3.938304"><ele>735</ele><time>2022-10-20T12:26:33Z</time><name>PT2260</name></trkpt>
<trkpt lat="53.202499" lon="-3.938310"><ele>735</ele><time>2022-10-20T12:26:38Z</time><name>PT2261</name></trkpt>
<trkpt lat="53.202471" lon="-3.938302"><ele>735</ele><time>2022-10-20T12:26:41Z</time><name>PT2262</name></trkpt>
<trkpt lat="53.202431" lon="-3.938308"><ele>735</ele><time>2022-10-20T12:26:44Z</time><name>PT2263</name></trkpt>
<trkpt lat="53.202395" lon="-3.938303"><ele>735</ele><time>2022-10-20T12:26:47Z</time><name>PT2264</name></trkpt>
<trkpt lat="53.202368" lon="-3.938312"><ele>736</ele><time>2022-10-20T12:26:50Z</time><name>PT2265</name></trkpt>
<trkpt lat="53.202322" lon="-3.938343"><ele>735</ele><time>2022-10-20T12:26:54Z</time><name>PT2266</name></trkpt>
<trkpt lat="53.202293" lon="-3.938346"><ele>735</ele><time>2022-10-20T12:26:57Z</time><name>PT2267</name></trkpt>
<trkpt lat="53.202260" lon="-3.938341"><ele>735</ele><time>2022-10-20T12:27:00Z</time><name>PT2268</name></trkpt>
<trkpt lat="53.202212" lon="-3.938355"><ele>735</ele><time>2022-10-20T12:27:05Z</time><name>PT2269</name></trkpt>
<trkpt lat="53.202179" lon="-3.938355"><ele>735</ele><time>2022-10-20T12:27:08Z</time><name>PT2270</name></trkpt>
<trkpt lat="53.202141" lon="-3.938366"><ele>736</ele><time>2022-10-20T12:27:11Z</time><name>PT2271</name></trkpt>
<trkpt lat="53.202108" lon="-3.938376"><ele>736</ele><time>2022-10-20T12:27:14Z</time><name>PT2272</name></trkpt>
<trkpt lat="53.202070" lon="-3.938427"><ele>735</ele><time>2022-10-20T12:27:18Z</time><name>PT2273</name></trkpt>
<trkpt lat="53.202038" lon="-3.938460"><ele>736</ele><time>2022-10-20T12:27:23Z</time><name>PT2274</name></trkpt>
<trkpt lat="53.201986" lon="-3.938469"><ele>737</ele><time>2022-10-20T12:27:26Z</time><name>PT2275</name></trkpt>
<trkpt lat="53.201943" lon="-3.938478"><ele>737</ele><time>2022-10-20T12:27:30Z</time><name>PT2276</name></trkpt>
<trkpt lat="53.201894" lon="-3.938471"><ele>737</ele><time>2022-10-20T12:27:35Z</time><name>PT2277</name></trkpt>
<trkpt lat="53.201865" lon="-3.938482"><ele>737</ele><time>2022-10-20T12:27:38Z</time><name>PT2278</name></trkpt>
<trkpt lat="53.201826" lon="-3.938517"><ele>737</ele><time>2022-10-20T12:27:41Z</time><name>PT2279</name></trkpt>
<trkpt lat="53.201787" lon="-3.938554"><ele>737</ele><time>2022-10-20T12:27:45Z</time><name>PT2280</name></trkpt>
<trkpt lat="53.201759" lon="-3.938571"><ele>737</ele><time>2022-10-20T12:27:48Z</time><name>PT2281</name></trkpt>
<trkpt lat="53.201706" lon="-3.938592"><ele>737</ele><time>2022-10-20T12:27:53Z</time><name>PT2282</name></trkpt>
<trkpt lat="53.201667" lon="-3.938594"><ele>737</ele><time>2022-10-20T12:27:56Z</time><name>PT2283</name></trkpt>
<trkpt lat="53.201625" lon="-3.938595"><ele>737</ele><time>2022-10-20T12:27:59Z</time><name>PT2284</name></trkpt>
<trkpt lat="53.201593" lon="-3.938615"><ele>738</ele><time>2022-10-20T12:28:03Z</time><name>PT2285</name></trkpt>
<trkpt lat="53.201568" lon="-3.938638"><ele>739</ele><time>2022-10-20T12:28:06Z</time><name>PT2286</name></trkpt>
<trkpt lat="53.201539" lon="-3.938655"><ele>740</ele><time>2022-10-20T12:28:09Z</time><name>PT2287</name></trkpt>
<trkpt lat="53.201510" lon="-3.938674"><ele>740</ele><time>2022-10-20T12:28:13Z</time><name>PT2288</name></trkpt>
<trkpt lat="53.201467" lon="-3.938687"><ele>741</ele><time>2022-10-20T12:28:16Z</time><name>PT2289</name></trkpt>
<trkpt lat="53.201437" lon="-3.938702"><ele>741</ele><time>2022-10-20T12:28:19Z</time><name>PT2290</name></trkpt>
<trkpt lat="53.201396" lon="-3.938714"><ele>742</ele><time>2022-10-20T12:28:23Z</time><name>PT2291</name></trkpt>
<trkpt lat="53.201350" lon="-3.938739"><ele>742</ele><time>2022-10-20T12:28:28Z</time><name>PT2292</name></trkpt>
<trkpt lat="53.201317" lon="-3.938747"><ele>741</ele><time>2022-10-20T12:28:31Z</time><name>PT2293</name></trkpt>
<trkpt lat="53.201283" lon="-3.938765"><ele>741</ele><time>2022-10-20T12:28:34Z</time><name>PT2294</name></trkpt>
<trkpt lat="53.201241" lon="-3.938769"><ele>742</ele><time>2022-10-20T12:28:37Z</time><name>PT2295</name></trkpt>
<trkpt lat="53.201203" lon="-3.938805"><ele>741</ele><time>2022-10-20T12:28:41Z</time><name>PT2296</name></trkpt>
<trkpt lat="53.201168" lon="-3.938820"><ele>742</ele><time>2022-10-20T12:28:46Z</time><name>PT2297</name></trkpt>
<trkpt lat="53.201143" lon="-3.938819"><ele>743</ele><time>2022-10-20T12:28:49Z</time><name>PT2298</name></trkpt>
<trkpt lat="53.201107" lon="-3.938843"><ele>743</ele><time>2022-10-20T12:28:52Z</time><name>PT2299</name></trkpt>
<trkpt lat="53.201064" lon="-3.938850"><ele>743</ele><time>2022-10-20T12:28:56Z</time><name>PT2300</name></trkpt>
<trkpt lat="53.201039" lon="-3.938873"><ele>743</ele><time>2022-10-20T12:28:59Z</time><name>PT2301</name></trkpt>
<trkpt lat="53.201001" lon="-3.938897"><ele>744</ele><time>2022-10-20T12:29:04Z</time><name>PT2302</name></trkpt>
<trkpt lat="53.200973" lon="-3.938911"><ele>744</ele><time>2022-10-20T12:29:07Z</time><name>PT2303</name></trkpt>
<trkpt lat="53.200940" lon="-3.938930"><ele>743</ele><time>2022-10-20T12:29:10Z</time><name>PT2304</name></trkpt>
<trkpt lat="53.200895" lon="-3.938956"><ele>743</ele><time>2022-10-20T12:29:13Z</time><name>PT2305</name></trkpt>
<trkpt lat="53.200866" lon="-3.938968"><ele>744</ele><time>2022-10-20T12:29:16Z</time><name>PT2306</name></trkpt>
<trkpt lat="53.200823" lon="-3.938987"><ele>745</ele><time>2022-10-20T12:29:20Z</time><name>PT2307</name></trkpt>
<trkpt lat="53.200790" lon="-3.938988"><ele>745</ele><time>2022-10-20T12:29:23Z</time><name>PT2308</name></trkpt>
<trkpt lat="53.200742" lon="-3.939015"><ele>745</ele><time>2022-10-20T12:29:28Z</time><name>PT2309</name></trkpt>
<trkpt lat="53.200702" lon="-3.939051"><ele>745</ele><time>2022-10-20T12:29:31Z</time><name>PT2310</name></trkpt>
<trkpt lat="53.200678" lon="-3.939077"><ele>744</ele><time>2022-10-20T12:29:34Z</time><name>PT2311</name></trkpt>
<trkpt lat="53.200644" lon="-3.939092"><ele>745</ele><time>2022-10-20T12:29:37Z</time><name>PT2312</name></trkpt>
<trkpt lat="53.200608" lon="-3.939114"><ele>745</ele><time>2022-10-20T12:29:41Z</time><name>PT2313</name></trkpt>
<trkpt lat="53.200548" lon="-3.939152"><ele>745</ele><time>2022-10-20T12:29:46Z</time><name>PT2314</name></trkpt>
<trkpt lat="53.200521" lon="-3.939185"><ele>746</ele><time>2022-10-20T12:29:49Z</time><name>PT2315</name></trkpt>
<trkpt lat="53.200496" lon="-3.939211"><ele>745</ele><time>2022-10-20T12:29:52Z</time><name>PT2316</name></trkpt>
<trkpt lat="53.200475" lon="-3.939241"><ele>745</ele><time>2022-10-20T12:29:55Z</time><name>PT2317</name></trkpt>
<trkpt lat="53.200451" lon="-3.939253"><ele>745</ele><time>2022-10-20T12:29:58Z</time><name>PT2318</name></trkpt>
<trkpt lat="53.200416" lon="-3.939275"><ele>746</ele><time>2022-10-20T12:30:01Z</time><name>PT2319</name></trkpt>
<trkpt lat="53.200393" lon="-3.939284"><ele>747</ele><time>2022-10-20T12:30:04Z</time><name>PT2320</name></trkpt>
<trkpt lat="53.200361" lon="-3.939302"><ele>747</ele><time>2022-10-20T12:30:08Z</time><name>PT2321</name></trkpt>
<trkpt lat="53.200330" lon="-3.939337"><ele>747</ele><time>2022-10-20T12:30:13Z</time><name>PT2322</name></trkpt>
<trkpt lat="53.200310" lon="-3.939371"><ele>748</ele><time>2022-10-20T12:30:16Z</time><name>PT2323</name></trkpt>
<trkpt lat="53.200272" lon="-3.939393"><ele>748</ele><time>2022-10-20T12:30:19Z</time><name>PT2324</name></trkpt>
<trkpt lat="53.200242" lon="-3.939406"><ele>749</ele><time>2022-10-20T12:30:22Z</time><name>PT2325</name></trkpt>
<trkpt lat="53.200212" lon="-3.939392"><ele>749</ele><time>2022-10-20T12:30:25Z</time><name>PT2326</name></trkpt>
<trkpt lat="53.200182" lon="-3.939423"><ele>749</ele><time>2022-10-20T12:30:29Z</time><name>PT2327</name></trkpt>
<trkpt lat="53.200160" lon="-3.939426"><ele>749</ele><time>2022-10-20T12:30:32Z</time><name>PT2328</name></trkpt>
<trkpt lat="53.200130" lon="-3.939455"><ele>748</ele><time>2022-10-20T12:30:37Z</time><name>PT2329</name></trkpt>
<trkpt lat="53.200108" lon="-3.939489"><ele>748</ele><time>2022-10-20T12:30:40Z</time><name>PT2330</name></trkpt>
<trkpt lat="53.200076" lon="-3.939523"><ele>749</ele><time>2022-10-20T12:30:43Z</time><name>PT2331</name></trkpt>
<trkpt lat="53.200045" lon="-3.939551"><ele>750</ele><time>2022-10-20T12:30:47Z</time><name>PT2332</name></trkpt>
<trkpt lat="53.200010" lon="-3.939578"><ele>750</ele><time>2022-10-20T12:30:52Z</time><name>PT2333</name></trkpt>
<trkpt lat="53.199981" lon="-3.939608"><ele>750</ele><time>2022-10-20T12:30:55Z</time><name>PT2334</name></trkpt>
<trkpt lat="53.199950" lon="-3.939643"><ele>751</ele><time>2022-10-20T12:30:58Z</time><name>PT2335</name></trkpt>
<trkpt lat="53.199921" lon="-3.939675"><ele>752</ele><time>2022-10-20T12:31:02Z</time><name>PT2336</name></trkpt>
<trkpt lat="53.199893" lon="-3.939701"><ele>752</ele><time>2022-10-20T12:31:05Z</time><name>PT2337</name></trkpt>
<trkpt lat="53.199856" lon="-3.939735"><ele>753</ele><time>2022-10-20T12:31:10Z</time><name>PT2338</name></trkpt>
<trkpt lat="53.199837" lon="-3.939755"><ele>753</ele><time>2022-10-20T12:31:13Z</time><name>PT2339</name></trkpt>
<trkpt lat="53.199810" lon="-3.939785"><ele>754</ele><time>2022-10-20T12:31:16Z</time><name>PT2340</name></trkpt>
<trkpt lat="53.199794" lon="-3.939811"><ele>754</ele><time>2022-10-20T12:31:19Z</time><name>PT2341</name></trkpt>
<trkpt lat="53.199773" lon="-3.939836"><ele>755</ele><time>2022-10-20T12:31:23Z</time><name>PT2342</name></trkpt>
<trkpt lat="53.199755" lon="-3.939865"><ele>756</ele><time>2022-10-20T12:31:26Z</time><name>PT2343</name></trkpt>
<trkpt lat="53.199729" lon="-3.939903"><ele>757</ele><time>2022-10-20T12:31:31Z</time><name>PT2344</name></trkpt>
<trkpt lat="53.199704" lon="-3.939934"><ele>759</ele><time>2022-10-20T12:31:34Z</time><name>PT2345</name></trkpt>
<trkpt lat="53.199687" lon="-3.939942"><ele>759</ele><time>2022-10-20T12:31:37Z</time><name>PT2346</name></trkpt>
<trkpt lat="53.199658" lon="-3.939964"><ele>760</ele><time>2022-10-20T12:31:41Z</time><name>PT2347</name></trkpt>
<trkpt lat="53.199628" lon="-3.939990"><ele>760</ele><time>2022-10-20T12:31:46Z</time><name>PT2348</name></trkpt>
<trkpt lat="53.199597" lon="-3.940023"><ele>760</ele><time>2022-10-20T12:31:49Z</time><name>PT2349</name></trkpt>
<trkpt lat="53.199581" lon="-3.940046"><ele>761</ele><time>2022-10-20T12:31:52Z</time><name>PT2350</name></trkpt>
<trkpt lat="53.199562" lon="-3.940063"><ele>762</ele><time>2022-10-20T12:31:56Z</time><name>PT2351</name></trkpt>
<trkpt lat="53.199546" lon="-3.940081"><ele>762</ele><time>2022-10-20T12:31:59Z</time><name>PT2352</name></trkpt>
<trkpt lat="53.199529" lon="-3.940111"><ele>763</ele><time>2022-10-20T12:32:04Z</time><name>PT2353</name></trkpt>
<trkpt lat="53.199513" lon="-3.940131"><ele>763</ele><time>2022-10-20T12:32:07Z</time><name>PT2354</name></trkpt>
<trkpt lat="53.199497" lon="-3.940153"><ele>764</ele><time>2022-10-20T12:32:10Z</time><name>PT2355</name></trkpt>
<trkpt lat="53.199478" lon="-3.940187"><ele>764</ele><time>2022-10-20T12:32:13Z</time><name>PT2356</name></trkpt>
<trkpt lat="53.199456" lon="-3.940208"><ele>764</ele><time>2022-10-20T12:32:16Z</time><name>PT2357</name></trkpt>
<trkpt lat="53.199429" lon="-3.940233"><ele>764</ele><time>2022-10-20T12:32:20Z</time><name>PT2358</name></trkpt>
<trkpt lat="53.199406" lon="-3.940261"><ele>766</ele><time>2022-10-20T12:32:25Z</time><name>PT2359</name></trkpt>
<trkpt lat="53.199385" lon="-3.940290"><ele>767</ele><time>2022-10-20T12:32:28Z</time><name>PT2360</name></trkpt>
<trkpt lat="53.199363" lon="-3.940314"><ele>768</ele><time>2022-10-20T12:32:32Z</time><name>PT2361</name></trkpt>
<trkpt lat="53.199345" lon="-3.940334"><ele>768</ele><time>2022-10-20T12:32:35Z</time><name>PT2362</name></trkpt>
<trkpt lat="53.199325" lon="-3.940352"><ele>769</ele><time>2022-10-20T12:32:38Z</time><name>PT2363</name></trkpt>
<trkpt lat="53.199297" lon="-3.940371"><ele>770</ele><time>2022-10-20T12:32:43Z</time><name>PT2364</name></trkpt>
<trkpt lat="53.199282" lon="-3.940391"><ele>770</ele><time>2022-10-20T12:32:46Z</time><name>PT2365</name></trkpt>
<trkpt lat="53.199262" lon="-3.940412"><ele>771</ele><time>2022-10-20T12:32:49Z</time><name>PT2366</name></trkpt>
<trkpt lat="53.199245" lon="-3.940432"><ele>771</ele><time>2022-10-20T12:32:52Z</time><name>PT2367</name></trkpt>
<trkpt lat="53.199223" lon="-3.940463"><ele>772</ele><time>2022-10-20T12:32:56Z</time><name>PT2368</name></trkpt>
<trkpt lat="53.199201" lon="-3.940494"><ele>773</ele><time>2022-10-20T12:33:01Z</time><name>PT2369</name></trkpt>
<trkpt lat="53.199168" lon="-3.940527"><ele>773</ele><time>2022-10-20T12:33:04Z</time><name>PT2370</name></trkpt>
<trkpt lat="53.199150" lon="-3.940553"><ele>773</ele><time>2022-10-20T12:33:08Z</time><name>PT2371</name></trkpt>
<trkpt lat="53.199139" lon="-3.940572"><ele>774</ele><time>2022-10-20T12:33:11Z</time><name>PT2372</name></trkpt>
<trkpt lat="53.199125" lon="-3.940604"><ele>775</ele><time>2022-10-20T12:33:16Z</time><name>PT2373</name></trkpt>
<trkpt lat="53.199104" lon="-3.940631"><ele>774</ele><time>2022-10-20T12:33:19Z</time><name>PT2374</name></trkpt>
<trkpt lat="53.199084" lon="-3.940650"><ele>774</ele><time>2022-10-20T12:33:22Z</time><name>PT2375</name></trkpt>
<trkpt lat="53.199057" lon="-3.940673"><ele>774</ele><time>2022-10-20T12:33:26Z</time><name>PT2376</name></trkpt>
<trkpt lat="53.199046" lon="-3.940689"><ele>776</ele><time>2022-10-20T12:33:29Z</time><name>PT2377</name></trkpt>
<trkpt lat="53.199026" lon="-3.940717"><ele>777</ele><time>2022-10-20T12:33:34Z</time><name>PT2378</name></trkpt>
<trkpt lat="53.199003" lon="-3.940737"><ele>777</ele><time>2022-10-20T12:33:37Z</time><name>PT2379</name></trkpt>
<trkpt lat="53.198977" lon="-3.940757"><ele>778</ele><time>2022-10-20T12:33:40Z</time><name>PT2380</name></trkpt>
<trkpt lat="53.198959" lon="-3.940772"><ele>779</ele><time>2022-10-20T12:33:43Z</time><name>PT2381</name></trkpt>
<trkpt lat="53.198940" lon="-3.940791"><ele>779</ele><time>2022-10-20T12:33:46Z</time><name>PT2382</name></trkpt>
<trkpt lat="53.198916" lon="-3.940814"><ele>780</ele><time>2022-10-20T12:33:50Z</time><name>PT2383</name></trkpt>
<trkpt lat="53.198893" lon="-3.940832"><ele>781</ele><time>2022-10-20T12:33:53Z</time><name>PT2384</name></trkpt>
<trkpt lat="53.198865" lon="-3.940856"><ele>781</ele><time>2022-10-20T12:33:58Z</time><name>PT2385</name></trkpt>
<trkpt lat="53.198848" lon="-3.940872"><ele>781</ele><time>2022-10-20T12:34:01Z</time><name>PT2386</name></trkpt>
<trkpt lat="53.198824" lon="-3.940899"><ele>782</ele><time>2022-10-20T12:34:04Z</time><name>PT2387</name></trkpt>
<trkpt lat="53.198801" lon="-3.940924"><ele>783</ele><time>2022-10-20T12:34:08Z</time><name>PT2388</name></trkpt>
<trkpt lat="53.198781" lon="-3.940941"><ele>783</ele><time>2022-10-20T12:34:11Z</time><name>PT2389</name></trkpt>
<trkpt lat="53.198756" lon="-3.940957"><ele>783</ele><time>2022-10-20T12:34:14Z</time><name>PT2390</name></trkpt>
<trkpt lat="53.198733" lon="-3.940984"><ele>784</ele><time>2022-10-20T12:34:19Z</time><name>PT2391</name></trkpt>
<trkpt lat="53.198710" lon="-3.941007"><ele>784</ele><time>2022-10-20T12:34:22Z</time><name>PT2392</name></trkpt>
<trkpt lat="53.198691" lon="-3.941037"><ele>784</ele><time>2022-10-20T12:34:25Z</time><name>PT2393</name></trkpt>
<trkpt lat="53.198667" lon="-3.941072"><ele>785</ele><time>2022-10-20T12:34:29Z</time><name>PT2394</name></trkpt>
<trkpt lat="53.198644" lon="-3.941099"><ele>785</ele><time>2022-10-20T12:34:32Z</time><name>PT2395</name></trkpt>
<trkpt lat="53.198628" lon="-3.941121"><ele>786</ele><time>2022-10-20T12:34:35Z</time><name>PT2396</name></trkpt>
<trkpt lat="53.198608" lon="-3.941141"><ele>786</ele><time>2022-10-20T12:34:38Z</time><name>PT2397</name></trkpt>
<trkpt lat="53.198590" lon="-3.941173"><ele>787</ele><time>2022-10-20T12:34:43Z</time><name>PT2398</name></trkpt>
<trkpt lat="53.198577" lon="-3.941194"><ele>788</ele><time>2022-10-20T12:34:46Z</time><name>PT2399</name></trkpt>
<trkpt lat="53.198570" lon="-3.941230"><ele>789</ele><time>2022-10-20T12:34:49Z</time><name>PT2400</name></trkpt>
<trkpt lat="53.198564" lon="-3.941232"><ele>789</ele><time>2022-10-20T12:34:53Z</time><name>PT2401</name></trkpt>
<trkpt lat="53.198565" lon="-3.941238"><ele>789</ele><time>2022-10-20T12:34:58Z</time><name>PT2402</name></trkpt>
<trkpt lat="53.198551" lon="-3.941263"><ele>790</ele><time>2022-10-20T12:35:01Z</time><name>PT2403</name></trkpt>
<trkpt lat="53.198537" lon="-3.941292"><ele>791</ele><time>2022-10-20T12:35:04Z</time><name>PT2404</name></trkpt>
<trkpt lat="53.198521" lon="-3.941312"><ele>791</ele><time>2022-10-20T12:35:07Z</time><name>PT2405</name></trkpt>
<trkpt lat="53.198506" lon="-3.941323"><ele>792</ele><time>2022-10-20T12:35:10Z</time><name>PT2406</name></trkpt>
<trkpt lat="53.198483" lon="-3.941342"><ele>793</ele><time>2022-10-20T12:35:14Z</time><name>PT2407</name></trkpt>
<trkpt lat="53.198468" lon="-3.941355"><ele>793</ele><time>2022-10-20T12:35:17Z</time><name>PT2408</name></trkpt>
<trkpt lat="53.198448" lon="-3.941373"><ele>794</ele><time>2022-10-20T12:35:22Z</time><name>PT2409</name></trkpt>
<trkpt lat="53.198430" lon="-3.941386"><ele>794</ele><time>2022-10-20T12:35:25Z</time><name>PT2410</name></trkpt>
<trkpt lat="53.198411" lon="-3.941397"><ele>795</ele><time>2022-10-20T12:35:28Z</time><name>PT2411</name></trkpt>
<trkpt lat="53.198401" lon="-3.941415"><ele>796</ele><time>2022-10-20T12:35:31Z</time><name>PT2412</name></trkpt>
<trkpt lat="53.198382" lon="-3.941437"><ele>796</ele><time>2022-10-20T12:35:34Z</time><name>PT2413</name></trkpt>
<trkpt lat="53.198366" lon="-3.941462"><ele>797</ele><time>2022-10-20T12:35:38Z</time><name>PT2414</name></trkpt>
<trkpt lat="53.198348" lon="-3.941477"><ele>798</ele><time>2022-10-20T12:35:43Z</time><name>PT2415</name></trkpt>
<trkpt lat="53.198329" lon="-3.941500"><ele>800</ele><time>2022-10-20T12:35:46Z</time><name>PT2416</name></trkpt>
<trkpt lat="53.198313" lon="-3.941519"><ele>800</ele><time>2022-10-20T12:35:49Z</time><name>PT2417</name></trkpt>
<trkpt lat="53.198296" lon="-3.941542"><ele>802</ele><time>2022-10-20T12:35:53Z</time><name>PT2418</name></trkpt>
<trkpt lat="53.198285" lon="-3.941560"><ele>802</ele><time>2022-10-20T12:35:56Z</time><name>PT2419</name></trkpt>
<trkpt lat="53.198276" lon="-3.941581"><ele>804</ele><time>2022-10-20T12:35:59Z</time><name>PT2420</name></trkpt>
<trkpt lat="53.198260" lon="-3.941605"><ele>805</ele><time>2022-10-20T12:36:04Z</time><name>PT2421</name></trkpt>
<trkpt lat="53.198244" lon="-3.941629"><ele>806</ele><time>2022-10-20T12:36:07Z</time><name>PT2422</name></trkpt>
<trkpt lat="53.198231" lon="-3.941653"><ele>807</ele><time>2022-10-20T12:36:10Z</time><name>PT2423</name></trkpt>
<trkpt lat="53.198217" lon="-3.941673"><ele>807</ele><time>2022-10-20T12:36:13Z</time><name>PT2424</name></trkpt>
<trkpt lat="53.198208" lon="-3.941688"><ele>808</ele><time>2022-10-20T12:36:16Z</time><name>PT2425</name></trkpt>
<trkpt lat="53.198195" lon="-3.941705"><ele>809</ele><time>2022-10-20T12:36:19Z</time><name>PT2426</name></trkpt>
<trkpt lat="53.198179" lon="-3.941731"><ele>809</ele><time>2022-10-20T12:36:23Z</time><name>PT2427</name></trkpt>
<trkpt lat="53.198161" lon="-3.941754"><ele>810</ele><time>2022-10-20T12:36:28Z</time><name>PT2428</name></trkpt>
<trkpt lat="53.198148" lon="-3.941775"><ele>811</ele><time>2022-10-20T12:36:31Z</time><name>PT2429</name></trkpt>
<trkpt lat="53.198133" lon="-3.941796"><ele>811</ele><time>2022-10-20T12:36:34Z</time><name>PT2430</name></trkpt>
<trkpt lat="53.198117" lon="-3.941822"><ele>812</ele><time>2022-10-20T12:36:37Z</time><name>PT2431</name></trkpt>
<trkpt lat="53.198105" lon="-3.941846"><ele>812</ele><time>2022-10-20T12:36:40Z</time><name>PT2432</name></trkpt>
<trkpt lat="53.198091" lon="-3.941869"><ele>813</ele><time>2022-10-20T12:36:44Z</time><name>PT2433</name></trkpt>
<trkpt lat="53.198081" lon="-3.941889"><ele>813</ele><time>2022-10-20T12:36:47Z</time><name>PT2434</name></trkpt>
<trkpt lat="53.198067" lon="-3.941909"><ele>814</ele><time>2022-10-20T12:36:52Z</time><name>PT2435</name></trkpt>
<trkpt lat="53.198056" lon="-3.941934"><ele>814</ele><time>2022-10-20T12:36:55Z</time><name>PT2436</name></trkpt>
<trkpt lat="53.198044" lon="-3.941953"><ele>815</ele><time>2022-10-20T12:36:58Z</time><name>PT2437</name></trkpt>
<trkpt lat="53.198027" lon="-3.941980"><ele>816</ele><time>2022-10-20T12:37:01Z</time><name>PT2438</name></trkpt>
<trkpt lat="53.198016" lon="-3.942000"><ele>816</ele><time>2022-10-20T12:37:05Z</time><name>PT2439</name></trkpt>
<trkpt lat="53.198017" lon="-3.942006"><ele>816</ele><time>2022-10-20T12:37:08Z</time><name>PT2440</name></trkpt>
<trkpt lat="53.198000" lon="-3.942035"><ele>817</ele><time>2022-10-20T12:37:11Z</time><name>PT2441</name></trkpt>
<trkpt lat="53.197982" lon="-3.942065"><ele>818</ele><time>2022-10-20T12:37:16Z</time><name>PT2442</name></trkpt>
<trkpt lat="53.197968" lon="-3.942084"><ele>818</ele><time>2022-10-20T12:37:19Z</time><name>PT2443</name></trkpt>
<trkpt lat="53.197946" lon="-3.942109"><ele>819</ele><time>2022-10-20T12:37:22Z</time><name>PT2444</name></trkpt>
<trkpt lat="53.197933" lon="-3.942135"><ele>820</ele><time>2022-10-20T12:37:25Z</time><name>PT2445</name></trkpt>
<trkpt lat="53.197918" lon="-3.942169"><ele>820</ele><time>2022-10-20T12:37:29Z</time><name>PT2446</name></trkpt>
<trkpt lat="53.197900" lon="-3.942193"><ele>820</ele><time>2022-10-20T12:37:32Z</time><name>PT2447</name></trkpt>
<trkpt lat="53.197888" lon="-3.942216"><ele>821</ele><time>2022-10-20T12:37:35Z</time><name>PT2448</name></trkpt>
<trkpt lat="53.197869" lon="-3.942244"><ele>822</ele><time>2022-10-20T12:37:40Z</time><name>PT2449</name></trkpt>
<trkpt lat="53.197852" lon="-3.942265"><ele>822</ele><time>2022-10-20T12:37:43Z</time><name>PT2450</name></trkpt>
<trkpt lat="53.197829" lon="-3.942294"><ele>823</ele><time>2022-10-20T12:37:46Z</time><name>PT2451</name></trkpt>
<trkpt lat="53.197807" lon="-3.942333"><ele>824</ele><time>2022-10-20T12:37:50Z</time><name>PT2452</name></trkpt>
<trkpt lat="53.197786" lon="-3.942349"><ele>825</ele><time>2022-10-20T12:37:53Z</time><name>PT2453</name></trkpt>
<trkpt lat="53.197768" lon="-3.942380"><ele>826</ele><time>2022-10-20T12:37:58Z</time><name>PT2454</name></trkpt>
<trkpt lat="53.197753" lon="-3.942407"><ele>826</ele><time>2022-10-20T12:38:01Z</time><name>PT2455</name></trkpt>
<trkpt lat="53.197733" lon="-3.942440"><ele>827</ele><time>2022-10-20T12:38:04Z</time><name>PT2456</name></trkpt>
<trkpt lat="53.197716" lon="-3.942472"><ele>827</ele><time>2022-10-20T12:38:08Z</time><name>PT2457</name></trkpt>
<trkpt lat="53.197705" lon="-3.942496"><ele>828</ele><time>2022-10-20T12:38:11Z</time><name>PT2458</name></trkpt>
<trkpt lat="53.197687" lon="-3.942525"><ele>828</ele><time>2022-10-20T12:38:16Z</time><name>PT2459</name></trkpt>
<trkpt lat="53.197670" lon="-3.942544"><ele>828</ele><time>2022-10-20T12:38:19Z</time><name>PT2460</name></trkpt>
<trkpt lat="53.197650" lon="-3.942574"><ele>828</ele><time>2022-10-20T12:38:22Z</time><name>PT2461</name></trkpt>
<trkpt lat="53.197634" lon="-3.942598"><ele>829</ele><time>2022-10-20T12:38:25Z</time><name>PT2462</name></trkpt>
<trkpt lat="53.197618" lon="-3.942629"><ele>830</ele><time>2022-10-20T12:38:29Z</time><name>PT2463</name></trkpt>
<trkpt lat="53.197601" lon="-3.942663"><ele>831</ele><time>2022-10-20T12:38:34Z</time><name>PT2464</name></trkpt>
<trkpt lat="53.197589" lon="-3.942689"><ele>831</ele><time>2022-10-20T12:38:37Z</time><name>PT2465</name></trkpt>
<trkpt lat="53.197574" lon="-3.942715"><ele>832</ele><time>2022-10-20T12:38:40Z</time><name>PT2466</name></trkpt>
<trkpt lat="53.197558" lon="-3.942755"><ele>834</ele><time>2022-10-20T12:38:43Z</time><name>PT2467</name></trkpt>
<trkpt lat="53.197543" lon="-3.942784"><ele>834</ele><time>2022-10-20T12:38:46Z</time><name>PT2468</name></trkpt>
<trkpt lat="53.197521" lon="-3.942814"><ele>835</ele><time>2022-10-20T12:38:50Z</time><name>PT2469</name></trkpt>
<trkpt lat="53.197510" lon="-3.942838"><ele>835</ele><time>2022-10-20T12:38:53Z</time><name>PT2470</name></trkpt>
<trkpt lat="53.197495" lon="-3.942862"><ele>836</ele><time>2022-10-20T12:38:56Z</time><name>PT2471</name></trkpt>
<trkpt lat="53.197472" lon="-3.942894"><ele>836</ele><time>2022-10-20T12:39:00Z</time><name>PT2472</name></trkpt>
<trkpt lat="53.197455" lon="-3.942920"><ele>836</ele><time>2022-10-20T12:39:04Z</time><name>PT2473</name></trkpt>
<trkpt lat="53.197433" lon="-3.942943"><ele>837</ele><time>2022-10-20T12:39:07Z</time><name>PT2474</name></trkpt>
<trkpt lat="53.197418" lon="-3.942977"><ele>838</ele><time>2022-10-20T12:39:11Z</time><name>PT2475</name></trkpt>
<trkpt lat="53.197400" lon="-3.943000"><ele>839</ele><time>2022-10-20T12:39:14Z</time><name>PT2476</name></trkpt>
<trkpt lat="53.197386" lon="-3.943030"><ele>839</ele><time>2022-10-20T12:39:19Z</time><name>PT2477</name></trkpt>
<trkpt lat="53.197373" lon="-3.943055"><ele>840</ele><time>2022-10-20T12:39:22Z</time><name>PT2478</name></trkpt>
<trkpt lat="53.197352" lon="-3.943089"><ele>840</ele><time>2022-10-20T12:39:25Z</time><name>PT2479</name></trkpt>
<trkpt lat="53.197333" lon="-3.943124"><ele>841</ele><time>2022-10-20T12:39:29Z</time><name>PT2480</name></trkpt>
<trkpt lat="53.197318" lon="-3.943160"><ele>842</ele><time>2022-10-20T12:39:34Z</time><name>PT2481</name></trkpt>
<trkpt lat="53.197298" lon="-3.943186"><ele>843</ele><time>2022-10-20T12:39:37Z</time><name>PT2482</name></trkpt>
<trkpt lat="53.197286" lon="-3.943218"><ele>843</ele><time>2022-10-20T12:39:41Z</time><name>PT2483</name></trkpt>
<trkpt lat="53.197266" lon="-3.943255"><ele>844</ele><time>2022-10-20T12:39:46Z</time><name>PT2484</name></trkpt>
<trkpt lat="53.197256" lon="-3.943285"><ele>844</ele><time>2022-10-20T12:39:49Z</time><name>PT2485</name></trkpt>
<trkpt lat="53.197246" lon="-3.943309"><ele>845</ele><time>2022-10-20T12:39:52Z</time><name>PT2486</name></trkpt>
<trkpt lat="53.197232" lon="-3.943341"><ele>846</ele><time>2022-10-20T12:39:55Z</time><name>PT2487</name></trkpt>
<trkpt lat="53.197217" lon="-3.943388"><ele>847</ele><time>2022-10-20T12:39:58Z</time><name>PT2488</name></trkpt>
<trkpt lat="53.197198" lon="-3.943435"><ele>847</ele><time>2022-10-20T12:40:02Z</time><name>PT2489</name></trkpt>
<trkpt lat="53.197185" lon="-3.943465"><ele>847</ele><time>2022-10-20T12:40:05Z</time><name>PT2490</name></trkpt>
<trkpt lat="53.197170" lon="-3.943508"><ele>848</ele><time>2022-10-20T12:40:10Z</time><name>PT2491</name></trkpt>
<trkpt lat="53.197150" lon="-3.943546"><ele>848</ele><time>2022-10-20T12:40:13Z</time><name>PT2492</name></trkpt>
<trkpt lat="53.197139" lon="-3.943580"><ele>848</ele><time>2022-10-20T12:40:16Z</time><name>PT2493</name></trkpt>
<trkpt lat="53.197131" lon="-3.943627"><ele>849</ele><time>2022-10-20T12:40:20Z</time><name>PT2494</name></trkpt>
<trkpt lat="53.197120" lon="-3.943656"><ele>850</ele><time>2022-10-20T12:40:23Z</time><name>PT2495</name></trkpt>
<trkpt lat="53.197099" lon="-3.943701"><ele>851</ele><time>2022-10-20T12:40:28Z</time><name>PT2496</name></trkpt>
<trkpt lat="53.197085" lon="-3.943754"><ele>852</ele><time>2022-10-20T12:40:31Z</time><name>PT2497</name></trkpt>
<trkpt lat="53.197071" lon="-3.943792"><ele>852</ele><time>2022-10-20T12:40:34Z</time><name>PT2498</name></trkpt>
<trkpt lat="53.197054" lon="-3.943835"><ele>852</ele><time>2022-10-20T12:40:38Z</time><name>PT2499</name></trkpt>
<trkpt lat="53.197046" lon="-3.943867"><ele>853</ele><time>2022-10-20T12:40:41Z</time><name>PT2500</name></trkpt>
<trkpt lat="53.197038" lon="-3.943902"><ele>853</ele><time>2022-10-20T12:40:44Z</time><name>PT2501</name></trkpt>
<trkpt lat="53.197027" lon="-3.943950"><ele>854</ele><time>2022-10-20T12:40:49Z</time><name>PT2502</name></trkpt>
<trkpt lat="53.197024" lon="-3.943980"><ele>855</ele><time>2022-10-20T12:40:52Z</time><name>PT2503</name></trkpt>
<trkpt lat="53.197010" lon="-3.944026"><ele>855</ele><time>2022-10-20T12:40:55Z</time><name>PT2504</name></trkpt>
<trkpt lat="53.196996" lon="-3.944072"><ele>856</ele><time>2022-10-20T12:40:59Z</time><name>PT2505</name></trkpt>
<trkpt lat="53.196983" lon="-3.944114"><ele>856</ele><time>2022-10-20T12:41:02Z</time><name>PT2506</name></trkpt>
<trkpt lat="53.196971" lon="-3.944147"><ele>857</ele><time>2022-10-20T12:41:05Z</time><name>PT2507</name></trkpt>
<trkpt lat="53.196957" lon="-3.944187"><ele>857</ele><time>2022-10-20T12:41:10Z</time><name>PT2508</name></trkpt>
<trkpt lat="53.196940" lon="-3.944231"><ele>858</ele><time>2022-10-20T12:41:13Z</time><name>PT2509</name></trkpt>
<trkpt lat="53.196916" lon="-3.944270"><ele>859</ele><time>2022-10-20T12:41:17Z</time><name>PT2510</name></trkpt>
<trkpt lat="53.196907" lon="-3.944323"><ele>860</ele><time>2022-10-20T12:41:22Z</time><name>PT2511</name></trkpt>
<trkpt lat="53.196900" lon="-3.944359"><ele>861</ele><time>2022-10-20T12:41:25Z</time><name>PT2512</name></trkpt>
<trkpt lat="53.196884" lon="-3.944394"><ele>862</ele><time>2022-10-20T12:41:28Z</time><name>PT2513</name></trkpt>
<trkpt lat="53.196867" lon="-3.944446"><ele>862</ele><time>2022-10-20T12:41:31Z</time><name>PT2514</name></trkpt>
<trkpt lat="53.196849" lon="-3.944502"><ele>862</ele><time>2022-10-20T12:41:35Z</time><name>PT2515</name></trkpt>
<trkpt lat="53.196832" lon="-3.944552"><ele>862</ele><time>2022-10-20T12:41:39Z</time><name>PT2516</name></trkpt>
<trkpt lat="53.196820" lon="-3.944591"><ele>862</ele><time>2022-10-20T12:41:43Z</time><name>PT2517</name></trkpt>
<trkpt lat="53.196801" lon="-3.944643"><ele>862</ele><time>2022-10-20T12:41:46Z</time><name>PT2518</name></trkpt>
<trkpt lat="53.196788" lon="-3.944705"><ele>862</ele><time>2022-10-20T12:41:50Z</time><name>PT2519</name></trkpt>
<trkpt lat="53.196777" lon="-3.944746"><ele>863</ele><time>2022-10-20T12:41:53Z</time><name>PT2520</name></trkpt>
<trkpt lat="53.196766" lon="-3.944786"><ele>864</ele><time>2022-10-20T12:41:56Z</time><name>PT2521</name></trkpt>
<trkpt lat="53.196749" lon="-3.944841"><ele>865</ele><time>2022-10-20T12:42:01Z</time><name>PT2522</name></trkpt>
<trkpt lat="53.196730" lon="-3.944893"><ele>865</ele><time>2022-10-20T12:42:04Z</time><name>PT2523</name></trkpt>
<trkpt lat="53.196719" lon="-3.944940"><ele>865</ele><time>2022-10-20T12:42:07Z</time><name>PT2524</name></trkpt>
<trkpt lat="53.196709" lon="-3.944985"><ele>865</ele><time>2022-10-20T12:42:10Z</time><name>PT2525</name></trkpt>
<trkpt lat="53.196692" lon="-3.945044"><ele>866</ele><time>2022-10-20T12:42:14Z</time><name>PT2526</name></trkpt>
<trkpt lat="53.196680" lon="-3.945102"><ele>867</ele><time>2022-10-20T12:42:18Z</time><name>PT2527</name></trkpt>
<trkpt lat="53.196674" lon="-3.945149"><ele>867</ele><time>2022-10-20T12:42:22Z</time><name>PT2528</name></trkpt>
<trkpt lat="53.196658" lon="-3.945213"><ele>868</ele><time>2022-10-20T12:42:25Z</time><name>PT2529</name></trkpt>
<trkpt lat="53.196645" lon="-3.945257"><ele>868</ele><time>2022-10-20T12:42:28Z</time><name>PT2530</name></trkpt>
<trkpt lat="53.196629" lon="-3.945318"><ele>869</ele><time>2022-10-20T12:42:32Z</time><name>PT2531</name></trkpt>
<trkpt lat="53.196615" lon="-3.945368"><ele>869</ele><time>2022-10-20T12:42:37Z</time><name>PT2532</name></trkpt>
<trkpt lat="53.196606" lon="-3.945412"><ele>869</ele><time>2022-10-20T12:42:40Z</time><name>PT2533</name></trkpt>
<trkpt lat="53.196597" lon="-3.945469"><ele>870</ele><time>2022-10-20T12:42:43Z</time><name>PT2534</name></trkpt>
<trkpt lat="53.196584" lon="-3.945528"><ele>870</ele><time>2022-10-20T12:42:47Z</time><name>PT2535</name></trkpt>
<trkpt lat="53.196571" lon="-3.945574"><ele>871</ele><time>2022-10-20T12:42:50Z</time><name>PT2536</name></trkpt>
<trkpt lat="53.196554" lon="-3.945631"><ele>870</ele><time>2022-10-20T12:42:55Z</time><name>PT2537</name></trkpt>
<trkpt lat="53.196538" lon="-3.945691"><ele>870</ele><time>2022-10-20T12:42:58Z</time><name>PT2538</name></trkpt>
<trkpt lat="53.196530" lon="-3.945748"><ele>872</ele><time>2022-10-20T12:43:02Z</time><name>PT2539</name></trkpt>
<trkpt lat="53.196513" lon="-3.945812"><ele>872</ele><time>2022-10-20T12:43:07Z</time><name>PT2540</name></trkpt>
<trkpt lat="53.196501" lon="-3.945854"><ele>872</ele><time>2022-10-20T12:43:10Z</time><name>PT2541</name></trkpt>
<trkpt lat="53.196491" lon="-3.945910"><ele>873</ele><time>2022-10-20T12:43:13Z</time><name>PT2542</name></trkpt>
<trkpt lat="53.196479" lon="-3.945966"><ele>874</ele><time>2022-10-20T12:43:17Z</time><name>PT2543</name></trkpt>
<trkpt lat="53.196465" lon="-3.946017"><ele>875</ele><time>2022-10-20T12:43:22Z</time><name>PT2544</name></trkpt>
<trkpt lat="53.196457" lon="-3.946078"><ele>876</ele><time>2022-10-20T12:43:25Z</time><name>PT2545</name></trkpt>
<trkpt lat="53.196448" lon="-3.946120"><ele>876</ele><time>2022-10-20T12:43:28Z</time><name>PT2546</name></trkpt>
<trkpt lat="53.196428" lon="-3.946168"><ele>875</ele><time>2022-10-20T12:43:32Z</time><name>PT2547</name></trkpt>
<trkpt lat="53.196418" lon="-3.946211"><ele>876</ele><time>2022-10-20T12:43:35Z</time><name>PT2548</name></trkpt>
<trkpt lat="53.196408" lon="-3.946251"><ele>876</ele><time>2022-10-20T12:43:38Z</time><name>PT2549</name></trkpt>
<trkpt lat="53.196402" lon="-3.946289"><ele>877</ele><time>2022-10-20T12:43:41Z</time><name>PT2550</name></trkpt>
<trkpt lat="53.196392" lon="-3.946335"><ele>877</ele><time>2022-10-20T12:43:46Z</time><name>PT2551</name></trkpt>
<trkpt lat="53.196384" lon="-3.946379"><ele>878</ele><time>2022-10-20T12:43:49Z</time><name>PT2552</name></trkpt>
<trkpt lat="53.196378" lon="-3.946421"><ele>879</ele><time>2022-10-20T12:43:52Z</time><name>PT2553</name></trkpt>
<trkpt lat="53.196370" lon="-3.946460"><ele>879</ele><time>2022-10-20T12:43:55Z</time><name>PT2554</name></trkpt>
<trkpt lat="53.196359" lon="-3.946509"><ele>880</ele><time>2022-10-20T12:43:58Z</time><name>PT2555</name></trkpt>
<trkpt lat="53.196349" lon="-3.946565"><ele>881</ele><time>2022-10-20T12:44:02Z</time><name>PT2556</name></trkpt>
<trkpt lat="53.196331" lon="-3.946622"><ele>882</ele><time>2022-10-20T12:44:07Z</time><name>PT2557</name></trkpt>
<trkpt lat="53.196324" lon="-3.946673"><ele>883</ele><time>2022-10-20T12:44:10Z</time><name>PT2558</name></trkpt>
<trkpt lat="53.196329" lon="-3.946720"><ele>886</ele><time>2022-10-20T12:44:14Z</time><name>PT2559</name></trkpt>
<trkpt lat="53.196323" lon="-3.946757"><ele>887</ele><time>2022-10-20T12:44:17Z</time><name>PT2560</name></trkpt>
<trkpt lat="53.196312" lon="-3.946814"><ele>888</ele><time>2022-10-20T12:44:22Z</time><name>PT2561</name></trkpt>
<trkpt lat="53.196304" lon="-3.946871"><ele>889</ele><time>2022-10-20T12:44:25Z</time><name>PT2562</name></trkpt>
<trkpt lat="53.196287" lon="-3.946928"><ele>890</ele><time>2022-10-20T12:44:29Z</time><name>PT2563</name></trkpt>
<trkpt lat="53.196275" lon="-3.946987"><ele>890</ele><time>2022-10-20T12:44:34Z</time><name>PT2564</name></trkpt>
<trkpt lat="53.196255" lon="-3.947041"><ele>890</ele><time>2022-10-20T12:44:37Z</time><name>PT2565</name></trkpt>
<trkpt lat="53.196249" lon="-3.947109"><ele>889</ele><time>2022-10-20T12:44:41Z</time><name>PT2566</name></trkpt>
<trkpt lat="53.196252" lon="-3.947154"><ele>890</ele><time>2022-10-20T12:44:44Z</time><name>PT2567</name></trkpt>
<trkpt lat="53.196241" lon="-3.947219"><ele>890</ele><time>2022-10-20T12:44:49Z</time><name>PT2568</name></trkpt>
<trkpt lat="53.196232" lon="-3.947260"><ele>890</ele><time>2022-10-20T12:44:52Z</time><name>PT2569</name></trkpt>
<trkpt lat="53.196223" lon="-3.947309"><ele>891</ele><time>2022-10-20T12:44:55Z</time><name>PT2570</name></trkpt>
<trkpt lat="53.196218" lon="-3.947361"><ele>893</ele><time>2022-10-20T12:44:59Z</time><name>PT2571</name></trkpt>
<trkpt lat="53.196205" lon="-3.947403"><ele>892</ele><time>2022-10-20T12:45:02Z</time><name>PT2572</name></trkpt>
<trkpt lat="53.196190" lon="-3.947460"><ele>892</ele><time>2022-10-20T12:45:07Z</time><name>PT2573</name></trkpt>
<trkpt lat="53.196184" lon="-3.947499"><ele>893</ele><time>2022-10-20T12:45:10Z</time><name>PT2574</name></trkpt>
<trkpt lat="53.196176" lon="-3.947550"><ele>894</ele><time>2022-10-20T12:45:13Z</time><name>PT2575</name></trkpt>
<trkpt lat="53.196167" lon="-3.947598"><ele>895</ele><time>2022-10-20T12:45:17Z</time><name>PT2576</name></trkpt>
<trkpt lat="53.196159" lon="-3.947647"><ele>896</ele><time>2022-10-20T12:45:22Z</time><name>PT2577</name></trkpt>
<trkpt lat="53.196152" lon="-3.947692"><ele>896</ele><time>2022-10-20T12:45:25Z</time><name>PT2578</name></trkpt>
<trkpt lat="53.196142" lon="-3.947729"><ele>896</ele><time>2022-10-20T12:45:28Z</time><name>PT2579</name></trkpt>
<trkpt lat="53.196126" lon="-3.947772"><ele>896</ele><time>2022-10-20T12:45:32Z</time><name>PT2580</name></trkpt>
<trkpt lat="53.196121" lon="-3.947804"><ele>896</ele><time>2022-10-20T12:45:35Z</time><name>PT2581</name></trkpt>
<trkpt lat="53.196112" lon="-3.947845"><ele>896</ele><time>2022-10-20T12:45:38Z</time><name>PT2582</name></trkpt>
<trkpt lat="53.196108" lon="-3.947895"><ele>897</ele><time>2022-10-20T12:45:42Z</time><name>PT2583</name></trkpt>
<trkpt lat="53.196103" lon="-3.947934"><ele>898</ele><time>2022-10-20T12:45:46Z</time><name>PT2584</name></trkpt>
<trkpt lat="53.196096" lon="-3.947980"><ele>899</ele><time>2022-10-20T12:45:49Z</time><name>PT2585</name></trkpt>
<trkpt lat="53.196085" lon="-3.948034"><ele>899</ele><time>2022-10-20T12:45:52Z</time><name>PT2586</name></trkpt>
<trkpt lat="53.196074" lon="-3.948083"><ele>899</ele><time>2022-10-20T12:45:56Z</time><name>PT2587</name></trkpt>
<trkpt lat="53.196064" lon="-3.948118"><ele>900</ele><time>2022-10-20T12:45:59Z</time><name>PT2588</name></trkpt>
<trkpt lat="53.196060" lon="-3.948171"><ele>900</ele><time>2022-10-20T12:46:04Z</time><name>PT2589</name></trkpt>
<trkpt lat="53.196051" lon="-3.948225"><ele>901</ele><time>2022-10-20T12:46:07Z</time><name>PT2590</name></trkpt>
<trkpt lat="53.196046" lon="-3.948285"><ele>902</ele><time>2022-10-20T12:46:11Z</time><name>PT2591</name></trkpt>
<trkpt lat="53.196040" lon="-3.948325"><ele>902</ele><time>2022-10-20T12:46:14Z</time><name>PT2592</name></trkpt>
<trkpt lat="53.196028" lon="-3.948383"><ele>903</ele><time>2022-10-20T12:46:19Z</time><name>PT2593</name></trkpt>
<trkpt lat="53.196023" lon="-3.948421"><ele>903</ele><time>2022-10-20T12:46:22Z</time><name>PT2594</name></trkpt>
<trkpt lat="53.196019" lon="-3.948459"><ele>903</ele><time>2022-10-20T12:46:25Z</time><name>PT2595</name></trkpt>
<trkpt lat="53.196017" lon="-3.948519"><ele>904</ele><time>2022-10-20T12:46:28Z</time><name>PT2596</name></trkpt>
<trkpt lat="53.196012" lon="-3.948552"><ele>903</ele><time>2022-10-20T12:46:31Z</time><name>PT2597</name></trkpt>
<trkpt lat="53.196003" lon="-3.948605"><ele>906</ele><time>2022-10-20T12:46:35Z</time><name>PT2598</name></trkpt>
<trkpt lat="53.195999" lon="-3.948642"><ele>906</ele><time>2022-10-20T12:46:38Z</time><name>PT2599</name></trkpt>
<trkpt lat="53.196000" lon="-3.948683"><ele>906</ele><time>2022-10-20T12:46:43Z</time><name>PT2600</name></trkpt>
<trkpt lat="53.195996" lon="-3.948715"><ele>906</ele><time>2022-10-20T12:46:46Z</time><name>PT2601</name></trkpt>
<trkpt lat="53.195995" lon="-3.948767"><ele>907</ele><time>2022-10-20T12:46:49Z</time><name>PT2602</name></trkpt>
<trkpt lat="53.195990" lon="-3.948806"><ele>908</ele><time>2022-10-20T12:46:52Z</time><name>PT2603</name></trkpt>
<trkpt lat="53.195986" lon="-3.948848"><ele>909</ele><time>2022-10-20T12:46:55Z</time><name>PT2604</name></trkpt>
<trkpt lat="53.195981" lon="-3.948902"><ele>909</ele><time>2022-10-20T12:46:59Z</time><name>PT2605</name></trkpt>
<trkpt lat="53.195974" lon="-3.948941"><ele>909</ele><time>2022-10-20T12:47:02Z</time><name>PT2606</name></trkpt>
<trkpt lat="53.195962" lon="-3.948994"><ele>909</ele><time>2022-10-20T12:47:07Z</time><name>PT2607</name></trkpt>
<trkpt lat="53.195958" lon="-3.949038"><ele>910</ele><time>2022-10-20T12:47:10Z</time><name>PT2608</name></trkpt>
<trkpt lat="53.195946" lon="-3.949091"><ele>911</ele><time>2022-10-20T12:47:13Z</time><name>PT2609</name></trkpt>
<trkpt lat="53.195933" lon="-3.949133"><ele>910</ele><time>2022-10-20T12:47:16Z</time><name>PT2610</name></trkpt>
<trkpt lat="53.195934" lon="-3.949167"><ele>910</ele><time>2022-10-20T12:47:19Z</time><name>PT2611</name></trkpt>
<trkpt lat="53.195933" lon="-3.949211"><ele>909</ele><time>2022-10-20T12:47:23Z</time><name>PT2612</name></trkpt>
<trkpt lat="53.195934" lon="-3.949245"><ele>909</ele><time>2022-10-20T12:47:26Z</time><name>PT2613</name></trkpt>
<trkpt lat="53.195941" lon="-3.949295"><ele>910</ele><time>2022-10-20T12:47:30Z</time><name>PT2614</name></trkpt>
<trkpt lat="53.195937" lon="-3.949325"><ele>910</ele><time>2022-10-20T12:47:33Z</time><name>PT2615</name></trkpt>
<trkpt lat="53.195927" lon="-3.949371"><ele>910</ele><time>2022-10-20T12:47:37Z</time><name>PT2616</name></trkpt>
<trkpt lat="53.195924" lon="-3.949411"><ele>911</ele><time>2022-10-20T12:47:40Z</time><name>PT2617</name></trkpt>
<trkpt lat="53.195921" lon="-3.949451"><ele>911</ele><time>2022-10-20T12:47:44Z</time><name>PT2618</name></trkpt>
<trkpt lat="53.195920" lon="-3.949487"><ele>912</ele><time>2022-10-20T12:47:47Z</time><name>PT2619</name></trkpt>
<trkpt lat="53.195925" lon="-3.949531"><ele>912</ele><time>2022-10-20T12:47:51Z</time><name>PT2620</name></trkpt>
<trkpt lat="53.195930" lon="-3.949573"><ele>913</ele><time>2022-10-20T12:47:55Z</time><name>PT2621</name></trkpt>
<trkpt lat="53.195930" lon="-3.949626"><ele>913</ele><time>2022-10-20T12:47:58Z</time><name>PT2622</name></trkpt>
<trkpt lat="53.195932" lon="-3.949681"><ele>914</ele><time>2022-10-20T12:48:02Z</time><name>PT2623</name></trkpt>
<trkpt lat="53.195933" lon="-3.949719"><ele>915</ele><time>2022-10-20T12:48:05Z</time><name>PT2624</name></trkpt>
<trkpt lat="53.195931" lon="-3.949766"><ele>917</ele><time>2022-10-20T12:48:09Z</time><name>PT2625</name></trkpt>
<trkpt lat="53.195928" lon="-3.949806"><ele>917</ele><time>2022-10-20T12:48:12Z</time><name>PT2626</name></trkpt>
<trkpt lat="53.195926" lon="-3.949848"><ele>918</ele><time>2022-10-20T12:48:15Z</time><name>PT2627</name></trkpt>
<trkpt lat="53.195919" lon="-3.949879"><ele>919</ele><time>2022-10-20T12:48:19Z</time><name>PT2628</name></trkpt>
<trkpt lat="53.195907" lon="-3.949925"><ele>920</ele><time>2022-10-20T12:48:22Z</time><name>PT2629</name></trkpt>
<trkpt lat="53.195899" lon="-3.949963"><ele>920</ele><time>2022-10-20T12:48:25Z</time><name>PT2630</name></trkpt>
<trkpt lat="53.195890" lon="-3.950014"><ele>921</ele><time>2022-10-20T12:48:29Z</time><name>PT2631</name></trkpt>
<trkpt lat="53.195881" lon="-3.950064"><ele>921</ele><time>2022-10-20T12:48:33Z</time><name>PT2632</name></trkpt>
<trkpt lat="53.195871" lon="-3.950096"><ele>921</ele><time>2022-10-20T12:48:36Z</time><name>PT2633</name></trkpt>
<trkpt lat="53.195867" lon="-3.950143"><ele>922</ele><time>2022-10-20T12:48:40Z</time><name>PT2634</name></trkpt>
<trkpt lat="53.195870" lon="-3.950189"><ele>922</ele><time>2022-10-20T12:48:44Z</time><name>PT2635</name></trkpt>
<trkpt lat="53.195858" lon="-3.950236"><ele>922</ele><time>2022-10-20T12:48:48Z</time><name>PT2636</name></trkpt>
<trkpt lat="53.195851" lon="-3.950261"><ele>923</ele><time>2022-10-20T12:48:51Z</time><name>PT2637</name></trkpt>
<trkpt lat="53.195848" lon="-3.950293"><ele>923</ele><time>2022-10-20T12:48:54Z</time><name>PT2638</name></trkpt>
<trkpt lat="53.195850" lon="-3.950332"><ele>924</ele><time>2022-10-20T12:48:58Z</time><name>PT2639</name></trkpt>
<trkpt lat="53.195845" lon="-3.950393"><ele>925</ele><time>2022-10-20T12:49:01Z</time><name>PT2640</name></trkpt>
<trkpt lat="53.195837" lon="-3.950438"><ele>926</ele><time>2022-10-20T12:49:05Z</time><name>PT2641</name></trkpt>
<trkpt lat="53.195831" lon="-3.950478"><ele>927</ele><time>2022-10-20T12:49:08Z</time><name>PT2642</name></trkpt>
<trkpt lat="53.195825" lon="-3.950525"><ele>927</ele><time>2022-10-20T12:49:13Z</time><name>PT2643</name></trkpt>
<trkpt lat="53.195813" lon="-3.950571"><ele>928</ele><time>2022-10-20T12:49:16Z</time><name>PT2644</name></trkpt>
<trkpt lat="53.195798" lon="-3.950620"><ele>928</ele><time>2022-10-20T12:49:20Z</time><name>PT2645</name></trkpt>
<trkpt lat="53.195781" lon="-3.950656"><ele>929</ele><time>2022-10-20T12:49:23Z</time><name>PT2646</name></trkpt>
<trkpt lat="53.195760" lon="-3.950708"><ele>930</ele><time>2022-10-20T12:49:27Z</time><name>PT2647</name></trkpt>
<trkpt lat="53.195752" lon="-3.950738"><ele>931</ele><time>2022-10-20T12:49:30Z</time><name>PT2648</name></trkpt>
<trkpt lat="53.195739" lon="-3.950773"><ele>931</ele><time>2022-10-20T12:49:34Z</time><name>PT2649</name></trkpt>
<trkpt lat="53.195726" lon="-3.950825"><ele>932</ele><time>2022-10-20T12:49:37Z</time><name>PT2650</name></trkpt>
<trkpt lat="53.195716" lon="-3.950880"><ele>934</ele><time>2022-10-20T12:49:41Z</time><name>PT2651</name></trkpt>
<trkpt lat="53.195704" lon="-3.950916"><ele>934</ele><time>2022-10-20T12:49:44Z</time><name>PT2652</name></trkpt>
<trkpt lat="53.195691" lon="-3.950966"><ele>935</ele><time>2022-10-20T12:49:48Z</time><name>PT2653</name></trkpt>
<trkpt lat="53.195681" lon="-3.951009"><ele>935</ele><time>2022-10-20T12:49:51Z</time><name>PT2654</name></trkpt>
<trkpt lat="53.195670" lon="-3.951051"><ele>936</ele><time>2022-10-20T12:49:55Z</time><name>PT2655</name></trkpt>
<trkpt lat="53.195652" lon="-3.951108"><ele>937</ele><time>2022-10-20T12:49:58Z</time><name>PT2656</name></trkpt>
<trkpt lat="53.195633" lon="-3.951146"><ele>937</ele><time>2022-10-20T12:50:01Z</time><name>PT2657</name></trkpt>
<trkpt lat="53.195609" lon="-3.951183"><ele>938</ele><time>2022-10-20T12:50:05Z</time><name>PT2658</name></trkpt>
<trkpt lat="53.195592" lon="-3.951211"><ele>937</ele><time>2022-10-20T12:50:08Z</time><name>PT2659</name></trkpt>
<trkpt lat="53.195577" lon="-3.951247"><ele>937</ele><time>2022-10-20T12:50:11Z</time><name>PT2660</name></trkpt>
<trkpt lat="53.195560" lon="-3.951302"><ele>938</ele><time>2022-10-20T12:50:15Z</time><name>PT2661</name></trkpt>
<trkpt lat="53.195539" lon="-3.951357"><ele>938</ele><time>2022-10-20T12:50:19Z</time><name>PT2662</name></trkpt>
<trkpt lat="53.195519" lon="-3.951420"><ele>938</ele><time>2022-10-20T12:50:23Z</time><name>PT2663</name></trkpt>
<trkpt lat="53.195510" lon="-3.951475"><ele>938</ele><time>2022-10-20T12:50:26Z</time><name>PT2664</name></trkpt>
<trkpt lat="53.195497" lon="-3.951543"><ele>938</ele><time>2022-10-20T12:50:30Z</time><name>PT2665</name></trkpt>
<trkpt lat="53.195472" lon="-3.951595"><ele>938</ele><time>2022-10-20T12:50:34Z</time><name>PT2666</name></trkpt>
<trkpt lat="53.195452" lon="-3.951632"><ele>939</ele><time>2022-10-20T12:50:37Z</time><name>PT2667</name></trkpt>
<trkpt lat="53.195422" lon="-3.951676"><ele>939</ele><time>2022-10-20T12:50:41Z</time><name>PT2668</name></trkpt>
<trkpt lat="53.195397" lon="-3.951721"><ele>940</ele><time>2022-10-20T12:50:45Z</time><name>PT2669</name></trkpt>
<trkpt lat="53.195371" lon="-3.951758"><ele>941</ele><time>2022-10-20T12:50:48Z</time><name>PT2670</name></trkpt>
<trkpt lat="53.195349" lon="-3.951786"><ele>941</ele><time>2022-10-20T12:50:51Z</time><name>PT2671</name></trkpt>
<trkpt lat="53.195323" lon="-3.951821"><ele>941</ele><time>2022-10-20T12:50:54Z</time><name>PT2672</name></trkpt>
<trkpt lat="53.195295" lon="-3.951856"><ele>941</ele><time>2022-10-20T12:50:58Z</time><name>PT2673</name></trkpt>
<trkpt lat="53.195262" lon="-3.951884"><ele>944</ele><time>2022-10-20T12:51:02Z</time><name>PT2674</name></trkpt>
<trkpt lat="53.195234" lon="-3.951904"><ele>945</ele><time>2022-10-20T12:51:06Z</time><name>PT2675</name></trkpt>
<trkpt lat="53.195210" lon="-3.951912"><ele>945</ele><time>2022-10-20T12:51:10Z</time><name>PT2676</name></trkpt>
<trkpt lat="53.195172" lon="-3.951922"><ele>945</ele><time>2022-10-20T12:51:13Z</time><name>PT2677</name></trkpt>
<trkpt lat="53.195141" lon="-3.951913"><ele>945</ele><time>2022-10-20T12:51:17Z</time><name>PT2678</name></trkpt>
<trkpt lat="53.195114" lon="-3.951919"><ele>945</ele><time>2022-10-20T12:51:20Z</time><name>PT2679</name></trkpt>
<trkpt lat="53.195086" lon="-3.951921"><ele>946</ele><time>2022-10-20T12:51:23Z</time><name>PT2680</name></trkpt>
<trkpt lat="53.195051" lon="-3.951905"><ele>945</ele><time>2022-10-20T12:51:28Z</time><name>PT2681</name></trkpt>
<trkpt lat="53.195011" lon="-3.951938"><ele>946</ele><time>2022-10-20T12:51:31Z</time><name>PT2682</name></trkpt>
<trkpt lat="53.194987" lon="-3.951958"><ele>946</ele><time>2022-10-20T12:51:34Z</time><name>PT2683</name></trkpt>
<trkpt lat="53.194946" lon="-3.951973"><ele>947</ele><time>2022-10-20T12:51:38Z</time><name>PT2684</name></trkpt>
<trkpt lat="53.194905" lon="-3.951973"><ele>947</ele><time>2022-10-20T12:51:42Z</time><name>PT2685</name></trkpt>
<trkpt lat="53.194863" lon="-3.951966"><ele>947</ele><time>2022-10-20T12:51:46Z</time><name>PT2686</name></trkpt>
<trkpt lat="53.194829" lon="-3.951989"><ele>948</ele><time>2022-10-20T12:51:50Z</time><name>PT2687</name></trkpt>
<trkpt lat="53.194808" lon="-3.952015"><ele>948</ele><time>2022-10-20T12:51:53Z</time><name>PT2688</name></trkpt>
<trkpt lat="53.194781" lon="-3.952046"><ele>947</ele><time>2022-10-20T12:51:56Z</time><name>PT2689</name></trkpt>
<trkpt lat="53.194761" lon="-3.952091"><ele>946</ele><time>2022-10-20T12:52:00Z</time><name>PT2690</name></trkpt>
<trkpt lat="53.194748" lon="-3.952131"><ele>946</ele><time>2022-10-20T12:52:04Z</time><name>PT2691</name></trkpt>
<trkpt lat="53.194737" lon="-3.952165"><ele>947</ele><time>2022-10-20T12:52:07Z</time><name>PT2692</name></trkpt>
<trkpt lat="53.194731" lon="-3.952196"><ele>946</ele><time>2022-10-20T12:52:10Z</time><name>PT2693</name></trkpt>
<trkpt lat="53.194718" lon="-3.952229"><ele>945</ele><time>2022-10-20T12:52:14Z</time><name>PT2694</name></trkpt>
<trkpt lat="53.194712" lon="-3.952263"><ele>945</ele><time>2022-10-20T12:52:17Z</time><name>PT2695</name></trkpt>
<trkpt lat="53.194706" lon="-3.952295"><ele>945</ele><time>2022-10-20T12:52:21Z</time><name>PT2696</name></trkpt>
<trkpt lat="53.194713" lon="-3.952329"><ele>946</ele><time>2022-10-20T12:52:25Z</time><name>PT2697</name></trkpt>
<trkpt lat="53.194718" lon="-3.952363"><ele>947</ele><time>2022-10-20T12:52:29Z</time><name>PT2698</name></trkpt>
<trkpt lat="53.194709" lon="-3.952389"><ele>948</ele><time>2022-10-20T12:52:33Z</time><name>PT2699</name></trkpt>
<trkpt lat="53.194698" lon="-3.952412"><ele>947</ele><time>2022-10-20T12:52:36Z</time><name>PT2700</name></trkpt>
<trkpt lat="53.194693" lon="-3.952433"><ele>947</ele><time>2022-10-20T12:52:39Z</time><name>PT2701</name></trkpt>
<trkpt lat="53.194692" lon="-3.952449"><ele>947</ele><time>2022-10-20T12:52:43Z</time><name>PT2702</name></trkpt>
<trkpt lat="53.194685" lon="-3.952466"><ele>947</ele><time>2022-10-20T12:52:46Z</time><name>PT2703</name></trkpt>
<trkpt lat="53.194676" lon="-3.952482"><ele>947</ele><time>2022-10-20T12:52:49Z</time><name>PT2704</name></trkpt>
<trkpt lat="53.194673" lon="-3.952487"><ele>947</ele><time>2022-10-20T12:52:53Z</time><name>PT2705</name></trkpt>
<trkpt lat="53.194673" lon="-3.952497"><ele>947</ele><time>2022-10-20T12:53:03Z</time><name>PT2706</name></trkpt>
<trkpt lat="53.194668" lon="-3.952512"><ele>948</ele><time>2022-10-20T12:53:06Z</time><name>PT2707</name></trkpt>
<trkpt lat="53.194665" lon="-3.952518"><ele>948</ele><time>2022-10-20T12:53:10Z</time><name>PT2708</name></trkpt>
<trkpt lat="53.194663" lon="-3.952521"><ele>948</ele><time>2022-10-20T12:53:47Z</time><name>PT2709</name></trkpt>
<trkpt lat="53.194661" lon="-3.952516"><ele>949</ele><time>2022-10-20T12:53:51Z</time><name>PT2710</name></trkpt>
<trkpt lat="53.194654" lon="-3.952529"><ele>948</ele><time>2022-10-20T12:54:28Z</time><name>PT2711</name></trkpt>
<trkpt lat="53.194652" lon="-3.952529"><ele>949</ele><time>2022-10-20T12:54:31Z</time><name>PT2712</name></trkpt>
<trkpt lat="53.194651" lon="-3.952524"><ele>949</ele><time>2022-10-20T12:54:38Z</time><name>PT2713</name></trkpt>
<trkpt lat="53.194638" lon="-3.952517"><ele>949</ele><time>2022-10-20T12:54:42Z</time><name>PT2714</name></trkpt>
<trkpt lat="53.194637" lon="-3.952512"><ele>949</ele><time>2022-10-20T12:54:46Z</time><name>PT2715</name></trkpt>
<trkpt lat="53.194637" lon="-3.952512"><ele>949</ele><time>2022-10-20T12:54:49Z</time><name>PT2716</name></trkpt>
<trkpt lat="53.194637" lon="-3.952517"><ele>949</ele><time>2022-10-20T12:55:24Z</time><name>PT2717</name></trkpt>
<trkpt lat="53.194636" lon="-3.952520"><ele>949</ele><time>2022-10-20T12:55:28Z</time><name>PT2718</name></trkpt>
<trkpt lat="53.194638" lon="-3.952522"><ele>950</ele><time>2022-10-20T12:55:31Z</time><name>PT2719</name></trkpt>
<trkpt lat="53.194638" lon="-3.952513"><ele>950</ele><time>2022-10-20T12:55:35Z</time><name>PT2720</name></trkpt>
<trkpt lat="53.194638" lon="-3.952512"><ele>950</ele><time>2022-10-20T12:55:39Z</time><name>PT2721</name></trkpt>
<trkpt lat="53.194639" lon="-3.952511"><ele>950</ele><time>2022-10-20T12:55:43Z</time><name>PT2722</name></trkpt>
<trkpt lat="53.194639" lon="-3.952512"><ele>951</ele><time>2022-10-20T12:55:46Z</time><name>PT2723</name></trkpt>
<trkpt lat="53.194643" lon="-3.952511"><ele>950</ele><time>2022-10-20T12:55:54Z</time><name>PT2724</name></trkpt>
<trkpt lat="53.194641" lon="-3.952510"><ele>950</ele><time>2022-10-20T12:55:57Z</time><name>PT2725</name></trkpt>
<trkpt lat="53.194638" lon="-3.952513"><ele>951</ele><time>2022-10-20T12:56:00Z</time><name>PT2726</name></trkpt>
<trkpt lat="53.194640" lon="-3.952514"><ele>951</ele><time>2022-10-20T12:56:04Z</time><name>PT2727</name></trkpt>
<trkpt lat="53.194632" lon="-3.952498"><ele>950</ele><time>2022-10-20T12:56:08Z</time><name>PT2728</name></trkpt>
<trkpt lat="53.194631" lon="-3.952486"><ele>950</ele><time>2022-10-20T12:56:11Z</time><name>PT2729</name></trkpt>
<trkpt lat="53.194633" lon="-3.952495"><ele>950</ele><time>2022-10-20T12:56:42Z</time><name>PT2730</name></trkpt>
<trkpt lat="53.194634" lon="-3.952489"><ele>950</ele><time>2022-10-20T12:56:46Z</time><name>PT2731</name></trkpt>
<trkpt lat="53.194636" lon="-3.952501"><ele>950</ele><time>2022-10-20T12:56:49Z</time><name>PT2732</name></trkpt>
<trkpt lat="53.194634" lon="-3.952499"><ele>950</ele><time>2022-10-20T12:57:07Z</time><name>PT2733</name></trkpt>
<trkpt lat="53.194634" lon="-3.952498"><ele>950</ele><time>2022-10-20T12:57:10Z</time><name>PT2734</name></trkpt>
<trkpt lat="53.194633" lon="-3.952504"><ele>950</ele><time>2022-10-20T13:02:57Z</time><name>PT2735</name></trkpt>
<trkpt lat="53.194639" lon="-3.952513"><ele>951</ele><time>2022-10-20T13:03:00Z</time><name>PT2736</name></trkpt>
<trkpt lat="53.194639" lon="-3.952515"><ele>951</ele><time>2022-10-20T13:03:04Z</time><name>PT2737</name></trkpt>
<trkpt lat="53.194647" lon="-3.952518"><ele>951</ele><time>2022-10-20T13:06:00Z</time><name>PT2738</name></trkpt>
<trkpt lat="53.194652" lon="-3.952521"><ele>951</ele><time>2022-10-20T13:06:03Z</time><name>PT2739</name></trkpt>
<trkpt lat="53.194655" lon="-3.952511"><ele>950</ele><time>2022-10-20T13:07:12Z</time><name>PT2740</name></trkpt>
<trkpt lat="53.194652" lon="-3.952507"><ele>950</ele><time>2022-10-20T13:07:15Z</time><name>PT2741</name></trkpt>
<trkpt lat="53.194651" lon="-3.952506"><ele>950</ele><time>2022-10-20T13:08:10Z</time><name>PT2742</name></trkpt>
<trkpt lat="53.194640" lon="-3.952496"><ele>949</ele><time>2022-10-20T13:08:13Z</time><name>PT2743</name></trkpt>
<trkpt lat="53.194639" lon="-3.952496"><ele>949</ele><time>2022-10-20T13:08:17Z</time><name>PT2744</name></trkpt>
<trkpt lat="53.194634" lon="-3.952494"><ele>949</ele><time>2022-10-20T13:08:28Z</time><name>PT2745</name></trkpt>
<trkpt lat="53.194639" lon="-3.952492"><ele>949</ele><time>2022-10-20T13:08:42Z</time><name>PT2746</name></trkpt>
<trkpt lat="53.194635" lon="-3.952477"><ele>949</ele><time>2022-10-20T13:08:45Z</time><name>PT2747</name></trkpt>
<trkpt lat="53.194631" lon="-3.952468"><ele>948</ele><time>2022-10-20T13:08:48Z</time><name>PT2748</name></trkpt>
<trkpt lat="53.194629" lon="-3.952469"><ele>948</ele><time>2022-10-20T13:09:38Z</time><name>PT2749</name></trkpt>
<trkpt lat="53.194630" lon="-3.952473"><ele>947</ele><time>2022-10-20T13:09:42Z</time><name>PT2750</name></trkpt>
<trkpt lat="53.194626" lon="-3.952482"><ele>947</ele><time>2022-10-20T13:09:45Z</time><name>PT2751</name></trkpt>
<trkpt lat="53.194631" lon="-3.952483"><ele>947</ele><time>2022-10-20T13:09:48Z</time><name>PT2752</name></trkpt>
<trkpt lat="53.194620" lon="-3.952465"><ele>945</ele><time>2022-10-20T13:09:52Z</time><name>PT2753</name></trkpt>
<trkpt lat="53.194641" lon="-3.952480"><ele>949</ele><time>2022-10-20T13:09:55Z</time><name>PT2754</name></trkpt>
<trkpt lat="53.194638" lon="-3.952482"><ele>949</ele><time>2022-10-20T13:09:59Z</time><name>PT2755</name></trkpt>
<trkpt lat="53.194641" lon="-3.952488"><ele>949</ele><time>2022-10-20T13:10:10Z</time><name>PT2756</name></trkpt>
<trkpt lat="53.194637" lon="-3.952493"><ele>949</ele><time>2022-10-20T13:10:59Z</time><name>PT2757</name></trkpt>
<trkpt lat="53.194642" lon="-3.952493"><ele>950</ele><time>2022-10-20T13:11:03Z</time><name>PT2758</name></trkpt>
<trkpt lat="53.194643" lon="-3.952493"><ele>950</ele><time>2022-10-20T13:11:06Z</time><name>PT2759</name></trkpt>
<trkpt lat="53.194630" lon="-3.952511"><ele>950</ele><time>2022-10-20T13:11:09Z</time><name>PT2760</name></trkpt>
<trkpt lat="53.194637" lon="-3.952512"><ele>949</ele><time>2022-10-20T13:11:12Z</time><name>PT2761</name></trkpt>
<trkpt lat="53.194650" lon="-3.952507"><ele>950</ele><time>2022-10-20T13:11:16Z</time><name>PT2762</name></trkpt>
<trkpt lat="53.194649" lon="-3.952505"><ele>950</ele><time>2022-10-20T13:11:20Z</time><name>PT2763</name></trkpt>
<trkpt lat="53.194651" lon="-3.952505"><ele>950</ele><time>2022-10-20T13:11:43Z</time><name>PT2764</name></trkpt>
<trkpt lat="53.194652" lon="-3.952505"><ele>950</ele><time>2022-10-20T13:11:47Z</time><name>PT2765</name></trkpt>
<trkpt lat="53.194653" lon="-3.952496"><ele>951</ele><time>2022-10-20T13:13:07Z</time><name>PT2766</name></trkpt>
<trkpt lat="53.194652" lon="-3.952496"><ele>951</ele><time>2022-10-20T13:13:11Z</time><name>PT2767</name></trkpt>
<trkpt lat="53.194655" lon="-3.952488"><ele>951</ele><time>2022-10-20T13:14:07Z</time><name>PT2768</name></trkpt>
<trkpt lat="53.194658" lon="-3.952488"><ele>951</ele><time>2022-10-20T13:14:10Z</time><name>PT2769</name></trkpt>
<trkpt lat="53.194659" lon="-3.952487"><ele>951</ele><time>2022-10-20T13:14:14Z</time><name>PT2770</name></trkpt>
<trkpt lat="53.194663" lon="-3.952486"><ele>952</ele><time>2022-10-20T13:14:29Z</time><name>PT2771</name></trkpt>
<trkpt lat="53.194661" lon="-3.952486"><ele>952</ele><time>2022-10-20T13:14:56Z</time><name>PT2772</name></trkpt>
<trkpt lat="53.194653" lon="-3.952474"><ele>952</ele><time>2022-10-20T13:15:07Z</time><name>PT2773</name></trkpt>
<trkpt lat="53.194652" lon="-3.952477"><ele>953</ele><time>2022-10-20T13:15:10Z</time><name>PT2774</name></trkpt>
<trkpt lat="53.194651" lon="-3.952482"><ele>953</ele><time>2022-10-20T13:16:46Z</time><name>PT2775</name></trkpt>
<trkpt lat="53.194650" lon="-3.952476"><ele>953</ele><time>2022-10-20T13:16:50Z</time><name>PT2776</name></trkpt>
<trkpt lat="53.194651" lon="-3.952475"><ele>952</ele><time>2022-10-20T13:16:54Z</time><name>PT2777</name></trkpt>
<trkpt lat="53.194651" lon="-3.952479"><ele>952</ele><time>2022-10-20T13:19:40Z</time><name>PT2778</name></trkpt>
<trkpt lat="53.194651" lon="-3.952481"><ele>952</ele><time>2022-10-20T13:19:43Z</time><name>PT2779</name></trkpt>
<trkpt lat="53.194650" lon="-3.952482"><ele>952</ele><time>2022-10-20T13:20:04Z</time><name>PT2780</name></trkpt>
<trkpt lat="53.194653" lon="-3.952501"><ele>953</ele><time>2022-10-20T13:20:31Z</time><name>PT2781</name></trkpt>
<trkpt lat="53.194655" lon="-3.952507"><ele>952</ele><time>2022-10-20T13:20:35Z</time><name>PT2782</name></trkpt>
<trkpt lat="53.194662" lon="-3.952522"><ele>951</ele><time>2022-10-20T13:20:41Z</time><name>PT2783</name></trkpt>
<trkpt lat="53.194675" lon="-3.952539"><ele>950</ele><time>2022-10-20T13:20:44Z</time><name>PT2784</name></trkpt>
<trkpt lat="53.194676" lon="-3.952540"><ele>950</ele><time>2022-10-20T13:20:51Z</time><name>PT2785</name></trkpt>
<trkpt lat="53.194700" lon="-3.952540"><ele>949</ele><time>2022-10-20T13:20:55Z</time><name>PT2786</name></trkpt>
<trkpt lat="53.194716" lon="-3.952554"><ele>949</ele><time>2022-10-20T13:20:59Z</time><name>PT2787</name></trkpt>
<trkpt lat="53.194735" lon="-3.952570"><ele>948</ele><time>2022-10-20T13:21:03Z</time><name>PT2788</name></trkpt>
<trkpt lat="53.194749" lon="-3.952591"><ele>948</ele><time>2022-10-20T13:21:06Z</time><name>PT2789</name></trkpt>
<trkpt lat="53.194760" lon="-3.952616"><ele>948</ele><time>2022-10-20T13:21:10Z</time><name>PT2790</name></trkpt>
<trkpt lat="53.194766" lon="-3.952623"><ele>948</ele><time>2022-10-20T13:21:13Z</time><name>PT2791</name></trkpt>
<trkpt lat="53.194773" lon="-3.952660"><ele>948</ele><time>2022-10-20T13:21:17Z</time><name>PT2792</name></trkpt>
<trkpt lat="53.194781" lon="-3.952699"><ele>948</ele><time>2022-10-20T13:21:21Z</time><name>PT2793</name></trkpt>
<trkpt lat="53.194783" lon="-3.952726"><ele>948</ele><time>2022-10-20T13:21:25Z</time><name>PT2794</name></trkpt>
<trkpt lat="53.194784" lon="-3.952726"><ele>948</ele><time>2022-10-20T13:21:28Z</time><name>PT2795</name></trkpt>
<trkpt lat="53.194791" lon="-3.952758"><ele>948</ele><time>2022-10-20T13:21:35Z</time><name>PT2796</name></trkpt>
<trkpt lat="53.194803" lon="-3.952813"><ele>948</ele><time>2022-10-20T13:21:38Z</time><name>PT2797</name></trkpt>
<trkpt lat="53.194812" lon="-3.952871"><ele>947</ele><time>2022-10-20T13:21:42Z</time><name>PT2798</name></trkpt>
<trkpt lat="53.194816" lon="-3.952926"><ele>947</ele><time>2022-10-20T13:21:46Z</time><name>PT2799</name></trkpt>
<trkpt lat="53.194824" lon="-3.952975"><ele>946</ele><time>2022-10-20T13:21:50Z</time><name>PT2800</name></trkpt>
<trkpt lat="53.194834" lon="-3.953015"><ele>946</ele><time>2022-10-20T13:21:53Z</time><name>PT2801</name></trkpt>
<trkpt lat="53.194844" lon="-3.953049"><ele>946</ele><time>2022-10-20T13:21:56Z</time><name>PT2802</name></trkpt>
<trkpt lat="53.194863" lon="-3.953089"><ele>946</ele><time>2022-10-20T13:22:00Z</time><name>PT2803</name></trkpt>
<trkpt lat="53.194878" lon="-3.953126"><ele>946</ele><time>2022-10-20T13:22:03Z</time><name>PT2804</name></trkpt>
<trkpt lat="53.194889" lon="-3.953159"><ele>946</ele><time>2022-10-20T13:22:06Z</time><name>PT2805</name></trkpt>
<trkpt lat="53.194895" lon="-3.953182"><ele>946</ele><time>2022-10-20T13:22:10Z</time><name>PT2806</name></trkpt>
<trkpt lat="53.194909" lon="-3.953226"><ele>946</ele><time>2022-10-20T13:22:13Z</time><name>PT2807</name></trkpt>
<trkpt lat="53.194923" lon="-3.953296"><ele>945</ele><time>2022-10-20T13:22:17Z</time><name>PT2808</name></trkpt>
<trkpt lat="53.194939" lon="-3.953339"><ele>945</ele><time>2022-10-20T13:22:20Z</time><name>PT2809</name></trkpt>
<trkpt lat="53.194960" lon="-3.953401"><ele>945</ele><time>2022-10-20T13:22:24Z</time><name>PT2810</name></trkpt>
<trkpt lat="53.194977" lon="-3.953432"><ele>945</ele><time>2022-10-20T13:22:27Z</time><name>PT2811</name></trkpt>
<trkpt lat="53.195002" lon="-3.953480"><ele>944</ele><time>2022-10-20T13:22:31Z</time><name>PT2812</name></trkpt>
<trkpt lat="53.195041" lon="-3.953502"><ele>943</ele><time>2022-10-20T13:22:35Z</time><name>PT2813</name></trkpt>
<trkpt lat="53.195063" lon="-3.953509"><ele>942</ele><time>2022-10-20T13:22:38Z</time><name>PT2814</name></trkpt>
<trkpt lat="53.195086" lon="-3.953527"><ele>941</ele><time>2022-10-20T13:22:42Z</time><name>PT2815</name></trkpt>
<trkpt lat="53.195096" lon="-3.953562"><ele>940</ele><time>2022-10-20T13:22:45Z</time><name>PT2816</name></trkpt>
<trkpt lat="53.195106" lon="-3.953606"><ele>939</ele><time>2022-10-20T13:22:49Z</time><name>PT2817</name></trkpt>
<trkpt lat="53.195117" lon="-3.953639"><ele>939</ele><time>2022-10-20T13:22:52Z</time><name>PT2818</name></trkpt>
<trkpt lat="53.195132" lon="-3.953683"><ele>937</ele><time>2022-10-20T13:22:56Z</time><name>PT2819</name></trkpt>
<trkpt lat="53.195144" lon="-3.953709"><ele>937</ele><time>2022-10-20T13:22:59Z</time><name>PT2820</name></trkpt>
<trkpt lat="53.195162" lon="-3.953746"><ele>935</ele><time>2022-10-20T13:23:03Z</time><name>PT2821</name></trkpt>
<trkpt lat="53.195175" lon="-3.953771"><ele>935</ele><time>2022-10-20T13:23:06Z</time><name>PT2822</name></trkpt>
<trkpt lat="53.195186" lon="-3.953800"><ele>934</ele><time>2022-10-20T13:23:09Z</time><name>PT2823</name></trkpt>
<trkpt lat="53.195194" lon="-3.953836"><ele>933</ele><time>2022-10-20T13:23:12Z</time><name>PT2824</name></trkpt>
<trkpt lat="53.195207" lon="-3.953873"><ele>932</ele><time>2022-10-20T13:23:16Z</time><name>PT2825</name></trkpt>
<trkpt lat="53.195219" lon="-3.953908"><ele>932</ele><time>2022-10-20T13:23:20Z</time><name>PT2826</name></trkpt>
<trkpt lat="53.195236" lon="-3.953926"><ele>931</ele><time>2022-10-20T13:23:23Z</time><name>PT2827</name></trkpt>
<trkpt lat="53.195261" lon="-3.953937"><ele>930</ele><time>2022-10-20T13:23:27Z</time><name>PT2828</name></trkpt>
<trkpt lat="53.195280" lon="-3.953959"><ele>930</ele><time>2022-10-20T13:23:30Z</time><name>PT2829</name></trkpt>
<trkpt lat="53.195296" lon="-3.953971"><ele>929</ele><time>2022-10-20T13:23:33Z</time><name>PT2830</name></trkpt>
<trkpt lat="53.195313" lon="-3.953991"><ele>928</ele><time>2022-10-20T13:23:36Z</time><name>PT2831</name></trkpt>
<trkpt lat="53.195337" lon="-3.954008"><ele>927</ele><time>2022-10-20T13:23:40Z</time><name>PT2832</name></trkpt>
<trkpt lat="53.195353" lon="-3.954018"><ele>926</ele><time>2022-10-20T13:23:44Z</time><name>PT2833</name></trkpt>
<trkpt lat="53.195377" lon="-3.954013"><ele>925</ele><time>2022-10-20T13:23:48Z</time><name>PT2834</name></trkpt>
<trkpt lat="53.195403" lon="-3.954029"><ele>924</ele><time>2022-10-20T13:23:52Z</time><name>PT2835</name></trkpt>
<trkpt lat="53.195419" lon="-3.954042"><ele>923</ele><time>2022-10-20T13:23:55Z</time><name>PT2836</name></trkpt>
<trkpt lat="53.195434" lon="-3.954065"><ele>922</ele><time>2022-10-20T13:23:59Z</time><name>PT2837</name></trkpt>
<trkpt lat="53.195448" lon="-3.954071"><ele>922</ele><time>2022-10-20T13:24:02Z</time><name>PT2838</name></trkpt>
<trkpt lat="53.195472" lon="-3.954078"><ele>921</ele><time>2022-10-20T13:24:06Z</time><name>PT2839</name></trkpt>
<trkpt lat="53.195491" lon="-3.954089"><ele>920</ele><time>2022-10-20T13:24:10Z</time><name>PT2840</name></trkpt>
<trkpt lat="53.195499" lon="-3.954092"><ele>920</ele><time>2022-10-20T13:24:13Z</time><name>PT2841</name></trkpt>
<trkpt lat="53.195499" lon="-3.954092"><ele>920</ele><time>2022-10-20T13:24:16Z</time><name>PT2842</name></trkpt>
<trkpt lat="53.195503" lon="-3.954097"><ele>920</ele><time>2022-10-20T13:25:09Z</time><name>PT2843</name></trkpt>
<trkpt lat="53.195523" lon="-3.954114"><ele>919</ele><time>2022-10-20T13:25:13Z</time><name>PT2844</name></trkpt>
<trkpt lat="53.195544" lon="-3.954091"><ele>918</ele><time>2022-10-20T13:25:17Z</time><name>PT2845</name></trkpt>
<trkpt lat="53.195579" lon="-3.954065"><ele>919</ele><time>2022-10-20T13:25:21Z</time><name>PT2846</name></trkpt>
<trkpt lat="53.195601" lon="-3.954050"><ele>918</ele><time>2022-10-20T13:25:25Z</time><name>PT2847</name></trkpt>
<trkpt lat="53.195606" lon="-3.954051"><ele>917</ele><time>2022-10-20T13:25:29Z</time><name>PT2848</name></trkpt>
<trkpt lat="53.195611" lon="-3.954051"><ele>917</ele><time>2022-10-20T13:25:42Z</time><name>PT2849</name></trkpt>
<trkpt lat="53.195639" lon="-3.954039"><ele>916</ele><time>2022-10-20T13:25:46Z</time><name>PT2850</name></trkpt>
<trkpt lat="53.195669" lon="-3.954014"><ele>913</ele><time>2022-10-20T13:25:50Z</time><name>PT2851</name></trkpt>
<trkpt lat="53.195692" lon="-3.954012"><ele>913</ele><time>2022-10-20T13:25:53Z</time><name>PT2852</name></trkpt>
<trkpt lat="53.195714" lon="-3.954017"><ele>913</ele><time>2022-10-20T13:25:56Z</time><name>PT2853</name></trkpt>
<trkpt lat="53.195734" lon="-3.954036"><ele>912</ele><time>2022-10-20T13:26:00Z</time><name>PT2854</name></trkpt>
<trkpt lat="53.195759" lon="-3.954042"><ele>912</ele><time>2022-10-20T13:26:03Z</time><name>PT2855</name></trkpt>
<trkpt lat="53.195777" lon="-3.954054"><ele>911</ele><time>2022-10-20T13:26:06Z</time><name>PT2856</name></trkpt>
<trkpt lat="53.195802" lon="-3.954054"><ele>910</ele><time>2022-10-20T13:26:10Z</time><name>PT2857</name></trkpt>
<trkpt lat="53.195822" lon="-3.954027"><ele>910</ele><time>2022-10-20T13:26:14Z</time><name>PT2858</name></trkpt>
<trkpt lat="53.195841" lon="-3.954012"><ele>909</ele><time>2022-10-20T13:26:17Z</time><name>PT2859</name></trkpt>
<trkpt lat="53.195861" lon="-3.953986"><ele>909</ele><time>2022-10-20T13:26:20Z</time><name>PT2860</name></trkpt>
<trkpt lat="53.195879" lon="-3.953966"><ele>909</ele><time>2022-10-20T13:26:23Z</time><name>PT2861</name></trkpt>
<trkpt lat="53.195906" lon="-3.953957"><ele>908</ele><time>2022-10-20T13:26:27Z</time><name>PT2862</name></trkpt>
<trkpt lat="53.195935" lon="-3.953964"><ele>908</ele><time>2022-10-20T13:26:30Z</time><name>PT2863</name></trkpt>
<trkpt lat="53.195947" lon="-3.953970"><ele>909</ele><time>2022-10-20T13:26:34Z</time><name>PT2864</name></trkpt>
<trkpt lat="53.195967" lon="-3.953983"><ele>908</ele><time>2022-10-20T13:26:38Z</time><name>PT2865</name></trkpt>
<trkpt lat="53.195997" lon="-3.954011"><ele>907</ele><time>2022-10-20T13:26:42Z</time><name>PT2866</name></trkpt>
<trkpt lat="53.196013" lon="-3.954013"><ele>906</ele><time>2022-10-20T13:26:45Z</time><name>PT2867</name></trkpt>
<trkpt lat="53.196036" lon="-3.954020"><ele>904</ele><time>2022-10-20T13:26:49Z</time><name>PT2868</name></trkpt>
<trkpt lat="53.196067" lon="-3.954036"><ele>903</ele><time>2022-10-20T13:26:53Z</time><name>PT2869</name></trkpt>
<trkpt lat="53.196080" lon="-3.954045"><ele>903</ele><time>2022-10-20T13:26:56Z</time><name>PT2870</name></trkpt>
<trkpt lat="53.196066" lon="-3.954066"><ele>904</ele><time>2022-10-20T13:26:59Z</time><name>PT2871</name></trkpt>
<trkpt lat="53.196052" lon="-3.954103"><ele>903</ele><time>2022-10-20T13:27:02Z</time><name>PT2872</name></trkpt>
<trkpt lat="53.196060" lon="-3.954138"><ele>902</ele><time>2022-10-20T13:27:05Z</time><name>PT2873</name></trkpt>
<trkpt lat="53.196066" lon="-3.954150"><ele>903</ele><time>2022-10-20T13:27:08Z</time><name>PT2874</name></trkpt>
<trkpt lat="53.196067" lon="-3.954151"><ele>903</ele><time>2022-10-20T13:27:12Z</time><name>PT2875</name></trkpt>
<trkpt lat="53.196066" lon="-3.954144"><ele>902</ele><time>2022-10-20T13:27:15Z</time><name>PT2876</name></trkpt>
<trkpt lat="53.196064" lon="-3.954143"><ele>902</ele><time>2022-10-20T13:27:19Z</time><name>PT2877</name></trkpt>
<trkpt lat="53.196072" lon="-3.954151"><ele>901</ele><time>2022-10-20T13:27:26Z</time><name>PT2878</name></trkpt>
<trkpt lat="53.196090" lon="-3.954140"><ele>900</ele><time>2022-10-20T13:27:29Z</time><name>PT2879</name></trkpt>
<trkpt lat="53.196114" lon="-3.954126"><ele>899</ele><time>2022-10-20T13:27:33Z</time><name>PT2880</name></trkpt>
<trkpt lat="53.196131" lon="-3.954144"><ele>898</ele><time>2022-10-20T13:27:36Z</time><name>PT2881</name></trkpt>
<trkpt lat="53.196141" lon="-3.954178"><ele>897</ele><time>2022-10-20T13:27:40Z</time><name>PT2882</name></trkpt>
<trkpt lat="53.196158" lon="-3.954185"><ele>896</ele><time>2022-10-20T13:27:44Z</time><name>PT2883</name></trkpt>
<trkpt lat="53.196174" lon="-3.954177"><ele>895</ele><time>2022-10-20T13:27:47Z</time><name>PT2884</name></trkpt>
<trkpt lat="53.196214" lon="-3.954170"><ele>893</ele><time>2022-10-20T13:27:51Z</time><name>PT2885</name></trkpt>
<trkpt lat="53.196237" lon="-3.954164"><ele>893</ele><time>2022-10-20T13:27:54Z</time><name>PT2886</name></trkpt>
<trkpt lat="53.196266" lon="-3.954154"><ele>893</ele><time>2022-10-20T13:27:57Z</time><name>PT2887</name></trkpt>
<trkpt lat="53.196297" lon="-3.954156"><ele>892</ele><time>2022-10-20T13:28:00Z</time><name>PT2888</name></trkpt>
<trkpt lat="53.196344" lon="-3.954165"><ele>891</ele><time>2022-10-20T13:28:04Z</time><name>PT2889</name></trkpt>
<trkpt lat="53.196371" lon="-3.954167"><ele>890</ele><time>2022-10-20T13:28:07Z</time><name>PT2890</name></trkpt>
<trkpt lat="53.196411" lon="-3.954162"><ele>888</ele><time>2022-10-20T13:28:11Z</time><name>PT2891</name></trkpt>
<trkpt lat="53.196464" lon="-3.954172"><ele>888</ele><time>2022-10-20T13:28:15Z</time><name>PT2892</name></trkpt>
<trkpt lat="53.196501" lon="-3.954177"><ele>887</ele><time>2022-10-20T13:28:18Z</time><name>PT2893</name></trkpt>
<trkpt lat="53.196532" lon="-3.954195"><ele>887</ele><time>2022-10-20T13:28:21Z</time><name>PT2894</name></trkpt>
<trkpt lat="53.196581" lon="-3.954205"><ele>887</ele><time>2022-10-20T13:28:25Z</time><name>PT2895</name></trkpt>
<trkpt lat="53.196631" lon="-3.954201"><ele>887</ele><time>2022-10-20T13:28:29Z</time><name>PT2896</name></trkpt>
<trkpt lat="53.196668" lon="-3.954203"><ele>886</ele><time>2022-10-20T13:28:33Z</time><name>PT2897</name></trkpt>
<trkpt lat="53.196697" lon="-3.954194"><ele>885</ele><time>2022-10-20T13:28:36Z</time><name>PT2898</name></trkpt>
<trkpt lat="53.196734" lon="-3.954191"><ele>885</ele><time>2022-10-20T13:28:39Z</time><name>PT2899</name></trkpt>
<trkpt lat="53.196768" lon="-3.954186"><ele>885</ele><time>2022-10-20T13:28:43Z</time><name>PT2900</name></trkpt>
<trkpt lat="53.196807" lon="-3.954196"><ele>885</ele><time>2022-10-20T13:28:47Z</time><name>PT2901</name></trkpt>
<trkpt lat="53.196830" lon="-3.954215"><ele>884</ele><time>2022-10-20T13:28:50Z</time><name>PT2902</name></trkpt>
<trkpt lat="53.196864" lon="-3.954228"><ele>883</ele><time>2022-10-20T13:28:54Z</time><name>PT2903</name></trkpt>
<trkpt lat="53.196879" lon="-3.954228"><ele>883</ele><time>2022-10-20T13:28:57Z</time><name>PT2904</name></trkpt>
<trkpt lat="53.196901" lon="-3.954242"><ele>883</ele><time>2022-10-20T13:29:01Z</time><name>PT2905</name></trkpt>
<trkpt lat="53.196931" lon="-3.954259"><ele>883</ele><time>2022-10-20T13:29:05Z</time><name>PT2906</name></trkpt>
<trkpt lat="53.196944" lon="-3.954290"><ele>882</ele><time>2022-10-20T13:29:08Z</time><name>PT2907</name></trkpt>
<trkpt lat="53.196967" lon="-3.954341"><ele>881</ele><time>2022-10-20T13:29:12Z</time><name>PT2908</name></trkpt>
<trkpt lat="53.196978" lon="-3.954357"><ele>881</ele><time>2022-10-20T13:29:15Z</time><name>PT2909</name></trkpt>
<trkpt lat="53.197008" lon="-3.954404"><ele>880</ele><time>2022-10-20T13:29:19Z</time><name>PT2910</name></trkpt>
<trkpt lat="53.197050" lon="-3.954408"><ele>878</ele><time>2022-10-20T13:29:23Z</time><name>PT2911</name></trkpt>
<trkpt lat="53.197083" lon="-3.954393"><ele>877</ele><time>2022-10-20T13:29:26Z</time><name>PT2912</name></trkpt>
<trkpt lat="53.197131" lon="-3.954405"><ele>876</ele><time>2022-10-20T13:29:30Z</time><name>PT2913</name></trkpt>
<trkpt lat="53.197163" lon="-3.954414"><ele>876</ele><time>2022-10-20T13:29:34Z</time><name>PT2914</name></trkpt>
<trkpt lat="53.197214" lon="-3.954406"><ele>875</ele><time>2022-10-20T13:29:38Z</time><name>PT2915</name></trkpt>
<trkpt lat="53.197238" lon="-3.954413"><ele>874</ele><time>2022-10-20T13:29:41Z</time><name>PT2916</name></trkpt>
<trkpt lat="53.197279" lon="-3.954391"><ele>874</ele><time>2022-10-20T13:29:45Z</time><name>PT2917</name></trkpt>
<trkpt lat="53.197310" lon="-3.954389"><ele>873</ele><time>2022-10-20T13:29:48Z</time><name>PT2918</name></trkpt>
<trkpt lat="53.197338" lon="-3.954377"><ele>873</ele><time>2022-10-20T13:29:51Z</time><name>PT2919</name></trkpt>
<trkpt lat="53.197362" lon="-3.954375"><ele>872</ele><time>2022-10-20T13:29:54Z</time><name>PT2920</name></trkpt>
<trkpt lat="53.197392" lon="-3.954349"><ele>872</ele><time>2022-10-20T13:29:58Z</time><name>PT2921</name></trkpt>
<trkpt lat="53.197416" lon="-3.954318"><ele>871</ele><time>2022-10-20T13:30:01Z</time><name>PT2922</name></trkpt>
<trkpt lat="53.197449" lon="-3.954285"><ele>870</ele><time>2022-10-20T13:30:05Z</time><name>PT2923</name></trkpt>
<trkpt lat="53.197476" lon="-3.954255"><ele>869</ele><time>2022-10-20T13:30:08Z</time><name>PT2924</name></trkpt>
<trkpt lat="53.197500" lon="-3.954238"><ele>869</ele><time>2022-10-20T13:30:12Z</time><name>PT2925</name></trkpt>
<trkpt lat="53.197503" lon="-3.954237"><ele>869</ele><time>2022-10-20T13:30:15Z</time><name>PT2926</name></trkpt>
<trkpt lat="53.197529" lon="-3.954210"><ele>869</ele><time>2022-10-20T13:30:18Z</time><name>PT2927</name></trkpt>
<trkpt lat="53.197565" lon="-3.954192"><ele>868</ele><time>2022-10-20T13:30:22Z</time><name>PT2928</name></trkpt>
<trkpt lat="53.197604" lon="-3.954157"><ele>868</ele><time>2022-10-20T13:30:26Z</time><name>PT2929</name></trkpt>
<trkpt lat="53.197633" lon="-3.954137"><ele>867</ele><time>2022-10-20T13:30:29Z</time><name>PT2930</name></trkpt>
<trkpt lat="53.197674" lon="-3.954100"><ele>866</ele><time>2022-10-20T13:30:33Z</time><name>PT2931</name></trkpt>
<trkpt lat="53.197713" lon="-3.954093"><ele>865</ele><time>2022-10-20T13:30:37Z</time><name>PT2932</name></trkpt>
<trkpt lat="53.197763" lon="-3.954114"><ele>865</ele><time>2022-10-20T13:30:41Z</time><name>PT2933</name></trkpt>
<trkpt lat="53.197784" lon="-3.954128"><ele>865</ele><time>2022-10-20T13:30:44Z</time><name>PT2934</name></trkpt>
<trkpt lat="53.197805" lon="-3.954172"><ele>865</ele><time>2022-10-20T13:30:48Z</time><name>PT2935</name></trkpt>
<trkpt lat="53.197805" lon="-3.954192"><ele>865</ele><time>2022-10-20T13:30:51Z</time><name>PT2936</name></trkpt>
<trkpt lat="53.197811" lon="-3.954188"><ele>865</ele><time>2022-10-20T13:30:54Z</time><name>PT2937</name></trkpt>
<trkpt lat="53.197815" lon="-3.954191"><ele>865</ele><time>2022-10-20T13:30:57Z</time><name>PT2938</name></trkpt>
<trkpt lat="53.197815" lon="-3.954190"><ele>865</ele><time>2022-10-20T13:31:01Z</time><name>PT2939</name></trkpt>
<trkpt lat="53.197819" lon="-3.954202"><ele>866</ele><time>2022-10-20T13:31:11Z</time><name>PT2940</name></trkpt>
<trkpt lat="53.197818" lon="-3.954199"><ele>866</ele><time>2022-10-20T13:31:15Z</time><name>PT2941</name></trkpt>
<trkpt lat="53.197825" lon="-3.954197"><ele>865</ele><time>2022-10-20T13:31:21Z</time><name>PT2942</name></trkpt>
<trkpt lat="53.197852" lon="-3.954215"><ele>865</ele><time>2022-10-20T13:31:25Z</time><name>PT2943</name></trkpt>
<trkpt lat="53.197893" lon="-3.954246"><ele>864</ele><time>2022-10-20T13:31:29Z</time><name>PT2944</name></trkpt>
<trkpt lat="53.197919" lon="-3.954274"><ele>863</ele><time>2022-10-20T13:31:32Z</time><name>PT2945</name></trkpt>
<trkpt lat="53.197940" lon="-3.954320"><ele>862</ele><time>2022-10-20T13:31:36Z</time><name>PT2946</name></trkpt>
<trkpt lat="53.197967" lon="-3.954349"><ele>862</ele><time>2022-10-20T13:31:39Z</time><name>PT2947</name></trkpt>
<trkpt lat="53.197994" lon="-3.954378"><ele>861</ele><time>2022-10-20T13:31:42Z</time><name>PT2948</name></trkpt>
<trkpt lat="53.198031" lon="-3.954416"><ele>860</ele><time>2022-10-20T13:31:46Z</time><name>PT2949</name></trkpt>
<trkpt lat="53.198060" lon="-3.954448"><ele>860</ele><time>2022-10-20T13:31:49Z</time><name>PT2950</name></trkpt>
<trkpt lat="53.198094" lon="-3.954496"><ele>859</ele><time>2022-10-20T13:31:53Z</time><name>PT2951</name></trkpt>
<trkpt lat="53.198119" lon="-3.954519"><ele>859</ele><time>2022-10-20T13:31:56Z</time><name>PT2952</name></trkpt>
<trkpt lat="53.198144" lon="-3.954538"><ele>858</ele><time>2022-10-20T13:31:59Z</time><name>PT2953</name></trkpt>
<trkpt lat="53.198169" lon="-3.954576"><ele>858</ele><time>2022-10-20T13:32:03Z</time><name>PT2954</name></trkpt>
<trkpt lat="53.198191" lon="-3.954622"><ele>857</ele><time>2022-10-20T13:32:06Z</time><name>PT2955</name></trkpt>
<trkpt lat="53.198209" lon="-3.954655"><ele>857</ele><time>2022-10-20T13:32:09Z</time><name>PT2956</name></trkpt>
<trkpt lat="53.198232" lon="-3.954686"><ele>856</ele><time>2022-10-20T13:32:12Z</time><name>PT2957</name></trkpt>
<trkpt lat="53.198267" lon="-3.954725"><ele>855</ele><time>2022-10-20T13:32:16Z</time><name>PT2958</name></trkpt>
<trkpt lat="53.198291" lon="-3.954747"><ele>854</ele><time>2022-10-20T13:32:19Z</time><name>PT2959</name></trkpt>
<trkpt lat="53.198331" lon="-3.954778"><ele>854</ele><time>2022-10-20T13:32:23Z</time><name>PT2960</name></trkpt>
<trkpt lat="53.198358" lon="-3.954808"><ele>853</ele><time>2022-10-20T13:32:27Z</time><name>PT2961</name></trkpt>
<trkpt lat="53.198389" lon="-3.954834"><ele>852</ele><time>2022-10-20T13:32:31Z</time><name>PT2962</name></trkpt>
<trkpt lat="53.198411" lon="-3.954860"><ele>851</ele><time>2022-10-20T13:32:34Z</time><name>PT2963</name></trkpt>
<trkpt lat="53.198431" lon="-3.954908"><ele>850</ele><time>2022-10-20T13:32:38Z</time><name>PT2964</name></trkpt>
<trkpt lat="53.198454" lon="-3.954949"><ele>849</ele><time>2022-10-20T13:32:42Z</time><name>PT2965</name></trkpt>
<trkpt lat="53.198473" lon="-3.954994"><ele>848</ele><time>2022-10-20T13:32:46Z</time><name>PT2966</name></trkpt>
<trkpt lat="53.198493" lon="-3.955020"><ele>848</ele><time>2022-10-20T13:32:49Z</time><name>PT2967</name></trkpt>
<trkpt lat="53.198528" lon="-3.955032"><ele>847</ele><time>2022-10-20T13:32:53Z</time><name>PT2968</name></trkpt>
<trkpt lat="53.198551" lon="-3.955031"><ele>847</ele><time>2022-10-20T13:32:56Z</time><name>PT2969</name></trkpt>
<trkpt lat="53.198573" lon="-3.955018"><ele>846</ele><time>2022-10-20T13:32:59Z</time><name>PT2970</name></trkpt>
<trkpt lat="53.198596" lon="-3.955004"><ele>845</ele><time>2022-10-20T13:33:02Z</time><name>PT2971</name></trkpt>
<trkpt lat="53.198621" lon="-3.954983"><ele>844</ele><time>2022-10-20T13:33:05Z</time><name>PT2972</name></trkpt>
<trkpt lat="53.198657" lon="-3.954981"><ele>844</ele><time>2022-10-20T13:33:09Z</time><name>PT2973</name></trkpt>
<trkpt lat="53.198686" lon="-3.954986"><ele>843</ele><time>2022-10-20T13:33:12Z</time><name>PT2974</name></trkpt>
<trkpt lat="53.198720" lon="-3.954998"><ele>841</ele><time>2022-10-20T13:33:15Z</time><name>PT2975</name></trkpt>
<trkpt lat="53.198759" lon="-3.955031"><ele>839</ele><time>2022-10-20T13:33:19Z</time><name>PT2976</name></trkpt>
<trkpt lat="53.198805" lon="-3.955060"><ele>839</ele><time>2022-10-20T13:33:23Z</time><name>PT2977</name></trkpt>
<trkpt lat="53.198839" lon="-3.955090"><ele>839</ele><time>2022-10-20T13:33:26Z</time><name>PT2978</name></trkpt>
<trkpt lat="53.198885" lon="-3.955114"><ele>838</ele><time>2022-10-20T13:33:30Z</time><name>PT2979</name></trkpt>
<trkpt lat="53.198907" lon="-3.955127"><ele>838</ele><time>2022-10-20T13:33:33Z</time><name>PT2980</name></trkpt>
<trkpt lat="53.198931" lon="-3.955157"><ele>837</ele><time>2022-10-20T13:33:36Z</time><name>PT2981</name></trkpt>
<trkpt lat="53.198971" lon="-3.955168"><ele>836</ele><time>2022-10-20T13:33:40Z</time><name>PT2982</name></trkpt>
<trkpt lat="53.198991" lon="-3.955183"><ele>835</ele><time>2022-10-20T13:33:44Z</time><name>PT2983</name></trkpt>
<trkpt lat="53.199008" lon="-3.955209"><ele>834</ele><time>2022-10-20T13:33:47Z</time><name>PT2984</name></trkpt>
<trkpt lat="53.199018" lon="-3.955244"><ele>834</ele><time>2022-10-20T13:33:50Z</time><name>PT2985</name></trkpt>
<trkpt lat="53.199025" lon="-3.955259"><ele>833</ele><time>2022-10-20T13:33:53Z</time><name>PT2986</name></trkpt>
<trkpt lat="53.199056" lon="-3.955289"><ele>832</ele><time>2022-10-20T13:33:57Z</time><name>PT2987</name></trkpt>
<trkpt lat="53.199081" lon="-3.955307"><ele>831</ele><time>2022-10-20T13:34:00Z</time><name>PT2988</name></trkpt>
<trkpt lat="53.199098" lon="-3.955320"><ele>831</ele><time>2022-10-20T13:34:04Z</time><name>PT2989</name></trkpt>
<trkpt lat="53.199099" lon="-3.955321"><ele>831</ele><time>2022-10-20T13:34:07Z</time><name>PT2990</name></trkpt>
<trkpt lat="53.199129" lon="-3.955337"><ele>830</ele><time>2022-10-20T13:34:14Z</time><name>PT2991</name></trkpt>
<trkpt lat="53.199161" lon="-3.955348"><ele>829</ele><time>2022-10-20T13:34:18Z</time><name>PT2992</name></trkpt>
<trkpt lat="53.199179" lon="-3.955346"><ele>829</ele><time>2022-10-20T13:34:22Z</time><name>PT2993</name></trkpt>
<trkpt lat="53.199183" lon="-3.955348"><ele>829</ele><time>2022-10-20T13:34:26Z</time><name>PT2994</name></trkpt>
<trkpt lat="53.199188" lon="-3.955355"><ele>829</ele><time>2022-10-20T13:34:33Z</time><name>PT2995</name></trkpt>
<trkpt lat="53.199225" lon="-3.955375"><ele>828</ele><time>2022-10-20T13:34:37Z</time><name>PT2996</name></trkpt>
<trkpt lat="53.199259" lon="-3.955378"><ele>826</ele><time>2022-10-20T13:34:40Z</time><name>PT2997</name></trkpt>
<trkpt lat="53.199282" lon="-3.955391"><ele>825</ele><time>2022-10-20T13:34:43Z</time><name>PT2998</name></trkpt>
<trkpt lat="53.199313" lon="-3.955415"><ele>824</ele><time>2022-10-20T13:34:47Z</time><name>PT2999</name></trkpt>
<trkpt lat="53.199342" lon="-3.955430"><ele>823</ele><time>2022-10-20T13:34:50Z</time><name>PT3000</name></trkpt>
<trkpt lat="53.199375" lon="-3.955463"><ele>822</ele><time>2022-10-20T13:34:54Z</time><name>PT3001</name></trkpt>
<trkpt lat="53.199401" lon="-3.955501"><ele>820</ele><time>2022-10-20T13:34:58Z</time><name>PT3002</name></trkpt>
<trkpt lat="53.199426" lon="-3.955515"><ele>819</ele><time>2022-10-20T13:35:01Z</time><name>PT3003</name></trkpt>
<trkpt lat="53.199451" lon="-3.955545"><ele>819</ele><time>2022-10-20T13:35:05Z</time><name>PT3004</name></trkpt>
<trkpt lat="53.199468" lon="-3.955592"><ele>817</ele><time>2022-10-20T13:35:08Z</time><name>PT3005</name></trkpt>
<trkpt lat="53.199504" lon="-3.955664"><ele>817</ele><time>2022-10-20T13:35:12Z</time><name>PT3006</name></trkpt>
<trkpt lat="53.199534" lon="-3.955736"><ele>817</ele><time>2022-10-20T13:35:16Z</time><name>PT3007</name></trkpt>
<trkpt lat="53.199562" lon="-3.955800"><ele>817</ele><time>2022-10-20T13:35:20Z</time><name>PT3008</name></trkpt>
<trkpt lat="53.199586" lon="-3.955861"><ele>817</ele><time>2022-10-20T13:35:24Z</time><name>PT3009</name></trkpt>
<trkpt lat="53.199612" lon="-3.955899"><ele>818</ele><time>2022-10-20T13:35:27Z</time><name>PT3010</name></trkpt>
<trkpt lat="53.199644" lon="-3.955961"><ele>817</ele><time>2022-10-20T13:35:31Z</time><name>PT3011</name></trkpt>
<trkpt lat="53.199664" lon="-3.956028"><ele>817</ele><time>2022-10-20T13:35:34Z</time><name>PT3012</name></trkpt>
<trkpt lat="53.199686" lon="-3.956089"><ele>817</ele><time>2022-10-20T13:35:38Z</time><name>PT3013</name></trkpt>
<trkpt lat="53.199696" lon="-3.956144"><ele>817</ele><time>2022-10-20T13:35:41Z</time><name>PT3014</name></trkpt>
<trkpt lat="53.199719" lon="-3.956207"><ele>816</ele><time>2022-10-20T13:35:45Z</time><name>PT3015</name></trkpt>
<trkpt lat="53.199729" lon="-3.956240"><ele>816</ele><time>2022-10-20T13:35:48Z</time><name>PT3016</name></trkpt>
<trkpt lat="53.199740" lon="-3.956294"><ele>815</ele><time>2022-10-20T13:35:51Z</time><name>PT3017</name></trkpt>
<trkpt lat="53.199763" lon="-3.956347"><ele>815</ele><time>2022-10-20T13:35:55Z</time><name>PT3018</name></trkpt>
<trkpt lat="53.199785" lon="-3.956383"><ele>813</ele><time>2022-10-20T13:35:58Z</time><name>PT3019</name></trkpt>
<trkpt lat="53.199802" lon="-3.956433"><ele>812</ele><time>2022-10-20T13:36:01Z</time><name>PT3020</name></trkpt>
<trkpt lat="53.199822" lon="-3.956473"><ele>812</ele><time>2022-10-20T13:36:04Z</time><name>PT3021</name></trkpt>
<trkpt lat="53.199848" lon="-3.956530"><ele>810</ele><time>2022-10-20T13:36:08Z</time><name>PT3022</name></trkpt>
<trkpt lat="53.199864" lon="-3.956560"><ele>810</ele><time>2022-10-20T13:36:11Z</time><name>PT3023</name></trkpt>
<trkpt lat="53.199894" lon="-3.956615"><ele>810</ele><time>2022-10-20T13:36:15Z</time><name>PT3024</name></trkpt>
<trkpt lat="53.199916" lon="-3.956657"><ele>809</ele><time>2022-10-20T13:36:18Z</time><name>PT3025</name></trkpt>
<trkpt lat="53.199945" lon="-3.956698"><ele>809</ele><time>2022-10-20T13:36:22Z</time><name>PT3026</name></trkpt>
<trkpt lat="53.199966" lon="-3.956730"><ele>808</ele><time>2022-10-20T13:36:25Z</time><name>PT3027</name></trkpt>
<trkpt lat="53.199996" lon="-3.956764"><ele>808</ele><time>2022-10-20T13:36:29Z</time><name>PT3028</name></trkpt>
<trkpt lat="53.200002" lon="-3.956769"><ele>808</ele><time>2022-10-20T13:36:32Z</time><name>PT3029</name></trkpt>
<trkpt lat="53.200002" lon="-3.956770"><ele>808</ele><time>2022-10-20T13:36:35Z</time><name>PT3030</name></trkpt>
<trkpt lat="53.200015" lon="-3.956784"><ele>808</ele><time>2022-10-20T13:36:42Z</time><name>PT3031</name></trkpt>
<trkpt lat="53.200016" lon="-3.956791"><ele>808</ele><time>2022-10-20T13:36:45Z</time><name>PT3032</name></trkpt>
<trkpt lat="53.200015" lon="-3.956791"><ele>807</ele><time>2022-10-20T13:36:49Z</time><name>PT3033</name></trkpt>
<trkpt lat="53.200024" lon="-3.956801"><ele>807</ele><time>2022-10-20T13:37:13Z</time><name>PT3034</name></trkpt>
<trkpt lat="53.200037" lon="-3.956813"><ele>807</ele><time>2022-10-20T13:37:16Z</time><name>PT3035</name></trkpt>
<trkpt lat="53.200055" lon="-3.956827"><ele>806</ele><time>2022-10-20T13:37:20Z</time><name>PT3036</name></trkpt>
<trkpt lat="53.200080" lon="-3.956837"><ele>805</ele><time>2022-10-20T13:37:24Z</time><name>PT3037</name></trkpt>
<trkpt lat="53.200118" lon="-3.956877"><ele>805</ele><time>2022-10-20T13:37:28Z</time><name>PT3038</name></trkpt>
<trkpt lat="53.200149" lon="-3.956930"><ele>805</ele><time>2022-10-20T13:37:32Z</time><name>PT3039</name></trkpt>
<trkpt lat="53.200168" lon="-3.956978"><ele>804</ele><time>2022-10-20T13:37:35Z</time><name>PT3040</name></trkpt>
<trkpt lat="53.200200" lon="-3.957032"><ele>804</ele><time>2022-10-20T13:37:39Z</time><name>PT3041</name></trkpt>
<trkpt lat="53.200231" lon="-3.957086"><ele>803</ele><time>2022-10-20T13:37:43Z</time><name>PT3042</name></trkpt>
<trkpt lat="53.200269" lon="-3.957141"><ele>804</ele><time>2022-10-20T13:37:47Z</time><name>PT3043</name></trkpt>
<trkpt lat="53.200295" lon="-3.957180"><ele>803</ele><time>2022-10-20T13:37:50Z</time><name>PT3044</name></trkpt>
<trkpt lat="53.200318" lon="-3.957233"><ele>803</ele><time>2022-10-20T13:37:53Z</time><name>PT3045</name></trkpt>
<trkpt lat="53.200339" lon="-3.957300"><ele>803</ele><time>2022-10-20T13:37:57Z</time><name>PT3046</name></trkpt>
<trkpt lat="53.200356" lon="-3.957342"><ele>803</ele><time>2022-10-20T13:38:00Z</time><name>PT3047</name></trkpt>
<trkpt lat="53.200369" lon="-3.957410"><ele>802</ele><time>2022-10-20T13:38:04Z</time><name>PT3048</name></trkpt>
<trkpt lat="53.200387" lon="-3.957497"><ele>802</ele><time>2022-10-20T13:38:08Z</time><name>PT3049</name></trkpt>
<trkpt lat="53.200415" lon="-3.957527"><ele>802</ele><time>2022-10-20T13:38:11Z</time><name>PT3050</name></trkpt>
<trkpt lat="53.200447" lon="-3.957566"><ele>801</ele><time>2022-10-20T13:38:14Z</time><name>PT3051</name></trkpt>
<trkpt lat="53.200462" lon="-3.957600"><ele>801</ele><time>2022-10-20T13:38:17Z</time><name>PT3052</name></trkpt>
<trkpt lat="53.200488" lon="-3.957633"><ele>800</ele><time>2022-10-20T13:38:21Z</time><name>PT3053</name></trkpt>
<trkpt lat="53.200515" lon="-3.957670"><ele>799</ele><time>2022-10-20T13:38:24Z</time><name>PT3054</name></trkpt>
<trkpt lat="53.200540" lon="-3.957732"><ele>799</ele><time>2022-10-20T13:38:28Z</time><name>PT3055</name></trkpt>
<trkpt lat="53.200563" lon="-3.957786"><ele>798</ele><time>2022-10-20T13:38:32Z</time><name>PT3056</name></trkpt>
<trkpt lat="53.200590" lon="-3.957830"><ele>799</ele><time>2022-10-20T13:38:35Z</time><name>PT3057</name></trkpt>
<trkpt lat="53.200621" lon="-3.957897"><ele>798</ele><time>2022-10-20T13:38:39Z</time><name>PT3058</name></trkpt>
<trkpt lat="53.200650" lon="-3.957957"><ele>797</ele><time>2022-10-20T13:38:43Z</time><name>PT3059</name></trkpt>
<trkpt lat="53.200687" lon="-3.958023"><ele>797</ele><time>2022-10-20T13:38:47Z</time><name>PT3060</name></trkpt>
<trkpt lat="53.200707" lon="-3.958069"><ele>797</ele><time>2022-10-20T13:38:50Z</time><name>PT3061</name></trkpt>
<trkpt lat="53.200721" lon="-3.958151"><ele>796</ele><time>2022-10-20T13:38:54Z</time><name>PT3062</name></trkpt>
<trkpt lat="53.200753" lon="-3.958212"><ele>796</ele><time>2022-10-20T13:38:58Z</time><name>PT3063</name></trkpt>
<trkpt lat="53.200780" lon="-3.958262"><ele>795</ele><time>2022-10-20T13:39:01Z</time><name>PT3064</name></trkpt>
<trkpt lat="53.200808" lon="-3.958299"><ele>794</ele><time>2022-10-20T13:39:04Z</time><name>PT3065</name></trkpt>
<trkpt lat="53.200842" lon="-3.958337"><ele>794</ele><time>2022-10-20T13:39:07Z</time><name>PT3066</name></trkpt>
<trkpt lat="53.200883" lon="-3.958387"><ele>793</ele><time>2022-10-20T13:39:11Z</time><name>PT3067</name></trkpt>
<trkpt lat="53.200917" lon="-3.958421"><ele>793</ele><time>2022-10-20T13:39:14Z</time><name>PT3068</name></trkpt>
<trkpt lat="53.200947" lon="-3.958471"><ele>793</ele><time>2022-10-20T13:39:17Z</time><name>PT3069</name></trkpt>
<trkpt lat="53.200975" lon="-3.958507"><ele>792</ele><time>2022-10-20T13:39:20Z</time><name>PT3070</name></trkpt>
<trkpt lat="53.201010" lon="-3.958568"><ele>792</ele><time>2022-10-20T13:39:24Z</time><name>PT3071</name></trkpt>
<trkpt lat="53.201036" lon="-3.958611"><ele>792</ele><time>2022-10-20T13:39:27Z</time><name>PT3072</name></trkpt>
<trkpt lat="53.201068" lon="-3.958668"><ele>792</ele><time>2022-10-20T13:39:31Z</time><name>PT3073</name></trkpt>
<trkpt lat="53.201099" lon="-3.958706"><ele>792</ele><time>2022-10-20T13:39:34Z</time><name>PT3074</name></trkpt>
<trkpt lat="53.201134" lon="-3.958771"><ele>791</ele><time>2022-10-20T13:39:38Z</time><name>PT3075</name></trkpt>
<trkpt lat="53.201156" lon="-3.958815"><ele>791</ele><time>2022-10-20T13:39:41Z</time><name>PT3076</name></trkpt>
<trkpt lat="53.201181" lon="-3.958880"><ele>791</ele><time>2022-10-20T13:39:45Z</time><name>PT3077</name></trkpt>
<trkpt lat="53.201203" lon="-3.958941"><ele>791</ele><time>2022-10-20T13:39:49Z</time><name>PT3078</name></trkpt>
<trkpt lat="53.201225" lon="-3.958985"><ele>791</ele><time>2022-10-20T13:39:52Z</time><name>PT3079</name></trkpt>
<trkpt lat="53.201254" lon="-3.959056"><ele>791</ele><time>2022-10-20T13:39:56Z</time><name>PT3080</name></trkpt>
<trkpt lat="53.201277" lon="-3.959108"><ele>791</ele><time>2022-10-20T13:39:59Z</time><name>PT3081</name></trkpt>
<trkpt lat="53.201301" lon="-3.959187"><ele>790</ele><time>2022-10-20T13:40:03Z</time><name>PT3082</name></trkpt>
<trkpt lat="53.201324" lon="-3.959238"><ele>790</ele><time>2022-10-20T13:40:06Z</time><name>PT3083</name></trkpt>
<trkpt lat="53.201346" lon="-3.959313"><ele>789</ele><time>2022-10-20T13:40:10Z</time><name>PT3084</name></trkpt>
<trkpt lat="53.201384" lon="-3.959361"><ele>788</ele><time>2022-10-20T13:40:14Z</time><name>PT3085</name></trkpt>
<trkpt lat="53.201423" lon="-3.959408"><ele>787</ele><time>2022-10-20T13:40:18Z</time><name>PT3086</name></trkpt>
<trkpt lat="53.201452" lon="-3.959444"><ele>786</ele><time>2022-10-20T13:40:21Z</time><name>PT3087</name></trkpt>
<trkpt lat="53.201483" lon="-3.959481"><ele>786</ele><time>2022-10-20T13:40:25Z</time><name>PT3088</name></trkpt>
<trkpt lat="53.201503" lon="-3.959530"><ele>785</ele><time>2022-10-20T13:40:28Z</time><name>PT3089</name></trkpt>
<trkpt lat="53.201527" lon="-3.959574"><ele>785</ele><time>2022-10-20T13:40:31Z</time><name>PT3090</name></trkpt>
<trkpt lat="53.201569" lon="-3.959621"><ele>784</ele><time>2022-10-20T13:40:35Z</time><name>PT3091</name></trkpt>
<trkpt lat="53.201596" lon="-3.959651"><ele>785</ele><time>2022-10-20T13:40:38Z</time><name>PT3092</name></trkpt>
<trkpt lat="53.201622" lon="-3.959694"><ele>784</ele><time>2022-10-20T13:40:41Z</time><name>PT3093</name></trkpt>
<trkpt lat="53.201657" lon="-3.959743"><ele>784</ele><time>2022-10-20T13:40:45Z</time><name>PT3094</name></trkpt>
<trkpt lat="53.201694" lon="-3.959803"><ele>784</ele><time>2022-10-20T13:40:49Z</time><name>PT3095</name></trkpt>
<trkpt lat="53.201731" lon="-3.959853"><ele>784</ele><time>2022-10-20T13:40:53Z</time><name>PT3096</name></trkpt>
<trkpt lat="53.201767" lon="-3.959898"><ele>783</ele><time>2022-10-20T13:40:57Z</time><name>PT3097</name></trkpt>
<trkpt lat="53.201795" lon="-3.959939"><ele>783</ele><time>2022-10-20T13:41:00Z</time><name>PT3098</name></trkpt>
<trkpt lat="53.201830" lon="-3.959992"><ele>783</ele><time>2022-10-20T13:41:04Z</time><name>PT3099</name></trkpt>
<trkpt lat="53.201860" lon="-3.960048"><ele>783</ele><time>2022-10-20T13:41:08Z</time><name>PT3100</name></trkpt>
<trkpt lat="53.201884" lon="-3.960090"><ele>784</ele><time>2022-10-20T13:41:11Z</time><name>PT3101</name></trkpt>
<trkpt lat="53.201910" lon="-3.960130"><ele>784</ele><time>2022-10-20T13:41:14Z</time><name>PT3102</name></trkpt>
<trkpt lat="53.201935" lon="-3.960190"><ele>785</ele><time>2022-10-20T13:41:18Z</time><name>PT3103</name></trkpt>
<trkpt lat="53.201958" lon="-3.960233"><ele>785</ele><time>2022-10-20T13:41:21Z</time><name>PT3104</name></trkpt>
<trkpt lat="53.201988" lon="-3.960281"><ele>784</ele><time>2022-10-20T13:41:25Z</time><name>PT3105</name></trkpt>
<trkpt lat="53.202003" lon="-3.960318"><ele>784</ele><time>2022-10-20T13:41:28Z</time><name>PT3106</name></trkpt>
<trkpt lat="53.202013" lon="-3.960336"><ele>785</ele><time>2022-10-20T13:41:31Z</time><name>PT3107</name></trkpt>
<trkpt lat="53.202017" lon="-3.960343"><ele>785</ele><time>2022-10-20T13:41:35Z</time><name>PT3108</name></trkpt>
<trkpt lat="53.202033" lon="-3.960385"><ele>785</ele><time>2022-10-20T13:41:45Z</time><name>PT3109</name></trkpt>
<trkpt lat="53.202065" lon="-3.960447"><ele>785</ele><time>2022-10-20T13:41:49Z</time><name>PT3110</name></trkpt>
<trkpt lat="53.202093" lon="-3.960482"><ele>785</ele><time>2022-10-20T13:41:52Z</time><name>PT3111</name></trkpt>
<trkpt lat="53.202119" lon="-3.960524"><ele>786</ele><time>2022-10-20T13:41:56Z</time><name>PT3112</name></trkpt>
<trkpt lat="53.202146" lon="-3.960554"><ele>785</ele><time>2022-10-20T13:41:59Z</time><name>PT3113</name></trkpt>
<trkpt lat="53.202171" lon="-3.960580"><ele>785</ele><time>2022-10-20T13:42:02Z</time><name>PT3114</name></trkpt>
<trkpt lat="53.202199" lon="-3.960612"><ele>785</ele><time>2022-10-20T13:42:05Z</time><name>PT3115</name></trkpt>
<trkpt lat="53.202230" lon="-3.960657"><ele>786</ele><time>2022-10-20T13:42:09Z</time><name>PT3116</name></trkpt>
<trkpt lat="53.202250" lon="-3.960695"><ele>786</ele><time>2022-10-20T13:42:12Z</time><name>PT3117</name></trkpt>
<trkpt lat="53.202286" lon="-3.960741"><ele>786</ele><time>2022-10-20T13:42:16Z</time><name>PT3118</name></trkpt>
<trkpt lat="53.202306" lon="-3.960784"><ele>786</ele><time>2022-10-20T13:42:19Z</time><name>PT3119</name></trkpt>
<trkpt lat="53.202325" lon="-3.960806"><ele>786</ele><time>2022-10-20T13:42:22Z</time><name>PT3120</name></trkpt>
<trkpt lat="53.202328" lon="-3.960815"><ele>786</ele><time>2022-10-20T13:42:26Z</time><name>PT3121</name></trkpt>
<trkpt lat="53.202359" lon="-3.960832"><ele>787</ele><time>2022-10-20T13:42:33Z</time><name>PT3122</name></trkpt>
<trkpt lat="53.202384" lon="-3.960846"><ele>786</ele><time>2022-10-20T13:42:36Z</time><name>PT3123</name></trkpt>
<trkpt lat="53.202410" lon="-3.960864"><ele>786</ele><time>2022-10-20T13:42:40Z</time><name>PT3124</name></trkpt>
<trkpt lat="53.202433" lon="-3.960888"><ele>787</ele><time>2022-10-20T13:42:43Z</time><name>PT3125</name></trkpt>
<trkpt lat="53.202461" lon="-3.960925"><ele>788</ele><time>2022-10-20T13:42:47Z</time><name>PT3126</name></trkpt>
<trkpt lat="53.202485" lon="-3.960946"><ele>788</ele><time>2022-10-20T13:42:50Z</time><name>PT3127</name></trkpt>
<trkpt lat="53.202518" lon="-3.960972"><ele>788</ele><time>2022-10-20T13:42:54Z</time><name>PT3128</name></trkpt>
<trkpt lat="53.202555" lon="-3.961005"><ele>789</ele><time>2022-10-20T13:42:58Z</time><name>PT3129</name></trkpt>
<trkpt lat="53.202573" lon="-3.961037"><ele>790</ele><time>2022-10-20T13:43:01Z</time><name>PT3130</name></trkpt>
<trkpt lat="53.202596" lon="-3.961083"><ele>790</ele><time>2022-10-20T13:43:05Z</time><name>PT3131</name></trkpt>
<trkpt lat="53.202614" lon="-3.961104"><ele>790</ele><time>2022-10-20T13:43:08Z</time><name>PT3132</name></trkpt>
<trkpt lat="53.202642" lon="-3.961136"><ele>791</ele><time>2022-10-20T13:43:12Z</time><name>PT3133</name></trkpt>
<trkpt lat="53.202662" lon="-3.961158"><ele>791</ele><time>2022-10-20T13:43:15Z</time><name>PT3134</name></trkpt>
<trkpt lat="53.202695" lon="-3.961183"><ele>792</ele><time>2022-10-20T13:43:19Z</time><name>PT3135</name></trkpt>
<trkpt lat="53.202722" lon="-3.961208"><ele>793</ele><time>2022-10-20T13:43:23Z</time><name>PT3136</name></trkpt>
<trkpt lat="53.202743" lon="-3.961230"><ele>793</ele><time>2022-10-20T13:43:26Z</time><name>PT3137</name></trkpt>
<trkpt lat="53.202773" lon="-3.961268"><ele>795</ele><time>2022-10-20T13:43:30Z</time><name>PT3138</name></trkpt>
<trkpt lat="53.202795" lon="-3.961296"><ele>796</ele><time>2022-10-20T13:43:33Z</time><name>PT3139</name></trkpt>
<trkpt lat="53.202823" lon="-3.961326"><ele>796</ele><time>2022-10-20T13:43:37Z</time><name>PT3140</name></trkpt>
<trkpt lat="53.202843" lon="-3.961360"><ele>797</ele><time>2022-10-20T13:43:40Z</time><name>PT3141</name></trkpt>
<trkpt lat="53.202869" lon="-3.961404"><ele>797</ele><time>2022-10-20T13:43:44Z</time><name>PT3142</name></trkpt>
<trkpt lat="53.202889" lon="-3.961443"><ele>797</ele><time>2022-10-20T13:43:48Z</time><name>PT3143</name></trkpt>
<trkpt lat="53.202907" lon="-3.961467"><ele>797</ele><time>2022-10-20T13:43:51Z</time><name>PT3144</name></trkpt>
<trkpt lat="53.202921" lon="-3.961490"><ele>798</ele><time>2022-10-20T13:43:54Z</time><name>PT3145</name></trkpt>
<trkpt lat="53.202944" lon="-3.961527"><ele>798</ele><time>2022-10-20T13:43:58Z</time><name>PT3146</name></trkpt>
<trkpt lat="53.202955" lon="-3.961554"><ele>799</ele><time>2022-10-20T13:44:02Z</time><name>PT3147</name></trkpt>
<trkpt lat="53.202974" lon="-3.961582"><ele>800</ele><time>2022-10-20T13:44:06Z</time><name>PT3148</name></trkpt>
<trkpt lat="53.202991" lon="-3.961589"><ele>801</ele><time>2022-10-20T13:44:09Z</time><name>PT3149</name></trkpt>
<trkpt lat="53.202995" lon="-3.961590"><ele>801</ele><time>2022-10-20T13:44:13Z</time><name>PT3150</name></trkpt>
<trkpt lat="53.203014" lon="-3.961594"><ele>803</ele><time>2022-10-20T13:44:19Z</time><name>PT3151</name></trkpt>
<trkpt lat="53.203037" lon="-3.961613"><ele>804</ele><time>2022-10-20T13:44:22Z</time><name>PT3152</name></trkpt>
<trkpt lat="53.203061" lon="-3.961647"><ele>805</ele><time>2022-10-20T13:44:26Z</time><name>PT3153</name></trkpt>
<trkpt lat="53.203076" lon="-3.961672"><ele>806</ele><time>2022-10-20T13:44:30Z</time><name>PT3154</name></trkpt>
<trkpt lat="53.203093" lon="-3.961683"><ele>806</ele><time>2022-10-20T13:44:33Z</time><name>PT3155</name></trkpt>
<trkpt lat="53.203109" lon="-3.961709"><ele>807</ele><time>2022-10-20T13:44:37Z</time><name>PT3156</name></trkpt>
<trkpt lat="53.203121" lon="-3.961719"><ele>807</ele><time>2022-10-20T13:44:40Z</time><name>PT3157</name></trkpt>
<trkpt lat="53.203143" lon="-3.961744"><ele>808</ele><time>2022-10-20T13:44:44Z</time><name>PT3158</name></trkpt>
<trkpt lat="53.203155" lon="-3.961758"><ele>808</ele><time>2022-10-20T13:44:47Z</time><name>PT3159</name></trkpt>
<trkpt lat="53.203168" lon="-3.961774"><ele>809</ele><time>2022-10-20T13:44:50Z</time><name>PT3160</name></trkpt>
<trkpt lat="53.203190" lon="-3.961787"><ele>810</ele><time>2022-10-20T13:44:54Z</time><name>PT3161</name></trkpt>
<trkpt lat="53.203206" lon="-3.961800"><ele>810</ele><time>2022-10-20T13:44:57Z</time><name>PT3162</name></trkpt>
<trkpt lat="53.203232" lon="-3.961810"><ele>811</ele><time>2022-10-20T13:45:01Z</time><name>PT3163</name></trkpt>
<trkpt lat="53.203257" lon="-3.961816"><ele>811</ele><time>2022-10-20T13:45:05Z</time><name>PT3164</name></trkpt>
<trkpt lat="53.203279" lon="-3.961830"><ele>811</ele><time>2022-10-20T13:45:09Z</time><name>PT3165</name></trkpt>
<trkpt lat="53.203310" lon="-3.961841"><ele>812</ele><time>2022-10-20T13:45:13Z</time><name>PT3166</name></trkpt>
<trkpt lat="53.203338" lon="-3.961860"><ele>813</ele><time>2022-10-20T13:45:17Z</time><name>PT3167</name></trkpt>
<trkpt lat="53.203357" lon="-3.961889"><ele>814</ele><time>2022-10-20T13:45:21Z</time><name>PT3168</name></trkpt>
<trkpt lat="53.203363" lon="-3.961924"><ele>815</ele><time>2022-10-20T13:45:25Z</time><name>PT3169</name></trkpt>
<trkpt lat="53.203369" lon="-3.961933"><ele>815</ele><time>2022-10-20T13:45:28Z</time><name>PT3170</name></trkpt>
<trkpt lat="53.203385" lon="-3.961947"><ele>816</ele><time>2022-10-20T13:45:31Z</time><name>PT3171</name></trkpt>
<trkpt lat="53.203393" lon="-3.961977"><ele>817</ele><time>2022-10-20T13:45:35Z</time><name>PT3172</name></trkpt>
<trkpt lat="53.203401" lon="-3.962002"><ele>817</ele><time>2022-10-20T13:45:38Z</time><name>PT3173</name></trkpt>
<trkpt lat="53.203408" lon="-3.962027"><ele>818</ele><time>2022-10-20T13:45:42Z</time><name>PT3174</name></trkpt>
<trkpt lat="53.203420" lon="-3.962042"><ele>819</ele><time>2022-10-20T13:45:45Z</time><name>PT3175</name></trkpt>
<trkpt lat="53.203435" lon="-3.962057"><ele>819</ele><time>2022-10-20T13:45:49Z</time><name>PT3176</name></trkpt>
<trkpt lat="53.203449" lon="-3.962089"><ele>819</ele><time>2022-10-20T13:45:53Z</time><name>PT3177</name></trkpt>
<trkpt lat="53.203458" lon="-3.962103"><ele>819</ele><time>2022-10-20T13:45:56Z</time><name>PT3178</name></trkpt>
<trkpt lat="53.203475" lon="-3.962115"><ele>819</ele><time>2022-10-20T13:45:59Z</time><name>PT3179</name></trkpt>
<trkpt lat="53.203495" lon="-3.962130"><ele>820</ele><time>2022-10-20T13:46:03Z</time><name>PT3180</name></trkpt>
<trkpt lat="53.203510" lon="-3.962141"><ele>820</ele><time>2022-10-20T13:46:07Z</time><name>PT3181</name></trkpt>
<trkpt lat="53.203521" lon="-3.962151"><ele>821</ele><time>2022-10-20T13:46:10Z</time><name>PT3182</name></trkpt>
<trkpt lat="53.203531" lon="-3.962159"><ele>822</ele><time>2022-10-20T13:46:13Z</time><name>PT3183</name></trkpt>
<trkpt lat="53.203553" lon="-3.962175"><ele>824</ele><time>2022-10-20T13:46:38Z</time><name>PT3184</name></trkpt>
<trkpt lat="53.203596" lon="-3.962207"><ele>825</ele><time>2022-10-20T13:46:41Z</time><name>PT3185</name></trkpt>
<trkpt lat="53.203629" lon="-3.962228"><ele>825</ele><time>2022-10-20T13:46:45Z</time><name>PT3186</name></trkpt>
<trkpt lat="53.203641" lon="-3.962249"><ele>827</ele><time>2022-10-20T13:46:51Z</time><name>PT3187</name></trkpt>
<trkpt lat="53.203674" lon="-3.962283"><ele>827</ele><time>2022-10-20T13:46:55Z</time><name>PT3188</name></trkpt>
<trkpt lat="53.203701" lon="-3.962300"><ele>827</ele><time>2022-10-20T13:46:58Z</time><name>PT3189</name></trkpt>
<trkpt lat="53.203739" lon="-3.962328"><ele>828</ele><time>2022-10-20T13:47:02Z</time><name>PT3190</name></trkpt>
<trkpt lat="53.203765" lon="-3.962351"><ele>829</ele><time>2022-10-20T13:47:05Z</time><name>PT3191</name></trkpt>
<trkpt lat="53.203788" lon="-3.962377"><ele>830</ele><time>2022-10-20T13:47:08Z</time><name>PT3192</name></trkpt>
<trkpt lat="53.203815" lon="-3.962396"><ele>831</ele><time>2022-10-20T13:47:12Z</time><name>PT3193</name></trkpt>
<trkpt lat="53.203834" lon="-3.962411"><ele>832</ele><time>2022-10-20T13:47:15Z</time><name>PT3194</name></trkpt>
<trkpt lat="53.203855" lon="-3.962446"><ele>833</ele><time>2022-10-20T13:47:19Z</time><name>PT3195</name></trkpt>
<trkpt lat="53.203852" lon="-3.962505"><ele>834</ele><time>2022-10-20T13:47:30Z</time><name>PT3196</name></trkpt>
<trkpt lat="53.203850" lon="-3.962542"><ele>835</ele><time>2022-10-20T13:47:33Z</time><name>PT3197</name></trkpt>
<trkpt lat="53.203845" lon="-3.962580"><ele>835</ele><time>2022-10-20T13:47:36Z</time><name>PT3198</name></trkpt>
<trkpt lat="53.203834" lon="-3.962629"><ele>836</ele><time>2022-10-20T13:47:40Z</time><name>PT3199</name></trkpt>
<trkpt lat="53.203835" lon="-3.962675"><ele>837</ele><time>2022-10-20T13:47:43Z</time><name>PT3200</name></trkpt>
<trkpt lat="53.203840" lon="-3.962713"><ele>838</ele><time>2022-10-20T13:47:46Z</time><name>PT3201</name></trkpt>
<trkpt lat="53.203846" lon="-3.962740"><ele>839</ele><time>2022-10-20T13:47:49Z</time><name>PT3202</name></trkpt>
<trkpt lat="53.203870" lon="-3.962773"><ele>840</ele><time>2022-10-20T13:47:53Z</time><name>PT3203</name></trkpt>
<trkpt lat="53.203884" lon="-3.962805"><ele>841</ele><time>2022-10-20T13:47:56Z</time><name>PT3204</name></trkpt>
<trkpt lat="53.203892" lon="-3.962844"><ele>843</ele><time>2022-10-20T13:47:59Z</time><name>PT3205</name></trkpt>
<trkpt lat="53.203910" lon="-3.962882"><ele>844</ele><time>2022-10-20T13:48:03Z</time><name>PT3206</name></trkpt>
<trkpt lat="53.203942" lon="-3.962915"><ele>845</ele><time>2022-10-20T13:48:07Z</time><name>PT3207</name></trkpt>
<trkpt lat="53.203962" lon="-3.962947"><ele>846</ele><time>2022-10-20T13:48:10Z</time><name>PT3208</name></trkpt>
<trkpt lat="53.203969" lon="-3.962991"><ele>847</ele><time>2022-10-20T13:48:14Z</time><name>PT3209</name></trkpt>
<trkpt lat="53.203970" lon="-3.963028"><ele>847</ele><time>2022-10-20T13:48:17Z</time><name>PT3210</name></trkpt>
<trkpt lat="53.203970" lon="-3.963058"><ele>848</ele><time>2022-10-20T13:48:20Z</time><name>PT3211</name></trkpt>
<trkpt lat="53.203965" lon="-3.963088"><ele>848</ele><time>2022-10-20T13:48:23Z</time><name>PT3212</name></trkpt>
<trkpt lat="53.203972" lon="-3.963144"><ele>849</ele><time>2022-10-20T13:48:27Z</time><name>PT3213</name></trkpt>
<trkpt lat="53.203963" lon="-3.963195"><ele>850</ele><time>2022-10-20T13:48:31Z</time><name>PT3214</name></trkpt>
<trkpt lat="53.203960" lon="-3.963249"><ele>851</ele><time>2022-10-20T13:48:35Z</time><name>PT3215</name></trkpt>
<trkpt lat="53.203955" lon="-3.963288"><ele>852</ele><time>2022-10-20T13:48:38Z</time><name>PT3216</name></trkpt>
<trkpt lat="53.203950" lon="-3.963324"><ele>852</ele><time>2022-10-20T13:48:41Z</time><name>PT3217</name></trkpt>
<trkpt lat="53.203941" lon="-3.963377"><ele>853</ele><time>2022-10-20T13:48:45Z</time><name>PT3218</name></trkpt>
<trkpt lat="53.203933" lon="-3.963405"><ele>853</ele><time>2022-10-20T13:48:48Z</time><name>PT3219</name></trkpt>
<trkpt lat="53.203925" lon="-3.963437"><ele>854</ele><time>2022-10-20T13:48:52Z</time><name>PT3220</name></trkpt>
<trkpt lat="53.203916" lon="-3.963463"><ele>854</ele><time>2022-10-20T13:48:55Z</time><name>PT3221</name></trkpt>
<trkpt lat="53.203914" lon="-3.963490"><ele>854</ele><time>2022-10-20T13:48:59Z</time><name>PT3222</name></trkpt>
<trkpt lat="53.203906" lon="-3.963494"><ele>854</ele><time>2022-10-20T13:49:02Z</time><name>PT3223</name></trkpt>
<trkpt lat="53.203891" lon="-3.963483"><ele>854</ele><time>2022-10-20T13:49:10Z</time><name>PT3224</name></trkpt>
<trkpt lat="53.203891" lon="-3.963484"><ele>854</ele><time>2022-10-20T13:49:13Z</time><name>PT3225</name></trkpt>
<trkpt lat="53.203897" lon="-3.963504"><ele>854</ele><time>2022-10-20T13:49:29Z</time><name>PT3226</name></trkpt>
<trkpt lat="53.203916" lon="-3.963536"><ele>854</ele><time>2022-10-20T13:49:32Z</time><name>PT3227</name></trkpt>
<trkpt lat="53.203936" lon="-3.963578"><ele>854</ele><time>2022-10-20T13:49:35Z</time><name>PT3228</name></trkpt>
<trkpt lat="53.203948" lon="-3.963619"><ele>854</ele><time>2022-10-20T13:49:38Z</time><name>PT3229</name></trkpt>
<trkpt lat="53.203970" lon="-3.963675"><ele>854</ele><time>2022-10-20T13:49:42Z</time><name>PT3230</name></trkpt>
<trkpt lat="53.203980" lon="-3.963721"><ele>854</ele><time>2022-10-20T13:49:45Z</time><name>PT3231</name></trkpt>
<trkpt lat="53.203998" lon="-3.963778"><ele>854</ele><time>2022-10-20T13:49:49Z</time><name>PT3232</name></trkpt>
<trkpt lat="53.204011" lon="-3.963814"><ele>854</ele><time>2022-10-20T13:49:52Z</time><name>PT3233</name></trkpt>
<trkpt lat="53.204026" lon="-3.963874"><ele>854</ele><time>2022-10-20T13:49:56Z</time><name>PT3234</name></trkpt>
<trkpt lat="53.204047" lon="-3.963953"><ele>855</ele><time>2022-10-20T13:50:00Z</time><name>PT3235</name></trkpt>
<trkpt lat="53.204053" lon="-3.964035"><ele>855</ele><time>2022-10-20T13:50:04Z</time><name>PT3236</name></trkpt>
<trkpt lat="53.204065" lon="-3.964114"><ele>856</ele><time>2022-10-20T13:50:08Z</time><name>PT3237</name></trkpt>
<trkpt lat="53.204085" lon="-3.964177"><ele>856</ele><time>2022-10-20T13:50:12Z</time><name>PT3238</name></trkpt>
<trkpt lat="53.204104" lon="-3.964227"><ele>856</ele><time>2022-10-20T13:50:15Z</time><name>PT3239</name></trkpt>
<trkpt lat="53.204119" lon="-3.964277"><ele>855</ele><time>2022-10-20T13:50:18Z</time><name>PT3240</name></trkpt>
<trkpt lat="53.204136" lon="-3.964351"><ele>855</ele><time>2022-10-20T13:50:22Z</time><name>PT3241</name></trkpt>
<trkpt lat="53.204160" lon="-3.964392"><ele>856</ele><time>2022-10-20T13:50:25Z</time><name>PT3242</name></trkpt>
<trkpt lat="53.204177" lon="-3.964445"><ele>856</ele><time>2022-10-20T13:50:28Z</time><name>PT3243</name></trkpt>
<trkpt lat="53.204200" lon="-3.964518"><ele>856</ele><time>2022-10-20T13:50:32Z</time><name>PT3244</name></trkpt>
<trkpt lat="53.204217" lon="-3.964603"><ele>856</ele><time>2022-10-20T13:50:36Z</time><name>PT3245</name></trkpt>
<trkpt lat="53.204230" lon="-3.964675"><ele>856</ele><time>2022-10-20T13:50:40Z</time><name>PT3246</name></trkpt>
<trkpt lat="53.204241" lon="-3.964734"><ele>856</ele><time>2022-10-20T13:50:43Z</time><name>PT3247</name></trkpt>
<trkpt lat="53.204245" lon="-3.964820"><ele>855</ele><time>2022-10-20T13:50:47Z</time><name>PT3248</name></trkpt>
<trkpt lat="53.204248" lon="-3.964880"><ele>855</ele><time>2022-10-20T13:50:50Z</time><name>PT3249</name></trkpt>
<trkpt lat="53.204256" lon="-3.964945"><ele>854</ele><time>2022-10-20T13:50:53Z</time><name>PT3250</name></trkpt>
<trkpt lat="53.204276" lon="-3.965028"><ele>854</ele><time>2022-10-20T13:50:57Z</time><name>PT3251</name></trkpt>
<trkpt lat="53.204292" lon="-3.965090"><ele>854</ele><time>2022-10-20T13:51:00Z</time><name>PT3252</name></trkpt>
<trkpt lat="53.204303" lon="-3.965168"><ele>853</ele><time>2022-10-20T13:51:04Z</time><name>PT3253</name></trkpt>
<trkpt lat="53.204315" lon="-3.965227"><ele>853</ele><time>2022-10-20T13:51:07Z</time><name>PT3254</name></trkpt>
<trkpt lat="53.204327" lon="-3.965315"><ele>852</ele><time>2022-10-20T13:51:11Z</time><name>PT3255</name></trkpt>
<trkpt lat="53.204338" lon="-3.965399"><ele>852</ele><time>2022-10-20T13:51:15Z</time><name>PT3256</name></trkpt>
<trkpt lat="53.204354" lon="-3.965456"><ele>852</ele><time>2022-10-20T13:51:18Z</time><name>PT3257</name></trkpt>
<trkpt lat="53.204364" lon="-3.965537"><ele>852</ele><time>2022-10-20T13:51:22Z</time><name>PT3258</name></trkpt>
<trkpt lat="53.204374" lon="-3.965603"><ele>851</ele><time>2022-10-20T13:51:25Z</time><name>PT3259</name></trkpt>
<trkpt lat="53.204389" lon="-3.965662"><ele>851</ele><time>2022-10-20T13:51:28Z</time><name>PT3260</name></trkpt>
<trkpt lat="53.204403" lon="-3.965716"><ele>851</ele><time>2022-10-20T13:51:31Z</time><name>PT3261</name></trkpt>
<trkpt lat="53.204423" lon="-3.965789"><ele>851</ele><time>2022-10-20T13:51:35Z</time><name>PT3262</name></trkpt>
<trkpt lat="53.204441" lon="-3.965837"><ele>851</ele><time>2022-10-20T13:51:38Z</time><name>PT3263</name></trkpt>
<trkpt lat="53.204450" lon="-3.965899"><ele>850</ele><time>2022-10-20T13:51:41Z</time><name>PT3264</name></trkpt>
<trkpt lat="53.204472" lon="-3.965928"><ele>849</ele><time>2022-10-20T13:51:44Z</time><name>PT3265</name></trkpt>
<trkpt lat="53.204492" lon="-3.965976"><ele>849</ele><time>2022-10-20T13:51:48Z</time><name>PT3266</name></trkpt>
<trkpt lat="53.204503" lon="-3.966011"><ele>848</ele><time>2022-10-20T13:51:52Z</time><name>PT3267</name></trkpt>
<trkpt lat="53.204525" lon="-3.966027"><ele>847</ele><time>2022-10-20T13:51:58Z</time><name>PT3268</name></trkpt>
<trkpt lat="53.204554" lon="-3.966086"><ele>847</ele><time>2022-10-20T13:52:02Z</time><name>PT3269</name></trkpt>
<trkpt lat="53.204567" lon="-3.966140"><ele>847</ele><time>2022-10-20T13:52:06Z</time><name>PT3270</name></trkpt>
<trkpt lat="53.204587" lon="-3.966177"><ele>847</ele><time>2022-10-20T13:52:09Z</time><name>PT3271</name></trkpt>
<trkpt lat="53.204596" lon="-3.966227"><ele>847</ele><time>2022-10-20T13:52:12Z</time><name>PT3272</name></trkpt>
<trkpt lat="53.204610" lon="-3.966295"><ele>847</ele><time>2022-10-20T13:52:16Z</time><name>PT3273</name></trkpt>
<trkpt lat="53.204612" lon="-3.966350"><ele>847</ele><time>2022-10-20T13:52:19Z</time><name>PT3274</name></trkpt>
<trkpt lat="53.204626" lon="-3.966400"><ele>847</ele><time>2022-10-20T13:52:22Z</time><name>PT3275</name></trkpt>
<trkpt lat="53.204663" lon="-3.966456"><ele>847</ele><time>2022-10-20T13:52:26Z</time><name>PT3276</name></trkpt>
<trkpt lat="53.204675" lon="-3.966501"><ele>847</ele><time>2022-10-20T13:52:29Z</time><name>PT3277</name></trkpt>
<trkpt lat="53.204678" lon="-3.966546"><ele>847</ele><time>2022-10-20T13:52:33Z</time><name>PT3278</name></trkpt>
<trkpt lat="53.204675" lon="-3.966574"><ele>848</ele><time>2022-10-20T13:52:36Z</time><name>PT3279</name></trkpt>
<trkpt lat="53.204678" lon="-3.966642"><ele>849</ele><time>2022-10-20T13:52:40Z</time><name>PT3280</name></trkpt>
<trkpt lat="53.204668" lon="-3.966677"><ele>849</ele><time>2022-10-20T13:52:44Z</time><name>PT3281</name></trkpt>
<trkpt lat="53.204663" lon="-3.966698"><ele>849</ele><time>2022-10-20T13:52:47Z</time><name>PT3282</name></trkpt>
<trkpt lat="53.204664" lon="-3.966710"><ele>849</ele><time>2022-10-20T13:52:51Z</time><name>PT3283</name></trkpt>
<trkpt lat="53.204672" lon="-3.966747"><ele>849</ele><time>2022-10-20T13:52:55Z</time><name>PT3284</name></trkpt>
<trkpt lat="53.204677" lon="-3.966769"><ele>849</ele><time>2022-10-20T13:52:59Z</time><name>PT3285</name></trkpt>
<trkpt lat="53.204679" lon="-3.966769"><ele>849</ele><time>2022-10-20T13:53:03Z</time><name>PT3286</name></trkpt>
<trkpt lat="53.204689" lon="-3.966770"><ele>849</ele><time>2022-10-20T13:53:07Z</time><name>PT3287</name></trkpt>
<trkpt lat="53.204693" lon="-3.966778"><ele>849</ele><time>2022-10-20T13:53:11Z</time><name>PT3288</name></trkpt>
<trkpt lat="53.204690" lon="-3.966796"><ele>848</ele><time>2022-10-20T13:53:15Z</time><name>PT3289</name></trkpt>
<trkpt lat="53.204700" lon="-3.966840"><ele>847</ele><time>2022-10-20T13:53:19Z</time><name>PT3290</name></trkpt>
<trkpt lat="53.204696" lon="-3.966856"><ele>846</ele><time>2022-10-20T13:53:22Z</time><name>PT3291</name></trkpt>
<trkpt lat="53.204693" lon="-3.966877"><ele>846</ele><time>2022-10-20T13:53:25Z</time><name>PT3292</name></trkpt>
<trkpt lat="53.204692" lon="-3.966882"><ele>846</ele><time>2022-10-20T13:53:29Z</time><name>PT3293</name></trkpt>
<trkpt lat="53.204690" lon="-3.966911"><ele>846</ele><time>2022-10-20T13:53:32Z</time><name>PT3294</name></trkpt>
<trkpt lat="53.204688" lon="-3.966917"><ele>845</ele><time>2022-10-20T13:53:36Z</time><name>PT3295</name></trkpt>
<trkpt lat="53.204688" lon="-3.966933"><ele>845</ele><time>2022-10-20T13:53:42Z</time><name>PT3296</name></trkpt>
<trkpt lat="53.204683" lon="-3.966932"><ele>846</ele><time>2022-10-20T13:53:46Z</time><name>PT3297</name></trkpt>
<trkpt lat="53.204687" lon="-3.966923"><ele>846</ele><time>2022-10-20T13:53:49Z</time><name>PT3298</name></trkpt>
<trkpt lat="53.204685" lon="-3.966922"><ele>845</ele><time>2022-10-20T13:53:52Z</time><name>PT3299</name></trkpt>
<trkpt lat="53.204685" lon="-3.966921"><ele>845</ele><time>2022-10-20T13:53:56Z</time><name>PT3300</name></trkpt>
<trkpt lat="53.204686" lon="-3.966920"><ele>845</ele><time>2022-10-20T13:54:09Z</time><name>PT3301</name></trkpt>
<trkpt lat="53.204687" lon="-3.966920"><ele>846</ele><time>2022-10-20T13:54:13Z</time><name>PT3302</name></trkpt>
<trkpt lat="53.204686" lon="-3.966913"><ele>846</ele><time>2022-10-20T13:54:16Z</time><name>PT3303</name></trkpt>
<trkpt lat="53.204689" lon="-3.966910"><ele>845</ele><time>2022-10-20T13:54:20Z</time><name>PT3304</name></trkpt>
<trkpt lat="53.204688" lon="-3.966909"><ele>845</ele><time>2022-10-20T13:54:24Z</time><name>PT3305</name></trkpt>
<trkpt lat="53.204693" lon="-3.966915"><ele>844</ele><time>2022-10-20T13:54:59Z</time><name>PT3306</name></trkpt>
<trkpt lat="53.204699" lon="-3.966916"><ele>844</ele><time>2022-10-20T13:55:13Z</time><name>PT3307</name></trkpt>
<trkpt lat="53.204699" lon="-3.966919"><ele>844</ele><time>2022-10-20T13:55:16Z</time><name>PT3308</name></trkpt>
<trkpt lat="53.204699" lon="-3.966919"><ele>844</ele><time>2022-10-20T13:55:19Z</time><name>PT3309</name></trkpt>
<trkpt lat="53.204701" lon="-3.966920"><ele>844</ele><time>2022-10-20T13:56:15Z</time><name>PT3310</name></trkpt>
<trkpt lat="53.204702" lon="-3.966920"><ele>844</ele><time>2022-10-20T13:56:19Z</time><name>PT3311</name></trkpt>
<trkpt lat="53.204711" lon="-3.966920"><ele>842</ele><time>2022-10-20T13:57:47Z</time><name>PT3312</name></trkpt>
<trkpt lat="53.204718" lon="-3.966931"><ele>843</ele><time>2022-10-20T13:58:11Z</time><name>PT3313</name></trkpt>
<trkpt lat="53.204713" lon="-3.966930"><ele>843</ele><time>2022-10-20T13:58:14Z</time><name>PT3314</name></trkpt>
<trkpt lat="53.204707" lon="-3.966931"><ele>843</ele><time>2022-10-20T13:58:26Z</time><name>PT3315</name></trkpt>
<trkpt lat="53.204707" lon="-3.966932"><ele>843</ele><time>2022-10-20T13:58:29Z</time><name>PT3316</name></trkpt>
<trkpt lat="53.204700" lon="-3.966944"><ele>843</ele><time>2022-10-20T14:00:20Z</time><name>PT3317</name></trkpt>
<trkpt lat="53.204684" lon="-3.966937"><ele>844</ele><time>2022-10-20T14:00:24Z</time><name>PT3318</name></trkpt>
<trkpt lat="53.204695" lon="-3.966923"><ele>843</ele><time>2022-10-20T14:00:27Z</time><name>PT3319</name></trkpt>
<trkpt lat="53.204702" lon="-3.966917"><ele>843</ele><time>2022-10-20T14:00:35Z</time><name>PT3320</name></trkpt>
<trkpt lat="53.204706" lon="-3.966930"><ele>843</ele><time>2022-10-20T14:00:39Z</time><name>PT3321</name></trkpt>
<trkpt lat="53.204706" lon="-3.966943"><ele>843</ele><time>2022-10-20T14:00:43Z</time><name>PT3322</name></trkpt>
<trkpt lat="53.204723" lon="-3.966943"><ele>843</ele><time>2022-10-20T14:00:46Z</time><name>PT3323</name></trkpt>
<trkpt lat="53.204761" lon="-3.966955"><ele>842</ele><time>2022-10-20T14:00:50Z</time><name>PT3324</name></trkpt>
<trkpt lat="53.204787" lon="-3.966961"><ele>842</ele><time>2022-10-20T14:00:53Z</time><name>PT3325</name></trkpt>
<trkpt lat="53.204813" lon="-3.966962"><ele>842</ele><time>2022-10-20T14:00:56Z</time><name>PT3326</name></trkpt>
<trkpt lat="53.204842" lon="-3.966981"><ele>841</ele><time>2022-10-20T14:00:59Z</time><name>PT3327</name></trkpt>
<trkpt lat="53.204879" lon="-3.967005"><ele>840</ele><time>2022-10-20T14:01:03Z</time><name>PT3328</name></trkpt>
<trkpt lat="53.204916" lon="-3.967015"><ele>840</ele><time>2022-10-20T14:01:07Z</time><name>PT3329</name></trkpt>
<trkpt lat="53.204939" lon="-3.967022"><ele>840</ele><time>2022-10-20T14:01:10Z</time><name>PT3330</name></trkpt>
<trkpt lat="53.204955" lon="-3.967047"><ele>839</ele><time>2022-10-20T14:01:13Z</time><name>PT3331</name></trkpt>
<trkpt lat="53.204985" lon="-3.967070"><ele>838</ele><time>2022-10-20T14:01:17Z</time><name>PT3332</name></trkpt>
<trkpt lat="53.205010" lon="-3.967093"><ele>837</ele><time>2022-10-20T14:01:20Z</time><name>PT3333</name></trkpt>
<trkpt lat="53.205038" lon="-3.967107"><ele>837</ele><time>2022-10-20T14:01:23Z</time><name>PT3334</name></trkpt>
<trkpt lat="53.205065" lon="-3.967145"><ele>837</ele><time>2022-10-20T14:01:27Z</time><name>PT3335</name></trkpt>
<trkpt lat="53.205095" lon="-3.967177"><ele>836</ele><time>2022-10-20T14:01:31Z</time><name>PT3336</name></trkpt>
<trkpt lat="53.205121" lon="-3.967205"><ele>836</ele><time>2022-10-20T14:01:35Z</time><name>PT3337</name></trkpt>
<trkpt lat="53.205146" lon="-3.967217"><ele>836</ele><time>2022-10-20T14:01:38Z</time><name>PT3338</name></trkpt>
<trkpt lat="53.205172" lon="-3.967231"><ele>835</ele><time>2022-10-20T14:01:41Z</time><name>PT3339</name></trkpt>
<trkpt lat="53.205214" lon="-3.967264"><ele>835</ele><time>2022-10-20T14:01:45Z</time><name>PT3340</name></trkpt>
<trkpt lat="53.205248" lon="-3.967317"><ele>834</ele><time>2022-10-20T14:01:49Z</time><name>PT3341</name></trkpt>
<trkpt lat="53.205281" lon="-3.967371"><ele>834</ele><time>2022-10-20T14:01:53Z</time><name>PT3342</name></trkpt>
<trkpt lat="53.205311" lon="-3.967394"><ele>832</ele><time>2022-10-20T14:01:56Z</time><name>PT3343</name></trkpt>
<trkpt lat="53.205342" lon="-3.967425"><ele>831</ele><time>2022-10-20T14:02:00Z</time><name>PT3344</name></trkpt>
<trkpt lat="53.205370" lon="-3.967458"><ele>831</ele><time>2022-10-20T14:02:04Z</time><name>PT3345</name></trkpt>
<trkpt lat="53.205388" lon="-3.967477"><ele>829</ele><time>2022-10-20T14:02:07Z</time><name>PT3346</name></trkpt>
<trkpt lat="53.205414" lon="-3.967514"><ele>829</ele><time>2022-10-20T14:02:10Z</time><name>PT3347</name></trkpt>
<trkpt lat="53.205439" lon="-3.967565"><ele>828</ele><time>2022-10-20T14:02:14Z</time><name>PT3348</name></trkpt>
<trkpt lat="53.205468" lon="-3.967594"><ele>829</ele><time>2022-10-20T14:02:17Z</time><name>PT3349</name></trkpt>
<trkpt lat="53.205499" lon="-3.967666"><ele>829</ele><time>2022-10-20T14:02:21Z</time><name>PT3350</name></trkpt>
<trkpt lat="53.205528" lon="-3.967735"><ele>828</ele><time>2022-10-20T14:02:25Z</time><name>PT3351</name></trkpt>
<trkpt lat="53.205553" lon="-3.967770"><ele>828</ele><time>2022-10-20T14:02:28Z</time><name>PT3352</name></trkpt>
<trkpt lat="53.205571" lon="-3.967800"><ele>827</ele><time>2022-10-20T14:02:31Z</time><name>PT3353</name></trkpt>
<trkpt lat="53.205585" lon="-3.967826"><ele>827</ele><time>2022-10-20T14:02:34Z</time><name>PT3354</name></trkpt>
<trkpt lat="53.205592" lon="-3.967848"><ele>827</ele><time>2022-10-20T14:02:38Z</time><name>PT3355</name></trkpt>
<trkpt lat="53.205593" lon="-3.967849"><ele>827</ele><time>2022-10-20T14:02:41Z</time><name>PT3356</name></trkpt>
<trkpt lat="53.205596" lon="-3.967838"><ele>827</ele><time>2022-10-20T14:02:48Z</time><name>PT3357</name></trkpt>
<trkpt lat="53.205596" lon="-3.967791"><ele>828</ele><time>2022-10-20T14:02:51Z</time><name>PT3358</name></trkpt>
<trkpt lat="53.205600" lon="-3.967740"><ele>829</ele><time>2022-10-20T14:02:55Z</time><name>PT3359</name></trkpt>
<trkpt lat="53.205625" lon="-3.967688"><ele>829</ele><time>2022-10-20T14:02:59Z</time><name>PT3360</name></trkpt>
<trkpt lat="53.205658" lon="-3.967660"><ele>828</ele><time>2022-10-20T14:03:02Z</time><name>PT3361</name></trkpt>
<trkpt lat="53.205690" lon="-3.967638"><ele>828</ele><time>2022-10-20T14:03:05Z</time><name>PT3362</name></trkpt>
<trkpt lat="53.205715" lon="-3.967595"><ele>827</ele><time>2022-10-20T14:03:09Z</time><name>PT3363</name></trkpt>
<trkpt lat="53.205746" lon="-3.967563"><ele>827</ele><time>2022-10-20T14:03:13Z</time><name>PT3364</name></trkpt>
<trkpt lat="53.205754" lon="-3.967548"><ele>828</ele><time>2022-10-20T14:03:16Z</time><name>PT3365</name></trkpt>
<trkpt lat="53.205753" lon="-3.967548"><ele>828</ele><time>2022-10-20T14:03:19Z</time><name>PT3366</name></trkpt>
<trkpt lat="53.205787" lon="-3.967504"><ele>826</ele><time>2022-10-20T14:03:23Z</time><name>PT3367</name></trkpt>
<trkpt lat="53.205818" lon="-3.967490"><ele>826</ele><time>2022-10-20T14:03:26Z</time><name>PT3368</name></trkpt>
<trkpt lat="53.205846" lon="-3.967493"><ele>825</ele><time>2022-10-20T14:03:29Z</time><name>PT3369</name></trkpt>
<trkpt lat="53.205881" lon="-3.967462"><ele>824</ele><time>2022-10-20T14:03:33Z</time><name>PT3370</name></trkpt>
<trkpt lat="53.205907" lon="-3.967422"><ele>823</ele><time>2022-10-20T14:03:37Z</time><name>PT3371</name></trkpt>
<trkpt lat="53.205923" lon="-3.967388"><ele>822</ele><time>2022-10-20T14:03:40Z</time><name>PT3372</name></trkpt>
<trkpt lat="53.205954" lon="-3.967363"><ele>821</ele><time>2022-10-20T14:03:44Z</time><name>PT3373</name></trkpt>
<trkpt lat="53.205980" lon="-3.967353"><ele>820</ele><time>2022-10-20T14:03:47Z</time><name>PT3374</name></trkpt>
<trkpt lat="53.206006" lon="-3.967341"><ele>819</ele><time>2022-10-20T14:03:51Z</time><name>PT3375</name></trkpt>
<trkpt lat="53.206026" lon="-3.967302"><ele>819</ele><time>2022-10-20T14:03:54Z</time><name>PT3376</name></trkpt>
<trkpt lat="53.206047" lon="-3.967270"><ele>818</ele><time>2022-10-20T14:03:57Z</time><name>PT3377</name></trkpt>
<trkpt lat="53.206078" lon="-3.967245"><ele>817</ele><time>2022-10-20T14:04:01Z</time><name>PT3378</name></trkpt>
<trkpt lat="53.206097" lon="-3.967224"><ele>816</ele><time>2022-10-20T14:04:05Z</time><name>PT3379</name></trkpt>
<trkpt lat="53.206113" lon="-3.967216"><ele>815</ele><time>2022-10-20T14:04:08Z</time><name>PT3380</name></trkpt>
<trkpt lat="53.206142" lon="-3.967186"><ele>814</ele><time>2022-10-20T14:04:12Z</time><name>PT3381</name></trkpt>
<trkpt lat="53.206172" lon="-3.967165"><ele>814</ele><time>2022-10-20T14:04:15Z</time><name>PT3382</name></trkpt>
<trkpt lat="53.206200" lon="-3.967165"><ele>812</ele><time>2022-10-20T14:04:19Z</time><name>PT3383</name></trkpt>
<trkpt lat="53.206229" lon="-3.967180"><ele>811</ele><time>2022-10-20T14:04:23Z</time><name>PT3384</name></trkpt>
<trkpt lat="53.206246" lon="-3.967190"><ele>809</ele><time>2022-10-20T14:04:26Z</time><name>PT3385</name></trkpt>
<trkpt lat="53.206246" lon="-3.967224"><ele>808</ele><time>2022-10-20T14:04:29Z</time><name>PT3386</name></trkpt>
<trkpt lat="53.206250" lon="-3.967286"><ele>807</ele><time>2022-10-20T14:04:32Z</time><name>PT3387</name></trkpt>
<trkpt lat="53.206271" lon="-3.967359"><ele>807</ele><time>2022-10-20T14:04:36Z</time><name>PT3388</name></trkpt>
<trkpt lat="53.206285" lon="-3.967411"><ele>806</ele><time>2022-10-20T14:04:39Z</time><name>PT3389</name></trkpt>
<trkpt lat="53.206306" lon="-3.967481"><ele>806</ele><time>2022-10-20T14:04:43Z</time><name>PT3390</name></trkpt>
<trkpt lat="53.206327" lon="-3.967537"><ele>806</ele><time>2022-10-20T14:04:46Z</time><name>PT3391</name></trkpt>
<trkpt lat="53.206347" lon="-3.967567"><ele>805</ele><time>2022-10-20T14:04:49Z</time><name>PT3392</name></trkpt>
<trkpt lat="53.206375" lon="-3.967595"><ele>805</ele><time>2022-10-20T14:04:52Z</time><name>PT3393</name></trkpt>
<trkpt lat="53.206379" lon="-3.967604"><ele>805</ele><time>2022-10-20T14:04:56Z</time><name>PT3394</name></trkpt>
<trkpt lat="53.206382" lon="-3.967601"><ele>805</ele><time>2022-10-20T14:04:59Z</time><name>PT3395</name></trkpt>
<trkpt lat="53.206397" lon="-3.967609"><ele>804</ele><time>2022-10-20T14:05:03Z</time><name>PT3396</name></trkpt>
<trkpt lat="53.206405" lon="-3.967612"><ele>804</ele><time>2022-10-20T14:05:09Z</time><name>PT3397</name></trkpt>
<trkpt lat="53.206428" lon="-3.967640"><ele>803</ele><time>2022-10-20T14:05:12Z</time><name>PT3398</name></trkpt>
<trkpt lat="53.206451" lon="-3.967661"><ele>802</ele><time>2022-10-20T14:05:15Z</time><name>PT3399</name></trkpt>
<trkpt lat="53.206485" lon="-3.967652"><ele>801</ele><time>2022-10-20T14:05:18Z</time><name>PT3400</name></trkpt>
<trkpt lat="53.206529" lon="-3.967629"><ele>799</ele><time>2022-10-20T14:05:22Z</time><name>PT3401</name></trkpt>
<trkpt lat="53.206565" lon="-3.967628"><ele>798</ele><time>2022-10-20T14:05:26Z</time><name>PT3402</name></trkpt>
<trkpt lat="53.206594" lon="-3.967656"><ele>796</ele><time>2022-10-20T14:05:30Z</time><name>PT3403</name></trkpt>
<trkpt lat="53.206607" lon="-3.967683"><ele>795</ele><time>2022-10-20T14:05:33Z</time><name>PT3404</name></trkpt>
<trkpt lat="53.206604" lon="-3.967721"><ele>794</ele><time>2022-10-20T14:05:36Z</time><name>PT3405</name></trkpt>
<trkpt lat="53.206618" lon="-3.967777"><ele>792</ele><time>2022-10-20T14:05:40Z</time><name>PT3406</name></trkpt>
<trkpt lat="53.206654" lon="-3.967823"><ele>792</ele><time>2022-10-20T14:05:44Z</time><name>PT3407</name></trkpt>
<trkpt lat="53.206680" lon="-3.967855"><ele>791</ele><time>2022-10-20T14:05:47Z</time><name>PT3408</name></trkpt>
<trkpt lat="53.206705" lon="-3.967903"><ele>791</ele><time>2022-10-20T14:05:50Z</time><name>PT3409</name></trkpt>
<trkpt lat="53.206732" lon="-3.967964"><ele>791</ele><time>2022-10-20T14:05:54Z</time><name>PT3410</name></trkpt>
<trkpt lat="53.206742" lon="-3.968007"><ele>791</ele><time>2022-10-20T14:05:57Z</time><name>PT3411</name></trkpt>
<trkpt lat="53.206769" lon="-3.968032"><ele>790</ele><time>2022-10-20T14:06:01Z</time><name>PT3412</name></trkpt>
<trkpt lat="53.206801" lon="-3.968052"><ele>789</ele><time>2022-10-20T14:06:05Z</time><name>PT3413</name></trkpt>
<trkpt lat="53.206832" lon="-3.968063"><ele>788</ele><time>2022-10-20T14:06:09Z</time><name>PT3414</name></trkpt>
<trkpt lat="53.206860" lon="-3.968059"><ele>787</ele><time>2022-10-20T14:06:13Z</time><name>PT3415</name></trkpt>
<trkpt lat="53.206869" lon="-3.968091"><ele>786</ele><time>2022-10-20T14:06:17Z</time><name>PT3416</name></trkpt>
<trkpt lat="53.206875" lon="-3.968127"><ele>786</ele><time>2022-10-20T14:06:20Z</time><name>PT3417</name></trkpt>
<trkpt lat="53.206874" lon="-3.968164"><ele>785</ele><time>2022-10-20T14:06:23Z</time><name>PT3418</name></trkpt>
<trkpt lat="53.206862" lon="-3.968196"><ele>784</ele><time>2022-10-20T14:06:27Z</time><name>PT3419</name></trkpt>
<trkpt lat="53.206871" lon="-3.968227"><ele>783</ele><time>2022-10-20T14:06:30Z</time><name>PT3420</name></trkpt>
<trkpt lat="53.206872" lon="-3.968259"><ele>782</ele><time>2022-10-20T14:06:33Z</time><name>PT3421</name></trkpt>
<trkpt lat="53.206879" lon="-3.968281"><ele>781</ele><time>2022-10-20T14:06:36Z</time><name>PT3422</name></trkpt>
<trkpt lat="53.206881" lon="-3.968295"><ele>780</ele><time>2022-10-20T14:06:40Z</time><name>PT3423</name></trkpt>
<trkpt lat="53.206881" lon="-3.968306"><ele>780</ele><time>2022-10-20T14:06:43Z</time><name>PT3424</name></trkpt>
<trkpt lat="53.206879" lon="-3.968319"><ele>779</ele><time>2022-10-20T14:06:46Z</time><name>PT3425</name></trkpt>
<trkpt lat="53.206879" lon="-3.968326"><ele>779</ele><time>2022-10-20T14:06:49Z</time><name>PT3426</name></trkpt>
<trkpt lat="53.206881" lon="-3.968346"><ele>778</ele><time>2022-10-20T14:06:52Z</time><name>PT3427</name></trkpt>
<trkpt lat="53.206883" lon="-3.968374"><ele>777</ele><time>2022-10-20T14:06:56Z</time><name>PT3428</name></trkpt>
<trkpt lat="53.206894" lon="-3.968395"><ele>777</ele><time>2022-10-20T14:06:59Z</time><name>PT3429</name></trkpt>
<trkpt lat="53.206916" lon="-3.968407"><ele>777</ele><time>2022-10-20T14:07:02Z</time><name>PT3430</name></trkpt>
<trkpt lat="53.206934" lon="-3.968425"><ele>775</ele><time>2022-10-20T14:07:05Z</time><name>PT3431</name></trkpt>
<trkpt lat="53.206970" lon="-3.968462"><ele>774</ele><time>2022-10-20T14:07:09Z</time><name>PT3432</name></trkpt>
<trkpt lat="53.206996" lon="-3.968477"><ele>774</ele><time>2022-10-20T14:07:13Z</time><name>PT3433</name></trkpt>
<trkpt lat="53.207015" lon="-3.968478"><ele>774</ele><time>2022-10-20T14:07:16Z</time><name>PT3434</name></trkpt>
<trkpt lat="53.207063" lon="-3.968468"><ele>774</ele><time>2022-10-20T14:07:20Z</time><name>PT3435</name></trkpt>
<trkpt lat="53.207090" lon="-3.968468"><ele>774</ele><time>2022-10-20T14:07:23Z</time><name>PT3436</name></trkpt>
<trkpt lat="53.207132" lon="-3.968485"><ele>773</ele><time>2022-10-20T14:07:27Z</time><name>PT3437</name></trkpt>
<trkpt lat="53.207167" lon="-3.968475"><ele>773</ele><time>2022-10-20T14:07:31Z</time><name>PT3438</name></trkpt>
<trkpt lat="53.207199" lon="-3.968479"><ele>772</ele><time>2022-10-20T14:07:35Z</time><name>PT3439</name></trkpt>
<trkpt lat="53.207221" lon="-3.968492"><ele>771</ele><time>2022-10-20T14:07:38Z</time><name>PT3440</name></trkpt>
<trkpt lat="53.207250" lon="-3.968504"><ele>769</ele><time>2022-10-20T14:07:41Z</time><name>PT3441</name></trkpt>
<trkpt lat="53.207280" lon="-3.968508"><ele>769</ele><time>2022-10-20T14:07:45Z</time><name>PT3442</name></trkpt>
<trkpt lat="53.207306" lon="-3.968496"><ele>768</ele><time>2022-10-20T14:07:48Z</time><name>PT3443</name></trkpt>
<trkpt lat="53.207339" lon="-3.968484"><ele>767</ele><time>2022-10-20T14:07:52Z</time><name>PT3444</name></trkpt>
<trkpt lat="53.207362" lon="-3.968496"><ele>766</ele><time>2022-10-20T14:07:56Z</time><name>PT3445</name></trkpt>
<trkpt lat="53.207386" lon="-3.968511"><ele>765</ele><time>2022-10-20T14:08:00Z</time><name>PT3446</name></trkpt>
<trkpt lat="53.207395" lon="-3.968524"><ele>763</ele><time>2022-10-20T14:08:03Z</time><name>PT3447</name></trkpt>
<trkpt lat="53.207404" lon="-3.968519"><ele>763</ele><time>2022-10-20T14:08:06Z</time><name>PT3448</name></trkpt>
<trkpt lat="53.207416" lon="-3.968519"><ele>762</ele><time>2022-10-20T14:08:09Z</time><name>PT3449</name></trkpt>
<trkpt lat="53.207438" lon="-3.968579"><ele>760</ele><time>2022-10-20T14:08:13Z</time><name>PT3450</name></trkpt>
<trkpt lat="53.207458" lon="-3.968615"><ele>758</ele><time>2022-10-20T14:08:17Z</time><name>PT3451</name></trkpt>
<trkpt lat="53.207474" lon="-3.968642"><ele>758</ele><time>2022-10-20T14:08:20Z</time><name>PT3452</name></trkpt>
<trkpt lat="53.207485" lon="-3.968684"><ele>757</ele><time>2022-10-20T14:08:24Z</time><name>PT3453</name></trkpt>
<trkpt lat="53.207493" lon="-3.968695"><ele>757</ele><time>2022-10-20T14:08:28Z</time><name>PT3454</name></trkpt>
<trkpt lat="53.207494" lon="-3.968695"><ele>757</ele><time>2022-10-20T14:08:31Z</time><name>PT3455</name></trkpt>
<trkpt lat="53.207512" lon="-3.968683"><ele>757</ele><time>2022-10-20T14:08:44Z</time><name>PT3456</name></trkpt>
<trkpt lat="53.207533" lon="-3.968666"><ele>757</ele><time>2022-10-20T14:08:48Z</time><name>PT3457</name></trkpt>
<trkpt lat="53.207536" lon="-3.968668"><ele>757</ele><time>2022-10-20T14:08:52Z</time><name>PT3458</name></trkpt>
<trkpt lat="53.207529" lon="-3.968694"><ele>759</ele><time>2022-10-20T14:08:58Z</time><name>PT3459</name></trkpt>
<trkpt lat="53.207520" lon="-3.968710"><ele>759</ele><time>2022-10-20T14:09:02Z</time><name>PT3460</name></trkpt>
<trkpt lat="53.207519" lon="-3.968710"><ele>759</ele><time>2022-10-20T14:09:05Z</time><name>PT3461</name></trkpt>
<trkpt lat="53.207544" lon="-3.968692"><ele>759</ele><time>2022-10-20T14:09:30Z</time><name>PT3462</name></trkpt>
<trkpt lat="53.207560" lon="-3.968715"><ele>758</ele><time>2022-10-20T14:09:34Z</time><name>PT3463</name></trkpt>
<trkpt lat="53.207559" lon="-3.968770"><ele>757</ele><time>2022-10-20T14:09:38Z</time><name>PT3464</name></trkpt>
<trkpt lat="53.207557" lon="-3.968807"><ele>755</ele><time>2022-10-20T14:09:41Z</time><name>PT3465</name></trkpt>
<trkpt lat="53.207563" lon="-3.968839"><ele>753</ele><time>2022-10-20T14:09:44Z</time><name>PT3466</name></trkpt>
<trkpt lat="53.207564" lon="-3.968875"><ele>752</ele><time>2022-10-20T14:09:47Z</time><name>PT3467</name></trkpt>
<trkpt lat="53.207586" lon="-3.968937"><ele>751</ele><time>2022-10-20T14:09:51Z</time><name>PT3468</name></trkpt>
<trkpt lat="53.207603" lon="-3.968938"><ele>750</ele><time>2022-10-20T14:09:54Z</time><name>PT3469</name></trkpt>
<trkpt lat="53.207621" lon="-3.968944"><ele>749</ele><time>2022-10-20T14:09:57Z</time><name>PT3470</name></trkpt>
<trkpt lat="53.207654" lon="-3.968935"><ele>749</ele><time>2022-10-20T14:10:01Z</time><name>PT3471</name></trkpt>
<trkpt lat="53.207669" lon="-3.968934"><ele>748</ele><time>2022-10-20T14:10:04Z</time><name>PT3472</name></trkpt>
<trkpt lat="53.207677" lon="-3.968958"><ele>747</ele><time>2022-10-20T14:10:08Z</time><name>PT3473</name></trkpt>
<trkpt lat="53.207679" lon="-3.968982"><ele>747</ele><time>2022-10-20T14:10:11Z</time><name>PT3474</name></trkpt>
<trkpt lat="53.207693" lon="-3.969012"><ele>746</ele><time>2022-10-20T14:10:14Z</time><name>PT3475</name></trkpt>
<trkpt lat="53.207706" lon="-3.969035"><ele>744</ele><time>2022-10-20T14:10:18Z</time><name>PT3476</name></trkpt>
<trkpt lat="53.207733" lon="-3.969042"><ele>744</ele><time>2022-10-20T14:10:22Z</time><name>PT3477</name></trkpt>
<trkpt lat="53.207750" lon="-3.969044"><ele>743</ele><time>2022-10-20T14:10:25Z</time><name>PT3478</name></trkpt>
<trkpt lat="53.207764" lon="-3.969032"><ele>742</ele><time>2022-10-20T14:10:28Z</time><name>PT3479</name></trkpt>
<trkpt lat="53.207788" lon="-3.969019"><ele>742</ele><time>2022-10-20T14:10:32Z</time><name>PT3480</name></trkpt>
<trkpt lat="53.207797" lon="-3.969044"><ele>741</ele><time>2022-10-20T14:10:36Z</time><name>PT3481</name></trkpt>
<trkpt lat="53.207801" lon="-3.969061"><ele>740</ele><time>2022-10-20T14:10:39Z</time><name>PT3482</name></trkpt>
<trkpt lat="53.207816" lon="-3.969072"><ele>739</ele><time>2022-10-20T14:10:43Z</time><name>PT3483</name></trkpt>
<trkpt lat="53.207831" lon="-3.969088"><ele>738</ele><time>2022-10-20T14:10:46Z</time><name>PT3484</name></trkpt>
<trkpt lat="53.207848" lon="-3.969107"><ele>737</ele><time>2022-10-20T14:10:49Z</time><name>PT3485</name></trkpt>
<trkpt lat="53.207861" lon="-3.969135"><ele>736</ele><time>2022-10-20T14:10:52Z</time><name>PT3486</name></trkpt>
<trkpt lat="53.207891" lon="-3.969137"><ele>735</ele><time>2022-10-20T14:10:56Z</time><name>PT3487</name></trkpt>
<trkpt lat="53.207919" lon="-3.969139"><ele>734</ele><time>2022-10-20T14:11:00Z</time><name>PT3488</name></trkpt>
<trkpt lat="53.207948" lon="-3.969123"><ele>733</ele><time>2022-10-20T14:11:04Z</time><name>PT3489</name></trkpt>
<trkpt lat="53.207971" lon="-3.969135"><ele>732</ele><time>2022-10-20T14:11:08Z</time><name>PT3490</name></trkpt>
<trkpt lat="53.207988" lon="-3.969141"><ele>731</ele><time>2022-10-20T14:11:11Z</time><name>PT3491</name></trkpt>
<trkpt lat="53.208023" lon="-3.969159"><ele>729</ele><time>2022-10-20T14:11:15Z</time><name>PT3492</name></trkpt>
<trkpt lat="53.208063" lon="-3.969172"><ele>728</ele><time>2022-10-20T14:11:19Z</time><name>PT3493</name></trkpt>
<trkpt lat="53.208107" lon="-3.969173"><ele>728</ele><time>2022-10-20T14:11:22Z</time><name>PT3494</name></trkpt>
<trkpt lat="53.208129" lon="-3.969200"><ele>727</ele><time>2022-10-20T14:11:25Z</time><name>PT3495</name></trkpt>
<trkpt lat="53.208141" lon="-3.969243"><ele>726</ele><time>2022-10-20T14:11:28Z</time><name>PT3496</name></trkpt>
<trkpt lat="53.208168" lon="-3.969287"><ele>725</ele><time>2022-10-20T14:11:32Z</time><name>PT3497</name></trkpt>
<trkpt lat="53.208179" lon="-3.969317"><ele>724</ele><time>2022-10-20T14:11:35Z</time><name>PT3498</name></trkpt>
<trkpt lat="53.208193" lon="-3.969359"><ele>724</ele><time>2022-10-20T14:11:39Z</time><name>PT3499</name></trkpt>
<trkpt lat="53.208211" lon="-3.969371"><ele>724</ele><time>2022-10-20T14:11:43Z</time><name>PT3500</name></trkpt>
<trkpt lat="53.208211" lon="-3.969370"><ele>724</ele><time>2022-10-20T14:11:47Z</time><name>PT3501</name></trkpt>
<trkpt lat="53.208216" lon="-3.969368"><ele>723</ele><time>2022-10-20T14:11:57Z</time><name>PT3502</name></trkpt>
<trkpt lat="53.208254" lon="-3.969370"><ele>722</ele><time>2022-10-20T14:12:01Z</time><name>PT3503</name></trkpt>
<trkpt lat="53.208290" lon="-3.969359"><ele>721</ele><time>2022-10-20T14:12:05Z</time><name>PT3504</name></trkpt>
<trkpt lat="53.208328" lon="-3.969350"><ele>720</ele><time>2022-10-20T14:12:09Z</time><name>PT3505</name></trkpt>
<trkpt lat="53.208355" lon="-3.969334"><ele>719</ele><time>2022-10-20T14:12:12Z</time><name>PT3506</name></trkpt>
<trkpt lat="53.208375" lon="-3.969312"><ele>719</ele><time>2022-10-20T14:12:15Z</time><name>PT3507</name></trkpt>
<trkpt lat="53.208398" lon="-3.969288"><ele>718</ele><time>2022-10-20T14:12:19Z</time><name>PT3508</name></trkpt>
<trkpt lat="53.208422" lon="-3.969273"><ele>718</ele><time>2022-10-20T14:12:23Z</time><name>PT3509</name></trkpt>
<trkpt lat="53.208443" lon="-3.969273"><ele>717</ele><time>2022-10-20T14:12:26Z</time><name>PT3510</name></trkpt>
<trkpt lat="53.208456" lon="-3.969295"><ele>716</ele><time>2022-10-20T14:12:29Z</time><name>PT3511</name></trkpt>
<trkpt lat="53.208466" lon="-3.969332"><ele>715</ele><time>2022-10-20T14:12:32Z</time><name>PT3512</name></trkpt>
<trkpt lat="53.208466" lon="-3.969389"><ele>714</ele><time>2022-10-20T14:12:36Z</time><name>PT3513</name></trkpt>
<trkpt lat="53.208470" lon="-3.969439"><ele>713</ele><time>2022-10-20T14:12:40Z</time><name>PT3514</name></trkpt>
<trkpt lat="53.208473" lon="-3.969479"><ele>712</ele><time>2022-10-20T14:12:44Z</time><name>PT3515</name></trkpt>
<trkpt lat="53.208501" lon="-3.969466"><ele>711</ele><time>2022-10-20T14:12:48Z</time><name>PT3516</name></trkpt>
<trkpt lat="53.208526" lon="-3.969456"><ele>710</ele><time>2022-10-20T14:12:52Z</time><name>PT3517</name></trkpt>
<trkpt lat="53.208545" lon="-3.969445"><ele>709</ele><time>2022-10-20T14:12:56Z</time><name>PT3518</name></trkpt>
<trkpt lat="53.208564" lon="-3.969440"><ele>707</ele><time>2022-10-20T14:13:00Z</time><name>PT3519</name></trkpt>
<trkpt lat="53.208589" lon="-3.969437"><ele>705</ele><time>2022-10-20T14:13:04Z</time><name>PT3520</name></trkpt>
<trkpt lat="53.208618" lon="-3.969464"><ele>702</ele><time>2022-10-20T14:13:08Z</time><name>PT3521</name></trkpt>
<trkpt lat="53.208647" lon="-3.969511"><ele>702</ele><time>2022-10-20T14:13:12Z</time><name>PT3522</name></trkpt>
<trkpt lat="53.208662" lon="-3.969548"><ele>701</ele><time>2022-10-20T14:13:15Z</time><name>PT3523</name></trkpt>
<trkpt lat="53.208682" lon="-3.969601"><ele>700</ele><time>2022-10-20T14:13:19Z</time><name>PT3524</name></trkpt>
<trkpt lat="53.208692" lon="-3.969638"><ele>700</ele><time>2022-10-20T14:13:22Z</time><name>PT3525</name></trkpt>
<trkpt lat="53.208710" lon="-3.969699"><ele>700</ele><time>2022-10-20T14:13:26Z</time><name>PT3526</name></trkpt>
<trkpt lat="53.208720" lon="-3.969731"><ele>699</ele><time>2022-10-20T14:13:29Z</time><name>PT3527</name></trkpt>
<trkpt lat="53.208724" lon="-3.969736"><ele>699</ele><time>2022-10-20T14:13:32Z</time><name>PT3528</name></trkpt>
<trkpt lat="53.208721" lon="-3.969728"><ele>700</ele><time>2022-10-20T14:13:39Z</time><name>PT3529</name></trkpt>
<trkpt lat="53.208721" lon="-3.969737"><ele>699</ele><time>2022-10-20T14:13:43Z</time><name>PT3530</name></trkpt>
<trkpt lat="53.208725" lon="-3.969743"><ele>699</ele><time>2022-10-20T14:13:47Z</time><name>PT3531</name></trkpt>
<trkpt lat="53.208727" lon="-3.969746"><ele>699</ele><time>2022-10-20T14:13:51Z</time><name>PT3532</name></trkpt>
<trkpt lat="53.208732" lon="-3.969761"><ele>700</ele><time>2022-10-20T14:13:54Z</time><name>PT3533</name></trkpt>
<trkpt lat="53.208737" lon="-3.969746"><ele>699</ele><time>2022-10-20T14:13:57Z</time><name>PT3534</name></trkpt>
<trkpt lat="53.208761" lon="-3.969732"><ele>699</ele><time>2022-10-20T14:14:00Z</time><name>PT3535</name></trkpt>
<trkpt lat="53.208779" lon="-3.969721"><ele>698</ele><time>2022-10-20T14:14:04Z</time><name>PT3536</name></trkpt>
<trkpt lat="53.208778" lon="-3.969723"><ele>697</ele><time>2022-10-20T14:14:08Z</time><name>PT3537</name></trkpt>
<trkpt lat="53.208778" lon="-3.969723"><ele>698</ele><time>2022-10-20T14:14:44Z</time><name>PT3538</name></trkpt>
<trkpt lat="53.208782" lon="-3.969732"><ele>698</ele><time>2022-10-20T14:14:48Z</time><name>PT3539</name></trkpt>
<trkpt lat="53.208785" lon="-3.969732"><ele>699</ele><time>2022-10-20T14:14:52Z</time><name>PT3540</name></trkpt>
<trkpt lat="53.208785" lon="-3.969735"><ele>699</ele><time>2022-10-20T14:14:55Z</time><name>PT3541</name></trkpt>
<trkpt lat="53.208782" lon="-3.969730"><ele>699</ele><time>2022-10-20T14:14:59Z</time><name>PT3542</name></trkpt>
<trkpt lat="53.208770" lon="-3.969756"><ele>701</ele><time>2022-10-20T14:15:02Z</time><name>PT3543</name></trkpt>
<trkpt lat="53.208783" lon="-3.969771"><ele>699</ele><time>2022-10-20T14:15:06Z</time><name>PT3544</name></trkpt>
<trkpt lat="53.208811" lon="-3.969809"><ele>699</ele><time>2022-10-20T14:15:10Z</time><name>PT3545</name></trkpt>
<trkpt lat="53.208845" lon="-3.969857"><ele>699</ele><time>2022-10-20T14:15:14Z</time><name>PT3546</name></trkpt>
<trkpt lat="53.208877" lon="-3.969903"><ele>698</ele><time>2022-10-20T14:15:18Z</time><name>PT3547</name></trkpt>
<trkpt lat="53.208897" lon="-3.969936"><ele>698</ele><time>2022-10-20T14:15:21Z</time><name>PT3548</name></trkpt>
<trkpt lat="53.208913" lon="-3.969960"><ele>698</ele><time>2022-10-20T14:15:24Z</time><name>PT3549</name></trkpt>
<trkpt lat="53.208935" lon="-3.970013"><ele>700</ele><time>2022-10-20T14:15:28Z</time><name>PT3550</name></trkpt>
<trkpt lat="53.208969" lon="-3.970078"><ele>698</ele><time>2022-10-20T14:15:32Z</time><name>PT3551</name></trkpt>
<trkpt lat="53.208990" lon="-3.970176"><ele>699</ele><time>2022-10-20T14:15:36Z</time><name>PT3552</name></trkpt>
<trkpt lat="53.209007" lon="-3.970210"><ele>698</ele><time>2022-10-20T14:15:39Z</time><name>PT3553</name></trkpt>
<trkpt lat="53.209022" lon="-3.970235"><ele>697</ele><time>2022-10-20T14:15:43Z</time><name>PT3554</name></trkpt>
<trkpt lat="53.209041" lon="-3.970219"><ele>697</ele><time>2022-10-20T14:15:46Z</time><name>PT3555</name></trkpt>
<trkpt lat="53.209082" lon="-3.970210"><ele>696</ele><time>2022-10-20T14:15:50Z</time><name>PT3556</name></trkpt>
<trkpt lat="53.209095" lon="-3.970228"><ele>696</ele><time>2022-10-20T14:15:53Z</time><name>PT3557</name></trkpt>
<trkpt lat="53.209117" lon="-3.970262"><ele>695</ele><time>2022-10-20T14:15:57Z</time><name>PT3558</name></trkpt>
<trkpt lat="53.209135" lon="-3.970298"><ele>693</ele><time>2022-10-20T14:16:00Z</time><name>PT3559</name></trkpt>
<trkpt lat="53.209148" lon="-3.970333"><ele>692</ele><time>2022-10-20T14:16:03Z</time><name>PT3560</name></trkpt>
<trkpt lat="53.209146" lon="-3.970395"><ele>691</ele><time>2022-10-20T14:16:07Z</time><name>PT3561</name></trkpt>
<trkpt lat="53.209165" lon="-3.970416"><ele>690</ele><time>2022-10-20T14:16:10Z</time><name>PT3562</name></trkpt>
<trkpt lat="53.209184" lon="-3.970423"><ele>690</ele><time>2022-10-20T14:16:13Z</time><name>PT3563</name></trkpt>
<trkpt lat="53.209209" lon="-3.970425"><ele>690</ele><time>2022-10-20T14:16:16Z</time><name>PT3564</name></trkpt>
<trkpt lat="53.209253" lon="-3.970440"><ele>689</ele><time>2022-10-20T14:16:20Z</time><name>PT3565</name></trkpt>
<trkpt lat="53.209284" lon="-3.970484"><ele>689</ele><time>2022-10-20T14:16:23Z</time><name>PT3566</name></trkpt>
<trkpt lat="53.209304" lon="-3.970518"><ele>688</ele><time>2022-10-20T14:16:26Z</time><name>PT3567</name></trkpt>
<trkpt lat="53.209322" lon="-3.970570"><ele>687</ele><time>2022-10-20T14:16:30Z</time><name>PT3568</name></trkpt>
<trkpt lat="53.209339" lon="-3.970622"><ele>687</ele><time>2022-10-20T14:16:33Z</time><name>PT3569</name></trkpt>
<trkpt lat="53.209350" lon="-3.970663"><ele>687</ele><time>2022-10-20T14:16:36Z</time><name>PT3570</name></trkpt>
<trkpt lat="53.209372" lon="-3.970725"><ele>687</ele><time>2022-10-20T14:16:40Z</time><name>PT3571</name></trkpt>
<trkpt lat="53.209387" lon="-3.970763"><ele>686</ele><time>2022-10-20T14:16:43Z</time><name>PT3572</name></trkpt>
<trkpt lat="53.209397" lon="-3.970818"><ele>685</ele><time>2022-10-20T14:16:47Z</time><name>PT3573</name></trkpt>
<trkpt lat="53.209416" lon="-3.970862"><ele>684</ele><time>2022-10-20T14:16:50Z</time><name>PT3574</name></trkpt>
<trkpt lat="53.209445" lon="-3.970904"><ele>684</ele><time>2022-10-20T14:16:54Z</time><name>PT3575</name></trkpt>
<trkpt lat="53.209471" lon="-3.970943"><ele>682</ele><time>2022-10-20T14:16:58Z</time><name>PT3576</name></trkpt>
<trkpt lat="53.209504" lon="-3.970959"><ele>680</ele><time>2022-10-20T14:17:01Z</time><name>PT3577</name></trkpt>
<trkpt lat="53.209541" lon="-3.971017"><ele>679</ele><time>2022-10-20T14:17:05Z</time><name>PT3578</name></trkpt>
<trkpt lat="53.209573" lon="-3.971064"><ele>679</ele><time>2022-10-20T14:17:08Z</time><name>PT3579</name></trkpt>
<trkpt lat="53.209617" lon="-3.971125"><ele>679</ele><time>2022-10-20T14:17:12Z</time><name>PT3580</name></trkpt>
<trkpt lat="53.209645" lon="-3.971169"><ele>679</ele><time>2022-10-20T14:17:15Z</time><name>PT3581</name></trkpt>
<trkpt lat="53.209670" lon="-3.971227"><ele>678</ele><time>2022-10-20T14:17:19Z</time><name>PT3582</name></trkpt>
<trkpt lat="53.209703" lon="-3.971278"><ele>676</ele><time>2022-10-20T14:17:23Z</time><name>PT3583</name></trkpt>
<trkpt lat="53.209722" lon="-3.971342"><ele>677</ele><time>2022-10-20T14:17:27Z</time><name>PT3584</name></trkpt>
<trkpt lat="53.209750" lon="-3.971396"><ele>677</ele><time>2022-10-20T14:17:31Z</time><name>PT3585</name></trkpt>
<trkpt lat="53.209768" lon="-3.971445"><ele>677</ele><time>2022-10-20T14:17:34Z</time><name>PT3586</name></trkpt>
<trkpt lat="53.209799" lon="-3.971505"><ele>678</ele><time>2022-10-20T14:17:38Z</time><name>PT3587</name></trkpt>
<trkpt lat="53.209810" lon="-3.971556"><ele>678</ele><time>2022-10-20T14:17:42Z</time><name>PT3588</name></trkpt>
<trkpt lat="53.209832" lon="-3.971619"><ele>678</ele><time>2022-10-20T14:17:46Z</time><name>PT3589</name></trkpt>
<trkpt lat="53.209851" lon="-3.971690"><ele>678</ele><time>2022-10-20T14:17:50Z</time><name>PT3590</name></trkpt>
<trkpt lat="53.209871" lon="-3.971757"><ele>678</ele><time>2022-10-20T14:17:54Z</time><name>PT3591</name></trkpt>
<trkpt lat="53.209894" lon="-3.971833"><ele>679</ele><time>2022-10-20T14:17:58Z</time><name>PT3592</name></trkpt>
<trkpt lat="53.209914" lon="-3.971883"><ele>680</ele><time>2022-10-20T14:18:01Z</time><name>PT3593</name></trkpt>
<trkpt lat="53.209925" lon="-3.971956"><ele>680</ele><time>2022-10-20T14:18:05Z</time><name>PT3594</name></trkpt>
<trkpt lat="53.209934" lon="-3.972017"><ele>680</ele><time>2022-10-20T14:18:09Z</time><name>PT3595</name></trkpt>
<trkpt lat="53.209937" lon="-3.972027"><ele>681</ele><time>2022-10-20T14:18:12Z</time><name>PT3596</name></trkpt>
<trkpt lat="53.209944" lon="-3.972070"><ele>681</ele><time>2022-10-20T14:18:18Z</time><name>PT3597</name></trkpt>
<trkpt lat="53.209959" lon="-3.972149"><ele>681</ele><time>2022-10-20T14:18:22Z</time><name>PT3598</name></trkpt>
<trkpt lat="53.209966" lon="-3.972217"><ele>681</ele><time>2022-10-20T14:18:25Z</time><name>PT3599</name></trkpt>
<trkpt lat="53.209977" lon="-3.972286"><ele>681</ele><time>2022-10-20T14:18:29Z</time><name>PT3600</name></trkpt>
<trkpt lat="53.209992" lon="-3.972354"><ele>681</ele><time>2022-10-20T14:18:33Z</time><name>PT3601</name></trkpt>
<trkpt lat="53.209995" lon="-3.972413"><ele>681</ele><time>2022-10-20T14:18:36Z</time><name>PT3602</name></trkpt>
<trkpt lat="53.209999" lon="-3.972472"><ele>681</ele><time>2022-10-20T14:18:39Z</time><name>PT3603</name></trkpt>
<trkpt lat="53.210009" lon="-3.972527"><ele>680</ele><time>2022-10-20T14:18:42Z</time><name>PT3604</name></trkpt>
<trkpt lat="53.210013" lon="-3.972592"><ele>682</ele><time>2022-10-20T14:18:45Z</time><name>PT3605</name></trkpt>
<trkpt lat="53.210005" lon="-3.972651"><ele>681</ele><time>2022-10-20T14:18:48Z</time><name>PT3606</name></trkpt>
<trkpt lat="53.210001" lon="-3.972714"><ele>682</ele><time>2022-10-20T14:18:51Z</time><name>PT3607</name></trkpt>
<trkpt lat="53.209990" lon="-3.972784"><ele>682</ele><time>2022-10-20T14:18:55Z</time><name>PT3608</name></trkpt>
<trkpt lat="53.209988" lon="-3.972866"><ele>683</ele><time>2022-10-20T14:18:59Z</time><name>PT3609</name></trkpt>
<trkpt lat="53.209982" lon="-3.972922"><ele>682</ele><time>2022-10-20T14:19:02Z</time><name>PT3610</name></trkpt>
<trkpt lat="53.209975" lon="-3.972992"><ele>682</ele><time>2022-10-20T14:19:06Z</time><name>PT3611</name></trkpt>
<trkpt lat="53.209972" lon="-3.973066"><ele>682</ele><time>2022-10-20T14:19:10Z</time><name>PT3612</name></trkpt>
<trkpt lat="53.209973" lon="-3.973121"><ele>682</ele><time>2022-10-20T14:19:13Z</time><name>PT3613</name></trkpt>
<trkpt lat="53.209986" lon="-3.973161"><ele>681</ele><time>2022-10-20T14:19:16Z</time><name>PT3614</name></trkpt>
<trkpt lat="53.210004" lon="-3.973232"><ele>681</ele><time>2022-10-20T14:19:20Z</time><name>PT3615</name></trkpt>
<trkpt lat="53.210000" lon="-3.973315"><ele>681</ele><time>2022-10-20T14:19:24Z</time><name>PT3616</name></trkpt>
<trkpt lat="53.210000" lon="-3.973378"><ele>681</ele><time>2022-10-20T14:19:27Z</time><name>PT3617</name></trkpt>
<trkpt lat="53.209999" lon="-3.973442"><ele>680</ele><time>2022-10-20T14:19:30Z</time><name>PT3618</name></trkpt>
<trkpt lat="53.210002" lon="-3.973501"><ele>680</ele><time>2022-10-20T14:19:33Z</time><name>PT3619</name></trkpt>
<trkpt lat="53.210003" lon="-3.973576"><ele>680</ele><time>2022-10-20T14:19:37Z</time><name>PT3620</name></trkpt>
<trkpt lat="53.210011" lon="-3.973634"><ele>680</ele><time>2022-10-20T14:19:41Z</time><name>PT3621</name></trkpt>
<trkpt lat="53.210020" lon="-3.973698"><ele>679</ele><time>2022-10-20T14:19:45Z</time><name>PT3622</name></trkpt>
<trkpt lat="53.210026" lon="-3.973751"><ele>679</ele><time>2022-10-20T14:19:48Z</time><name>PT3623</name></trkpt>
<trkpt lat="53.210030" lon="-3.973824"><ele>678</ele><time>2022-10-20T14:19:52Z</time><name>PT3624</name></trkpt>
<trkpt lat="53.210046" lon="-3.973906"><ele>679</ele><time>2022-10-20T14:19:56Z</time><name>PT3625</name></trkpt>
<trkpt lat="53.210038" lon="-3.973951"><ele>681</ele><time>2022-10-20T14:20:00Z</time><name>PT3626</name></trkpt>
<trkpt lat="53.210026" lon="-3.974026"><ele>682</ele><time>2022-10-20T14:20:04Z</time><name>PT3627</name></trkpt>
<trkpt lat="53.210013" lon="-3.974078"><ele>682</ele><time>2022-10-20T14:20:07Z</time><name>PT3628</name></trkpt>
<trkpt lat="53.209993" lon="-3.974122"><ele>683</ele><time>2022-10-20T14:20:10Z</time><name>PT3629</name></trkpt>
<trkpt lat="53.209976" lon="-3.974194"><ele>683</ele><time>2022-10-20T14:20:14Z</time><name>PT3630</name></trkpt>
<trkpt lat="53.209967" lon="-3.974244"><ele>683</ele><time>2022-10-20T14:20:17Z</time><name>PT3631</name></trkpt>
<trkpt lat="53.209961" lon="-3.974314"><ele>683</ele><time>2022-10-20T14:20:21Z</time><name>PT3632</name></trkpt>
<trkpt lat="53.209956" lon="-3.974381"><ele>683</ele><time>2022-10-20T14:20:25Z</time><name>PT3633</name></trkpt>
<trkpt lat="53.209929" lon="-3.974411"><ele>683</ele><time>2022-10-20T14:20:28Z</time><name>PT3634</name></trkpt>
<trkpt lat="53.209892" lon="-3.974437"><ele>683</ele><time>2022-10-20T14:20:32Z</time><name>PT3635</name></trkpt>
<trkpt lat="53.209869" lon="-3.974456"><ele>683</ele><time>2022-10-20T14:20:35Z</time><name>PT3636</name></trkpt>
<trkpt lat="53.209842" lon="-3.974483"><ele>682</ele><time>2022-10-20T14:20:38Z</time><name>PT3637</name></trkpt>
<trkpt lat="53.209812" lon="-3.974515"><ele>682</ele><time>2022-10-20T14:20:42Z</time><name>PT3638</name></trkpt>
<trkpt lat="53.209776" lon="-3.974567"><ele>682</ele><time>2022-10-20T14:20:45Z</time><name>PT3639</name></trkpt>
<trkpt lat="53.209737" lon="-3.974597"><ele>682</ele><time>2022-10-20T14:20:49Z</time><name>PT3640</name></trkpt>
<trkpt lat="53.209706" lon="-3.974628"><ele>681</ele><time>2022-10-20T14:20:52Z</time><name>PT3641</name></trkpt>
<trkpt lat="53.209674" lon="-3.974653"><ele>681</ele><time>2022-10-20T14:20:55Z</time><name>PT3642</name></trkpt>
<trkpt lat="53.209632" lon="-3.974698"><ele>681</ele><time>2022-10-20T14:20:59Z</time><name>PT3643</name></trkpt>
<trkpt lat="53.209602" lon="-3.974736"><ele>681</ele><time>2022-10-20T14:21:02Z</time><name>PT3644</name></trkpt>
<trkpt lat="53.209574" lon="-3.974773"><ele>681</ele><time>2022-10-20T14:21:05Z</time><name>PT3645</name></trkpt>
<trkpt lat="53.209543" lon="-3.974791"><ele>680</ele><time>2022-10-20T14:21:08Z</time><name>PT3646</name></trkpt>
<trkpt lat="53.209509" lon="-3.974797"><ele>680</ele><time>2022-10-20T14:21:11Z</time><name>PT3647</name></trkpt>
<trkpt lat="53.209467" lon="-3.974844"><ele>680</ele><time>2022-10-20T14:21:15Z</time><name>PT3648</name></trkpt>
<trkpt lat="53.209431" lon="-3.974875"><ele>680</ele><time>2022-10-20T14:21:18Z</time><name>PT3649</name></trkpt>
<trkpt lat="53.209385" lon="-3.974899"><ele>680</ele><time>2022-10-20T14:21:22Z</time><name>PT3650</name></trkpt>
<trkpt lat="53.209337" lon="-3.974923"><ele>680</ele><time>2022-10-20T14:21:26Z</time><name>PT3651</name></trkpt>
<trkpt lat="53.209302" lon="-3.974944"><ele>679</ele><time>2022-10-20T14:21:29Z</time><name>PT3652</name></trkpt>
<trkpt lat="53.209255" lon="-3.974968"><ele>679</ele><time>2022-10-20T14:21:33Z</time><name>PT3653</name></trkpt>
<trkpt lat="53.209223" lon="-3.974975"><ele>679</ele><time>2022-10-20T14:21:36Z</time><name>PT3654</name></trkpt>
<trkpt lat="53.209191" lon="-3.974976"><ele>679</ele><time>2022-10-20T14:21:39Z</time><name>PT3655</name></trkpt>
<trkpt lat="53.209161" lon="-3.974991"><ele>679</ele><time>2022-10-20T14:21:43Z</time><name>PT3656</name></trkpt>
<trkpt lat="53.209161" lon="-3.974994"><ele>678</ele><time>2022-10-20T14:21:46Z</time><name>PT3657</name></trkpt>
<trkpt lat="53.209163" lon="-3.974997"><ele>678</ele><time>2022-10-20T14:21:50Z</time><name>PT3658</name></trkpt>
<trkpt lat="53.209164" lon="-3.974998"><ele>678</ele><time>2022-10-20T14:21:53Z</time><name>PT3659</name></trkpt>
<trkpt lat="53.209158" lon="-3.974994"><ele>679</ele><time>2022-10-20T14:21:59Z</time><name>PT3660</name></trkpt>
<trkpt lat="53.209156" lon="-3.974992"><ele>679</ele><time>2022-10-20T14:22:03Z</time><name>PT3661</name></trkpt>
<trkpt lat="53.209147" lon="-3.974987"><ele>679</ele><time>2022-10-20T14:22:42Z</time><name>PT3662</name></trkpt>
<trkpt lat="53.209144" lon="-3.974986"><ele>680</ele><time>2022-10-20T14:22:45Z</time><name>PT3663</name></trkpt>
<trkpt lat="53.209136" lon="-3.974978"><ele>680</ele><time>2022-10-20T14:23:06Z</time><name>PT3664</name></trkpt>
<trkpt lat="53.209132" lon="-3.974981"><ele>680</ele><time>2022-10-20T14:23:10Z</time><name>PT3665</name></trkpt>
<trkpt lat="53.209135" lon="-3.974983"><ele>680</ele><time>2022-10-20T14:23:44Z</time><name>PT3666</name></trkpt>
<trkpt lat="53.209144" lon="-3.975020"><ele>681</ele><time>2022-10-20T14:23:47Z</time><name>PT3667</name></trkpt>
<trkpt lat="53.209147" lon="-3.975094"><ele>680</ele><time>2022-10-20T14:23:51Z</time><name>PT3668</name></trkpt>
<trkpt lat="53.209155" lon="-3.975150"><ele>681</ele><time>2022-10-20T14:23:54Z</time><name>PT3669</name></trkpt>
<trkpt lat="53.209164" lon="-3.975221"><ele>680</ele><time>2022-10-20T14:23:58Z</time><name>PT3670</name></trkpt>
<trkpt lat="53.209176" lon="-3.975268"><ele>680</ele><time>2022-10-20T14:24:01Z</time><name>PT3671</name></trkpt>
<trkpt lat="53.209189" lon="-3.975308"><ele>680</ele><time>2022-10-20T14:24:04Z</time><name>PT3672</name></trkpt>
<trkpt lat="53.209208" lon="-3.975370"><ele>679</ele><time>2022-10-20T14:24:08Z</time><name>PT3673</name></trkpt>
<trkpt lat="53.209221" lon="-3.975418"><ele>680</ele><time>2022-10-20T14:24:11Z</time><name>PT3674</name></trkpt>
<trkpt lat="53.209234" lon="-3.975477"><ele>679</ele><time>2022-10-20T14:24:15Z</time><name>PT3675</name></trkpt>
<trkpt lat="53.209249" lon="-3.975534"><ele>679</ele><time>2022-10-20T14:24:19Z</time><name>PT3676</name></trkpt>
<trkpt lat="53.209264" lon="-3.975600"><ele>679</ele><time>2022-10-20T14:24:23Z</time><name>PT3677</name></trkpt>
<trkpt lat="53.209274" lon="-3.975646"><ele>679</ele><time>2022-10-20T14:24:26Z</time><name>PT3678</name></trkpt>
<trkpt lat="53.209283" lon="-3.975698"><ele>679</ele><time>2022-10-20T14:24:29Z</time><name>PT3679</name></trkpt>
<trkpt lat="53.209294" lon="-3.975768"><ele>679</ele><time>2022-10-20T14:24:33Z</time><name>PT3680</name></trkpt>
<trkpt lat="53.209302" lon="-3.975816"><ele>679</ele><time>2022-10-20T14:24:36Z</time><name>PT3681</name></trkpt>
<trkpt lat="53.209302" lon="-3.975853"><ele>679</ele><time>2022-10-20T14:24:39Z</time><name>PT3682</name></trkpt>
<trkpt lat="53.209280" lon="-3.975887"><ele>679</ele><time>2022-10-20T14:24:43Z</time><name>PT3683</name></trkpt>
<trkpt lat="53.209271" lon="-3.975943"><ele>679</ele><time>2022-10-20T14:24:47Z</time><name>PT3684</name></trkpt>
<trkpt lat="53.209271" lon="-3.975999"><ele>678</ele><time>2022-10-20T14:24:50Z</time><name>PT3685</name></trkpt>
<trkpt lat="53.209272" lon="-3.976053"><ele>678</ele><time>2022-10-20T14:24:53Z</time><name>PT3686</name></trkpt>
<trkpt lat="53.209276" lon="-3.976106"><ele>678</ele><time>2022-10-20T14:24:56Z</time><name>PT3687</name></trkpt>
<trkpt lat="53.209284" lon="-3.976177"><ele>678</ele><time>2022-10-20T14:25:00Z</time><name>PT3688</name></trkpt>
<trkpt lat="53.209296" lon="-3.976240"><ele>678</ele><time>2022-10-20T14:25:04Z</time><name>PT3689</name></trkpt>
<trkpt lat="53.209309" lon="-3.976279"><ele>678</ele><time>2022-10-20T14:25:07Z</time><name>PT3690</name></trkpt>
<trkpt lat="53.209324" lon="-3.976338"><ele>677</ele><time>2022-10-20T14:25:11Z</time><name>PT3691</name></trkpt>
<trkpt lat="53.209338" lon="-3.976407"><ele>677</ele><time>2022-10-20T14:25:15Z</time><name>PT3692</name></trkpt>
<trkpt lat="53.209348" lon="-3.976472"><ele>677</ele><time>2022-10-20T14:25:19Z</time><name>PT3693</name></trkpt>
<trkpt lat="53.209357" lon="-3.976523"><ele>677</ele><time>2022-10-20T14:25:22Z</time><name>PT3694</name></trkpt>
<trkpt lat="53.209367" lon="-3.976579"><ele>677</ele><time>2022-10-20T14:25:25Z</time><name>PT3695</name></trkpt>
<trkpt lat="53.209376" lon="-3.976651"><ele>677</ele><time>2022-10-20T14:25:29Z</time><name>PT3696</name></trkpt>
<trkpt lat="53.209379" lon="-3.976708"><ele>677</ele><time>2022-10-20T14:25:32Z</time><name>PT3697</name></trkpt>
<trkpt lat="53.209381" lon="-3.976776"><ele>677</ele><time>2022-10-20T14:25:36Z</time><name>PT3698</name></trkpt>
<trkpt lat="53.209385" lon="-3.976828"><ele>677</ele><time>2022-10-20T14:25:39Z</time><name>PT3699</name></trkpt>
<trkpt lat="53.209392" lon="-3.976902"><ele>677</ele><time>2022-10-20T14:25:43Z</time><name>PT3700</name></trkpt>
<trkpt lat="53.209400" lon="-3.976956"><ele>677</ele><time>2022-10-20T14:25:46Z</time><name>PT3701</name></trkpt>
<trkpt lat="53.209402" lon="-3.977027"><ele>677</ele><time>2022-10-20T14:25:50Z</time><name>PT3702</name></trkpt>
<trkpt lat="53.209405" lon="-3.977082"><ele>677</ele><time>2022-10-20T14:25:53Z</time><name>PT3703</name></trkpt>
<trkpt lat="53.209412" lon="-3.977138"><ele>678</ele><time>2022-10-20T14:25:56Z</time><name>PT3704</name></trkpt>
<trkpt lat="53.209413" lon="-3.977191"><ele>678</ele><time>2022-10-20T14:25:59Z</time><name>PT3705</name></trkpt>
<trkpt lat="53.209412" lon="-3.977264"><ele>678</ele><time>2022-10-20T14:26:03Z</time><name>PT3706</name></trkpt>
<trkpt lat="53.209409" lon="-3.977336"><ele>678</ele><time>2022-10-20T14:26:07Z</time><name>PT3707</name></trkpt>
<trkpt lat="53.209408" lon="-3.977390"><ele>678</ele><time>2022-10-20T14:26:10Z</time><name>PT3708</name></trkpt>
<trkpt lat="53.209413" lon="-3.977456"><ele>678</ele><time>2022-10-20T14:26:14Z</time><name>PT3709</name></trkpt>
<trkpt lat="53.209416" lon="-3.977505"><ele>677</ele><time>2022-10-20T14:26:17Z</time><name>PT3710</name></trkpt>
<trkpt lat="53.209420" lon="-3.977571"><ele>676</ele><time>2022-10-20T14:26:21Z</time><name>PT3711</name></trkpt>
<trkpt lat="53.209427" lon="-3.977624"><ele>676</ele><time>2022-10-20T14:26:24Z</time><name>PT3712</name></trkpt>
<trkpt lat="53.209439" lon="-3.977687"><ele>676</ele><time>2022-10-20T14:26:28Z</time><name>PT3713</name></trkpt>
<trkpt lat="53.209446" lon="-3.977728"><ele>676</ele><time>2022-10-20T14:26:31Z</time><name>PT3714</name></trkpt>
<trkpt lat="53.209455" lon="-3.977774"><ele>676</ele><time>2022-10-20T14:26:34Z</time><name>PT3715</name></trkpt>
<trkpt lat="53.209461" lon="-3.977834"><ele>676</ele><time>2022-10-20T14:26:38Z</time><name>PT3716</name></trkpt>
<trkpt lat="53.209465" lon="-3.977881"><ele>676</ele><time>2022-10-20T14:26:41Z</time><name>PT3717</name></trkpt>
<trkpt lat="53.209473" lon="-3.977942"><ele>676</ele><time>2022-10-20T14:26:45Z</time><name>PT3718</name></trkpt>
<trkpt lat="53.209480" lon="-3.977991"><ele>676</ele><time>2022-10-20T14:26:48Z</time><name>PT3719</name></trkpt>
<trkpt lat="53.209484" lon="-3.978030"><ele>676</ele><time>2022-10-20T14:26:51Z</time><name>PT3720</name></trkpt>
<trkpt lat="53.209493" lon="-3.978097"><ele>676</ele><time>2022-10-20T14:26:55Z</time><name>PT3721</name></trkpt>
<trkpt lat="53.209501" lon="-3.978141"><ele>676</ele><time>2022-10-20T14:26:58Z</time><name>PT3722</name></trkpt>
<trkpt lat="53.209505" lon="-3.978181"><ele>676</ele><time>2022-10-20T14:27:01Z</time><name>PT3723</name></trkpt>
<trkpt lat="53.209510" lon="-3.978245"><ele>676</ele><time>2022-10-20T14:27:05Z</time><name>PT3724</name></trkpt>
<trkpt lat="53.209513" lon="-3.978314"><ele>676</ele><time>2022-10-20T14:27:09Z</time><name>PT3725</name></trkpt>
<trkpt lat="53.209517" lon="-3.978369"><ele>676</ele><time>2022-10-20T14:27:13Z</time><name>PT3726</name></trkpt>
<trkpt lat="53.209512" lon="-3.978422"><ele>676</ele><time>2022-10-20T14:27:17Z</time><name>PT3727</name></trkpt>
<trkpt lat="53.209511" lon="-3.978473"><ele>676</ele><time>2022-10-20T14:27:21Z</time><name>PT3728</name></trkpt>
<trkpt lat="53.209505" lon="-3.978517"><ele>675</ele><time>2022-10-20T14:27:25Z</time><name>PT3729</name></trkpt>
<trkpt lat="53.209501" lon="-3.978564"><ele>675</ele><time>2022-10-20T14:27:29Z</time><name>PT3730</name></trkpt>
<trkpt lat="53.209496" lon="-3.978608"><ele>675</ele><time>2022-10-20T14:27:32Z</time><name>PT3731</name></trkpt>
<trkpt lat="53.209494" lon="-3.978662"><ele>674</ele><time>2022-10-20T14:27:36Z</time><name>PT3732</name></trkpt>
<trkpt lat="53.209489" lon="-3.978697"><ele>674</ele><time>2022-10-20T14:27:39Z</time><name>PT3733</name></trkpt>
<trkpt lat="53.209476" lon="-3.978738"><ele>674</ele><time>2022-10-20T14:27:43Z</time><name>PT3734</name></trkpt>
<trkpt lat="53.209471" lon="-3.978779"><ele>673</ele><time>2022-10-20T14:27:47Z</time><name>PT3735</name></trkpt>
<trkpt lat="53.209465" lon="-3.978819"><ele>673</ele><time>2022-10-20T14:27:50Z</time><name>PT3736</name></trkpt>
<trkpt lat="53.209453" lon="-3.978871"><ele>673</ele><time>2022-10-20T14:27:54Z</time><name>PT3737</name></trkpt>
<trkpt lat="53.209438" lon="-3.978909"><ele>672</ele><time>2022-10-20T14:27:57Z</time><name>PT3738</name></trkpt>
<trkpt lat="53.209424" lon="-3.978964"><ele>671</ele><time>2022-10-20T14:28:01Z</time><name>PT3739</name></trkpt>
<trkpt lat="53.209415" lon="-3.978994"><ele>671</ele><time>2022-10-20T14:28:04Z</time><name>PT3740</name></trkpt>
<trkpt lat="53.209412" lon="-3.979047"><ele>669</ele><time>2022-10-20T14:28:08Z</time><name>PT3741</name></trkpt>
<trkpt lat="53.209410" lon="-3.979100"><ele>669</ele><time>2022-10-20T14:28:12Z</time><name>PT3742</name></trkpt>
<trkpt lat="53.209405" lon="-3.979158"><ele>668</ele><time>2022-10-20T14:28:16Z</time><name>PT3743</name></trkpt>
<trkpt lat="53.209399" lon="-3.979214"><ele>668</ele><time>2022-10-20T14:28:20Z</time><name>PT3744</name></trkpt>
<trkpt lat="53.209389" lon="-3.979252"><ele>667</ele><time>2022-10-20T14:28:23Z</time><name>PT3745</name></trkpt>
<trkpt lat="53.209380" lon="-3.979314"><ele>667</ele><time>2022-10-20T14:28:27Z</time><name>PT3746</name></trkpt>
<trkpt lat="53.209357" lon="-3.979358"><ele>666</ele><time>2022-10-20T14:28:31Z</time><name>PT3747</name></trkpt>
<trkpt lat="53.209346" lon="-3.979383"><ele>665</ele><time>2022-10-20T14:28:34Z</time><name>PT3748</name></trkpt>
<trkpt lat="53.209331" lon="-3.979399"><ele>664</ele><time>2022-10-20T14:28:37Z</time><name>PT3749</name></trkpt>
<trkpt lat="53.209320" lon="-3.979423"><ele>664</ele><time>2022-10-20T14:28:40Z</time><name>PT3750</name></trkpt>
<trkpt lat="53.209313" lon="-3.979445"><ele>663</ele><time>2022-10-20T14:28:43Z</time><name>PT3751</name></trkpt>
<trkpt lat="53.209294" lon="-3.979475"><ele>662</ele><time>2022-10-20T14:28:47Z</time><name>PT3752</name></trkpt>
<trkpt lat="53.209272" lon="-3.979514"><ele>662</ele><time>2022-10-20T14:28:51Z</time><name>PT3753</name></trkpt>
<trkpt lat="53.209255" lon="-3.979546"><ele>661</ele><time>2022-10-20T14:28:55Z</time><name>PT3754</name></trkpt>
<trkpt lat="53.209235" lon="-3.979576"><ele>659</ele><time>2022-10-20T14:28:58Z</time><name>PT3755</name></trkpt>
<trkpt lat="53.209231" lon="-3.979633"><ele>659</ele><time>2022-10-20T14:29:02Z</time><name>PT3756</name></trkpt>
<trkpt lat="53.209245" lon="-3.979698"><ele>659</ele><time>2022-10-20T14:29:06Z</time><name>PT3757</name></trkpt>
<trkpt lat="53.209253" lon="-3.979745"><ele>660</ele><time>2022-10-20T14:29:09Z</time><name>PT3758</name></trkpt>
<trkpt lat="53.209268" lon="-3.979794"><ele>659</ele><time>2022-10-20T14:29:13Z</time><name>PT3759</name></trkpt>
<trkpt lat="53.209284" lon="-3.979836"><ele>659</ele><time>2022-10-20T14:29:16Z</time><name>PT3760</name></trkpt>
<trkpt lat="53.209297" lon="-3.979880"><ele>659</ele><time>2022-10-20T14:29:19Z</time><name>PT3761</name></trkpt>
<trkpt lat="53.209319" lon="-3.979931"><ele>660</ele><time>2022-10-20T14:29:23Z</time><name>PT3762</name></trkpt>
<trkpt lat="53.209337" lon="-3.979985"><ele>660</ele><time>2022-10-20T14:29:27Z</time><name>PT3763</name></trkpt>
<trkpt lat="53.209350" lon="-3.980046"><ele>660</ele><time>2022-10-20T14:29:31Z</time><name>PT3764</name></trkpt>
<trkpt lat="53.209353" lon="-3.980082"><ele>660</ele><time>2022-10-20T14:29:34Z</time><name>PT3765</name></trkpt>
<trkpt lat="53.209349" lon="-3.980109"><ele>660</ele><time>2022-10-20T14:29:37Z</time><name>PT3766</name></trkpt>
<trkpt lat="53.209340" lon="-3.980142"><ele>659</ele><time>2022-10-20T14:29:40Z</time><name>PT3767</name></trkpt>
<trkpt lat="53.209334" lon="-3.980201"><ele>658</ele><time>2022-10-20T14:29:44Z</time><name>PT3768</name></trkpt>
<trkpt lat="53.209321" lon="-3.980254"><ele>658</ele><time>2022-10-20T14:29:48Z</time><name>PT3769</name></trkpt>
<trkpt lat="53.209295" lon="-3.980296"><ele>657</ele><time>2022-10-20T14:29:52Z</time><name>PT3770</name></trkpt>
<trkpt lat="53.209279" lon="-3.980323"><ele>657</ele><time>2022-10-20T14:29:55Z</time><name>PT3771</name></trkpt>
<trkpt lat="53.209253" lon="-3.980356"><ele>657</ele><time>2022-10-20T14:29:59Z</time><name>PT3772</name></trkpt>
<trkpt lat="53.209239" lon="-3.980401"><ele>657</ele><time>2022-10-20T14:30:02Z</time><name>PT3773</name></trkpt>
<trkpt lat="53.209237" lon="-3.980438"><ele>657</ele><time>2022-10-20T14:30:05Z</time><name>PT3774</name></trkpt>
<trkpt lat="53.209253" lon="-3.980478"><ele>656</ele><time>2022-10-20T14:30:09Z</time><name>PT3775</name></trkpt>
<trkpt lat="53.209267" lon="-3.980511"><ele>656</ele><time>2022-10-20T14:30:13Z</time><name>PT3776</name></trkpt>
<trkpt lat="53.209276" lon="-3.980544"><ele>655</ele><time>2022-10-20T14:30:17Z</time><name>PT3777</name></trkpt>
<trkpt lat="53.209284" lon="-3.980574"><ele>654</ele><time>2022-10-20T14:30:20Z</time><name>PT3778</name></trkpt>
<trkpt lat="53.209294" lon="-3.980607"><ele>654</ele><time>2022-10-20T14:30:23Z</time><name>PT3779</name></trkpt>
<trkpt lat="53.209309" lon="-3.980643"><ele>653</ele><time>2022-10-20T14:30:27Z</time><name>PT3780</name></trkpt>
<trkpt lat="53.209306" lon="-3.980669"><ele>654</ele><time>2022-10-20T14:30:31Z</time><name>PT3781</name></trkpt>
<trkpt lat="53.209300" lon="-3.980694"><ele>653</ele><time>2022-10-20T14:30:34Z</time><name>PT3782</name></trkpt>
<trkpt lat="53.209291" lon="-3.980734"><ele>653</ele><time>2022-10-20T14:30:38Z</time><name>PT3783</name></trkpt>
<trkpt lat="53.209279" lon="-3.980748"><ele>652</ele><time>2022-10-20T14:30:41Z</time><name>PT3784</name></trkpt>
<trkpt lat="53.209276" lon="-3.980779"><ele>651</ele><time>2022-10-20T14:30:44Z</time><name>PT3785</name></trkpt>
<trkpt lat="53.209293" lon="-3.980816"><ele>650</ele><time>2022-10-20T14:30:47Z</time><name>PT3786</name></trkpt>
<trkpt lat="53.209289" lon="-3.980864"><ele>651</ele><time>2022-10-20T14:30:51Z</time><name>PT3787</name></trkpt>
<trkpt lat="53.209288" lon="-3.980908"><ele>650</ele><time>2022-10-20T14:30:55Z</time><name>PT3788</name></trkpt>
<trkpt lat="53.209294" lon="-3.980952"><ele>650</ele><time>2022-10-20T14:30:58Z</time><name>PT3789</name></trkpt>
<trkpt lat="53.209301" lon="-3.980997"><ele>650</ele><time>2022-10-20T14:31:01Z</time><name>PT3790</name></trkpt>
<trkpt lat="53.209306" lon="-3.981025"><ele>650</ele><time>2022-10-20T14:31:05Z</time><name>PT3791</name></trkpt>
<trkpt lat="53.209324" lon="-3.981050"><ele>649</ele><time>2022-10-20T14:31:09Z</time><name>PT3792</name></trkpt>
<trkpt lat="53.209348" lon="-3.981076"><ele>649</ele><time>2022-10-20T14:31:13Z</time><name>PT3793</name></trkpt>
<trkpt lat="53.209347" lon="-3.981070"><ele>648</ele><time>2022-10-20T14:31:17Z</time><name>PT3794</name></trkpt>
<trkpt lat="53.209348" lon="-3.981069"><ele>649</ele><time>2022-10-20T14:31:21Z</time><name>PT3795</name></trkpt>
<trkpt lat="53.209345" lon="-3.981059"><ele>649</ele><time>2022-10-20T14:31:25Z</time><name>PT3796</name></trkpt>
<trkpt lat="53.209366" lon="-3.981083"><ele>649</ele><time>2022-10-20T14:31:29Z</time><name>PT3797</name></trkpt>
<trkpt lat="53.209377" lon="-3.981129"><ele>649</ele><time>2022-10-20T14:31:32Z</time><name>PT3798</name></trkpt>
<trkpt lat="53.209389" lon="-3.981174"><ele>649</ele><time>2022-10-20T14:31:36Z</time><name>PT3799</name></trkpt>
<trkpt lat="53.209392" lon="-3.981207"><ele>648</ele><time>2022-10-20T14:31:39Z</time><name>PT3800</name></trkpt>
<trkpt lat="53.209395" lon="-3.981267"><ele>648</ele><time>2022-10-20T14:31:43Z</time><name>PT3801</name></trkpt>
<trkpt lat="53.209401" lon="-3.981309"><ele>648</ele><time>2022-10-20T14:31:46Z</time><name>PT3802</name></trkpt>
<trkpt lat="53.209396" lon="-3.981355"><ele>647</ele><time>2022-10-20T14:31:50Z</time><name>PT3803</name></trkpt>
<trkpt lat="53.209388" lon="-3.981382"><ele>646</ele><time>2022-10-20T14:31:53Z</time><name>PT3804</name></trkpt>
<trkpt lat="53.209387" lon="-3.981427"><ele>646</ele><time>2022-10-20T14:31:57Z</time><name>PT3805</name></trkpt>
<trkpt lat="53.209393" lon="-3.981474"><ele>645</ele><time>2022-10-20T14:32:00Z</time><name>PT3806</name></trkpt>
<trkpt lat="53.209403" lon="-3.981511"><ele>645</ele><time>2022-10-20T14:32:03Z</time><name>PT3807</name></trkpt>
<trkpt lat="53.209412" lon="-3.981567"><ele>644</ele><time>2022-10-20T14:32:07Z</time><name>PT3808</name></trkpt>
<trkpt lat="53.209400" lon="-3.981593"><ele>643</ele><time>2022-10-20T14:32:10Z</time><name>PT3809</name></trkpt>
<trkpt lat="53.209396" lon="-3.981614"><ele>643</ele><time>2022-10-20T14:32:13Z</time><name>PT3810</name></trkpt>
<trkpt lat="53.209396" lon="-3.981651"><ele>642</ele><time>2022-10-20T14:32:16Z</time><name>PT3811</name></trkpt>
<trkpt lat="53.209402" lon="-3.981704"><ele>642</ele><time>2022-10-20T14:32:20Z</time><name>PT3812</name></trkpt>
<trkpt lat="53.209400" lon="-3.981737"><ele>642</ele><time>2022-10-20T14:32:23Z</time><name>PT3813</name></trkpt>
<trkpt lat="53.209401" lon="-3.981776"><ele>641</ele><time>2022-10-20T14:32:27Z</time><name>PT3814</name></trkpt>
<trkpt lat="53.209389" lon="-3.981803"><ele>641</ele><time>2022-10-20T14:32:31Z</time><name>PT3815</name></trkpt>
<trkpt lat="53.209391" lon="-3.981810"><ele>640</ele><time>2022-10-20T14:32:34Z</time><name>PT3816</name></trkpt>
<trkpt lat="53.209407" lon="-3.981835"><ele>640</ele><time>2022-10-20T14:32:37Z</time><name>PT3817</name></trkpt>
<trkpt lat="53.209428" lon="-3.981873"><ele>639</ele><time>2022-10-20T14:32:41Z</time><name>PT3818</name></trkpt>
<trkpt lat="53.209447" lon="-3.981916"><ele>639</ele><time>2022-10-20T14:32:44Z</time><name>PT3819</name></trkpt>
<trkpt lat="53.209465" lon="-3.981960"><ele>639</ele><time>2022-10-20T14:32:48Z</time><name>PT3820</name></trkpt>
<trkpt lat="53.209491" lon="-3.982005"><ele>639</ele><time>2022-10-20T14:32:52Z</time><name>PT3821</name></trkpt>
<trkpt lat="53.209507" lon="-3.982035"><ele>638</ele><time>2022-10-20T14:32:55Z</time><name>PT3822</name></trkpt>
<trkpt lat="53.209518" lon="-3.982074"><ele>638</ele><time>2022-10-20T14:32:58Z</time><name>PT3823</name></trkpt>
<trkpt lat="53.209523" lon="-3.982113"><ele>638</ele><time>2022-10-20T14:33:02Z</time><name>PT3824</name></trkpt>
<trkpt lat="53.209528" lon="-3.982135"><ele>638</ele><time>2022-10-20T14:33:05Z</time><name>PT3825</name></trkpt>
<trkpt lat="53.209544" lon="-3.982175"><ele>637</ele><time>2022-10-20T14:33:09Z</time><name>PT3826</name></trkpt>
<trkpt lat="53.209550" lon="-3.982199"><ele>637</ele><time>2022-10-20T14:33:12Z</time><name>PT3827</name></trkpt>
<trkpt lat="53.209557" lon="-3.982237"><ele>636</ele><time>2022-10-20T14:33:16Z</time><name>PT3828</name></trkpt>
<trkpt lat="53.209570" lon="-3.982274"><ele>636</ele><time>2022-10-20T14:33:20Z</time><name>PT3829</name></trkpt>
<trkpt lat="53.209589" lon="-3.982310"><ele>635</ele><time>2022-10-20T14:33:24Z</time><name>PT3830</name></trkpt>
<trkpt lat="53.209605" lon="-3.982336"><ele>635</ele><time>2022-10-20T14:33:28Z</time><name>PT3831</name></trkpt>
<trkpt lat="53.209607" lon="-3.982359"><ele>634</ele><time>2022-10-20T14:33:31Z</time><name>PT3832</name></trkpt>
<trkpt lat="53.209605" lon="-3.982392"><ele>633</ele><time>2022-10-20T14:33:35Z</time><name>PT3833</name></trkpt>
<trkpt lat="53.209603" lon="-3.982419"><ele>633</ele><time>2022-10-20T14:33:39Z</time><name>PT3834</name></trkpt>
<trkpt lat="53.209615" lon="-3.982450"><ele>632</ele><time>2022-10-20T14:33:42Z</time><name>PT3835</name></trkpt>
<trkpt lat="53.209618" lon="-3.982501"><ele>631</ele><time>2022-10-20T14:33:46Z</time><name>PT3836</name></trkpt>
<trkpt lat="53.209620" lon="-3.982547"><ele>630</ele><time>2022-10-20T14:33:50Z</time><name>PT3837</name></trkpt>
<trkpt lat="53.209616" lon="-3.982562"><ele>630</ele><time>2022-10-20T14:33:53Z</time><name>PT3838</name></trkpt>
<trkpt lat="53.209611" lon="-3.982585"><ele>630</ele><time>2022-10-20T14:33:57Z</time><name>PT3839</name></trkpt>
<trkpt lat="53.209613" lon="-3.982622"><ele>628</ele><time>2022-10-20T14:34:01Z</time><name>PT3840</name></trkpt>
<trkpt lat="53.209614" lon="-3.982653"><ele>628</ele><time>2022-10-20T14:34:04Z</time><name>PT3841</name></trkpt>
<trkpt lat="53.209615" lon="-3.982688"><ele>627</ele><time>2022-10-20T14:34:07Z</time><name>PT3842</name></trkpt>
<trkpt lat="53.209616" lon="-3.982721"><ele>626</ele><time>2022-10-20T14:34:10Z</time><name>PT3843</name></trkpt>
<trkpt lat="53.209622" lon="-3.982759"><ele>625</ele><time>2022-10-20T14:34:14Z</time><name>PT3844</name></trkpt>
<trkpt lat="53.209621" lon="-3.982797"><ele>624</ele><time>2022-10-20T14:34:18Z</time><name>PT3845</name></trkpt>
<trkpt lat="53.209609" lon="-3.982838"><ele>623</ele><time>2022-10-20T14:34:22Z</time><name>PT3846</name></trkpt>
<trkpt lat="53.209597" lon="-3.982869"><ele>622</ele><time>2022-10-20T14:34:26Z</time><name>PT3847</name></trkpt>
<trkpt lat="53.209598" lon="-3.982913"><ele>621</ele><time>2022-10-20T14:34:30Z</time><name>PT3848</name></trkpt>
<trkpt lat="53.209609" lon="-3.982952"><ele>620</ele><time>2022-10-20T14:34:34Z</time><name>PT3849</name></trkpt>
<trkpt lat="53.209616" lon="-3.982987"><ele>619</ele><time>2022-10-20T14:34:38Z</time><name>PT3850</name></trkpt>
<trkpt lat="53.209616" lon="-3.983030"><ele>618</ele><time>2022-10-20T14:34:42Z</time><name>PT3851</name></trkpt>
<trkpt lat="53.209612" lon="-3.983064"><ele>617</ele><time>2022-10-20T14:34:45Z</time><name>PT3852</name></trkpt>
<trkpt lat="53.209613" lon="-3.983106"><ele>616</ele><time>2022-10-20T14:34:49Z</time><name>PT3853</name></trkpt>
<trkpt lat="53.209615" lon="-3.983146"><ele>615</ele><time>2022-10-20T14:34:53Z</time><name>PT3854</name></trkpt>
<trkpt lat="53.209636" lon="-3.983187"><ele>613</ele><time>2022-10-20T14:34:57Z</time><name>PT3855</name></trkpt>
<trkpt lat="53.209657" lon="-3.983219"><ele>613</ele><time>2022-10-20T14:35:00Z</time><name>PT3856</name></trkpt>
<trkpt lat="53.209677" lon="-3.983248"><ele>613</ele><time>2022-10-20T14:35:04Z</time><name>PT3857</name></trkpt>
<trkpt lat="53.209697" lon="-3.983263"><ele>613</ele><time>2022-10-20T14:35:07Z</time><name>PT3858</name></trkpt>
<trkpt lat="53.209726" lon="-3.983295"><ele>612</ele><time>2022-10-20T14:35:11Z</time><name>PT3859</name></trkpt>
<trkpt lat="53.209740" lon="-3.983326"><ele>612</ele><time>2022-10-20T14:35:14Z</time><name>PT3860</name></trkpt>
<trkpt lat="53.209745" lon="-3.983373"><ele>610</ele><time>2022-10-20T14:35:18Z</time><name>PT3861</name></trkpt>
<trkpt lat="53.209749" lon="-3.983424"><ele>609</ele><time>2022-10-20T14:35:22Z</time><name>PT3862</name></trkpt>
<trkpt lat="53.209760" lon="-3.983461"><ele>607</ele><time>2022-10-20T14:35:25Z</time><name>PT3863</name></trkpt>
<trkpt lat="53.209771" lon="-3.983512"><ele>606</ele><time>2022-10-20T14:35:29Z</time><name>PT3864</name></trkpt>
<trkpt lat="53.209777" lon="-3.983548"><ele>606</ele><time>2022-10-20T14:35:32Z</time><name>PT3865</name></trkpt>
<trkpt lat="53.209777" lon="-3.983600"><ele>605</ele><time>2022-10-20T14:35:36Z</time><name>PT3866</name></trkpt>
<trkpt lat="53.209781" lon="-3.983645"><ele>603</ele><time>2022-10-20T14:35:40Z</time><name>PT3867</name></trkpt>
<trkpt lat="53.209793" lon="-3.983682"><ele>603</ele><time>2022-10-20T14:35:43Z</time><name>PT3868</name></trkpt>
<trkpt lat="53.209800" lon="-3.983714"><ele>602</ele><time>2022-10-20T14:35:46Z</time><name>PT3869</name></trkpt>
<trkpt lat="53.209817" lon="-3.983758"><ele>601</ele><time>2022-10-20T14:35:50Z</time><name>PT3870</name></trkpt>
<trkpt lat="53.209832" lon="-3.983796"><ele>600</ele><time>2022-10-20T14:35:54Z</time><name>PT3871</name></trkpt>
<trkpt lat="53.209853" lon="-3.983842"><ele>600</ele><time>2022-10-20T14:35:58Z</time><name>PT3872</name></trkpt>
<trkpt lat="53.209857" lon="-3.983873"><ele>599</ele><time>2022-10-20T14:36:01Z</time><name>PT3873</name></trkpt>
<trkpt lat="53.209855" lon="-3.983899"><ele>599</ele><time>2022-10-20T14:36:04Z</time><name>PT3874</name></trkpt>
<trkpt lat="53.209859" lon="-3.983941"><ele>598</ele><time>2022-10-20T14:36:08Z</time><name>PT3875</name></trkpt>
<trkpt lat="53.209853" lon="-3.983982"><ele>597</ele><time>2022-10-20T14:36:12Z</time><name>PT3876</name></trkpt>
<trkpt lat="53.209850" lon="-3.984009"><ele>597</ele><time>2022-10-20T14:36:15Z</time><name>PT3877</name></trkpt>
<trkpt lat="53.209849" lon="-3.984060"><ele>596</ele><time>2022-10-20T14:36:19Z</time><name>PT3878</name></trkpt>
<trkpt lat="53.209842" lon="-3.984108"><ele>595</ele><time>2022-10-20T14:36:23Z</time><name>PT3879</name></trkpt>
<trkpt lat="53.209838" lon="-3.984145"><ele>594</ele><time>2022-10-20T14:36:26Z</time><name>PT3880</name></trkpt>
<trkpt lat="53.209832" lon="-3.984194"><ele>594</ele><time>2022-10-20T14:36:30Z</time><name>PT3881</name></trkpt>
<trkpt lat="53.209831" lon="-3.984241"><ele>593</ele><time>2022-10-20T14:36:34Z</time><name>PT3882</name></trkpt>
<trkpt lat="53.209827" lon="-3.984298"><ele>592</ele><time>2022-10-20T14:36:38Z</time><name>PT3883</name></trkpt>
<trkpt lat="53.209830" lon="-3.984360"><ele>591</ele><time>2022-10-20T14:36:42Z</time><name>PT3884</name></trkpt>
<trkpt lat="53.209834" lon="-3.984393"><ele>590</ele><time>2022-10-20T14:36:45Z</time><name>PT3885</name></trkpt>
<trkpt lat="53.209838" lon="-3.984437"><ele>590</ele><time>2022-10-20T14:36:48Z</time><name>PT3886</name></trkpt>
<trkpt lat="53.209835" lon="-3.984474"><ele>588</ele><time>2022-10-20T14:36:51Z</time><name>PT3887</name></trkpt>
<trkpt lat="53.209835" lon="-3.984523"><ele>587</ele><time>2022-10-20T14:36:55Z</time><name>PT3888</name></trkpt>
<trkpt lat="53.209833" lon="-3.984574"><ele>586</ele><time>2022-10-20T14:36:59Z</time><name>PT3889</name></trkpt>
<trkpt lat="53.209838" lon="-3.984633"><ele>585</ele><time>2022-10-20T14:37:03Z</time><name>PT3890</name></trkpt>
<trkpt lat="53.209841" lon="-3.984643"><ele>585</ele><time>2022-10-20T14:37:06Z</time><name>PT3891</name></trkpt>
<trkpt lat="53.209842" lon="-3.984680"><ele>585</ele><time>2022-10-20T14:37:11Z</time><name>PT3892</name></trkpt>
<trkpt lat="53.209842" lon="-3.984722"><ele>585</ele><time>2022-10-20T14:37:14Z</time><name>PT3893</name></trkpt>
<trkpt lat="53.209843" lon="-3.984757"><ele>584</ele><time>2022-10-20T14:37:17Z</time><name>PT3894</name></trkpt>
<trkpt lat="53.209839" lon="-3.984808"><ele>583</ele><time>2022-10-20T14:37:21Z</time><name>PT3895</name></trkpt>
<trkpt lat="53.209839" lon="-3.984847"><ele>582</ele><time>2022-10-20T14:37:24Z</time><name>PT3896</name></trkpt>
<trkpt lat="53.209837" lon="-3.984901"><ele>581</ele><time>2022-10-20T14:37:28Z</time><name>PT3897</name></trkpt>
<trkpt lat="53.209834" lon="-3.984940"><ele>580</ele><time>2022-10-20T14:37:31Z</time><name>PT3898</name></trkpt>
<trkpt lat="53.209834" lon="-3.984987"><ele>578</ele><time>2022-10-20T14:37:35Z</time><name>PT3899</name></trkpt>
<trkpt lat="53.209836" lon="-3.985042"><ele>577</ele><time>2022-10-20T14:37:39Z</time><name>PT3900</name></trkpt>
<trkpt lat="53.209835" lon="-3.985097"><ele>577</ele><time>2022-10-20T14:37:43Z</time><name>PT3901</name></trkpt>
<trkpt lat="53.209829" lon="-3.985161"><ele>575</ele><time>2022-10-20T14:37:47Z</time><name>PT3902</name></trkpt>
<trkpt lat="53.209823" lon="-3.985209"><ele>574</ele><time>2022-10-20T14:37:51Z</time><name>PT3903</name></trkpt>
<trkpt lat="53.209823" lon="-3.985244"><ele>572</ele><time>2022-10-20T14:37:54Z</time><name>PT3904</name></trkpt>
<trkpt lat="53.209818" lon="-3.985281"><ele>571</ele><time>2022-10-20T14:37:57Z</time><name>PT3905</name></trkpt>
<trkpt lat="53.209815" lon="-3.985319"><ele>570</ele><time>2022-10-20T14:38:00Z</time><name>PT3906</name></trkpt>
<trkpt lat="53.209812" lon="-3.985360"><ele>569</ele><time>2022-10-20T14:38:04Z</time><name>PT3907</name></trkpt>
<trkpt lat="53.209807" lon="-3.985399"><ele>568</ele><time>2022-10-20T14:38:07Z</time><name>PT3908</name></trkpt>
<trkpt lat="53.209798" lon="-3.985434"><ele>567</ele><time>2022-10-20T14:38:10Z</time><name>PT3909</name></trkpt>
<trkpt lat="53.209792" lon="-3.985482"><ele>565</ele><time>2022-10-20T14:38:14Z</time><name>PT3910</name></trkpt>
<trkpt lat="53.209791" lon="-3.985521"><ele>564</ele><time>2022-10-20T14:38:17Z</time><name>PT3911</name></trkpt>
<trkpt lat="53.209780" lon="-3.985563"><ele>563</ele><time>2022-10-20T14:38:21Z</time><name>PT3912</name></trkpt>
<trkpt lat="53.209773" lon="-3.985614"><ele>562</ele><time>2022-10-20T14:38:25Z</time><name>PT3913</name></trkpt>
<trkpt lat="53.209764" lon="-3.985647"><ele>561</ele><time>2022-10-20T14:38:28Z</time><name>PT3914</name></trkpt>
<trkpt lat="53.209767" lon="-3.985686"><ele>560</ele><time>2022-10-20T14:38:31Z</time><name>PT3915</name></trkpt>
<trkpt lat="53.209766" lon="-3.985732"><ele>559</ele><time>2022-10-20T14:38:34Z</time><name>PT3916</name></trkpt>
<trkpt lat="53.209768" lon="-3.985754"><ele>558</ele><time>2022-10-20T14:38:38Z</time><name>PT3917</name></trkpt>
<trkpt lat="53.209769" lon="-3.985751"><ele>559</ele><time>2022-10-20T14:38:41Z</time><name>PT3918</name></trkpt>
<trkpt lat="53.209772" lon="-3.985784"><ele>559</ele><time>2022-10-20T14:38:44Z</time><name>PT3919</name></trkpt>
<trkpt lat="53.209769" lon="-3.985833"><ele>558</ele><time>2022-10-20T14:38:48Z</time><name>PT3920</name></trkpt>
<trkpt lat="53.209771" lon="-3.985872"><ele>557</ele><time>2022-10-20T14:38:51Z</time><name>PT3921</name></trkpt>
<trkpt lat="53.209766" lon="-3.985919"><ele>555</ele><time>2022-10-20T14:38:55Z</time><name>PT3922</name></trkpt>
<trkpt lat="53.209764" lon="-3.985955"><ele>554</ele><time>2022-10-20T14:38:59Z</time><name>PT3923</name></trkpt>
<trkpt lat="53.209766" lon="-3.985993"><ele>553</ele><time>2022-10-20T14:39:03Z</time><name>PT3924</name></trkpt>
<trkpt lat="53.209759" lon="-3.986039"><ele>552</ele><time>2022-10-20T14:39:06Z</time><name>PT3925</name></trkpt>
<trkpt lat="53.209764" lon="-3.986084"><ele>551</ele><time>2022-10-20T14:39:09Z</time><name>PT3926</name></trkpt>
<trkpt lat="53.209773" lon="-3.986136"><ele>551</ele><time>2022-10-20T14:39:12Z</time><name>PT3927</name></trkpt>
<trkpt lat="53.209767" lon="-3.986197"><ele>550</ele><time>2022-10-20T14:39:16Z</time><name>PT3928</name></trkpt>
<trkpt lat="53.209759" lon="-3.986237"><ele>549</ele><time>2022-10-20T14:39:19Z</time><name>PT3929</name></trkpt>
<trkpt lat="53.209749" lon="-3.986288"><ele>548</ele><time>2022-10-20T14:39:23Z</time><name>PT3930</name></trkpt>
<trkpt lat="53.209748" lon="-3.986346"><ele>547</ele><time>2022-10-20T14:39:27Z</time><name>PT3931</name></trkpt>
<trkpt lat="53.209744" lon="-3.986378"><ele>546</ele><time>2022-10-20T14:39:30Z</time><name>PT3932</name></trkpt>
<trkpt lat="53.209735" lon="-3.986413"><ele>546</ele><time>2022-10-20T14:39:33Z</time><name>PT3933</name></trkpt>
<trkpt lat="53.209734" lon="-3.986473"><ele>545</ele><time>2022-10-20T14:39:37Z</time><name>PT3934</name></trkpt>
<trkpt lat="53.209733" lon="-3.986531"><ele>544</ele><time>2022-10-20T14:39:41Z</time><name>PT3935</name></trkpt>
<trkpt lat="53.209712" lon="-3.986570"><ele>543</ele><time>2022-10-20T14:39:45Z</time><name>PT3936</name></trkpt>
<trkpt lat="53.209696" lon="-3.986602"><ele>541</ele><time>2022-10-20T14:39:48Z</time><name>PT3937</name></trkpt>
<trkpt lat="53.209690" lon="-3.986642"><ele>540</ele><time>2022-10-20T14:39:52Z</time><name>PT3938</name></trkpt>
<trkpt lat="53.209688" lon="-3.986682"><ele>539</ele><time>2022-10-20T14:39:55Z</time><name>PT3939</name></trkpt>
<trkpt lat="53.209688" lon="-3.986734"><ele>538</ele><time>2022-10-20T14:39:59Z</time><name>PT3940</name></trkpt>
<trkpt lat="53.209689" lon="-3.986799"><ele>537</ele><time>2022-10-20T14:40:03Z</time><name>PT3941</name></trkpt>
<trkpt lat="53.209694" lon="-3.986857"><ele>537</ele><time>2022-10-20T14:40:07Z</time><name>PT3942</name></trkpt>
<trkpt lat="53.209694" lon="-3.986873"><ele>536</ele><time>2022-10-20T14:40:11Z</time><name>PT3943</name></trkpt>
<trkpt lat="53.209694" lon="-3.986870"><ele>537</ele><time>2022-10-20T14:40:14Z</time><name>PT3944</name></trkpt>
<trkpt lat="53.209695" lon="-3.986874"><ele>536</ele><time>2022-10-20T14:40:24Z</time><name>PT3945</name></trkpt>
<trkpt lat="53.209699" lon="-3.986875"><ele>537</ele><time>2022-10-20T14:41:25Z</time><name>PT3946</name></trkpt>
<trkpt lat="53.209698" lon="-3.986878"><ele>537</ele><time>2022-10-20T14:41:28Z</time><name>PT3947</name></trkpt>
<trkpt lat="53.209705" lon="-3.986871"><ele>537</ele><time>2022-10-20T14:41:46Z</time><name>PT3948</name></trkpt>
<trkpt lat="53.209705" lon="-3.986870"><ele>537</ele><time>2022-10-20T14:41:50Z</time><name>PT3949</name></trkpt>
<trkpt lat="53.209710" lon="-3.986875"><ele>537</ele><time>2022-10-20T14:42:25Z</time><name>PT3950</name></trkpt>
<trkpt lat="53.209707" lon="-3.986879"><ele>537</ele><time>2022-10-20T14:42:29Z</time><name>PT3951</name></trkpt>
<trkpt lat="53.209707" lon="-3.986874"><ele>538</ele><time>2022-10-20T14:42:39Z</time><name>PT3952</name></trkpt>
<trkpt lat="53.209709" lon="-3.986869"><ele>538</ele><time>2022-10-20T14:42:43Z</time><name>PT3953</name></trkpt>
<trkpt lat="53.209705" lon="-3.986872"><ele>537</ele><time>2022-10-20T14:42:47Z</time><name>PT3954</name></trkpt>
<trkpt lat="53.209714" lon="-3.986863"><ele>537</ele><time>2022-10-20T14:42:50Z</time><name>PT3955</name></trkpt>
<trkpt lat="53.209713" lon="-3.986893"><ele>536</ele><time>2022-10-20T14:42:58Z</time><name>PT3956</name></trkpt>
<trkpt lat="53.209716" lon="-3.986928"><ele>535</ele><time>2022-10-20T14:43:01Z</time><name>PT3957</name></trkpt>
<trkpt lat="53.209721" lon="-3.986975"><ele>534</ele><time>2022-10-20T14:43:05Z</time><name>PT3958</name></trkpt>
<trkpt lat="53.209720" lon="-3.986998"><ele>534</ele><time>2022-10-20T14:43:08Z</time><name>PT3959</name></trkpt>
<trkpt lat="53.209719" lon="-3.986994"><ele>534</ele><time>2022-10-20T14:43:11Z</time><name>PT3960</name></trkpt>
<trkpt lat="53.209716" lon="-3.987051"><ele>532</ele><time>2022-10-20T14:43:19Z</time><name>PT3961</name></trkpt>
<trkpt lat="53.209716" lon="-3.987107"><ele>531</ele><time>2022-10-20T14:43:23Z</time><name>PT3962</name></trkpt>
<trkpt lat="53.209711" lon="-3.987153"><ele>530</ele><time>2022-10-20T14:43:26Z</time><name>PT3963</name></trkpt>
<trkpt lat="53.209704" lon="-3.987207"><ele>528</ele><time>2022-10-20T14:43:30Z</time><name>PT3964</name></trkpt>
<trkpt lat="53.209695" lon="-3.987252"><ele>527</ele><time>2022-10-20T14:43:33Z</time><name>PT3965</name></trkpt>
<trkpt lat="53.209691" lon="-3.987293"><ele>526</ele><time>2022-10-20T14:43:36Z</time><name>PT3966</name></trkpt>
<trkpt lat="53.209689" lon="-3.987351"><ele>525</ele><time>2022-10-20T14:43:40Z</time><name>PT3967</name></trkpt>
<trkpt lat="53.209693" lon="-3.987384"><ele>524</ele><time>2022-10-20T14:43:44Z</time><name>PT3968</name></trkpt>
<trkpt lat="53.209698" lon="-3.987392"><ele>524</ele><time>2022-10-20T14:43:48Z</time><name>PT3969</name></trkpt>
<trkpt lat="53.209701" lon="-3.987431"><ele>523</ele><time>2022-10-20T14:43:51Z</time><name>PT3970</name></trkpt>
<trkpt lat="53.209704" lon="-3.987470"><ele>522</ele><time>2022-10-20T14:43:54Z</time><name>PT3971</name></trkpt>
<trkpt lat="53.209703" lon="-3.987509"><ele>521</ele><time>2022-10-20T14:43:57Z</time><name>PT3972</name></trkpt>
<trkpt lat="53.209711" lon="-3.987566"><ele>520</ele><time>2022-10-20T14:44:01Z</time><name>PT3973</name></trkpt>
<trkpt lat="53.209714" lon="-3.987604"><ele>519</ele><time>2022-10-20T14:44:04Z</time><name>PT3974</name></trkpt>
<trkpt lat="53.209711" lon="-3.987650"><ele>519</ele><time>2022-10-20T14:44:08Z</time><name>PT3975</name></trkpt>
<trkpt lat="53.209713" lon="-3.987654"><ele>519</ele><time>2022-10-20T14:44:12Z</time><name>PT3976</name></trkpt>
<trkpt lat="53.209717" lon="-3.987678"><ele>519</ele><time>2022-10-20T14:44:19Z</time><name>PT3977</name></trkpt>
<trkpt lat="53.209721" lon="-3.987705"><ele>518</ele><time>2022-10-20T14:44:22Z</time><name>PT3978</name></trkpt>
<trkpt lat="53.209726" lon="-3.987716"><ele>518</ele><time>2022-10-20T14:44:25Z</time><name>PT3979</name></trkpt>
<trkpt lat="53.209729" lon="-3.987762"><ele>516</ele><time>2022-10-20T14:44:29Z</time><name>PT3980</name></trkpt>
<trkpt lat="53.209725" lon="-3.987819"><ele>515</ele><time>2022-10-20T14:44:33Z</time><name>PT3981</name></trkpt>
<trkpt lat="53.209726" lon="-3.987857"><ele>514</ele><time>2022-10-20T14:44:36Z</time><name>PT3982</name></trkpt>
<trkpt lat="53.209723" lon="-3.987896"><ele>513</ele><time>2022-10-20T14:44:39Z</time><name>PT3983</name></trkpt>
<trkpt lat="53.209730" lon="-3.987942"><ele>512</ele><time>2022-10-20T14:44:43Z</time><name>PT3984</name></trkpt>
<trkpt lat="53.209759" lon="-3.987963"><ele>511</ele><time>2022-10-20T14:44:46Z</time><name>PT3985</name></trkpt>
<trkpt lat="53.209774" lon="-3.988010"><ele>511</ele><time>2022-10-20T14:44:50Z</time><name>PT3986</name></trkpt>
<trkpt lat="53.209770" lon="-3.988071"><ele>510</ele><time>2022-10-20T14:44:54Z</time><name>PT3987</name></trkpt>
<trkpt lat="53.209763" lon="-3.988112"><ele>509</ele><time>2022-10-20T14:44:57Z</time><name>PT3988</name></trkpt>
<trkpt lat="53.209755" lon="-3.988170"><ele>508</ele><time>2022-10-20T14:45:01Z</time><name>PT3989</name></trkpt>
<trkpt lat="53.209751" lon="-3.988212"><ele>508</ele><time>2022-10-20T14:45:04Z</time><name>PT3990</name></trkpt>
<trkpt lat="53.209753" lon="-3.988262"><ele>506</ele><time>2022-10-20T14:45:08Z</time><name>PT3991</name></trkpt>
<trkpt lat="53.209743" lon="-3.988267"><ele>505</ele><time>2022-10-20T14:45:12Z</time><name>PT3992</name></trkpt>
<trkpt lat="53.209746" lon="-3.988258"><ele>505</ele><time>2022-10-20T14:45:16Z</time><name>PT3993</name></trkpt>
<trkpt lat="53.209742" lon="-3.988292"><ele>504</ele><time>2022-10-20T14:45:23Z</time><name>PT3994</name></trkpt>
<trkpt lat="53.209739" lon="-3.988332"><ele>503</ele><time>2022-10-20T14:45:26Z</time><name>PT3995</name></trkpt>
<trkpt lat="53.209741" lon="-3.988377"><ele>502</ele><time>2022-10-20T14:45:29Z</time><name>PT3996</name></trkpt>
<trkpt lat="53.209731" lon="-3.988422"><ele>501</ele><time>2022-10-20T14:45:32Z</time><name>PT3997</name></trkpt>
<trkpt lat="53.209729" lon="-3.988435"><ele>499</ele><time>2022-10-20T14:45:36Z</time><name>PT3998</name></trkpt>
<trkpt lat="53.209728" lon="-3.988431"><ele>499</ele><time>2022-10-20T14:45:39Z</time><name>PT3999</name></trkpt>
<trkpt lat="53.209728" lon="-3.988428"><ele>499</ele><time>2022-10-20T14:45:42Z</time><name>PT4000</name></trkpt>
<trkpt lat="53.209728" lon="-3.988484"><ele>498</ele><time>2022-10-20T14:45:46Z</time><name>PT4001</name></trkpt>
<trkpt lat="53.209729" lon="-3.988547"><ele>496</ele><time>2022-10-20T14:45:50Z</time><name>PT4002</name></trkpt>
<trkpt lat="53.209724" lon="-3.988601"><ele>495</ele><time>2022-10-20T14:45:54Z</time><name>PT4003</name></trkpt>
<trkpt lat="53.209712" lon="-3.988657"><ele>494</ele><time>2022-10-20T14:45:58Z</time><name>PT4004</name></trkpt>
<trkpt lat="53.209705" lon="-3.988698"><ele>493</ele><time>2022-10-20T14:46:01Z</time><name>PT4005</name></trkpt>
<trkpt lat="53.209689" lon="-3.988752"><ele>492</ele><time>2022-10-20T14:46:05Z</time><name>PT4006</name></trkpt>
<trkpt lat="53.209675" lon="-3.988794"><ele>492</ele><time>2022-10-20T14:46:08Z</time><name>PT4007</name></trkpt>
<trkpt lat="53.209661" lon="-3.988837"><ele>491</ele><time>2022-10-20T14:46:12Z</time><name>PT4008</name></trkpt>
<trkpt lat="53.209672" lon="-3.988856"><ele>490</ele><time>2022-10-20T14:46:15Z</time><name>PT4009</name></trkpt>
<trkpt lat="53.209696" lon="-3.988892"><ele>489</ele><time>2022-10-20T14:46:19Z</time><name>PT4010</name></trkpt>
<trkpt lat="53.209718" lon="-3.988934"><ele>488</ele><time>2022-10-20T14:46:23Z</time><name>PT4011</name></trkpt>
<trkpt lat="53.209740" lon="-3.988984"><ele>488</ele><time>2022-10-20T14:46:27Z</time><name>PT4012</name></trkpt>
<trkpt lat="53.209767" lon="-3.989019"><ele>488</ele><time>2022-10-20T14:46:30Z</time><name>PT4013</name></trkpt>
<trkpt lat="53.209788" lon="-3.989047"><ele>488</ele><time>2022-10-20T14:46:33Z</time><name>PT4014</name></trkpt>
<trkpt lat="53.209815" lon="-3.989086"><ele>487</ele><time>2022-10-20T14:46:37Z</time><name>PT4015</name></trkpt>
<trkpt lat="53.209831" lon="-3.989108"><ele>486</ele><time>2022-10-20T14:46:40Z</time><name>PT4016</name></trkpt>
<trkpt lat="53.209854" lon="-3.989136"><ele>485</ele><time>2022-10-20T14:46:44Z</time><name>PT4017</name></trkpt>
<trkpt lat="53.209866" lon="-3.989158"><ele>484</ele><time>2022-10-20T14:46:47Z</time><name>PT4018</name></trkpt>
<trkpt lat="53.209892" lon="-3.989185"><ele>484</ele><time>2022-10-20T14:46:50Z</time><name>PT4019</name></trkpt>
<trkpt lat="53.209906" lon="-3.989215"><ele>484</ele><time>2022-10-20T14:46:53Z</time><name>PT4020</name></trkpt>
<trkpt lat="53.209917" lon="-3.989257"><ele>483</ele><time>2022-10-20T14:46:57Z</time><name>PT4021</name></trkpt>
<trkpt lat="53.209924" lon="-3.989284"><ele>482</ele><time>2022-10-20T14:47:00Z</time><name>PT4022</name></trkpt>
<trkpt lat="53.209941" lon="-3.989303"><ele>481</ele><time>2022-10-20T14:47:03Z</time><name>PT4023</name></trkpt>
<trkpt lat="53.209966" lon="-3.989342"><ele>481</ele><time>2022-10-20T14:47:07Z</time><name>PT4024</name></trkpt>
<trkpt lat="53.209976" lon="-3.989364"><ele>480</ele><time>2022-10-20T14:47:10Z</time><name>PT4025</name></trkpt>
<trkpt lat="53.209997" lon="-3.989381"><ele>479</ele><time>2022-10-20T14:47:13Z</time><name>PT4026</name></trkpt>
<trkpt lat="53.210021" lon="-3.989409"><ele>478</ele><time>2022-10-20T14:47:17Z</time><name>PT4027</name></trkpt>
<trkpt lat="53.210047" lon="-3.989441"><ele>477</ele><time>2022-10-20T14:47:20Z</time><name>PT4028</name></trkpt>
<trkpt lat="53.210059" lon="-3.989468"><ele>477</ele><time>2022-10-20T14:47:23Z</time><name>PT4029</name></trkpt>
<trkpt lat="53.210070" lon="-3.989512"><ele>476</ele><time>2022-10-20T14:47:27Z</time><name>PT4030</name></trkpt>
<trkpt lat="53.210078" lon="-3.989571"><ele>476</ele><time>2022-10-20T14:47:31Z</time><name>PT4031</name></trkpt>
<trkpt lat="53.210078" lon="-3.989621"><ele>476</ele><time>2022-10-20T14:47:35Z</time><name>PT4032</name></trkpt>
<trkpt lat="53.210073" lon="-3.989652"><ele>476</ele><time>2022-10-20T14:47:38Z</time><name>PT4033</name></trkpt>
<trkpt lat="53.210075" lon="-3.989683"><ele>475</ele><time>2022-10-20T14:47:41Z</time><name>PT4034</name></trkpt>
<trkpt lat="53.210082" lon="-3.989712"><ele>474</ele><time>2022-10-20T14:47:44Z</time><name>PT4035</name></trkpt>
<trkpt lat="53.210085" lon="-3.989758"><ele>473</ele><time>2022-10-20T14:47:48Z</time><name>PT4036</name></trkpt>
<trkpt lat="53.210091" lon="-3.989799"><ele>473</ele><time>2022-10-20T14:47:52Z</time><name>PT4037</name></trkpt>
<trkpt lat="53.210107" lon="-3.989816"><ele>472</ele><time>2022-10-20T14:47:55Z</time><name>PT4038</name></trkpt>
<trkpt lat="53.210123" lon="-3.989846"><ele>471</ele><time>2022-10-20T14:47:58Z</time><name>PT4039</name></trkpt>
<trkpt lat="53.210125" lon="-3.989907"><ele>471</ele><time>2022-10-20T14:48:02Z</time><name>PT4040</name></trkpt>
<trkpt lat="53.210132" lon="-3.989944"><ele>470</ele><time>2022-10-20T14:48:05Z</time><name>PT4041</name></trkpt>
<trkpt lat="53.210137" lon="-3.989980"><ele>469</ele><time>2022-10-20T14:48:08Z</time><name>PT4042</name></trkpt>
<trkpt lat="53.210145" lon="-3.990016"><ele>468</ele><time>2022-10-20T14:48:11Z</time><name>PT4043</name></trkpt>
<trkpt lat="53.210146" lon="-3.990054"><ele>467</ele><time>2022-10-20T14:48:14Z</time><name>PT4044</name></trkpt>
<trkpt lat="53.210153" lon="-3.990092"><ele>466</ele><time>2022-10-20T14:48:18Z</time><name>PT4045</name></trkpt>
<trkpt lat="53.210153" lon="-3.990123"><ele>465</ele><time>2022-10-20T14:48:21Z</time><name>PT4046</name></trkpt>
<trkpt lat="53.210154" lon="-3.990156"><ele>465</ele><time>2022-10-20T14:48:24Z</time><name>PT4047</name></trkpt>
<trkpt lat="53.210154" lon="-3.990187"><ele>464</ele><time>2022-10-20T14:48:27Z</time><name>PT4048</name></trkpt>
<trkpt lat="53.210160" lon="-3.990230"><ele>463</ele><time>2022-10-20T14:48:31Z</time><name>PT4049</name></trkpt>
<trkpt lat="53.210168" lon="-3.990277"><ele>462</ele><time>2022-10-20T14:48:35Z</time><name>PT4050</name></trkpt>
<trkpt lat="53.210179" lon="-3.990328"><ele>461</ele><time>2022-10-20T14:48:39Z</time><name>PT4051</name></trkpt>
<trkpt lat="53.210190" lon="-3.990374"><ele>461</ele><time>2022-10-20T14:48:43Z</time><name>PT4052</name></trkpt>
<trkpt lat="53.210195" lon="-3.990407"><ele>460</ele><time>2022-10-20T14:48:46Z</time><name>PT4053</name></trkpt>
<trkpt lat="53.210204" lon="-3.990437"><ele>459</ele><time>2022-10-20T14:48:49Z</time><name>PT4054</name></trkpt>
<trkpt lat="53.210219" lon="-3.990476"><ele>458</ele><time>2022-10-20T14:48:53Z</time><name>PT4055</name></trkpt>
<trkpt lat="53.210230" lon="-3.990511"><ele>457</ele><time>2022-10-20T14:48:57Z</time><name>PT4056</name></trkpt>
<trkpt lat="53.210237" lon="-3.990533"><ele>456</ele><time>2022-10-20T14:49:00Z</time><name>PT4057</name></trkpt>
<trkpt lat="53.210246" lon="-3.990559"><ele>456</ele><time>2022-10-20T14:49:03Z</time><name>PT4058</name></trkpt>
<trkpt lat="53.210255" lon="-3.990600"><ele>455</ele><time>2022-10-20T14:49:07Z</time><name>PT4059</name></trkpt>
<trkpt lat="53.210263" lon="-3.990626"><ele>454</ele><time>2022-10-20T14:49:10Z</time><name>PT4060</name></trkpt>
<trkpt lat="53.210268" lon="-3.990650"><ele>454</ele><time>2022-10-20T14:49:13Z</time><name>PT4061</name></trkpt>
<trkpt lat="53.210270" lon="-3.990688"><ele>453</ele><time>2022-10-20T14:49:17Z</time><name>PT4062</name></trkpt>
<trkpt lat="53.210272" lon="-3.990718"><ele>451</ele><time>2022-10-20T14:49:21Z</time><name>PT4063</name></trkpt>
<trkpt lat="53.210276" lon="-3.990753"><ele>452</ele><time>2022-10-20T14:49:24Z</time><name>PT4064</name></trkpt>
<trkpt lat="53.210272" lon="-3.990788"><ele>451</ele><time>2022-10-20T14:49:28Z</time><name>PT4065</name></trkpt>
<trkpt lat="53.210270" lon="-3.990810"><ele>450</ele><time>2022-10-20T14:49:31Z</time><name>PT4066</name></trkpt>
<trkpt lat="53.210269" lon="-3.990816"><ele>450</ele><time>2022-10-20T14:49:35Z</time><name>PT4067</name></trkpt>
<trkpt lat="53.210268" lon="-3.990855"><ele>449</ele><time>2022-10-20T14:49:42Z</time><name>PT4068</name></trkpt>
<trkpt lat="53.210257" lon="-3.990898"><ele>447</ele><time>2022-10-20T14:49:46Z</time><name>PT4069</name></trkpt>
<trkpt lat="53.210263" lon="-3.990939"><ele>446</ele><time>2022-10-20T14:49:50Z</time><name>PT4070</name></trkpt>
<trkpt lat="53.210270" lon="-3.990986"><ele>445</ele><time>2022-10-20T14:49:54Z</time><name>PT4071</name></trkpt>
<trkpt lat="53.210264" lon="-3.991021"><ele>444</ele><time>2022-10-20T14:49:58Z</time><name>PT4072</name></trkpt>
<trkpt lat="53.210262" lon="-3.991055"><ele>444</ele><time>2022-10-20T14:50:01Z</time><name>PT4073</name></trkpt>
<trkpt lat="53.210265" lon="-3.991102"><ele>443</ele><time>2022-10-20T14:50:05Z</time><name>PT4074</name></trkpt>
<trkpt lat="53.210263" lon="-3.991128"><ele>442</ele><time>2022-10-20T14:50:09Z</time><name>PT4075</name></trkpt>
<trkpt lat="53.210255" lon="-3.991167"><ele>440</ele><time>2022-10-20T14:50:13Z</time><name>PT4076</name></trkpt>
<trkpt lat="53.210251" lon="-3.991197"><ele>439</ele><time>2022-10-20T14:50:16Z</time><name>PT4077</name></trkpt>
<trkpt lat="53.210251" lon="-3.991214"><ele>439</ele><time>2022-10-20T14:50:19Z</time><name>PT4078</name></trkpt>
<trkpt lat="53.210236" lon="-3.991238"><ele>438</ele><time>2022-10-20T14:50:23Z</time><name>PT4079</name></trkpt>
<trkpt lat="53.210215" lon="-3.991269"><ele>437</ele><time>2022-10-20T14:50:27Z</time><name>PT4080</name></trkpt>
<trkpt lat="53.210188" lon="-3.991288"><ele>437</ele><time>2022-10-20T14:50:31Z</time><name>PT4081</name></trkpt>
<trkpt lat="53.210177" lon="-3.991308"><ele>436</ele><time>2022-10-20T14:50:35Z</time><name>PT4082</name></trkpt>
<trkpt lat="53.210168" lon="-3.991329"><ele>436</ele><time>2022-10-20T14:50:38Z</time><name>PT4083</name></trkpt>
<trkpt lat="53.210149" lon="-3.991356"><ele>434</ele><time>2022-10-20T14:50:42Z</time><name>PT4084</name></trkpt>
<trkpt lat="53.210128" lon="-3.991367"><ele>433</ele><time>2022-10-20T14:50:45Z</time><name>PT4085</name></trkpt>
<trkpt lat="53.210103" lon="-3.991396"><ele>433</ele><time>2022-10-20T14:50:49Z</time><name>PT4086</name></trkpt>
<trkpt lat="53.210085" lon="-3.991421"><ele>432</ele><time>2022-10-20T14:50:52Z</time><name>PT4087</name></trkpt>
<trkpt lat="53.210065" lon="-3.991461"><ele>431</ele><time>2022-10-20T14:50:56Z</time><name>PT4088</name></trkpt>
<trkpt lat="53.210039" lon="-3.991479"><ele>430</ele><time>2022-10-20T14:50:59Z</time><name>PT4089</name></trkpt>
<trkpt lat="53.210034" lon="-3.991480"><ele>427</ele><time>2022-10-20T14:51:03Z</time><name>PT4090</name></trkpt>
<trkpt lat="53.210002" lon="-3.991543"><ele>427</ele><time>2022-10-20T14:51:07Z</time><name>PT4091</name></trkpt>
<trkpt lat="53.209983" lon="-3.991582"><ele>426</ele><time>2022-10-20T14:51:11Z</time><name>PT4092</name></trkpt>
<trkpt lat="53.209963" lon="-3.991623"><ele>425</ele><time>2022-10-20T14:51:14Z</time><name>PT4093</name></trkpt>
<trkpt lat="53.209935" lon="-3.991652"><ele>423</ele><time>2022-10-20T14:51:18Z</time><name>PT4094</name></trkpt>
<trkpt lat="53.209899" lon="-3.991672"><ele>422</ele><time>2022-10-20T14:51:22Z</time><name>PT4095</name></trkpt>
<trkpt lat="53.209879" lon="-3.991693"><ele>421</ele><time>2022-10-20T14:51:25Z</time><name>PT4096</name></trkpt>
<trkpt lat="53.209860" lon="-3.991710"><ele>420</ele><time>2022-10-20T14:51:28Z</time><name>PT4097</name></trkpt>
<trkpt lat="53.209838" lon="-3.991727"><ele>419</ele><time>2022-10-20T14:51:32Z</time><name>PT4098</name></trkpt>
<trkpt lat="53.209818" lon="-3.991751"><ele>417</ele><time>2022-10-20T14:51:35Z</time><name>PT4099</name></trkpt>
<trkpt lat="53.209793" lon="-3.991779"><ele>416</ele><time>2022-10-20T14:51:39Z</time><name>PT4100</name></trkpt>
<trkpt lat="53.209774" lon="-3.991813"><ele>414</ele><time>2022-10-20T14:51:43Z</time><name>PT4101</name></trkpt>
<trkpt lat="53.209753" lon="-3.991832"><ele>413</ele><time>2022-10-20T14:51:47Z</time><name>PT4102</name></trkpt>
<trkpt lat="53.209736" lon="-3.991857"><ele>412</ele><time>2022-10-20T14:51:51Z</time><name>PT4103</name></trkpt>
<trkpt lat="53.209717" lon="-3.991892"><ele>410</ele><time>2022-10-20T14:51:54Z</time><name>PT4104</name></trkpt>
<trkpt lat="53.209685" lon="-3.991947"><ele>410</ele><time>2022-10-20T14:51:58Z</time><name>PT4105</name></trkpt>
<trkpt lat="53.209665" lon="-3.991980"><ele>409</ele><time>2022-10-20T14:52:01Z</time><name>PT4106</name></trkpt>
<trkpt lat="53.209637" lon="-3.992012"><ele>410</ele><time>2022-10-20T14:52:05Z</time><name>PT4107</name></trkpt>
<trkpt lat="53.209612" lon="-3.992054"><ele>408</ele><time>2022-10-20T14:52:09Z</time><name>PT4108</name></trkpt>
<trkpt lat="53.209583" lon="-3.992072"><ele>407</ele><time>2022-10-20T14:52:12Z</time><name>PT4109</name></trkpt>
<trkpt lat="53.209559" lon="-3.992098"><ele>407</ele><time>2022-10-20T14:52:15Z</time><name>PT4110</name></trkpt>
<trkpt lat="53.209536" lon="-3.992129"><ele>406</ele><time>2022-10-20T14:52:19Z</time><name>PT4111</name></trkpt>
<trkpt lat="53.209511" lon="-3.992175"><ele>406</ele><time>2022-10-20T14:52:23Z</time><name>PT4112</name></trkpt>
<trkpt lat="53.209493" lon="-3.992201"><ele>405</ele><time>2022-10-20T14:52:26Z</time><name>PT4113</name></trkpt>
<trkpt lat="53.209473" lon="-3.992221"><ele>404</ele><time>2022-10-20T14:52:30Z</time><name>PT4114</name></trkpt>
<trkpt lat="53.209455" lon="-3.992228"><ele>403</ele><time>2022-10-20T14:52:33Z</time><name>PT4115</name></trkpt>
<trkpt lat="53.209429" lon="-3.992272"><ele>402</ele><time>2022-10-20T14:52:37Z</time><name>PT4116</name></trkpt>
<trkpt lat="53.209419" lon="-3.992286"><ele>402</ele><time>2022-10-20T14:52:40Z</time><name>PT4117</name></trkpt>
<trkpt lat="53.209394" lon="-3.992312"><ele>400</ele><time>2022-10-20T14:52:44Z</time><name>PT4118</name></trkpt>
<trkpt lat="53.209370" lon="-3.992342"><ele>400</ele><time>2022-10-20T14:52:47Z</time><name>PT4119</name></trkpt>
<trkpt lat="53.209359" lon="-3.992362"><ele>398</ele><time>2022-10-20T14:52:51Z</time><name>PT4120</name></trkpt>
<trkpt lat="53.209341" lon="-3.992389"><ele>397</ele><time>2022-10-20T14:52:55Z</time><name>PT4121</name></trkpt>
<trkpt lat="53.209323" lon="-3.992424"><ele>396</ele><time>2022-10-20T14:52:59Z</time><name>PT4122</name></trkpt>
<trkpt lat="53.209304" lon="-3.992452"><ele>395</ele><time>2022-10-20T14:53:03Z</time><name>PT4123</name></trkpt>
<trkpt lat="53.209281" lon="-3.992487"><ele>395</ele><time>2022-10-20T14:53:06Z</time><name>PT4124</name></trkpt>
<trkpt lat="53.209272" lon="-3.992508"><ele>394</ele><time>2022-10-20T14:53:09Z</time><name>PT4125</name></trkpt>
<trkpt lat="53.209248" lon="-3.992525"><ele>394</ele><time>2022-10-20T14:53:12Z</time><name>PT4126</name></trkpt>
<trkpt lat="53.209237" lon="-3.992544"><ele>394</ele><time>2022-10-20T14:53:16Z</time><name>PT4127</name></trkpt>
<trkpt lat="53.209220" lon="-3.992565"><ele>392</ele><time>2022-10-20T14:53:19Z</time><name>PT4128</name></trkpt>
<trkpt lat="53.209209" lon="-3.992590"><ele>391</ele><time>2022-10-20T14:53:23Z</time><name>PT4129</name></trkpt>
<trkpt lat="53.209208" lon="-3.992595"><ele>391</ele><time>2022-10-20T14:53:26Z</time><name>PT4130</name></trkpt>
<trkpt lat="53.209198" lon="-3.992624"><ele>390</ele><time>2022-10-20T14:53:33Z</time><name>PT4131</name></trkpt>
<trkpt lat="53.209186" lon="-3.992653"><ele>390</ele><time>2022-10-20T14:53:37Z</time><name>PT4132</name></trkpt>
<trkpt lat="53.209186" lon="-3.992659"><ele>390</ele><time>2022-10-20T14:53:41Z</time><name>PT4133</name></trkpt>
<trkpt lat="53.209181" lon="-3.992663"><ele>390</ele><time>2022-10-20T14:53:48Z</time><name>PT4134</name></trkpt>
<trkpt lat="53.209163" lon="-3.992672"><ele>389</ele><time>2022-10-20T14:53:51Z</time><name>PT4135</name></trkpt>
<trkpt lat="53.209161" lon="-3.992695"><ele>387</ele><time>2022-10-20T14:53:54Z</time><name>PT4136</name></trkpt>
<trkpt lat="53.209149" lon="-3.992751"><ele>385</ele><time>2022-10-20T14:53:58Z</time><name>PT4137</name></trkpt>
<trkpt lat="53.209157" lon="-3.992790"><ele>385</ele><time>2022-10-20T14:54:02Z</time><name>PT4138</name></trkpt>
<trkpt lat="53.209149" lon="-3.992826"><ele>385</ele><time>2022-10-20T14:54:06Z</time><name>PT4139</name></trkpt>
<trkpt lat="53.209148" lon="-3.992864"><ele>383</ele><time>2022-10-20T14:54:10Z</time><name>PT4140</name></trkpt>
<trkpt lat="53.209147" lon="-3.992879"><ele>382</ele><time>2022-10-20T14:54:13Z</time><name>PT4141</name></trkpt>
<trkpt lat="53.209142" lon="-3.992920"><ele>381</ele><time>2022-10-20T14:54:16Z</time><name>PT4142</name></trkpt>
<trkpt lat="53.209142" lon="-3.992945"><ele>380</ele><time>2022-10-20T14:54:20Z</time><name>PT4143</name></trkpt>
<trkpt lat="53.209134" lon="-3.992979"><ele>379</ele><time>2022-10-20T14:54:24Z</time><name>PT4144</name></trkpt>
<trkpt lat="53.209139" lon="-3.993031"><ele>377</ele><time>2022-10-20T14:54:28Z</time><name>PT4145</name></trkpt>
<trkpt lat="53.209147" lon="-3.993054"><ele>377</ele><time>2022-10-20T14:54:31Z</time><name>PT4146</name></trkpt>
<trkpt lat="53.209156" lon="-3.993074"><ele>375</ele><time>2022-10-20T14:54:34Z</time><name>PT4147</name></trkpt>
<trkpt lat="53.209142" lon="-3.993124"><ele>374</ele><time>2022-10-20T14:54:38Z</time><name>PT4148</name></trkpt>
<trkpt lat="53.209141" lon="-3.993133"><ele>373</ele><time>2022-10-20T14:54:41Z</time><name>PT4149</name></trkpt>
<trkpt lat="53.209135" lon="-3.993179"><ele>372</ele><time>2022-10-20T14:54:44Z</time><name>PT4150</name></trkpt>
<trkpt lat="53.209127" lon="-3.993206"><ele>371</ele><time>2022-10-20T14:54:48Z</time><name>PT4151</name></trkpt>
<trkpt lat="53.209114" lon="-3.993245"><ele>370</ele><time>2022-10-20T14:54:51Z</time><name>PT4152</name></trkpt>
<trkpt lat="53.209101" lon="-3.993269"><ele>369</ele><time>2022-10-20T14:54:55Z</time><name>PT4153</name></trkpt>
<trkpt lat="53.209115" lon="-3.993297"><ele>370</ele><time>2022-10-20T14:54:58Z</time><name>PT4154</name></trkpt>
<trkpt lat="53.209110" lon="-3.993316"><ele>369</ele><time>2022-10-20T14:55:02Z</time><name>PT4155</name></trkpt>
<trkpt lat="53.209096" lon="-3.993355"><ele>368</ele><time>2022-10-20T14:55:06Z</time><name>PT4156</name></trkpt>
<trkpt lat="53.209077" lon="-3.993383"><ele>367</ele><time>2022-10-20T14:55:09Z</time><name>PT4157</name></trkpt>
<trkpt lat="53.209071" lon="-3.993415"><ele>366</ele><time>2022-10-20T14:55:13Z</time><name>PT4158</name></trkpt>
<trkpt lat="53.209071" lon="-3.993445"><ele>364</ele><time>2022-10-20T14:55:17Z</time><name>PT4159</name></trkpt>
<trkpt lat="53.209064" lon="-3.993478"><ele>363</ele><time>2022-10-20T14:55:21Z</time><name>PT4160</name></trkpt>
<trkpt lat="53.209059" lon="-3.993497"><ele>362</ele><time>2022-10-20T14:55:24Z</time><name>PT4161</name></trkpt>
<trkpt lat="53.209051" lon="-3.993540"><ele>360</ele><time>2022-10-20T14:55:27Z</time><name>PT4162</name></trkpt>
<trkpt lat="53.209053" lon="-3.993565"><ele>359</ele><time>2022-10-20T14:55:31Z</time><name>PT4163</name></trkpt>
<trkpt lat="53.209032" lon="-3.993580"><ele>358</ele><time>2022-10-20T14:55:35Z</time><name>PT4164</name></trkpt>
<trkpt lat="53.209039" lon="-3.993594"><ele>358</ele><time>2022-10-20T14:55:39Z</time><name>PT4165</name></trkpt>
<trkpt lat="53.209042" lon="-3.993583"><ele>357</ele><time>2022-10-20T14:55:43Z</time><name>PT4166</name></trkpt>
<trkpt lat="53.209038" lon="-3.993582"><ele>357</ele><time>2022-10-20T14:55:47Z</time><name>PT4167</name></trkpt>
<trkpt lat="53.209038" lon="-3.993583"><ele>359</ele><time>2022-10-20T14:56:03Z</time><name>PT4168</name></trkpt>
<trkpt lat="53.209036" lon="-3.993582"><ele>359</ele><time>2022-10-20T14:56:23Z</time><name>PT4169</name></trkpt>
<trkpt lat="53.209037" lon="-3.993587"><ele>357</ele><time>2022-10-20T14:56:44Z</time><name>PT4170</name></trkpt>
<trkpt lat="53.209027" lon="-3.993576"><ele>357</ele><time>2022-10-20T14:56:48Z</time><name>PT4171</name></trkpt>
<trkpt lat="53.209032" lon="-3.993575"><ele>356</ele><time>2022-10-20T14:56:58Z</time><name>PT4172</name></trkpt>
<trkpt lat="53.209019" lon="-3.993567"><ele>354</ele><time>2022-10-20T14:57:01Z</time><name>PT4173</name></trkpt>
<trkpt lat="53.209023" lon="-3.993548"><ele>355</ele><time>2022-10-20T14:59:51Z</time><name>PT4174</name></trkpt>
<trkpt lat="53.209035" lon="-3.993560"><ele>356</ele><time>2022-10-20T14:59:54Z</time><name>PT4175</name></trkpt>
<trkpt lat="53.209042" lon="-3.993552"><ele>356</ele><time>2022-10-20T15:00:08Z</time><name>PT4176</name></trkpt>
<trkpt lat="53.209050" lon="-3.993542"><ele>357</ele><time>2022-10-20T15:00:11Z</time><name>PT4177</name></trkpt>
<trkpt lat="53.209043" lon="-3.993552"><ele>357</ele><time>2022-10-20T15:00:14Z</time><name>PT4178</name></trkpt>
<trkpt lat="53.209048" lon="-3.993551"><ele>357</ele><time>2022-10-20T15:00:18Z</time><name>PT4179</name></trkpt>
<trkpt lat="53.209044" lon="-3.993553"><ele>357</ele><time>2022-10-20T15:00:21Z</time><name>PT4180</name></trkpt>
<trkpt lat="53.209044" lon="-3.993552"><ele>357</ele><time>2022-10-20T15:00:24Z</time><name>PT4181</name></trkpt>
<trkpt lat="53.209044" lon="-3.993555"><ele>357</ele><time>2022-10-20T15:00:28Z</time><name>PT4182</name></trkpt>
<trkpt lat="53.209045" lon="-3.993551"><ele>358</ele><time>2022-10-20T15:00:38Z</time><name>PT4183</name></trkpt>
<trkpt lat="53.209052" lon="-3.993539"><ele>358</ele><time>2022-10-20T15:00:42Z</time><name>PT4184</name></trkpt>
<trkpt lat="53.209054" lon="-3.993539"><ele>358</ele><time>2022-10-20T15:00:46Z</time><name>PT4185</name></trkpt>
<trkpt lat="53.209056" lon="-3.993542"><ele>358</ele><time>2022-10-20T15:00:50Z</time><name>PT4186</name></trkpt>
<trkpt lat="53.209055" lon="-3.993536"><ele>358</ele><time>2022-10-20T15:01:17Z</time><name>PT4187</name></trkpt>
<trkpt lat="53.209051" lon="-3.993526"><ele>355</ele><time>2022-10-20T15:02:45Z</time><name>PT4188</name></trkpt>
<trkpt lat="53.209047" lon="-3.993524"><ele>354</ele><time>2022-10-20T15:02:49Z</time><name>PT4189</name></trkpt>
<trkpt lat="53.209039" lon="-3.993528"><ele>355</ele><time>2022-10-20T15:03:55Z</time><name>PT4190</name></trkpt>
<trkpt lat="53.209036" lon="-3.993528"><ele>356</ele><time>2022-10-20T15:07:35Z</time><name>PT4191</name></trkpt>
<trkpt lat="53.209049" lon="-3.993536"><ele>357</ele><time>2022-10-20T15:07:38Z</time><name>PT4192</name></trkpt>
<trkpt lat="53.209052" lon="-3.993538"><ele>357</ele><time>2022-10-20T15:07:41Z</time><name>PT4193</name></trkpt>
<trkpt lat="53.209069" lon="-3.993557"><ele>357</ele><time>2022-10-20T15:07:55Z</time><name>PT4194</name></trkpt>
<trkpt lat="53.209086" lon="-3.993575"><ele>357</ele><time>2022-10-20T15:07:59Z</time><name>PT4195</name></trkpt>
<trkpt lat="53.209088" lon="-3.993579"><ele>357</ele><time>2022-10-20T15:08:02Z</time><name>PT4196</name></trkpt>
<trkpt lat="53.209114" lon="-3.993597"><ele>357</ele><time>2022-10-20T15:08:08Z</time><name>PT4197</name></trkpt>
<trkpt lat="53.209140" lon="-3.993621"><ele>356</ele><time>2022-10-20T15:08:11Z</time><name>PT4198</name></trkpt>
<trkpt lat="53.209172" lon="-3.993634"><ele>356</ele><time>2022-10-20T15:08:15Z</time><name>PT4199</name></trkpt>
<trkpt lat="53.209200" lon="-3.993654"><ele>356</ele><time>2022-10-20T15:08:19Z</time><name>PT4200</name></trkpt>
<trkpt lat="53.209235" lon="-3.993677"><ele>355</ele><time>2022-10-20T15:08:23Z</time><name>PT4201</name></trkpt>
<trkpt lat="53.209268" lon="-3.993688"><ele>355</ele><time>2022-10-20T15:08:27Z</time><name>PT4202</name></trkpt>
<trkpt lat="53.209288" lon="-3.993700"><ele>354</ele><time>2022-10-20T15:08:30Z</time><name>PT4203</name></trkpt>
<trkpt lat="53.209320" lon="-3.993722"><ele>354</ele><time>2022-10-20T15:08:34Z</time><name>PT4204</name></trkpt>
<trkpt lat="53.209350" lon="-3.993728"><ele>354</ele><time>2022-10-20T15:08:38Z</time><name>PT4205</name></trkpt>
<trkpt lat="53.209378" lon="-3.993730"><ele>353</ele><time>2022-10-20T15:08:41Z</time><name>PT4206</name></trkpt>
<trkpt lat="53.209395" lon="-3.993733"><ele>352</ele><time>2022-10-20T15:08:44Z</time><name>PT4207</name></trkpt>
<trkpt lat="53.209412" lon="-3.993750"><ele>352</ele><time>2022-10-20T15:08:48Z</time><name>PT4208</name></trkpt>
<trkpt lat="53.209434" lon="-3.993762"><ele>352</ele><time>2022-10-20T15:08:52Z</time><name>PT4209</name></trkpt>
<trkpt lat="53.209457" lon="-3.993776"><ele>351</ele><time>2022-10-20T15:08:56Z</time><name>PT4210</name></trkpt>
<trkpt lat="53.209468" lon="-3.993784"><ele>351</ele><time>2022-10-20T15:08:59Z</time><name>PT4211</name></trkpt>
<trkpt lat="53.209500" lon="-3.993802"><ele>350</ele><time>2022-10-20T15:09:03Z</time><name>PT4212</name></trkpt>
<trkpt lat="53.209533" lon="-3.993814"><ele>350</ele><time>2022-10-20T15:09:07Z</time><name>PT4213</name></trkpt>
<trkpt lat="53.209550" lon="-3.993798"><ele>348</ele><time>2022-10-20T15:09:11Z</time><name>PT4214</name></trkpt>
<trkpt lat="53.209555" lon="-3.993796"><ele>348</ele><time>2022-10-20T15:09:14Z</time><name>PT4215</name></trkpt>
<trkpt lat="53.209567" lon="-3.993810"><ele>347</ele><time>2022-10-20T15:09:18Z</time><name>PT4216</name></trkpt>
<trkpt lat="53.209570" lon="-3.993808"><ele>347</ele><time>2022-10-20T15:09:22Z</time><name>PT4217</name></trkpt>
<trkpt lat="53.209578" lon="-3.993817"><ele>346</ele><time>2022-10-20T15:09:29Z</time><name>PT4218</name></trkpt>
<trkpt lat="53.209582" lon="-3.993841"><ele>344</ele><time>2022-10-20T15:09:33Z</time><name>PT4219</name></trkpt>
<trkpt lat="53.209593" lon="-3.993865"><ele>344</ele><time>2022-10-20T15:09:36Z</time><name>PT4220</name></trkpt>
<trkpt lat="53.209604" lon="-3.993889"><ele>343</ele><time>2022-10-20T15:09:39Z</time><name>PT4221</name></trkpt>
<trkpt lat="53.209615" lon="-3.993918"><ele>341</ele><time>2022-10-20T15:09:43Z</time><name>PT4222</name></trkpt>
<trkpt lat="53.209634" lon="-3.993945"><ele>340</ele><time>2022-10-20T15:09:47Z</time><name>PT4223</name></trkpt>
<trkpt lat="53.209649" lon="-3.993967"><ele>339</ele><time>2022-10-20T15:09:51Z</time><name>PT4224</name></trkpt>
<trkpt lat="53.209667" lon="-3.993998"><ele>336</ele><time>2022-10-20T15:09:55Z</time><name>PT4225</name></trkpt>
<trkpt lat="53.209679" lon="-3.994020"><ele>335</ele><time>2022-10-20T15:09:58Z</time><name>PT4226</name></trkpt>
<trkpt lat="53.209692" lon="-3.994047"><ele>333</ele><time>2022-10-20T15:10:02Z</time><name>PT4227</name></trkpt>
<trkpt lat="53.209691" lon="-3.994061"><ele>333</ele><time>2022-10-20T15:10:05Z</time><name>PT4228</name></trkpt>
<trkpt lat="53.209689" lon="-3.994066"><ele>333</ele><time>2022-10-20T15:10:09Z</time><name>PT4229</name></trkpt>
<trkpt lat="53.209684" lon="-3.994086"><ele>333</ele><time>2022-10-20T15:10:12Z</time><name>PT4230</name></trkpt>
<trkpt lat="53.209699" lon="-3.994097"><ele>334</ele><time>2022-10-20T15:10:15Z</time><name>PT4231</name></trkpt>
<trkpt lat="53.209700" lon="-3.994122"><ele>333</ele><time>2022-10-20T15:10:18Z</time><name>PT4232</name></trkpt>
<trkpt lat="53.209703" lon="-3.994152"><ele>336</ele><time>2022-10-20T15:10:22Z</time><name>PT4233</name></trkpt>
<trkpt lat="53.209700" lon="-3.994174"><ele>336</ele><time>2022-10-20T15:10:25Z</time><name>PT4234</name></trkpt>
<trkpt lat="53.209701" lon="-3.994181"><ele>334</ele><time>2022-10-20T15:10:29Z</time><name>PT4235</name></trkpt>
<trkpt lat="53.209674" lon="-3.994214"><ele>332</ele><time>2022-10-20T15:10:33Z</time><name>PT4236</name></trkpt>
<trkpt lat="53.209666" lon="-3.994245"><ele>331</ele><time>2022-10-20T15:10:37Z</time><name>PT4237</name></trkpt>
<trkpt lat="53.209661" lon="-3.994265"><ele>331</ele><time>2022-10-20T15:10:40Z</time><name>PT4238</name></trkpt>
<trkpt lat="53.209663" lon="-3.994284"><ele>331</ele><time>2022-10-20T15:10:43Z</time><name>PT4239</name></trkpt>
<trkpt lat="53.209666" lon="-3.994315"><ele>329</ele><time>2022-10-20T15:10:47Z</time><name>PT4240</name></trkpt>
<trkpt lat="53.209673" lon="-3.994335"><ele>328</ele><time>2022-10-20T15:10:50Z</time><name>PT4241</name></trkpt>
<trkpt lat="53.209676" lon="-3.994364"><ele>326</ele><time>2022-10-20T15:10:54Z</time><name>PT4242</name></trkpt>
<trkpt lat="53.209679" lon="-3.994385"><ele>325</ele><time>2022-10-20T15:10:58Z</time><name>PT4243</name></trkpt>
<trkpt lat="53.209690" lon="-3.994405"><ele>324</ele><time>2022-10-20T15:11:01Z</time><name>PT4244</name></trkpt>
<trkpt lat="53.209703" lon="-3.994434"><ele>322</ele><time>2022-10-20T15:11:05Z</time><name>PT4245</name></trkpt>
<trkpt lat="53.209710" lon="-3.994459"><ele>321</ele><time>2022-10-20T15:11:09Z</time><name>PT4246</name></trkpt>
<trkpt lat="53.209718" lon="-3.994462"><ele>323</ele><time>2022-10-20T15:11:12Z</time><name>PT4247</name></trkpt>
<trkpt lat="53.209730" lon="-3.994485"><ele>322</ele><time>2022-10-20T15:11:16Z</time><name>PT4248</name></trkpt>
<trkpt lat="53.209724" lon="-3.994514"><ele>320</ele><time>2022-10-20T15:11:20Z</time><name>PT4249</name></trkpt>
<trkpt lat="53.209738" lon="-3.994527"><ele>321</ele><time>2022-10-20T15:11:24Z</time><name>PT4250</name></trkpt>
<trkpt lat="53.209753" lon="-3.994539"><ele>320</ele><time>2022-10-20T15:11:28Z</time><name>PT4251</name></trkpt>
<trkpt lat="53.209767" lon="-3.994547"><ele>322</ele><time>2022-10-20T15:11:31Z</time><name>PT4252</name></trkpt>
<trkpt lat="53.209781" lon="-3.994554"><ele>321</ele><time>2022-10-20T15:11:35Z</time><name>PT4253</name></trkpt>
<trkpt lat="53.209793" lon="-3.994575"><ele>321</ele><time>2022-10-20T15:11:39Z</time><name>PT4254</name></trkpt>
<trkpt lat="53.209797" lon="-3.994608"><ele>321</ele><time>2022-10-20T15:11:45Z</time><name>PT4255</name></trkpt>
<trkpt lat="53.209818" lon="-3.994629"><ele>319</ele><time>2022-10-20T15:11:49Z</time><name>PT4256</name></trkpt>
<trkpt lat="53.209833" lon="-3.994633"><ele>318</ele><time>2022-10-20T15:11:53Z</time><name>PT4257</name></trkpt>
<trkpt lat="53.209851" lon="-3.994642"><ele>318</ele><time>2022-10-20T15:11:56Z</time><name>PT4258</name></trkpt>
<trkpt lat="53.209872" lon="-3.994646"><ele>317</ele><time>2022-10-20T15:11:59Z</time><name>PT4259</name></trkpt>
<trkpt lat="53.209895" lon="-3.994644"><ele>316</ele><time>2022-10-20T15:12:03Z</time><name>PT4260</name></trkpt>
<trkpt lat="53.209914" lon="-3.994642"><ele>314</ele><time>2022-10-20T15:12:06Z</time><name>PT4261</name></trkpt>
<trkpt lat="53.209940" lon="-3.994630"><ele>313</ele><time>2022-10-20T15:12:09Z</time><name>PT4262</name></trkpt>
<trkpt lat="53.209964" lon="-3.994627"><ele>313</ele><time>2022-10-20T15:12:13Z</time><name>PT4263</name></trkpt>
<trkpt lat="53.209970" lon="-3.994634"><ele>311</ele><time>2022-10-20T15:12:17Z</time><name>PT4264</name></trkpt>
<trkpt lat="53.209986" lon="-3.994607"><ele>310</ele><time>2022-10-20T15:12:21Z</time><name>PT4265</name></trkpt>
<trkpt lat="53.210000" lon="-3.994596"><ele>309</ele><time>2022-10-20T15:12:24Z</time><name>PT4266</name></trkpt>
<trkpt lat="53.210013" lon="-3.994589"><ele>308</ele><time>2022-10-20T15:12:28Z</time><name>PT4267</name></trkpt>
<trkpt lat="53.210033" lon="-3.994579"><ele>308</ele><time>2022-10-20T15:12:31Z</time><name>PT4268</name></trkpt>
<trkpt lat="53.210058" lon="-3.994567"><ele>308</ele><time>2022-10-20T15:12:35Z</time><name>PT4269</name></trkpt>
<trkpt lat="53.210079" lon="-3.994565"><ele>307</ele><time>2022-10-20T15:12:39Z</time><name>PT4270</name></trkpt>
<trkpt lat="53.210096" lon="-3.994551"><ele>307</ele><time>2022-10-20T15:12:42Z</time><name>PT4271</name></trkpt>
<trkpt lat="53.210124" lon="-3.994539"><ele>306</ele><time>2022-10-20T15:12:46Z</time><name>PT4272</name></trkpt>
<trkpt lat="53.210133" lon="-3.994537"><ele>306</ele><time>2022-10-20T15:12:49Z</time><name>PT4273</name></trkpt>
<trkpt lat="53.210146" lon="-3.994532"><ele>305</ele><time>2022-10-20T15:12:53Z</time><name>PT4274</name></trkpt>
<trkpt lat="53.210170" lon="-3.994516"><ele>304</ele><time>2022-10-20T15:12:57Z</time><name>PT4275</name></trkpt>
<trkpt lat="53.210174" lon="-3.994514"><ele>304</ele><time>2022-10-20T15:13:00Z</time><name>PT4276</name></trkpt>
<trkpt lat="53.210179" lon="-3.994508"><ele>302</ele><time>2022-10-20T15:13:07Z</time><name>PT4277</name></trkpt>
<trkpt lat="53.210184" lon="-3.994519"><ele>302</ele><time>2022-10-20T15:13:11Z</time><name>PT4278</name></trkpt>
<trkpt lat="53.210200" lon="-3.994532"><ele>302</ele><time>2022-10-20T15:13:15Z</time><name>PT4279</name></trkpt>
<trkpt lat="53.210204" lon="-3.994527"><ele>302</ele><time>2022-10-20T15:13:18Z</time><name>PT4280</name></trkpt>
<trkpt lat="53.210213" lon="-3.994520"><ele>301</ele><time>2022-10-20T15:13:22Z</time><name>PT4281</name></trkpt>
<trkpt lat="53.210213" lon="-3.994523"><ele>301</ele><time>2022-10-20T15:13:25Z</time><name>PT4282</name></trkpt>
<trkpt lat="53.210225" lon="-3.994532"><ele>301</ele><time>2022-10-20T15:13:29Z</time><name>PT4283</name></trkpt>
<trkpt lat="53.210236" lon="-3.994515"><ele>301</ele><time>2022-10-20T15:13:32Z</time><name>PT4284</name></trkpt>
<trkpt lat="53.210253" lon="-3.994512"><ele>301</ele><time>2022-10-20T15:13:36Z</time><name>PT4285</name></trkpt>
<trkpt lat="53.210270" lon="-3.994481"><ele>301</ele><time>2022-10-20T15:13:39Z</time><name>PT4286</name></trkpt>
<trkpt lat="53.210273" lon="-3.994474"><ele>301</ele><time>2022-10-20T15:13:43Z</time><name>PT4287</name></trkpt>
<trkpt lat="53.210294" lon="-3.994462"><ele>302</ele><time>2022-10-20T15:13:46Z</time><name>PT4288</name></trkpt>
<trkpt lat="53.210307" lon="-3.994443"><ele>302</ele><time>2022-10-20T15:13:49Z</time><name>PT4289</name></trkpt>
<trkpt lat="53.210323" lon="-3.994436"><ele>301</ele><time>2022-10-20T15:13:53Z</time><name>PT4290</name></trkpt>
<trkpt lat="53.210324" lon="-3.994435"><ele>301</ele><time>2022-10-20T15:13:56Z</time><name>PT4291</name></trkpt>
<trkpt lat="53.210323" lon="-3.994435"><ele>302</ele><time>2022-10-20T15:14:00Z</time><name>PT4292</name></trkpt>
<trkpt lat="53.210344" lon="-3.994395"><ele>301</ele><time>2022-10-20T15:14:07Z</time><name>PT4293</name></trkpt>
<trkpt lat="53.210330" lon="-3.994406"><ele>302</ele><time>2022-10-20T15:14:11Z</time><name>PT4294</name></trkpt>
<trkpt lat="53.210328" lon="-3.994413"><ele>303</ele><time>2022-10-20T15:14:14Z</time><name>PT4295</name></trkpt>
<trkpt lat="53.210329" lon="-3.994409"><ele>303</ele><time>2022-10-20T15:14:58Z</time><name>PT4296</name></trkpt>
<trkpt lat="53.210352" lon="-3.994399"><ele>303</ele><time>2022-10-20T15:15:02Z</time><name>PT4297</name></trkpt>
<trkpt lat="53.210351" lon="-3.994393"><ele>303</ele><time>2022-10-20T15:15:06Z</time><name>PT4298</name></trkpt>
<trkpt lat="53.210358" lon="-3.994394"><ele>303</ele><time>2022-10-20T15:15:10Z</time><name>PT4299</name></trkpt>
<trkpt lat="53.210364" lon="-3.994381"><ele>303</ele><time>2022-10-20T15:15:13Z</time><name>PT4300</name></trkpt>
<trkpt lat="53.210371" lon="-3.994374"><ele>304</ele><time>2022-10-20T15:15:16Z</time><name>PT4301</name></trkpt>
<trkpt lat="53.210373" lon="-3.994352"><ele>304</ele><time>2022-10-20T15:15:43Z</time><name>PT4302</name></trkpt>
<trkpt lat="53.210384" lon="-3.994349"><ele>305</ele><time>2022-10-20T15:15:46Z</time><name>PT4303</name></trkpt>
<trkpt lat="53.210382" lon="-3.994348"><ele>304</ele><time>2022-10-20T15:15:49Z</time><name>PT4304</name></trkpt>
<trkpt lat="53.210378" lon="-3.994349"><ele>303</ele><time>2022-10-20T15:15:53Z</time><name>PT4305</name></trkpt>
<trkpt lat="53.210379" lon="-3.994353"><ele>303</ele><time>2022-10-20T15:15:57Z</time><name>PT4306</name></trkpt>
<trkpt lat="53.210377" lon="-3.994355"><ele>304</ele><time>2022-10-20T15:16:11Z</time><name>PT4307</name></trkpt>
<trkpt lat="53.210375" lon="-3.994360"><ele>304</ele><time>2022-10-20T15:16:14Z</time><name>PT4308</name></trkpt>
<trkpt lat="53.210379" lon="-3.994364"><ele>305</ele><time>2022-10-20T15:16:18Z</time><name>PT4309</name></trkpt>
<trkpt lat="53.210385" lon="-3.994358"><ele>303</ele><time>2022-10-20T15:16:24Z</time><name>PT4310</name></trkpt>
<trkpt lat="53.210395" lon="-3.994342"><ele>301</ele><time>2022-10-20T15:16:28Z</time><name>PT4311</name></trkpt>
<trkpt lat="53.210392" lon="-3.994363"><ele>301</ele><time>2022-10-20T15:16:52Z</time><name>PT4312</name></trkpt>
<trkpt lat="53.210408" lon="-3.994363"><ele>300</ele><time>2022-10-20T15:16:56Z</time><name>PT4313</name></trkpt>
<trkpt lat="53.210434" lon="-3.994370"><ele>300</ele><time>2022-10-20T15:17:00Z</time><name>PT4314</name></trkpt>
<trkpt lat="53.210456" lon="-3.994379"><ele>299</ele><time>2022-10-20T15:17:04Z</time><name>PT4315</name></trkpt>
<trkpt lat="53.210470" lon="-3.994394"><ele>299</ele><time>2022-10-20T15:17:07Z</time><name>PT4316</name></trkpt>
<trkpt lat="53.210481" lon="-3.994417"><ele>302</ele><time>2022-10-20T15:17:11Z</time><name>PT4317</name></trkpt>
<trkpt lat="53.210503" lon="-3.994417"><ele>303</ele><time>2022-10-20T15:17:14Z</time><name>PT4318</name></trkpt>
<trkpt lat="53.210510" lon="-3.994407"><ele>302</ele><time>2022-10-20T15:17:18Z</time><name>PT4319</name></trkpt>
<trkpt lat="53.210538" lon="-3.994411"><ele>303</ele><time>2022-10-20T15:17:21Z</time><name>PT4320</name></trkpt>
<trkpt lat="53.210564" lon="-3.994421"><ele>305</ele><time>2022-10-20T15:17:24Z</time><name>PT4321</name></trkpt>
<trkpt lat="53.210590" lon="-3.994418"><ele>306</ele><time>2022-10-20T15:17:27Z</time><name>PT4322</name></trkpt>
<trkpt lat="53.210620" lon="-3.994439"><ele>309</ele><time>2022-10-20T15:17:31Z</time><name>PT4323</name></trkpt>
<trkpt lat="53.210640" lon="-3.994432"><ele>309</ele><time>2022-10-20T15:17:34Z</time><name>PT4324</name></trkpt>
<trkpt lat="53.210667" lon="-3.994440"><ele>313</ele><time>2022-10-20T15:17:37Z</time><name>PT4325</name></trkpt>
<trkpt lat="53.210696" lon="-3.994439"><ele>314</ele><time>2022-10-20T15:17:40Z</time><name>PT4326</name></trkpt>
<trkpt lat="53.210730" lon="-3.994429"><ele>311</ele><time>2022-10-20T15:17:44Z</time><name>PT4327</name></trkpt>
<trkpt lat="53.210767" lon="-3.994404"><ele>307</ele><time>2022-10-20T15:17:48Z</time><name>PT4328</name></trkpt>
<trkpt lat="53.210797" lon="-3.994405"><ele>308</ele><time>2022-10-20T15:17:51Z</time><name>PT4329</name></trkpt>
<trkpt lat="53.210839" lon="-3.994378"><ele>307</ele><time>2022-10-20T15:17:55Z</time><name>PT4330</name></trkpt>
<trkpt lat="53.210862" lon="-3.994376"><ele>304</ele><time>2022-10-20T15:17:58Z</time><name>PT4331</name></trkpt>
<trkpt lat="53.210886" lon="-3.994392"><ele>305</ele><time>2022-10-20T15:18:01Z</time><name>PT4332</name></trkpt>
<trkpt lat="53.210913" lon="-3.994376"><ele>304</ele><time>2022-10-20T15:18:05Z</time><name>PT4333</name></trkpt>
<trkpt lat="53.210924" lon="-3.994354"><ele>302</ele><time>2022-10-20T15:18:08Z</time><name>PT4334</name></trkpt>
<trkpt lat="53.210954" lon="-3.994327"><ele>302</ele><time>2022-10-20T15:18:15Z</time><name>PT4335</name></trkpt>
<trkpt lat="53.210991" lon="-3.994300"><ele>303</ele><time>2022-10-20T15:18:19Z</time><name>PT4336</name></trkpt>
<trkpt lat="53.211032" lon="-3.994317"><ele>302</ele><time>2022-10-20T15:18:23Z</time><name>PT4337</name></trkpt>
<trkpt lat="53.211057" lon="-3.994339"><ele>302</ele><time>2022-10-20T15:18:26Z</time><name>PT4338</name></trkpt>
<trkpt lat="53.211082" lon="-3.994331"><ele>302</ele><time>2022-10-20T15:18:29Z</time><name>PT4339</name></trkpt>
<trkpt lat="53.211116" lon="-3.994327"><ele>301</ele><time>2022-10-20T15:18:32Z</time><name>PT4340</name></trkpt>
<trkpt lat="53.211138" lon="-3.994326"><ele>301</ele><time>2022-10-20T15:18:36Z</time><name>PT4341</name></trkpt>
<trkpt lat="53.211173" lon="-3.994284"><ele>299</ele><time>2022-10-20T15:18:40Z</time><name>PT4342</name></trkpt>
<trkpt lat="53.211193" lon="-3.994223"><ele>296</ele><time>2022-10-20T15:18:44Z</time><name>PT4343</name></trkpt>
<trkpt lat="53.211201" lon="-3.994184"><ele>296</ele><time>2022-10-20T15:18:48Z</time><name>PT4344</name></trkpt>
<trkpt lat="53.211230" lon="-3.994159"><ele>295</ele><time>2022-10-20T15:18:51Z</time><name>PT4345</name></trkpt>
<trkpt lat="53.211247" lon="-3.994130"><ele>292</ele><time>2022-10-20T15:18:54Z</time><name>PT4346</name></trkpt>
<trkpt lat="53.211248" lon="-3.994132"><ele>292</ele><time>2022-10-20T15:18:58Z</time><name>PT4347</name></trkpt>
<trkpt lat="53.211263" lon="-3.994109"><ele>291</ele><time>2022-10-20T15:19:02Z</time><name>PT4348</name></trkpt>
<trkpt lat="53.211267" lon="-3.994116"><ele>292</ele><time>2022-10-20T15:19:06Z</time><name>PT4349</name></trkpt>
<trkpt lat="53.211274" lon="-3.994096"><ele>290</ele><time>2022-10-20T15:19:10Z</time><name>PT4350</name></trkpt>
<trkpt lat="53.211287" lon="-3.994053"><ele>287</ele><time>2022-10-20T15:19:14Z</time><name>PT4351</name></trkpt>
<trkpt lat="53.211301" lon="-3.994022"><ele>288</ele><time>2022-10-20T15:19:17Z</time><name>PT4352</name></trkpt>
<trkpt lat="53.211313" lon="-3.994021"><ele>287</ele><time>2022-10-20T15:19:21Z</time><name>PT4353</name></trkpt>
<trkpt lat="53.211314" lon="-3.994014"><ele>285</ele><time>2022-10-20T15:19:25Z</time><name>PT4354</name></trkpt>
<trkpt lat="53.211316" lon="-3.993993"><ele>284</ele><time>2022-10-20T15:19:28Z</time><name>PT4355</name></trkpt>
<trkpt lat="53.211326" lon="-3.993999"><ele>284</ele><time>2022-10-20T15:19:32Z</time><name>PT4356</name></trkpt>
<trkpt lat="53.211348" lon="-3.994013"><ele>287</ele><time>2022-10-20T15:19:36Z</time><name>PT4357</name></trkpt>
<trkpt lat="53.211355" lon="-3.994020"><ele>288</ele><time>2022-10-20T15:19:40Z</time><name>PT4358</name></trkpt>
<trkpt lat="53.211379" lon="-3.994029"><ele>290</ele><time>2022-10-20T15:19:44Z</time><name>PT4359</name></trkpt>
<trkpt lat="53.211381" lon="-3.994037"><ele>291</ele><time>2022-10-20T15:19:48Z</time><name>PT4360</name></trkpt>
<trkpt lat="53.211378" lon="-3.994061"><ele>290</ele><time>2022-10-20T15:19:51Z</time><name>PT4361</name></trkpt>
<trkpt lat="53.211399" lon="-3.994079"><ele>290</ele><time>2022-10-20T15:19:55Z</time><name>PT4362</name></trkpt>
<trkpt lat="53.211404" lon="-3.994066"><ele>287</ele><time>2022-10-20T15:19:58Z</time><name>PT4363</name></trkpt>
<trkpt lat="53.211423" lon="-3.994074"><ele>285</ele><time>2022-10-20T15:20:02Z</time><name>PT4364</name></trkpt>
<trkpt lat="53.211438" lon="-3.994047"><ele>284</ele><time>2022-10-20T15:20:06Z</time><name>PT4365</name></trkpt>
<trkpt lat="53.211444" lon="-3.994060"><ele>283</ele><time>2022-10-20T15:20:09Z</time><name>PT4366</name></trkpt>
<trkpt lat="53.211465" lon="-3.994038"><ele>281</ele><time>2022-10-20T15:20:13Z</time><name>PT4367</name></trkpt>
<trkpt lat="53.211484" lon="-3.994035"><ele>280</ele><time>2022-10-20T15:20:16Z</time><name>PT4368</name></trkpt>
<trkpt lat="53.211503" lon="-3.993990"><ele>277</ele><time>2022-10-20T15:20:19Z</time><name>PT4369</name></trkpt>
<trkpt lat="53.211506" lon="-3.994029"><ele>282</ele><time>2022-10-20T15:20:23Z</time><name>PT4370</name></trkpt>
<trkpt lat="53.211517" lon="-3.994032"><ele>281</ele><time>2022-10-20T15:20:26Z</time><name>PT4371</name></trkpt>
<trkpt lat="53.211539" lon="-3.993999"><ele>279</ele><time>2022-10-20T15:20:30Z</time><name>PT4372</name></trkpt>
<trkpt lat="53.211568" lon="-3.993976"><ele>278</ele><time>2022-10-20T15:20:33Z</time><name>PT4373</name></trkpt>
<trkpt lat="53.211599" lon="-3.993953"><ele>275</ele><time>2022-10-20T15:20:37Z</time><name>PT4374</name></trkpt>
<trkpt lat="53.211632" lon="-3.993941"><ele>272</ele><time>2022-10-20T15:20:41Z</time><name>PT4375</name></trkpt>
<trkpt lat="53.211646" lon="-3.993948"><ele>275</ele><time>2022-10-20T15:20:44Z</time><name>PT4376</name></trkpt>
<trkpt lat="53.211664" lon="-3.993949"><ele>275</ele><time>2022-10-20T15:20:47Z</time><name>PT4377</name></trkpt>
<trkpt lat="53.211684" lon="-3.993952"><ele>276</ele><time>2022-10-20T15:20:51Z</time><name>PT4378</name></trkpt>
<trkpt lat="53.211704" lon="-3.993981"><ele>278</ele><time>2022-10-20T15:20:54Z</time><name>PT4379</name></trkpt>
<trkpt lat="53.211719" lon="-3.993988"><ele>279</ele><time>2022-10-20T15:20:58Z</time><name>PT4380</name></trkpt>
<trkpt lat="53.211733" lon="-3.993988"><ele>279</ele><time>2022-10-20T15:21:02Z</time><name>PT4381</name></trkpt>
<trkpt lat="53.211731" lon="-3.993985"><ele>279</ele><time>2022-10-20T15:21:10Z</time><name>PT4382</name></trkpt>
<trkpt lat="53.211761" lon="-3.993979"><ele>280</ele><time>2022-10-20T15:21:13Z</time><name>PT4383</name></trkpt>
<trkpt lat="53.211779" lon="-3.993962"><ele>282</ele><time>2022-10-20T15:21:16Z</time><name>PT4384</name></trkpt>
<trkpt lat="53.211806" lon="-3.993942"><ele>281</ele><time>2022-10-20T15:21:20Z</time><name>PT4385</name></trkpt>
<trkpt lat="53.211843" lon="-3.993971"><ele>282</ele><time>2022-10-20T15:21:23Z</time><name>PT4386</name></trkpt>
<trkpt lat="53.211864" lon="-3.993976"><ele>282</ele><time>2022-10-20T15:21:26Z</time><name>PT4387</name></trkpt>
<trkpt lat="53.211889" lon="-3.993985"><ele>279</ele><time>2022-10-20T15:21:30Z</time><name>PT4388</name></trkpt>
<trkpt lat="53.211903" lon="-3.993968"><ele>280</ele><time>2022-10-20T15:21:33Z</time><name>PT4389</name></trkpt>
<trkpt lat="53.211923" lon="-3.993922"><ele>277</ele><time>2022-10-20T15:21:36Z</time><name>PT4390</name></trkpt>
<trkpt lat="53.211938" lon="-3.993901"><ele>276</ele><time>2022-10-20T15:21:48Z</time><name>PT4391</name></trkpt>
<trkpt lat="53.211945" lon="-3.993895"><ele>276</ele><time>2022-10-20T15:21:51Z</time><name>PT4392</name></trkpt>
<trkpt lat="53.211946" lon="-3.993894"><ele>276</ele><time>2022-10-20T15:21:55Z</time><name>PT4393</name></trkpt>
<trkpt lat="53.211956" lon="-3.993866"><ele>276</ele><time>2022-10-20T15:21:58Z</time><name>PT4394</name></trkpt>
<trkpt lat="53.211967" lon="-3.993862"><ele>276</ele><time>2022-10-20T15:22:01Z</time><name>PT4395</name></trkpt>
<trkpt lat="53.211969" lon="-3.993880"><ele>276</ele><time>2022-10-20T15:22:20Z</time><name>PT4396</name></trkpt>
<trkpt lat="53.211985" lon="-3.993916"><ele>275</ele><time>2022-10-20T15:22:24Z</time><name>PT4397</name></trkpt>
<trkpt lat="53.212003" lon="-3.993942"><ele>272</ele><time>2022-10-20T15:22:27Z</time><name>PT4398</name></trkpt>
<trkpt lat="53.212012" lon="-3.993974"><ele>273</ele><time>2022-10-20T15:22:31Z</time><name>PT4399</name></trkpt>
<trkpt lat="53.212015" lon="-3.993994"><ele>273</ele><time>2022-10-20T15:22:35Z</time><name>PT4400</name></trkpt>
<trkpt lat="53.212038" lon="-3.993998"><ele>271</ele><time>2022-10-20T15:22:38Z</time><name>PT4401</name></trkpt>
<trkpt lat="53.212064" lon="-3.994012"><ele>269</ele><time>2022-10-20T15:22:42Z</time><name>PT4402</name></trkpt>
<trkpt lat="53.212087" lon="-3.994037"><ele>270</ele><time>2022-10-20T15:22:46Z</time><name>PT4403</name></trkpt>
<trkpt lat="53.212115" lon="-3.994057"><ele>269</ele><time>2022-10-20T15:22:49Z</time><name>PT4404</name></trkpt>
<trkpt lat="53.212137" lon="-3.994076"><ele>267</ele><time>2022-10-20T15:22:53Z</time><name>PT4405</name></trkpt>
<trkpt lat="53.212163" lon="-3.994073"><ele>265</ele><time>2022-10-20T15:22:57Z</time><name>PT4406</name></trkpt>
<trkpt lat="53.212180" lon="-3.994066"><ele>263</ele><time>2022-10-20T15:23:01Z</time><name>PT4407</name></trkpt>
<trkpt lat="53.212198" lon="-3.994106"><ele>264</ele><time>2022-10-20T15:23:05Z</time><name>PT4408</name></trkpt>
<trkpt lat="53.212222" lon="-3.994114"><ele>264</ele><time>2022-10-20T15:23:08Z</time><name>PT4409</name></trkpt>
<trkpt lat="53.212251" lon="-3.994110"><ele>262</ele><time>2022-10-20T15:23:12Z</time><name>PT4410</name></trkpt>
<trkpt lat="53.212261" lon="-3.994116"><ele>262</ele><time>2022-10-20T15:23:15Z</time><name>PT4411</name></trkpt>
<trkpt lat="53.212280" lon="-3.994108"><ele>257</ele><time>2022-10-20T15:23:18Z</time><name>PT4412</name></trkpt>
<trkpt lat="53.212293" lon="-3.994146"><ele>259</ele><time>2022-10-20T15:23:22Z</time><name>PT4413</name></trkpt>
<trkpt lat="53.212318" lon="-3.994168"><ele>257</ele><time>2022-10-20T15:23:26Z</time><name>PT4414</name></trkpt>
<trkpt lat="53.212350" lon="-3.994201"><ele>257</ele><time>2022-10-20T15:23:30Z</time><name>PT4415</name></trkpt>
<trkpt lat="53.212371" lon="-3.994213"><ele>255</ele><time>2022-10-20T15:23:34Z</time><name>PT4416</name></trkpt>
<trkpt lat="53.212382" lon="-3.994243"><ele>254</ele><time>2022-10-20T15:23:41Z</time><name>PT4417</name></trkpt>
<trkpt lat="53.212384" lon="-3.994248"><ele>254</ele><time>2022-10-20T15:23:45Z</time><name>PT4418</name></trkpt>
<trkpt lat="53.212386" lon="-3.994300"><ele>253</ele><time>2022-10-20T15:24:01Z</time><name>PT4419</name></trkpt>
<trkpt lat="53.212400" lon="-3.994347"><ele>255</ele><time>2022-10-20T15:24:04Z</time><name>PT4420</name></trkpt>
<trkpt lat="53.212398" lon="-3.994370"><ele>255</ele><time>2022-10-20T15:24:08Z</time><name>PT4421</name></trkpt>
<trkpt lat="53.212400" lon="-3.994371"><ele>255</ele><time>2022-10-20T15:24:12Z</time><name>PT4422</name></trkpt>
<trkpt lat="53.212411" lon="-3.994374"><ele>255</ele><time>2022-10-20T15:24:15Z</time><name>PT4423</name></trkpt>
<trkpt lat="53.212412" lon="-3.994374"><ele>256</ele><time>2022-10-20T15:24:18Z</time><name>PT4424</name></trkpt>
<trkpt lat="53.212424" lon="-3.994373"><ele>255</ele><time>2022-10-20T15:24:22Z</time><name>PT4425</name></trkpt>
<trkpt lat="53.212428" lon="-3.994366"><ele>256</ele><time>2022-10-20T15:24:25Z</time><name>PT4426</name></trkpt>
<trkpt lat="53.212433" lon="-3.994370"><ele>255</ele><time>2022-10-20T15:24:42Z</time><name>PT4427</name></trkpt>
<trkpt lat="53.212446" lon="-3.994367"><ele>255</ele><time>2022-10-20T15:24:45Z</time><name>PT4428</name></trkpt>
<trkpt lat="53.212449" lon="-3.994365"><ele>255</ele><time>2022-10-20T15:24:49Z</time><name>PT4429</name></trkpt>
<trkpt lat="53.212459" lon="-3.994356"><ele>254</ele><time>2022-10-20T15:25:41Z</time><name>PT4430</name></trkpt>
<trkpt lat="53.212460" lon="-3.994348"><ele>254</ele><time>2022-10-20T15:25:45Z</time><name>PT4431</name></trkpt>
<trkpt lat="53.212479" lon="-3.994350"><ele>254</ele><time>2022-10-20T15:25:49Z</time><name>PT4432</name></trkpt>
<trkpt lat="53.212491" lon="-3.994360"><ele>255</ele><time>2022-10-20T15:25:52Z</time><name>PT4433</name></trkpt>
<trkpt lat="53.212518" lon="-3.994367"><ele>256</ele><time>2022-10-20T15:25:56Z</time><name>PT4434</name></trkpt>
<trkpt lat="53.212534" lon="-3.994379"><ele>256</ele><time>2022-10-20T15:25:59Z</time><name>PT4435</name></trkpt>
<trkpt lat="53.212558" lon="-3.994363"><ele>255</ele><time>2022-10-20T15:26:02Z</time><name>PT4436</name></trkpt>
<trkpt lat="53.212589" lon="-3.994344"><ele>249</ele><time>2022-10-20T15:26:06Z</time><name>PT4437</name></trkpt>
<trkpt lat="53.212612" lon="-3.994356"><ele>251</ele><time>2022-10-20T15:26:09Z</time><name>PT4438</name></trkpt>
<trkpt lat="53.212641" lon="-3.994354"><ele>249</ele><time>2022-10-20T15:26:13Z</time><name>PT4439</name></trkpt>
<trkpt lat="53.212660" lon="-3.994357"><ele>249</ele><time>2022-10-20T15:26:16Z</time><name>PT4440</name></trkpt>
<trkpt lat="53.212700" lon="-3.994353"><ele>249</ele><time>2022-10-20T15:26:20Z</time><name>PT4441</name></trkpt>
<trkpt lat="53.212729" lon="-3.994351"><ele>246</ele><time>2022-10-20T15:26:24Z</time><name>PT4442</name></trkpt>
<trkpt lat="53.212754" lon="-3.994355"><ele>246</ele><time>2022-10-20T15:26:27Z</time><name>PT4443</name></trkpt>
<trkpt lat="53.212775" lon="-3.994353"><ele>244</ele><time>2022-10-20T15:26:31Z</time><name>PT4444</name></trkpt>
<trkpt lat="53.212788" lon="-3.994360"><ele>244</ele><time>2022-10-20T15:26:34Z</time><name>PT4445</name></trkpt>
<trkpt lat="53.212807" lon="-3.994371"><ele>245</ele><time>2022-10-20T15:26:37Z</time><name>PT4446</name></trkpt>
<trkpt lat="53.212816" lon="-3.994395"><ele>247</ele><time>2022-10-20T15:26:41Z</time><name>PT4447</name></trkpt>
<trkpt lat="53.212845" lon="-3.994409"><ele>247</ele><time>2022-10-20T15:26:45Z</time><name>PT4448</name></trkpt>
<trkpt lat="53.212866" lon="-3.994395"><ele>246</ele><time>2022-10-20T15:26:48Z</time><name>PT4449</name></trkpt>
<trkpt lat="53.212882" lon="-3.994379"><ele>245</ele><time>2022-10-20T15:26:52Z</time><name>PT4450</name></trkpt>
<trkpt lat="53.212894" lon="-3.994368"><ele>244</ele><time>2022-10-20T15:26:55Z</time><name>PT4451</name></trkpt>
<trkpt lat="53.212922" lon="-3.994363"><ele>244</ele><time>2022-10-20T15:26:59Z</time><name>PT4452</name></trkpt>
<trkpt lat="53.212939" lon="-3.994363"><ele>242</ele><time>2022-10-20T15:27:03Z</time><name>PT4453</name></trkpt>
<trkpt lat="53.212955" lon="-3.994346"><ele>241</ele><time>2022-10-20T15:27:06Z</time><name>PT4454</name></trkpt>
<trkpt lat="53.212980" lon="-3.994336"><ele>242</ele><time>2022-10-20T15:27:10Z</time><name>PT4455</name></trkpt>
<trkpt lat="53.213004" lon="-3.994317"><ele>242</ele><time>2022-10-20T15:27:14Z</time><name>PT4456</name></trkpt>
<trkpt lat="53.213024" lon="-3.994309"><ele>241</ele><time>2022-10-20T15:27:17Z</time><name>PT4457</name></trkpt>
<trkpt lat="53.213042" lon="-3.994304"><ele>241</ele><time>2022-10-20T15:27:21Z</time><name>PT4458</name></trkpt>
<trkpt lat="53.213079" lon="-3.994301"><ele>240</ele><time>2022-10-20T15:27:25Z</time><name>PT4459</name></trkpt>
<trkpt lat="53.213104" lon="-3.994289"><ele>241</ele><time>2022-10-20T15:27:29Z</time><name>PT4460</name></trkpt>
<trkpt lat="53.213140" lon="-3.994286"><ele>239</ele><time>2022-10-20T15:27:33Z</time><name>PT4461</name></trkpt>
<trkpt lat="53.213163" lon="-3.994288"><ele>238</ele><time>2022-10-20T15:27:36Z</time><name>PT4462</name></trkpt>
<trkpt lat="53.213183" lon="-3.994293"><ele>237</ele><time>2022-10-20T15:27:39Z</time><name>PT4463</name></trkpt>
<trkpt lat="53.213204" lon="-3.994301"><ele>237</ele><time>2022-10-20T15:27:42Z</time><name>PT4464</name></trkpt>
<trkpt lat="53.213231" lon="-3.994303"><ele>235</ele><time>2022-10-20T15:27:46Z</time><name>PT4465</name></trkpt>
<trkpt lat="53.213254" lon="-3.994293"><ele>235</ele><time>2022-10-20T15:27:49Z</time><name>PT4466</name></trkpt>
<trkpt lat="53.213281" lon="-3.994286"><ele>233</ele><time>2022-10-20T15:27:53Z</time><name>PT4467</name></trkpt>
<trkpt lat="53.213317" lon="-3.994302"><ele>233</ele><time>2022-10-20T15:27:56Z</time><name>PT4468</name></trkpt>
<trkpt lat="53.213335" lon="-3.994315"><ele>233</ele><time>2022-10-20T15:27:59Z</time><name>PT4469</name></trkpt>
<trkpt lat="53.213352" lon="-3.994320"><ele>232</ele><time>2022-10-20T15:28:02Z</time><name>PT4470</name></trkpt>
<trkpt lat="53.213381" lon="-3.994339"><ele>234</ele><time>2022-10-20T15:28:06Z</time><name>PT4471</name></trkpt>
<trkpt lat="53.213408" lon="-3.994368"><ele>237</ele><time>2022-10-20T15:28:10Z</time><name>PT4472</name></trkpt>
<trkpt lat="53.213442" lon="-3.994389"><ele>236</ele><time>2022-10-20T15:28:13Z</time><name>PT4473</name></trkpt>
<trkpt lat="53.213464" lon="-3.994398"><ele>235</ele><time>2022-10-20T15:28:16Z</time><name>PT4474</name></trkpt>
<trkpt lat="53.213497" lon="-3.994405"><ele>233</ele><time>2022-10-20T15:28:19Z</time><name>PT4475</name></trkpt>
<trkpt lat="53.213522" lon="-3.994412"><ele>233</ele><time>2022-10-20T15:28:22Z</time><name>PT4476</name></trkpt>
<trkpt lat="53.213562" lon="-3.994428"><ele>233</ele><time>2022-10-20T15:28:26Z</time><name>PT4477</name></trkpt>
<trkpt lat="53.213588" lon="-3.994433"><ele>232</ele><time>2022-10-20T15:28:29Z</time><name>PT4478</name></trkpt>
<trkpt lat="53.213643" lon="-3.994456"><ele>230</ele><time>2022-10-20T15:28:32Z</time><name>PT4479</name></trkpt>
<trkpt lat="53.213671" lon="-3.994468"><ele>229</ele><time>2022-10-20T15:28:36Z</time><name>PT4480</name></trkpt>
<trkpt lat="53.213721" lon="-3.994514"><ele>229</ele><time>2022-10-20T15:28:39Z</time><name>PT4481</name></trkpt>
<trkpt lat="53.213751" lon="-3.994542"><ele>228</ele><time>2022-10-20T15:28:43Z</time><name>PT4482</name></trkpt>
<trkpt lat="53.213801" lon="-3.994558"><ele>228</ele><time>2022-10-20T15:28:47Z</time><name>PT4483</name></trkpt>
<trkpt lat="53.213832" lon="-3.994566"><ele>228</ele><time>2022-10-20T15:28:50Z</time><name>PT4484</name></trkpt>
<trkpt lat="53.213853" lon="-3.994583"><ele>228</ele><time>2022-10-20T15:28:53Z</time><name>PT4485</name></trkpt>
<trkpt lat="53.213903" lon="-3.994606"><ele>228</ele><time>2022-10-20T15:28:57Z</time><name>PT4486</name></trkpt>
<trkpt lat="53.213925" lon="-3.994628"><ele>229</ele><time>2022-10-20T15:29:00Z</time><name>PT4487</name></trkpt>
<trkpt lat="53.213929" lon="-3.994636"><ele>229</ele><time>2022-10-20T15:29:03Z</time><name>PT4488</name></trkpt>
<trkpt lat="53.213930" lon="-3.994631"><ele>229</ele><time>2022-10-20T15:29:07Z</time><name>PT4489</name></trkpt>
<trkpt lat="53.213940" lon="-3.994621"><ele>229</ele><time>2022-10-20T15:29:19Z</time><name>PT4490</name></trkpt>
<trkpt lat="53.213986" lon="-3.994639"><ele>228</ele><time>2022-10-20T15:29:23Z</time><name>PT4491</name></trkpt>
<trkpt lat="53.214030" lon="-3.994642"><ele>227</ele><time>2022-10-20T15:29:27Z</time><name>PT4492</name></trkpt>
<trkpt lat="53.214072" lon="-3.994646"><ele>227</ele><time>2022-10-20T15:29:31Z</time><name>PT4493</name></trkpt>
<trkpt lat="53.214108" lon="-3.994651"><ele>226</ele><time>2022-10-20T15:29:35Z</time><name>PT4494</name></trkpt>
<trkpt lat="53.214157" lon="-3.994662"><ele>227</ele><time>2022-10-20T15:29:38Z</time><name>PT4495</name></trkpt>
<trkpt lat="53.214178" lon="-3.994665"><ele>227</ele><time>2022-10-20T15:29:41Z</time><name>PT4496</name></trkpt>
<trkpt lat="53.214227" lon="-3.994694"><ele>227</ele><time>2022-10-20T15:29:44Z</time><name>PT4497</name></trkpt>
<trkpt lat="53.214271" lon="-3.994713"><ele>226</ele><time>2022-10-20T15:29:48Z</time><name>PT4498</name></trkpt>
<trkpt lat="53.214327" lon="-3.994732"><ele>226</ele><time>2022-10-20T15:29:52Z</time><name>PT4499</name></trkpt>
<trkpt lat="53.214347" lon="-3.994740"><ele>226</ele><time>2022-10-20T15:29:55Z</time><name>PT4500</name></trkpt>
<trkpt lat="53.214391" lon="-3.994753"><ele>225</ele><time>2022-10-20T15:29:58Z</time><name>PT4501</name></trkpt>
<trkpt lat="53.214435" lon="-3.994765"><ele>225</ele><time>2022-10-20T15:30:02Z</time><name>PT4502</name></trkpt>
<trkpt lat="53.214459" lon="-3.994784"><ele>224</ele><time>2022-10-20T15:30:05Z</time><name>PT4503</name></trkpt>
<trkpt lat="53.214510" lon="-3.994808"><ele>224</ele><time>2022-10-20T15:30:08Z</time><name>PT4504</name></trkpt>
<trkpt lat="53.214540" lon="-3.994815"><ele>224</ele><time>2022-10-20T15:30:11Z</time><name>PT4505</name></trkpt>
<trkpt lat="53.214582" lon="-3.994843"><ele>224</ele><time>2022-10-20T15:30:14Z</time><name>PT4506</name></trkpt>
<trkpt lat="53.214633" lon="-3.994855"><ele>223</ele><time>2022-10-20T15:30:18Z</time><name>PT4507</name></trkpt>
<trkpt lat="53.214700" lon="-3.994890"><ele>225</ele><time>2022-10-20T15:30:22Z</time><name>PT4508</name></trkpt>
<trkpt lat="53.214729" lon="-3.994899"><ele>225</ele><time>2022-10-20T15:30:25Z</time><name>PT4509</name></trkpt>
<trkpt lat="53.214776" lon="-3.994916"><ele>225</ele><time>2022-10-20T15:30:28Z</time><name>PT4510</name></trkpt>
<trkpt lat="53.214832" lon="-3.994932"><ele>225</ele><time>2022-10-20T15:30:32Z</time><name>PT4511</name></trkpt>
<trkpt lat="53.214867" lon="-3.994937"><ele>225</ele><time>2022-10-20T15:30:35Z</time><name>PT4512</name></trkpt>
<trkpt lat="53.214912" lon="-3.994939"><ele>225</ele><time>2022-10-20T15:30:39Z</time><name>PT4513</name></trkpt>
<trkpt lat="53.214962" lon="-3.994951"><ele>226</ele><time>2022-10-20T15:30:43Z</time><name>PT4514</name></trkpt>
<trkpt lat="53.215007" lon="-3.994963"><ele>225</ele><time>2022-10-20T15:30:47Z</time><name>PT4515</name></trkpt>
<trkpt lat="53.215044" lon="-3.994948"><ele>224</ele><time>2022-10-20T15:30:51Z</time><name>PT4516</name></trkpt>
<trkpt lat="53.215104" lon="-3.994933"><ele>223</ele><time>2022-10-20T15:30:55Z</time><name>PT4517</name></trkpt>
<trkpt lat="53.215135" lon="-3.994929"><ele>222</ele><time>2022-10-20T15:30:59Z</time><name>PT4518</name></trkpt>
<trkpt lat="53.215183" lon="-3.994944"><ele>223</ele><time>2022-10-20T15:31:02Z</time><name>PT4519</name></trkpt>
<trkpt lat="53.215230" lon="-3.994965"><ele>222</ele><time>2022-10-20T15:31:06Z</time><name>PT4520</name></trkpt>
<trkpt lat="53.215267" lon="-3.994985"><ele>222</ele><time>2022-10-20T15:31:10Z</time><name>PT4521</name></trkpt>
<trkpt lat="53.215326" lon="-3.995012"><ele>222</ele><time>2022-10-20T15:31:14Z</time><name>PT4522</name></trkpt>
<trkpt lat="53.215358" lon="-3.995015"><ele>220</ele><time>2022-10-20T15:31:17Z</time><name>PT4523</name></trkpt>
<trkpt lat="53.215400" lon="-3.995037"><ele>220</ele><time>2022-10-20T15:31:21Z</time><name>PT4524</name></trkpt>
<trkpt lat="53.215438" lon="-3.995052"><ele>220</ele><time>2022-10-20T15:31:24Z</time><name>PT4525</name></trkpt>
<trkpt lat="53.215469" lon="-3.995062"><ele>221</ele><time>2022-10-20T15:31:27Z</time><name>PT4526</name></trkpt>
<trkpt lat="53.215509" lon="-3.995078"><ele>222</ele><time>2022-10-20T15:31:30Z</time><name>PT4527</name></trkpt>
<trkpt lat="53.215551" lon="-3.995102"><ele>222</ele><time>2022-10-20T15:31:34Z</time><name>PT4528</name></trkpt>
<trkpt lat="53.215577" lon="-3.995115"><ele>222</ele><time>2022-10-20T15:31:37Z</time><name>PT4529</name></trkpt>
<trkpt lat="53.215625" lon="-3.995135"><ele>222</ele><time>2022-10-20T15:31:40Z</time><name>PT4530</name></trkpt>
<trkpt lat="53.215670" lon="-3.995156"><ele>223</ele><time>2022-10-20T15:31:44Z</time><name>PT4531</name></trkpt>
<trkpt lat="53.215701" lon="-3.995164"><ele>223</ele><time>2022-10-20T15:31:47Z</time><name>PT4532</name></trkpt>
<trkpt lat="53.215739" lon="-3.995178"><ele>222</ele><time>2022-10-20T15:31:50Z</time><name>PT4533</name></trkpt>
<trkpt lat="53.215781" lon="-3.995202"><ele>222</ele><time>2022-10-20T15:31:54Z</time><name>PT4534</name></trkpt>
<trkpt lat="53.215831" lon="-3.995238"><ele>223</ele><time>2022-10-20T15:31:58Z</time><name>PT4535</name></trkpt>
<trkpt lat="53.215874" lon="-3.995283"><ele>223</ele><time>2022-10-20T15:32:02Z</time><name>PT4536</name></trkpt>
<trkpt lat="53.215901" lon="-3.995295"><ele>222</ele><time>2022-10-20T15:32:05Z</time><name>PT4537</name></trkpt>
<trkpt lat="53.215944" lon="-3.995325"><ele>221</ele><time>2022-10-20T15:32:09Z</time><name>PT4538</name></trkpt>
<trkpt lat="53.215998" lon="-3.995373"><ele>220</ele><time>2022-10-20T15:32:13Z</time><name>PT4539</name></trkpt>
<trkpt lat="53.216020" lon="-3.995388"><ele>220</ele><time>2022-10-20T15:32:16Z</time><name>PT4540</name></trkpt>
<trkpt lat="53.216070" lon="-3.995426"><ele>220</ele><time>2022-10-20T15:32:19Z</time><name>PT4541</name></trkpt>
<trkpt lat="53.216108" lon="-3.995438"><ele>220</ele><time>2022-10-20T15:32:23Z</time><name>PT4542</name></trkpt>
<trkpt lat="53.216147" lon="-3.995447"><ele>220</ele><time>2022-10-20T15:32:26Z</time><name>PT4543</name></trkpt>
<trkpt lat="53.216178" lon="-3.995444"><ele>219</ele><time>2022-10-20T15:32:29Z</time><name>PT4544</name></trkpt>
<trkpt lat="53.216201" lon="-3.995439"><ele>218</ele><time>2022-10-20T15:32:32Z</time><name>PT4545</name></trkpt>
<trkpt lat="53.216248" lon="-3.995449"><ele>219</ele><time>2022-10-20T15:32:36Z</time><name>PT4546</name></trkpt>
<trkpt lat="53.216270" lon="-3.995452"><ele>218</ele><time>2022-10-20T15:32:39Z</time><name>PT4547</name></trkpt>
<trkpt lat="53.216320" lon="-3.995469"><ele>218</ele><time>2022-10-20T15:32:43Z</time><name>PT4548</name></trkpt>
<trkpt lat="53.216355" lon="-3.995476"><ele>217</ele><time>2022-10-20T15:32:47Z</time><name>PT4549</name></trkpt>
<trkpt lat="53.216403" lon="-3.995473"><ele>216</ele><time>2022-10-20T15:32:50Z</time><name>PT4550</name></trkpt>
<trkpt lat="53.216433" lon="-3.995470"><ele>216</ele><time>2022-10-20T15:32:53Z</time><name>PT4551</name></trkpt>
<trkpt lat="53.216483" lon="-3.995489"><ele>216</ele><time>2022-10-20T15:32:57Z</time><name>PT4552</name></trkpt>
<trkpt lat="53.216518" lon="-3.995501"><ele>215</ele><time>2022-10-20T15:33:01Z</time><name>PT4553</name></trkpt>
<trkpt lat="53.216552" lon="-3.995516"><ele>214</ele><time>2022-10-20T15:33:04Z</time><name>PT4554</name></trkpt>
<trkpt lat="53.216588" lon="-3.995529"><ele>214</ele><time>2022-10-20T15:33:08Z</time><name>PT4555</name></trkpt>
<trkpt lat="53.216608" lon="-3.995539"><ele>213</ele><time>2022-10-20T15:33:12Z</time><name>PT4556</name></trkpt>
<trkpt lat="53.216630" lon="-3.995575"><ele>213</ele><time>2022-10-20T15:33:15Z</time><name>PT4557</name></trkpt>
<trkpt lat="53.216654" lon="-3.995600"><ele>212</ele><time>2022-10-20T15:33:19Z</time><name>PT4558</name></trkpt>
<trkpt lat="53.216683" lon="-3.995620"><ele>212</ele><time>2022-10-20T15:33:23Z</time><name>PT4559</name></trkpt>
<trkpt lat="53.216719" lon="-3.995658"><ele>210</ele><time>2022-10-20T15:33:27Z</time><name>PT4560</name></trkpt>
<trkpt lat="53.216749" lon="-3.995684"><ele>210</ele><time>2022-10-20T15:33:30Z</time><name>PT4561</name></trkpt>
<trkpt lat="53.216775" lon="-3.995714"><ele>209</ele><time>2022-10-20T15:33:34Z</time><name>PT4562</name></trkpt>
<trkpt lat="53.216788" lon="-3.995738"><ele>207</ele><time>2022-10-20T15:33:37Z</time><name>PT4563</name></trkpt>
<trkpt lat="53.216832" lon="-3.995792"><ele>207</ele><time>2022-10-20T15:33:41Z</time><name>PT4564</name></trkpt>
<trkpt lat="53.216868" lon="-3.995814"><ele>206</ele><time>2022-10-20T15:33:45Z</time><name>PT4565</name></trkpt>
<trkpt lat="53.216900" lon="-3.995847"><ele>206</ele><time>2022-10-20T15:33:48Z</time><name>PT4566</name></trkpt>
<trkpt lat="53.216952" lon="-3.995887"><ele>206</ele><time>2022-10-20T15:33:52Z</time><name>PT4567</name></trkpt>
<trkpt lat="53.216988" lon="-3.995909"><ele>206</ele><time>2022-10-20T15:33:55Z</time><name>PT4568</name></trkpt>
<trkpt lat="53.217025" lon="-3.995935"><ele>205</ele><time>2022-10-20T15:33:58Z</time><name>PT4569</name></trkpt>
<trkpt lat="53.217062" lon="-3.995952"><ele>205</ele><time>2022-10-20T15:34:01Z</time><name>PT4570</name></trkpt>
<trkpt lat="53.217101" lon="-3.995981"><ele>205</ele><time>2022-10-20T15:34:05Z</time><name>PT4571</name></trkpt>
<trkpt lat="53.217129" lon="-3.996010"><ele>205</ele><time>2022-10-20T15:34:08Z</time><name>PT4572</name></trkpt>
<trkpt lat="53.217161" lon="-3.996039"><ele>205</ele><time>2022-10-20T15:34:12Z</time><name>PT4573</name></trkpt>
<trkpt lat="53.217193" lon="-3.996069"><ele>205</ele><time>2022-10-20T15:34:16Z</time><name>PT4574</name></trkpt>
<trkpt lat="53.217217" lon="-3.996090"><ele>205</ele><time>2022-10-20T15:34:19Z</time><name>PT4575</name></trkpt>
<trkpt lat="53.217258" lon="-3.996106"><ele>203</ele><time>2022-10-20T15:34:23Z</time><name>PT4576</name></trkpt>
<trkpt lat="53.217283" lon="-3.996119"><ele>201</ele><time>2022-10-20T15:34:26Z</time><name>PT4577</name></trkpt>
<trkpt lat="53.217324" lon="-3.996140"><ele>201</ele><time>2022-10-20T15:34:30Z</time><name>PT4578</name></trkpt>
<trkpt lat="53.217346" lon="-3.996140"><ele>199</ele><time>2022-10-20T15:34:33Z</time><name>PT4579</name></trkpt>
<trkpt lat="53.217370" lon="-3.996154"><ele>199</ele><time>2022-10-20T15:34:37Z</time><name>PT4580</name></trkpt>
<trkpt lat="53.217397" lon="-3.996167"><ele>199</ele><time>2022-10-20T15:34:40Z</time><name>PT4581</name></trkpt>
<trkpt lat="53.217440" lon="-3.996176"><ele>198</ele><time>2022-10-20T15:34:44Z</time><name>PT4582</name></trkpt>
<trkpt lat="53.217471" lon="-3.996180"><ele>198</ele><time>2022-10-20T15:34:47Z</time><name>PT4583</name></trkpt>
<trkpt lat="53.217523" lon="-3.996189"><ele>197</ele><time>2022-10-20T15:34:50Z</time><name>PT4584</name></trkpt>
<trkpt lat="53.217592" lon="-3.996240"><ele>199</ele><time>2022-10-20T15:34:53Z</time><name>PT4585</name></trkpt>
<trkpt lat="53.217643" lon="-3.996258"><ele>200</ele><time>2022-10-20T15:34:57Z</time><name>PT4586</name></trkpt>
<trkpt lat="53.217694" lon="-3.996278"><ele>200</ele><time>2022-10-20T15:35:00Z</time><name>PT4587</name></trkpt>
<trkpt lat="53.217729" lon="-3.996281"><ele>199</ele><time>2022-10-20T15:35:03Z</time><name>PT4588</name></trkpt>
<trkpt lat="53.217787" lon="-3.996292"><ele>198</ele><time>2022-10-20T15:35:07Z</time><name>PT4589</name></trkpt>
<trkpt lat="53.217826" lon="-3.996294"><ele>198</ele><time>2022-10-20T15:35:11Z</time><name>PT4590</name></trkpt>
<trkpt lat="53.217877" lon="-3.996303"><ele>199</ele><time>2022-10-20T15:35:15Z</time><name>PT4591</name></trkpt>
<trkpt lat="53.217917" lon="-3.996309"><ele>199</ele><time>2022-10-20T15:35:18Z</time><name>PT4592</name></trkpt>
<trkpt lat="53.217958" lon="-3.996308"><ele>199</ele><time>2022-10-20T15:35:22Z</time><name>PT4593</name></trkpt>
<trkpt lat="53.217995" lon="-3.996348"><ele>199</ele><time>2022-10-20T15:35:26Z</time><name>PT4594</name></trkpt>
<trkpt lat="53.218019" lon="-3.996382"><ele>200</ele><time>2022-10-20T15:35:29Z</time><name>PT4595</name></trkpt>
<trkpt lat="53.218048" lon="-3.996413"><ele>200</ele><time>2022-10-20T15:35:33Z</time><name>PT4596</name></trkpt>
<trkpt lat="53.218085" lon="-3.996450"><ele>200</ele><time>2022-10-20T15:35:36Z</time><name>PT4597</name></trkpt>
<trkpt lat="53.218122" lon="-3.996470"><ele>200</ele><time>2022-10-20T15:35:40Z</time><name>PT4598</name></trkpt>
<trkpt lat="53.218174" lon="-3.996520"><ele>201</ele><time>2022-10-20T15:35:44Z</time><name>PT4599</name></trkpt>
<trkpt lat="53.218203" lon="-3.996544"><ele>199</ele><time>2022-10-20T15:35:47Z</time><name>PT4600</name></trkpt>
<trkpt lat="53.218247" lon="-3.996574"><ele>199</ele><time>2022-10-20T15:35:50Z</time><name>PT4601</name></trkpt>
<trkpt lat="53.218274" lon="-3.996590"><ele>199</ele><time>2022-10-20T15:35:53Z</time><name>PT4602</name></trkpt>
<trkpt lat="53.218326" lon="-3.996628"><ele>199</ele><time>2022-10-20T15:35:57Z</time><name>PT4603</name></trkpt>
<trkpt lat="53.218375" lon="-3.996665"><ele>200</ele><time>2022-10-20T15:36:01Z</time><name>PT4604</name></trkpt>
<trkpt lat="53.218416" lon="-3.996694"><ele>199</ele><time>2022-10-20T15:36:05Z</time><name>PT4605</name></trkpt>
<trkpt lat="53.218468" lon="-3.996737"><ele>199</ele><time>2022-10-20T15:36:09Z</time><name>PT4606</name></trkpt>
<trkpt lat="53.218477" lon="-3.996742"><ele>198</ele><time>2022-10-20T15:36:12Z</time><name>PT4607</name></trkpt>
<trkpt lat="53.218536" lon="-3.996784"><ele>197</ele><time>2022-10-20T15:36:16Z</time><name>PT4608</name></trkpt>
<trkpt lat="53.218568" lon="-3.996810"><ele>196</ele><time>2022-10-20T15:36:20Z</time><name>PT4609</name></trkpt>
<trkpt lat="53.218630" lon="-3.996862"><ele>196</ele><time>2022-10-20T15:36:24Z</time><name>PT4610</name></trkpt>
<trkpt lat="53.218651" lon="-3.996876"><ele>196</ele><time>2022-10-20T15:36:27Z</time><name>PT4611</name></trkpt>
<trkpt lat="53.218698" lon="-3.996917"><ele>196</ele><time>2022-10-20T15:36:31Z</time><name>PT4612</name></trkpt>
<trkpt lat="53.218728" lon="-3.996942"><ele>195</ele><time>2022-10-20T15:36:34Z</time><name>PT4613</name></trkpt>
<trkpt lat="53.218766" lon="-3.996980"><ele>194</ele><time>2022-10-20T15:36:38Z</time><name>PT4614</name></trkpt>
<trkpt lat="53.218785" lon="-3.997005"><ele>193</ele><time>2022-10-20T15:36:41Z</time><name>PT4615</name></trkpt>
<trkpt lat="53.218830" lon="-3.997056"><ele>193</ele><time>2022-10-20T15:36:44Z</time><name>PT4616</name></trkpt>
<trkpt lat="53.218849" lon="-3.997079"><ele>192</ele><time>2022-10-20T15:36:48Z</time><name>PT4617</name></trkpt>
<trkpt lat="53.218892" lon="-3.997134"><ele>192</ele><time>2022-10-20T15:36:52Z</time><name>PT4618</name></trkpt>
<trkpt lat="53.218911" lon="-3.997153"><ele>191</ele><time>2022-10-20T15:36:55Z</time><name>PT4619</name></trkpt>
<trkpt lat="53.218954" lon="-3.997199"><ele>190</ele><time>2022-10-20T15:36:59Z</time><name>PT4620</name></trkpt>
<trkpt lat="53.218976" lon="-3.997223"><ele>189</ele><time>2022-10-20T15:37:02Z</time><name>PT4621</name></trkpt>
<trkpt lat="53.218987" lon="-3.997257"><ele>188</ele><time>2022-10-20T15:37:06Z</time><name>PT4622</name></trkpt>
<trkpt lat="53.219016" lon="-3.997302"><ele>188</ele><time>2022-10-20T15:37:09Z</time><name>PT4623</name></trkpt>
<trkpt lat="53.219026" lon="-3.997319"><ele>187</ele><time>2022-10-20T15:37:13Z</time><name>PT4624</name></trkpt>
<trkpt lat="53.219061" lon="-3.997338"><ele>187</ele><time>2022-10-20T15:37:17Z</time><name>PT4625</name></trkpt>
<trkpt lat="53.219087" lon="-3.997368"><ele>186</ele><time>2022-10-20T15:37:20Z</time><name>PT4626</name></trkpt>
<trkpt lat="53.219108" lon="-3.997400"><ele>185</ele><time>2022-10-20T15:37:23Z</time><name>PT4627</name></trkpt>
<trkpt lat="53.219140" lon="-3.997440"><ele>185</ele><time>2022-10-20T15:37:27Z</time><name>PT4628</name></trkpt>
<trkpt lat="53.219183" lon="-3.997488"><ele>184</ele><time>2022-10-20T15:37:31Z</time><name>PT4629</name></trkpt>
<trkpt lat="53.219214" lon="-3.997522"><ele>183</ele><time>2022-10-20T15:37:35Z</time><name>PT4630</name></trkpt>
<trkpt lat="53.219284" lon="-3.997588"><ele>184</ele><time>2022-10-20T15:37:39Z</time><name>PT4631</name></trkpt>
<trkpt lat="53.219304" lon="-3.997613"><ele>184</ele><time>2022-10-20T15:37:42Z</time><name>PT4632</name></trkpt>
<trkpt lat="53.219361" lon="-3.997674"><ele>184</ele><time>2022-10-20T15:37:46Z</time><name>PT4633</name></trkpt>
<trkpt lat="53.219386" lon="-3.997697"><ele>184</ele><time>2022-10-20T15:37:49Z</time><name>PT4634</name></trkpt>
<trkpt lat="53.219439" lon="-3.997751"><ele>183</ele><time>2022-10-20T15:37:53Z</time><name>PT4635</name></trkpt>
<trkpt lat="53.219461" lon="-3.997768"><ele>182</ele><time>2022-10-20T15:37:56Z</time><name>PT4636</name></trkpt>
<trkpt lat="53.219489" lon="-3.997809"><ele>181</ele><time>2022-10-20T15:38:00Z</time><name>PT4637</name></trkpt>
<trkpt lat="53.219522" lon="-3.997855"><ele>180</ele><time>2022-10-20T15:38:04Z</time><name>PT4638</name></trkpt>
<trkpt lat="53.219552" lon="-3.997895"><ele>179</ele><time>2022-10-20T15:38:08Z</time><name>PT4639</name></trkpt>
<trkpt lat="53.219598" lon="-3.997941"><ele>179</ele><time>2022-10-20T15:38:11Z</time><name>PT4640</name></trkpt>
<trkpt lat="53.219626" lon="-3.997978"><ele>177</ele><time>2022-10-20T15:38:15Z</time><name>PT4641</name></trkpt>
<trkpt lat="53.219668" lon="-3.998018"><ele>177</ele><time>2022-10-20T15:38:18Z</time><name>PT4642</name></trkpt>
<trkpt lat="53.219700" lon="-3.998041"><ele>177</ele><time>2022-10-20T15:38:21Z</time><name>PT4643</name></trkpt>
<trkpt lat="53.219729" lon="-3.998077"><ele>176</ele><time>2022-10-20T15:38:25Z</time><name>PT4644</name></trkpt>
<trkpt lat="53.219767" lon="-3.998106"><ele>175</ele><time>2022-10-20T15:38:28Z</time><name>PT4645</name></trkpt>
<trkpt lat="53.219792" lon="-3.998138"><ele>174</ele><time>2022-10-20T15:38:32Z</time><name>PT4646</name></trkpt>
<trkpt lat="53.219830" lon="-3.998177"><ele>174</ele><time>2022-10-20T15:38:35Z</time><name>PT4647</name></trkpt>
<trkpt lat="53.219839" lon="-3.998190"><ele>172</ele><time>2022-10-20T15:38:38Z</time><name>PT4648</name></trkpt>
<trkpt lat="53.219879" lon="-3.998236"><ele>172</ele><time>2022-10-20T15:38:42Z</time><name>PT4649</name></trkpt>
<trkpt lat="53.219912" lon="-3.998266"><ele>171</ele><time>2022-10-20T15:38:46Z</time><name>PT4650</name></trkpt>
<trkpt lat="53.219967" lon="-3.998318"><ele>170</ele><time>2022-10-20T15:38:50Z</time><name>PT4651</name></trkpt>
<trkpt lat="53.219996" lon="-3.998354"><ele>169</ele><time>2022-10-20T15:38:54Z</time><name>PT4652</name></trkpt>
<trkpt lat="53.220032" lon="-3.998398"><ele>169</ele><time>2022-10-20T15:38:57Z</time><name>PT4653</name></trkpt>
<trkpt lat="53.220060" lon="-3.998435"><ele>168</ele><time>2022-10-20T15:39:00Z</time><name>PT4654</name></trkpt>
<trkpt lat="53.220090" lon="-3.998471"><ele>167</ele><time>2022-10-20T15:39:03Z</time><name>PT4655</name></trkpt>
<trkpt lat="53.220132" lon="-3.998514"><ele>166</ele><time>2022-10-20T15:39:07Z</time><name>PT4656</name></trkpt>
<trkpt lat="53.220179" lon="-3.998562"><ele>164</ele><time>2022-10-20T15:39:11Z</time><name>PT4657</name></trkpt>
<trkpt lat="53.220234" lon="-3.998625"><ele>164</ele><time>2022-10-20T15:39:15Z</time><name>PT4658</name></trkpt>
<trkpt lat="53.220266" lon="-3.998668"><ele>164</ele><time>2022-10-20T15:39:19Z</time><name>PT4659</name></trkpt>
<trkpt lat="53.220316" lon="-3.998718"><ele>164</ele><time>2022-10-20T15:39:22Z</time><name>PT4660</name></trkpt>
<trkpt lat="53.220341" lon="-3.998746"><ele>163</ele><time>2022-10-20T15:39:26Z</time><name>PT4661</name></trkpt>
<trkpt lat="53.220391" lon="-3.998810"><ele>164</ele><time>2022-10-20T15:39:29Z</time><name>PT4662</name></trkpt>
<trkpt lat="53.220413" lon="-3.998836"><ele>164</ele><time>2022-10-20T15:39:32Z</time><name>PT4663</name></trkpt>
<trkpt lat="53.220445" lon="-3.998866"><ele>163</ele><time>2022-10-20T15:39:36Z</time><name>PT4664</name></trkpt>
<trkpt lat="53.220485" lon="-3.998897"><ele>162</ele><time>2022-10-20T15:39:40Z</time><name>PT4665</name></trkpt>
<trkpt lat="53.220542" lon="-3.998945"><ele>162</ele><time>2022-10-20T15:39:44Z</time><name>PT4666</name></trkpt>
<trkpt lat="53.220569" lon="-3.998982"><ele>161</ele><time>2022-10-20T15:39:48Z</time><name>PT4667</name></trkpt>
<trkpt lat="53.220631" lon="-3.999046"><ele>162</ele><time>2022-10-20T15:39:52Z</time><name>PT4668</name></trkpt>
<trkpt lat="53.220653" lon="-3.999071"><ele>162</ele><time>2022-10-20T15:39:56Z</time><name>PT4669</name></trkpt>
<trkpt lat="53.220713" lon="-3.999155"><ele>162</ele><time>2022-10-20T15:40:00Z</time><name>PT4670</name></trkpt>
<trkpt lat="53.220746" lon="-3.999171"><ele>160</ele><time>2022-10-20T15:40:04Z</time><name>PT4671</name></trkpt>
<trkpt lat="53.220793" lon="-3.999193"><ele>158</ele><time>2022-10-20T15:40:08Z</time><name>PT4672</name></trkpt>
<trkpt lat="53.220828" lon="-3.999202"><ele>158</ele><time>2022-10-20T15:40:12Z</time><name>PT4673</name></trkpt>
<trkpt lat="53.220866" lon="-3.999194"><ele>157</ele><time>2022-10-20T15:40:15Z</time><name>PT4674</name></trkpt>
<trkpt lat="53.220927" lon="-3.999185"><ele>158</ele><time>2022-10-20T15:40:18Z</time><name>PT4675</name></trkpt>
<trkpt lat="53.220955" lon="-3.999179"><ele>157</ele><time>2022-10-20T15:40:22Z</time><name>PT4676</name></trkpt>
<trkpt lat="53.221006" lon="-3.999201"><ele>158</ele><time>2022-10-20T15:40:25Z</time><name>PT4677</name></trkpt>
<trkpt lat="53.221049" lon="-3.999226"><ele>160</ele><time>2022-10-20T15:40:29Z</time><name>PT4678</name></trkpt>
<trkpt lat="53.221075" lon="-3.999237"><ele>158</ele><time>2022-10-20T15:40:32Z</time><name>PT4679</name></trkpt>
<trkpt lat="53.221133" lon="-3.999237"><ele>156</ele><time>2022-10-20T15:40:36Z</time><name>PT4680</name></trkpt>
<trkpt lat="53.221158" lon="-3.999240"><ele>153</ele><time>2022-10-20T15:40:40Z</time><name>PT4681</name></trkpt>
<trkpt lat="53.221219" lon="-3.999259"><ele>152</ele><time>2022-10-20T15:40:44Z</time><name>PT4682</name></trkpt>
<trkpt lat="53.221253" lon="-3.999266"><ele>151</ele><time>2022-10-20T15:40:48Z</time><name>PT4683</name></trkpt>
<trkpt lat="53.221339" lon="-3.999275"><ele>151</ele><time>2022-10-20T15:40:52Z</time><name>PT4684</name></trkpt>
<trkpt lat="53.221368" lon="-3.999279"><ele>151</ele><time>2022-10-20T15:40:55Z</time><name>PT4685</name></trkpt>
<trkpt lat="53.221434" lon="-3.999287"><ele>150</ele><time>2022-10-20T15:40:59Z</time><name>PT4686</name></trkpt>
<trkpt lat="53.221472" lon="-3.999288"><ele>150</ele><time>2022-10-20T15:41:02Z</time><name>PT4687</name></trkpt>
<trkpt lat="53.221523" lon="-3.999292"><ele>147</ele><time>2022-10-20T15:41:06Z</time><name>PT4688</name></trkpt>
<trkpt lat="53.221575" lon="-3.999305"><ele>147</ele><time>2022-10-20T15:41:09Z</time><name>PT4689</name></trkpt>
<trkpt lat="53.221616" lon="-3.999326"><ele>145</ele><time>2022-10-20T15:41:13Z</time><name>PT4690</name></trkpt>
<trkpt lat="53.221688" lon="-3.999370"><ele>146</ele><time>2022-10-20T15:41:17Z</time><name>PT4691</name></trkpt>
<trkpt lat="53.221717" lon="-3.999408"><ele>145</ele><time>2022-10-20T15:41:21Z</time><name>PT4692</name></trkpt>
<trkpt lat="53.221754" lon="-3.999462"><ele>145</ele><time>2022-10-20T15:41:25Z</time><name>PT4693</name></trkpt>
<trkpt lat="53.221795" lon="-3.999495"><ele>144</ele><time>2022-10-20T15:41:29Z</time><name>PT4694</name></trkpt>
<trkpt lat="53.221824" lon="-3.999513"><ele>144</ele><time>2022-10-20T15:41:32Z</time><name>PT4695</name></trkpt>
<trkpt lat="53.221843" lon="-3.999530"><ele>142</ele><time>2022-10-20T15:41:36Z</time><name>PT4696</name></trkpt>
<trkpt lat="53.221886" lon="-3.999550"><ele>141</ele><time>2022-10-20T15:41:39Z</time><name>PT4697</name></trkpt>
<trkpt lat="53.221913" lon="-3.999564"><ele>142</ele><time>2022-10-20T15:41:42Z</time><name>PT4698</name></trkpt>
<trkpt lat="53.221944" lon="-3.999580"><ele>142</ele><time>2022-10-20T15:41:45Z</time><name>PT4699</name></trkpt>
<trkpt lat="53.221974" lon="-3.999597"><ele>141</ele><time>2022-10-20T15:41:48Z</time><name>PT4700</name></trkpt>
<trkpt lat="53.222008" lon="-3.999606"><ele>140</ele><time>2022-10-20T15:41:52Z</time><name>PT4701</name></trkpt>
<trkpt lat="53.222049" lon="-3.999630"><ele>137</ele><time>2022-10-20T15:41:56Z</time><name>PT4702</name></trkpt>
<trkpt lat="53.222065" lon="-3.999648"><ele>135</ele><time>2022-10-20T15:41:59Z</time><name>PT4703</name></trkpt>
<trkpt lat="53.222093" lon="-3.999710"><ele>134</ele><time>2022-10-20T15:42:03Z</time><name>PT4704</name></trkpt>
<trkpt lat="53.222100" lon="-3.999749"><ele>134</ele><time>2022-10-20T15:42:07Z</time><name>PT4705</name></trkpt>
<trkpt lat="53.222116" lon="-3.999801"><ele>134</ele><time>2022-10-20T15:42:10Z</time><name>PT4706</name></trkpt>
<trkpt lat="53.222123" lon="-3.999814"><ele>133</ele><time>2022-10-20T15:42:13Z</time><name>PT4707</name></trkpt>
<trkpt lat="53.222148" lon="-3.999870"><ele>131</ele><time>2022-10-20T15:42:17Z</time><name>PT4708</name></trkpt>
<trkpt lat="53.222168" lon="-3.999908"><ele>131</ele><time>2022-10-20T15:42:21Z</time><name>PT4709</name></trkpt>
<trkpt lat="53.222185" lon="-3.999936"><ele>131</ele><time>2022-10-20T15:42:24Z</time><name>PT4710</name></trkpt>
<trkpt lat="53.222195" lon="-3.999947"><ele>130</ele><time>2022-10-20T15:42:28Z</time><name>PT4711</name></trkpt>
<trkpt lat="53.222195" lon="-3.999963"><ele>130</ele><time>2022-10-20T15:42:31Z</time><name>PT4712</name></trkpt>
<trkpt lat="53.222193" lon="-3.999976"><ele>131</ele><time>2022-10-20T15:42:34Z</time><name>PT4713</name></trkpt>
<trkpt lat="53.222191" lon="-3.999984"><ele>132</ele><time>2022-10-20T15:42:52Z</time><name>PT4714</name></trkpt>
<trkpt lat="53.222191" lon="-3.999995"><ele>132</ele><time>2022-10-20T15:42:56Z</time><name>PT4715</name></trkpt>
<trkpt lat="53.222190" lon="-3.999994"><ele>132</ele><time>2022-10-20T15:43:07Z</time><name>PT4716</name></trkpt>
<trkpt lat="53.222192" lon="-3.999994"><ele>131</ele><time>2022-10-20T15:43:10Z</time><name>PT4717</name></trkpt>
<trkpt lat="53.222195" lon="-4.000010"><ele>131</ele><time>2022-10-20T15:43:13Z</time><name>PT4718</name></trkpt>
<trkpt lat="53.222189" lon="-4.000018"><ele>131</ele><time>2022-10-20T15:43:17Z</time><name>PT4719</name></trkpt>
<trkpt lat="53.222183" lon="-4.000010"><ele>132</ele><time>2022-10-20T15:43:35Z</time><name>PT4720</name></trkpt>
<trkpt lat="53.222179" lon="-4.000004"><ele>131</ele><time>2022-10-20T15:43:38Z</time><name>PT4721</name></trkpt>
<trkpt lat="53.222180" lon="-4.000002"><ele>131</ele><time>2022-10-20T15:43:41Z</time><name>PT4722</name></trkpt>
<trkpt lat="53.222180" lon="-4.000014"><ele>133</ele><time>2022-10-20T15:43:44Z</time><name>PT4723</name></trkpt>
<trkpt lat="53.222180" lon="-4.000015"><ele>133</ele><time>2022-10-20T15:43:48Z</time><name>PT4724</name></trkpt>
<trkpt lat="53.222182" lon="-4.000020"><ele>132</ele><time>2022-10-20T15:43:51Z</time><name>PT4725</name></trkpt>
<trkpt lat="53.222183" lon="-3.999999"><ele>133</ele><time>2022-10-20T15:43:54Z</time><name>PT4726</name></trkpt>
<trkpt lat="53.222183" lon="-3.999994"><ele>133</ele><time>2022-10-20T15:43:58Z</time><name>PT4727</name></trkpt>
<trkpt lat="53.222187" lon="-3.999993"><ele>132</ele><time>2022-10-20T15:44:17Z</time><name>PT4728</name></trkpt>
<trkpt lat="53.222189" lon="-3.999996"><ele>132</ele><time>2022-10-20T15:44:20Z</time><name>PT4729</name></trkpt>
<trkpt lat="53.222194" lon="-4.000005"><ele>132</ele><time>2022-10-20T15:44:30Z</time><name>PT4730</name></trkpt>
<trkpt lat="53.222198" lon="-3.999993"><ele>132</ele><time>2022-10-20T15:44:34Z</time><name>PT4731</name></trkpt>
<trkpt lat="53.222199" lon="-3.999994"><ele>132</ele><time>2022-10-20T15:44:37Z</time><name>PT4732</name></trkpt>
<trkpt lat="53.222199" lon="-3.999995"><ele>132</ele><time>2022-10-20T15:44:44Z</time><name>PT4733</name></trkpt>
<trkpt lat="53.222198" lon="-4.000005"><ele>133</ele><time>2022-10-20T15:44:47Z</time><name>PT4734</name></trkpt>
<trkpt lat="53.222200" lon="-4.000004"><ele>133</ele><time>2022-10-20T15:44:51Z</time><name>PT4735</name></trkpt>
<trkpt lat="53.222203" lon="-4.000007"><ele>132</ele><time>2022-10-20T15:45:18Z</time><name>PT4736</name></trkpt>
<trkpt lat="53.222209" lon="-4.000033"><ele>132</ele><time>2022-10-20T15:45:21Z</time><name>PT4737</name></trkpt>
<trkpt lat="53.222198" lon="-4.000040"><ele>133</ele><time>2022-10-20T15:45:25Z</time><name>PT4738</name></trkpt>
<trkpt lat="53.222200" lon="-4.000062"><ele>131</ele><time>2022-10-20T15:45:29Z</time><name>PT4739</name></trkpt>
<trkpt lat="53.222207" lon="-4.000049"><ele>131</ele><time>2022-10-20T15:45:33Z</time><name>PT4740</name></trkpt>
<trkpt lat="53.222207" lon="-4.000050"><ele>131</ele><time>2022-10-20T15:45:40Z</time><name>PT4741</name></trkpt>
<trkpt lat="53.222239" lon="-4.000076"><ele>131</ele><time>2022-10-20T15:45:43Z</time><name>PT4742</name></trkpt>
<trkpt lat="53.222266" lon="-4.000101"><ele>131</ele><time>2022-10-20T15:45:46Z</time><name>PT4743</name></trkpt>
<trkpt lat="53.222307" lon="-4.000147"><ele>131</ele><time>2022-10-20T15:45:50Z</time><name>PT4744</name></trkpt>
<trkpt lat="53.222322" lon="-4.000173"><ele>131</ele><time>2022-10-20T15:45:53Z</time><name>PT4745</name></trkpt>
<trkpt lat="53.222356" lon="-4.000212"><ele>130</ele><time>2022-10-20T15:45:56Z</time><name>PT4746</name></trkpt>
<trkpt lat="53.222381" lon="-4.000266"><ele>128</ele><time>2022-10-20T15:46:00Z</time><name>PT4747</name></trkpt>
<trkpt lat="53.222405" lon="-4.000313"><ele>127</ele><time>2022-10-20T15:46:04Z</time><name>PT4748</name></trkpt>
<trkpt lat="53.222444" lon="-4.000384"><ele>127</ele><time>2022-10-20T15:46:08Z</time><name>PT4749</name></trkpt>
<trkpt lat="53.222451" lon="-4.000412"><ele>127</ele><time>2022-10-20T15:46:11Z</time><name>PT4750</name></trkpt>
<trkpt lat="53.222469" lon="-4.000482"><ele>127</ele><time>2022-10-20T15:46:15Z</time><name>PT4751</name></trkpt>
<trkpt lat="53.222481" lon="-4.000510"><ele>126</ele><time>2022-10-20T15:46:19Z</time><name>PT4752</name></trkpt>
<trkpt lat="53.222497" lon="-4.000581"><ele>125</ele><time>2022-10-20T15:46:23Z</time><name>PT4753</name></trkpt>
<trkpt lat="53.222501" lon="-4.000620"><ele>124</ele><time>2022-10-20T15:46:26Z</time><name>PT4754</name></trkpt>
<trkpt lat="53.222507" lon="-4.000691"><ele>123</ele><time>2022-10-20T15:46:30Z</time><name>PT4755</name></trkpt>
<trkpt lat="53.222515" lon="-4.000747"><ele>122</ele><time>2022-10-20T15:46:33Z</time><name>PT4756</name></trkpt>
<trkpt lat="53.222524" lon="-4.000807"><ele>121</ele><time>2022-10-20T15:46:36Z</time><name>PT4757</name></trkpt>
<trkpt lat="53.222535" lon="-4.000884"><ele>122</ele><time>2022-10-20T15:46:40Z</time><name>PT4758</name></trkpt>
<trkpt lat="53.222547" lon="-4.000955"><ele>124</ele><time>2022-10-20T15:46:43Z</time><name>PT4759</name></trkpt>
<trkpt lat="53.222566" lon="-4.001014"><ele>125</ele><time>2022-10-20T15:46:47Z</time><name>PT4760</name></trkpt>
<trkpt lat="53.222597" lon="-4.001054"><ele>125</ele><time>2022-10-20T15:46:51Z</time><name>PT4761</name></trkpt>
<trkpt lat="53.222629" lon="-4.001102"><ele>121</ele><time>2022-10-20T15:46:55Z</time><name>PT4762</name></trkpt>
<trkpt lat="53.222664" lon="-4.001143"><ele>120</ele><time>2022-10-20T15:46:59Z</time><name>PT4763</name></trkpt>
<trkpt lat="53.222691" lon="-4.001170"><ele>120</ele><time>2022-10-20T15:47:02Z</time><name>PT4764</name></trkpt>
<trkpt lat="53.222747" lon="-4.001198"><ele>120</ele><time>2022-10-20T15:47:06Z</time><name>PT4765</name></trkpt>
<trkpt lat="53.222766" lon="-4.001215"><ele>117</ele><time>2022-10-20T15:47:09Z</time><name>PT4766</name></trkpt>
<trkpt lat="53.222812" lon="-4.001239"><ele>117</ele><time>2022-10-20T15:47:13Z</time><name>PT4767</name></trkpt>
<trkpt lat="53.222858" lon="-4.001265"><ele>118</ele><time>2022-10-20T15:47:16Z</time><name>PT4768</name></trkpt>
<trkpt lat="53.222904" lon="-4.001296"><ele>119</ele><time>2022-10-20T15:47:20Z</time><name>PT4769</name></trkpt>
<trkpt lat="53.222952" lon="-4.001329"><ele>120</ele><time>2022-10-20T15:47:23Z</time><name>PT4770</name></trkpt>
<trkpt lat="53.222987" lon="-4.001345"><ele>121</ele><time>2022-10-20T15:47:26Z</time><name>PT4771</name></trkpt>
<trkpt lat="53.223042" lon="-4.001388"><ele>121</ele><time>2022-10-20T15:47:30Z</time><name>PT4772</name></trkpt>
<trkpt lat="53.223063" lon="-4.001411"><ele>120</ele><time>2022-10-20T15:47:33Z</time><name>PT4773</name></trkpt>
<trkpt lat="53.223109" lon="-4.001471"><ele>121</ele><time>2022-10-20T15:47:37Z</time><name>PT4774</name></trkpt>
<trkpt lat="53.223141" lon="-4.001509"><ele>120</ele><time>2022-10-20T15:47:40Z</time><name>PT4775</name></trkpt>
<trkpt lat="53.223173" lon="-4.001569"><ele>121</ele><time>2022-10-20T15:47:44Z</time><name>PT4776</name></trkpt>
<trkpt lat="53.223208" lon="-4.001628"><ele>120</ele><time>2022-10-20T15:47:48Z</time><name>PT4777</name></trkpt>
<trkpt lat="53.223235" lon="-4.001670"><ele>119</ele><time>2022-10-20T15:47:51Z</time><name>PT4778</name></trkpt>
<trkpt lat="53.223268" lon="-4.001727"><ele>118</ele><time>2022-10-20T15:47:55Z</time><name>PT4779</name></trkpt>
<trkpt lat="53.223308" lon="-4.001795"><ele>118</ele><time>2022-10-20T15:47:59Z</time><name>PT4780</name></trkpt>
<trkpt lat="53.223338" lon="-4.001842"><ele>117</ele><time>2022-10-20T15:48:03Z</time><name>PT4781</name></trkpt>
<trkpt lat="53.223375" lon="-4.001891"><ele>118</ele><time>2022-10-20T15:48:06Z</time><name>PT4782</name></trkpt>
<trkpt lat="53.223422" lon="-4.001935"><ele>119</ele><time>2022-10-20T15:48:10Z</time><name>PT4783</name></trkpt>
<trkpt lat="53.223477" lon="-4.001977"><ele>120</ele><time>2022-10-20T15:48:14Z</time><name>PT4784</name></trkpt>
<trkpt lat="53.223502" lon="-4.001993"><ele>119</ele><time>2022-10-20T15:48:17Z</time><name>PT4785</name></trkpt>
<trkpt lat="53.223567" lon="-4.002000"><ele>119</ele><time>2022-10-20T15:48:21Z</time><name>PT4786</name></trkpt>
<trkpt lat="53.223600" lon="-4.001998"><ele>117</ele><time>2022-10-20T15:48:25Z</time><name>PT4787</name></trkpt>
<trkpt lat="53.223658" lon="-4.001961"><ele>116</ele><time>2022-10-20T15:48:29Z</time><name>PT4788</name></trkpt>
<trkpt lat="53.223689" lon="-4.001945"><ele>115</ele><time>2022-10-20T15:48:33Z</time><name>PT4789</name></trkpt>
<trkpt lat="53.223745" lon="-4.001943"><ele>115</ele><time>2022-10-20T15:48:36Z</time><name>PT4790</name></trkpt>
<trkpt lat="53.223780" lon="-4.001937"><ele>114</ele><time>2022-10-20T15:48:39Z</time><name>PT4791</name></trkpt>
<trkpt lat="53.223802" lon="-4.001934"><ele>113</ele><time>2022-10-20T15:48:42Z</time><name>PT4792</name></trkpt>
<trkpt lat="53.223859" lon="-4.001929"><ele>113</ele><time>2022-10-20T15:48:46Z</time><name>PT4793</name></trkpt>
<trkpt lat="53.223905" lon="-4.001943"><ele>113</ele><time>2022-10-20T15:48:50Z</time><name>PT4794</name></trkpt>
<trkpt lat="53.223948" lon="-4.001955"><ele>113</ele><time>2022-10-20T15:48:54Z</time><name>PT4795</name></trkpt>
<trkpt lat="53.223984" lon="-4.001964"><ele>113</ele><time>2022-10-20T15:48:57Z</time><name>PT4796</name></trkpt>
<trkpt lat="53.224022" lon="-4.001964"><ele>112</ele><time>2022-10-20T15:49:01Z</time><name>PT4797</name></trkpt>
<trkpt lat="53.224064" lon="-4.001981"><ele>111</ele><time>2022-10-20T15:49:04Z</time><name>PT4798</name></trkpt>
<trkpt lat="53.224092" lon="-4.001985"><ele>109</ele><time>2022-10-20T15:49:08Z</time><name>PT4799</name></trkpt>
<trkpt lat="53.224152" lon="-4.001992"><ele>108</ele><time>2022-10-20T15:49:12Z</time><name>PT4800</name></trkpt>
<trkpt lat="53.224181" lon="-4.001995"><ele>107</ele><time>2022-10-20T15:49:16Z</time><name>PT4801</name></trkpt>
<trkpt lat="53.224232" lon="-4.001989"><ele>107</ele><time>2022-10-20T15:49:19Z</time><name>PT4802</name></trkpt>
<trkpt lat="53.224266" lon="-4.001985"><ele>107</ele><time>2022-10-20T15:49:23Z</time><name>PT4803</name></trkpt>
<trkpt lat="53.224325" lon="-4.001985"><ele>107</ele><time>2022-10-20T15:49:26Z</time><name>PT4804</name></trkpt>
<trkpt lat="53.224344" lon="-4.001975"><ele>105</ele><time>2022-10-20T15:49:30Z</time><name>PT4805</name></trkpt>
<trkpt lat="53.224396" lon="-4.001959"><ele>106</ele><time>2022-10-20T15:49:33Z</time><name>PT4806</name></trkpt>
<trkpt lat="53.224428" lon="-4.001952"><ele>105</ele><time>2022-10-20T15:49:37Z</time><name>PT4807</name></trkpt>
<trkpt lat="53.224470" lon="-4.001923"><ele>104</ele><time>2022-10-20T15:49:41Z</time><name>PT4808</name></trkpt>
<trkpt lat="53.224492" lon="-4.001899"><ele>103</ele><time>2022-10-20T15:49:44Z</time><name>PT4809</name></trkpt>
<trkpt lat="53.224546" lon="-4.001863"><ele>103</ele><time>2022-10-20T15:49:47Z</time><name>PT4810</name></trkpt>
<trkpt lat="53.224562" lon="-4.001848"><ele>103</ele><time>2022-10-20T15:49:50Z</time><name>PT4811</name></trkpt>
<trkpt lat="53.224608" lon="-4.001826"><ele>103</ele><time>2022-10-20T15:49:53Z</time><name>PT4812</name></trkpt>
<trkpt lat="53.224642" lon="-4.001792"><ele>101</ele><time>2022-10-20T15:49:56Z</time><name>PT4813</name></trkpt>
<trkpt lat="53.224680" lon="-4.001779"><ele>100</ele><time>2022-10-20T15:50:00Z</time><name>PT4814</name></trkpt>
<trkpt lat="53.224732" lon="-4.001756"><ele>99</ele><time>2022-10-20T15:50:03Z</time><name>PT4815</name></trkpt>
<trkpt lat="53.224757" lon="-4.001748"><ele>97</ele><time>2022-10-20T15:50:06Z</time><name>PT4816</name></trkpt>
<trkpt lat="53.224828" lon="-4.001744"><ele>97</ele><time>2022-10-20T15:50:10Z</time><name>PT4817</name></trkpt>
<trkpt lat="53.224845" lon="-4.001742"><ele>95</ele><time>2022-10-20T15:50:13Z</time><name>PT4818</name></trkpt>
<trkpt lat="53.224905" lon="-4.001751"><ele>96</ele><time>2022-10-20T15:50:17Z</time><name>PT4819</name></trkpt>
<trkpt lat="53.224943" lon="-4.001773"><ele>93</ele><time>2022-10-20T15:50:20Z</time><name>PT4820</name></trkpt>
<trkpt lat="53.224991" lon="-4.001757"><ele>94</ele><time>2022-10-20T15:50:23Z</time><name>PT4821</name></trkpt>
<trkpt lat="53.225025" lon="-4.001769"><ele>94</ele><time>2022-10-20T15:50:27Z</time><name>PT4822</name></trkpt>
<trkpt lat="53.225064" lon="-4.001773"><ele>94</ele><time>2022-10-20T15:50:30Z</time><name>PT4823</name></trkpt>
<trkpt lat="53.225092" lon="-4.001773"><ele>92</ele><time>2022-10-20T15:50:34Z</time><name>PT4824</name></trkpt>
<trkpt lat="53.225157" lon="-4.001758"><ele>90</ele><time>2022-10-20T15:50:38Z</time><name>PT4825</name></trkpt>
<trkpt lat="53.225172" lon="-4.001757"><ele>89</ele><time>2022-10-20T15:50:41Z</time><name>PT4826</name></trkpt>
<trkpt lat="53.225250" lon="-4.001733"><ele>89</ele><time>2022-10-20T15:50:45Z</time><name>PT4827</name></trkpt>
<trkpt lat="53.225273" lon="-4.001734"><ele>87</ele><time>2022-10-20T15:50:48Z</time><name>PT4828</name></trkpt>
<trkpt lat="53.225324" lon="-4.001738"><ele>85</ele><time>2022-10-20T15:50:52Z</time><name>PT4829</name></trkpt>
<trkpt lat="53.225348" lon="-4.001711"><ele>88</ele><time>2022-10-20T15:50:56Z</time><name>PT4830</name></trkpt>
<trkpt lat="53.225399" lon="-4.001701"><ele>89</ele><time>2022-10-20T15:50:59Z</time><name>PT4831</name></trkpt>
<trkpt lat="53.225427" lon="-4.001697"><ele>88</ele><time>2022-10-20T15:51:02Z</time><name>PT4832</name></trkpt>
<trkpt lat="53.225506" lon="-4.001698"><ele>91</ele><time>2022-10-20T15:51:06Z</time><name>PT4833</name></trkpt>
<trkpt lat="53.225541" lon="-4.001696"><ele>90</ele><time>2022-10-20T15:51:10Z</time><name>PT4834</name></trkpt>
<trkpt lat="53.225580" lon="-4.001696"><ele>89</ele><time>2022-10-20T15:51:14Z</time><name>PT4835</name></trkpt>
<trkpt lat="53.225616" lon="-4.001723"><ele>90</ele><time>2022-10-20T15:51:17Z</time><name>PT4836</name></trkpt>
<trkpt lat="53.225658" lon="-4.001767"><ele>90</ele><time>2022-10-20T15:51:21Z</time><name>PT4837</name></trkpt>
<trkpt lat="53.225721" lon="-4.001819"><ele>89</ele><time>2022-10-20T15:51:25Z</time><name>PT4838</name></trkpt>
<trkpt lat="53.225734" lon="-4.001834"><ele>87</ele><time>2022-10-20T15:51:28Z</time><name>PT4839</name></trkpt>
<trkpt lat="53.225777" lon="-4.001886"><ele>87</ele><time>2022-10-20T15:51:31Z</time><name>PT4840</name></trkpt>
<trkpt lat="53.225802" lon="-4.001908"><ele>86</ele><time>2022-10-20T15:51:35Z</time><name>PT4841</name></trkpt>
<trkpt lat="53.225825" lon="-4.001953"><ele>86</ele><time>2022-10-20T15:51:38Z</time><name>PT4842</name></trkpt>
<trkpt lat="53.225850" lon="-4.001996"><ele>86</ele><time>2022-10-20T15:51:41Z</time><name>PT4843</name></trkpt>
<trkpt lat="53.225875" lon="-4.002055"><ele>86</ele><time>2022-10-20T15:51:45Z</time><name>PT4844</name></trkpt>
<trkpt lat="53.225896" lon="-4.002091"><ele>86</ele><time>2022-10-20T15:51:48Z</time><name>PT4845</name></trkpt>
<trkpt lat="53.225921" lon="-4.002154"><ele>86</ele><time>2022-10-20T15:51:51Z</time><name>PT4846</name></trkpt>
<trkpt lat="53.225962" lon="-4.002211"><ele>85</ele><time>2022-10-20T15:51:55Z</time><name>PT4847</name></trkpt>
<trkpt lat="53.225983" lon="-4.002249"><ele>84</ele><time>2022-10-20T15:51:58Z</time><name>PT4848</name></trkpt>
<trkpt lat="53.225994" lon="-4.002250"><ele>85</ele><time>2022-10-20T15:52:01Z</time><name>PT4849</name></trkpt>
<trkpt lat="53.226003" lon="-4.002265"><ele>86</ele><time>2022-10-20T15:52:04Z</time><name>PT4850</name></trkpt>
<trkpt lat="53.226004" lon="-4.002286"><ele>85</ele><time>2022-10-20T15:52:08Z</time><name>PT4851</name></trkpt>
<trkpt lat="53.226037" lon="-4.002347"><ele>85</ele><time>2022-10-20T15:52:12Z</time><name>PT4852</name></trkpt>
<trkpt lat="53.226060" lon="-4.002391"><ele>85</ele><time>2022-10-20T15:52:15Z</time><name>PT4853</name></trkpt>
<trkpt lat="53.226072" lon="-4.002421"><ele>84</ele><time>2022-10-20T15:52:18Z</time><name>PT4854</name></trkpt>
<trkpt lat="53.226097" lon="-4.002500"><ele>84</ele><time>2022-10-20T15:52:22Z</time><name>PT4855</name></trkpt>
<trkpt lat="53.226101" lon="-4.002548"><ele>82</ele><time>2022-10-20T15:52:25Z</time><name>PT4856</name></trkpt>
<trkpt lat="53.226128" lon="-4.002616"><ele>80</ele><time>2022-10-20T15:52:29Z</time><name>PT4857</name></trkpt>
<trkpt lat="53.226165" lon="-4.002683"><ele>80</ele><time>2022-10-20T15:52:33Z</time><name>PT4858</name></trkpt>
<trkpt lat="53.226199" lon="-4.002729"><ele>81</ele><time>2022-10-20T15:52:36Z</time><name>PT4859</name></trkpt>
<trkpt lat="53.226227" lon="-4.002773"><ele>80</ele><time>2022-10-20T15:52:40Z</time><name>PT4860</name></trkpt>
<trkpt lat="53.226266" lon="-4.002848"><ele>80</ele><time>2022-10-20T15:52:44Z</time><name>PT4861</name></trkpt>
<trkpt lat="53.226282" lon="-4.002880"><ele>79</ele><time>2022-10-20T15:52:47Z</time><name>PT4862</name></trkpt>
<trkpt lat="53.226325" lon="-4.002944"><ele>80</ele><time>2022-10-20T15:52:50Z</time><name>PT4863</name></trkpt>
<trkpt lat="53.226342" lon="-4.002960"><ele>80</ele><time>2022-10-20T15:52:53Z</time><name>PT4864</name></trkpt>
<trkpt lat="53.226398" lon="-4.003023"><ele>80</ele><time>2022-10-20T15:52:57Z</time><name>PT4865</name></trkpt>
<trkpt lat="53.226445" lon="-4.003058"><ele>80</ele><time>2022-10-20T15:53:01Z</time><name>PT4866</name></trkpt>
<trkpt lat="53.226485" lon="-4.003098"><ele>79</ele><time>2022-10-20T15:53:04Z</time><name>PT4867</name></trkpt>
<trkpt lat="53.226513" lon="-4.003119"><ele>78</ele><time>2022-10-20T15:53:08Z</time><name>PT4868</name></trkpt>
<trkpt lat="53.226553" lon="-4.003163"><ele>78</ele><time>2022-10-20T15:53:11Z</time><name>PT4869</name></trkpt>
<trkpt lat="53.226565" lon="-4.003177"><ele>77</ele><time>2022-10-20T15:53:14Z</time><name>PT4870</name></trkpt>
<trkpt lat="53.226603" lon="-4.003205"><ele>76</ele><time>2022-10-20T15:53:17Z</time><name>PT4871</name></trkpt>
<trkpt lat="53.226641" lon="-4.003233"><ele>74</ele><time>2022-10-20T15:53:20Z</time><name>PT4872</name></trkpt>
<trkpt lat="53.226698" lon="-4.003253"><ele>75</ele><time>2022-10-20T15:53:24Z</time><name>PT4873</name></trkpt>
<trkpt lat="53.226705" lon="-4.003278"><ele>77</ele><time>2022-10-20T15:53:27Z</time><name>PT4874</name></trkpt>
<trkpt lat="53.226723" lon="-4.003278"><ele>76</ele><time>2022-10-20T15:53:31Z</time><name>PT4875</name></trkpt>
<trkpt lat="53.226751" lon="-4.003263"><ele>75</ele><time>2022-10-20T15:53:35Z</time><name>PT4876</name></trkpt>
<trkpt lat="53.226783" lon="-4.003280"><ele>75</ele><time>2022-10-20T15:53:38Z</time><name>PT4877</name></trkpt>
<trkpt lat="53.226837" lon="-4.003312"><ele>74</ele><time>2022-10-20T15:53:42Z</time><name>PT4878</name></trkpt>
<trkpt lat="53.226853" lon="-4.003343"><ele>74</ele><time>2022-10-20T15:53:45Z</time><name>PT4879</name></trkpt>
<trkpt lat="53.226890" lon="-4.003402"><ele>73</ele><time>2022-10-20T15:53:49Z</time><name>PT4880</name></trkpt>
<trkpt lat="53.226934" lon="-4.003456"><ele>71</ele><time>2022-10-20T15:53:53Z</time><name>PT4881</name></trkpt>
<trkpt lat="53.226942" lon="-4.003490"><ele>71</ele><time>2022-10-20T15:53:56Z</time><name>PT4882</name></trkpt>
<trkpt lat="53.226951" lon="-4.003517"><ele>74</ele><time>2022-10-20T15:53:59Z</time><name>PT4883</name></trkpt>
<trkpt lat="53.226973" lon="-4.003589"><ele>73</ele><time>2022-10-20T15:54:03Z</time><name>PT4884</name></trkpt>
<trkpt lat="53.226996" lon="-4.003643"><ele>71</ele><time>2022-10-20T15:54:07Z</time><name>PT4885</name></trkpt>
<trkpt lat="53.227031" lon="-4.003724"><ele>73</ele><time>2022-10-20T15:54:11Z</time><name>PT4886</name></trkpt>
<trkpt lat="53.227044" lon="-4.003765"><ele>73</ele><time>2022-10-20T15:54:14Z</time><name>PT4887</name></trkpt>
<trkpt lat="53.227080" lon="-4.003808"><ele>73</ele><time>2022-10-20T15:54:17Z</time><name>PT4888</name></trkpt>
<trkpt lat="53.227102" lon="-4.003834"><ele>73</ele><time>2022-10-20T15:54:20Z</time><name>PT4889</name></trkpt>
<trkpt lat="53.227144" lon="-4.003866"><ele>73</ele><time>2022-10-20T15:54:23Z</time><name>PT4890</name></trkpt>
<trkpt lat="53.227188" lon="-4.003876"><ele>71</ele><time>2022-10-20T15:54:27Z</time><name>PT4891</name></trkpt>
<trkpt lat="53.227253" lon="-4.003905"><ele>70</ele><time>2022-10-20T15:54:31Z</time><name>PT4892</name></trkpt>
<trkpt lat="53.227300" lon="-4.003930"><ele>70</ele><time>2022-10-20T15:54:35Z</time><name>PT4893</name></trkpt>
<trkpt lat="53.227355" lon="-4.003947"><ele>70</ele><time>2022-10-20T15:54:39Z</time><name>PT4894</name></trkpt>
<trkpt lat="53.227421" lon="-4.003979"><ele>70</ele><time>2022-10-20T15:54:43Z</time><name>PT4895</name></trkpt>
<trkpt lat="53.227463" lon="-4.004003"><ele>72</ele><time>2022-10-20T15:54:46Z</time><name>PT4896</name></trkpt>
<trkpt lat="53.227502" lon="-4.004018"><ele>71</ele><time>2022-10-20T15:54:49Z</time><name>PT4897</name></trkpt>
<trkpt lat="53.227549" lon="-4.004037"><ele>71</ele><time>2022-10-20T15:54:52Z</time><name>PT4898</name></trkpt>
<trkpt lat="53.227586" lon="-4.004057"><ele>71</ele><time>2022-10-20T15:54:56Z</time><name>PT4899</name></trkpt>
<trkpt lat="53.227644" lon="-4.004068"><ele>70</ele><time>2022-10-20T15:55:00Z</time><name>PT4900</name></trkpt>
<trkpt lat="53.227682" lon="-4.004093"><ele>70</ele><time>2022-10-20T15:55:04Z</time><name>PT4901</name></trkpt>
<trkpt lat="53.227735" lon="-4.004110"><ele>69</ele><time>2022-10-20T15:55:08Z</time><name>PT4902</name></trkpt>
<trkpt lat="53.227786" lon="-4.004135"><ele>68</ele><time>2022-10-20T15:55:12Z</time><name>PT4903</name></trkpt>
<trkpt lat="53.227822" lon="-4.004149"><ele>67</ele><time>2022-10-20T15:55:15Z</time><name>PT4904</name></trkpt>
<trkpt lat="53.227848" lon="-4.004161"><ele>67</ele><time>2022-10-20T15:55:18Z</time><name>PT4905</name></trkpt>
<trkpt lat="53.227908" lon="-4.004189"><ele>69</ele><time>2022-10-20T15:55:22Z</time><name>PT4906</name></trkpt>
<trkpt lat="53.227944" lon="-4.004217"><ele>73</ele><time>2022-10-20T15:55:26Z</time><name>PT4907</name></trkpt>
<trkpt lat="53.227989" lon="-4.004246"><ele>75</ele><time>2022-10-20T15:55:30Z</time><name>PT4908</name></trkpt>
<trkpt lat="53.228051" lon="-4.004288"><ele>76</ele><time>2022-10-20T15:55:34Z</time><name>PT4909</name></trkpt>
<trkpt lat="53.228105" lon="-4.004338"><ele>76</ele><time>2022-10-20T15:55:38Z</time><name>PT4910</name></trkpt>
<trkpt lat="53.228166" lon="-4.004389"><ele>74</ele><time>2022-10-20T15:55:42Z</time><name>PT4911</name></trkpt>
<trkpt lat="53.228193" lon="-4.004417"><ele>73</ele><time>2022-10-20T15:55:45Z</time><name>PT4912</name></trkpt>
<trkpt lat="53.228220" lon="-4.004500"><ele>72</ele><time>2022-10-20T15:55:49Z</time><name>PT4913</name></trkpt>
<trkpt lat="53.228236" lon="-4.004557"><ele>71</ele><time>2022-10-20T15:55:52Z</time><name>PT4914</name></trkpt>
<trkpt lat="53.228242" lon="-4.004611"><ele>71</ele><time>2022-10-20T15:55:55Z</time><name>PT4915</name></trkpt>
<trkpt lat="53.228248" lon="-4.004692"><ele>72</ele><time>2022-10-20T15:55:59Z</time><name>PT4916</name></trkpt>
<trkpt lat="53.228242" lon="-4.004752"><ele>72</ele><time>2022-10-20T15:56:02Z</time><name>PT4917</name></trkpt>
<trkpt lat="53.228237" lon="-4.004820"><ele>73</ele><time>2022-10-20T15:56:05Z</time><name>PT4918</name></trkpt>
<trkpt lat="53.228220" lon="-4.004900"><ele>73</ele><time>2022-10-20T15:56:09Z</time><name>PT4919</name></trkpt>
<trkpt lat="53.228208" lon="-4.004958"><ele>73</ele><time>2022-10-20T15:56:12Z</time><name>PT4920</name></trkpt></trkseg></trk></gpx>